<?xml version="1.0" encoding="UTF-8" standalone="no" ?>
<gpx xmlns="http://www.topografix.com/GPX/1/1" xmlns:xsi="http://www.w3.org/2001/XMLSchema-instance" xsi:schemaLocation="http://www.topografix.com/GPX/1/1 http://www.topografix.com/GPX/1/1/gpx.xsd" version="1.1" creator="VisuGPX - https://www.visugpx.com">
  <metadata>
    <name>Pic des Mouches / Concors</name>
    <desc><![CDATA[Pic des Mouches / Concors]]></desc>
  </metadata>
  <trk>
    <name><![CDATA[2014-05-18-05-49-37 on GPSies.com]]></name>
    <trkseg>
      <trkpt lat="43.63678" lon="5.50759">
        <ele>270.001</ele>
        <time>2014-05-18T05:50:26Z</time>
      </trkpt>
      <trkpt lat="43.63677" lon="5.50759">
        <ele>270.041</ele>
        <time>2014-05-18T05:50:31Z</time>
      </trkpt>
      <trkpt lat="43.63659" lon="5.50756">
        <ele>266.721</ele>
        <time>2014-05-18T05:50:38Z</time>
      </trkpt>
      <trkpt lat="43.63659" lon="5.50751">
        <ele>263.24</ele>
        <time>2014-05-18T05:50:48Z</time>
      </trkpt>
      <trkpt lat="43.63656" lon="5.5078">
        <ele>251.65</ele>
        <time>2014-05-18T05:50:56Z</time>
      </trkpt>
      <trkpt lat="43.6366" lon="5.5075">
        <ele>248.669</ele>
        <time>2014-05-18T05:51:01Z</time>
      </trkpt>
      <trkpt lat="43.6366" lon="5.50748">
        <ele>244.459</ele>
        <time>2014-05-18T05:51:09Z</time>
      </trkpt>
      <trkpt lat="43.63656" lon="5.5078">
        <ele>242.691</ele>
        <time>2014-05-18T05:52:03Z</time>
      </trkpt>
      <trkpt lat="43.63703" lon="5.50682">
        <ele>242.12</ele>
        <time>2014-05-18T05:52:08Z</time>
      </trkpt>
      <trkpt lat="43.63696" lon="5.5068">
        <ele>241.411</ele>
        <time>2014-05-18T05:52:21Z</time>
      </trkpt>
      <trkpt lat="43.63659" lon="5.50753">
        <ele>241.27</ele>
        <time>2014-05-18T05:52:27Z</time>
      </trkpt>
      <trkpt lat="43.6366" lon="5.50749">
        <ele>242.101</ele>
        <time>2014-05-18T05:52:35Z</time>
      </trkpt>
      <trkpt lat="43.63659" lon="5.50754">
        <ele>243.67</ele>
        <time>2014-05-18T05:52:54Z</time>
      </trkpt>
      <trkpt lat="43.63656" lon="5.5078">
        <ele>244.672</ele>
        <time>2014-05-18T05:53:03Z</time>
      </trkpt>
      <trkpt lat="43.63657" lon="5.50764">
        <ele>246.724</ele>
        <time>2014-05-18T05:53:07Z</time>
      </trkpt>
      <trkpt lat="43.63656" lon="5.50781">
        <ele>247.242</ele>
        <time>2014-05-18T05:53:14Z</time>
      </trkpt>
      <trkpt lat="43.63655" lon="5.50788">
        <ele>244.829</ele>
        <time>2014-05-18T05:53:25Z</time>
      </trkpt>
      <trkpt lat="43.63654" lon="5.50802">
        <ele>243.699</ele>
        <time>2014-05-18T05:53:28Z</time>
      </trkpt>
      <trkpt lat="43.63656" lon="5.50835">
        <ele>242.439</ele>
        <time>2014-05-18T05:53:33Z</time>
      </trkpt>
      <trkpt lat="43.63663" lon="5.50882">
        <ele>241.86</ele>
        <time>2014-05-18T05:53:40Z</time>
      </trkpt>
      <trkpt lat="43.63676" lon="5.50912">
        <ele>242.051</ele>
        <time>2014-05-18T05:53:45Z</time>
      </trkpt>
      <trkpt lat="43.63684" lon="5.50951">
        <ele>243.041</ele>
        <time>2014-05-18T05:53:51Z</time>
      </trkpt>
      <trkpt lat="43.63684" lon="5.50957">
        <ele>243.412</ele>
        <time>2014-05-18T05:53:52Z</time>
      </trkpt>
      <trkpt lat="43.63678" lon="5.5099">
        <ele>245.262</ele>
        <time>2014-05-18T05:53:59Z</time>
      </trkpt>
      <trkpt lat="43.63673" lon="5.51007">
        <ele>246.782</ele>
        <time>2014-05-18T05:54:06Z</time>
      </trkpt>
      <trkpt lat="43.63662" lon="5.51041">
        <ele>247.391</ele>
        <time>2014-05-18T05:54:12Z</time>
      </trkpt>
      <trkpt lat="43.63656" lon="5.51094">
        <ele>247.341</ele>
        <time>2014-05-18T05:54:23Z</time>
      </trkpt>
      <trkpt lat="43.63647" lon="5.51124">
        <ele>248.592</ele>
        <time>2014-05-18T05:54:29Z</time>
      </trkpt>
      <trkpt lat="43.6363" lon="5.51137">
        <ele>251.443</ele>
        <time>2014-05-18T05:54:35Z</time>
      </trkpt>
      <trkpt lat="43.63605" lon="5.51161">
        <ele>254.582</ele>
        <time>2014-05-18T05:54:45Z</time>
      </trkpt>
      <trkpt lat="43.63585" lon="5.51186">
        <ele>256.302</ele>
        <time>2014-05-18T05:54:54Z</time>
      </trkpt>
      <trkpt lat="43.63561" lon="5.51214">
        <ele>258.613</ele>
        <time>2014-05-18T05:55:04Z</time>
      </trkpt>
      <trkpt lat="43.63543" lon="5.51237">
        <ele>259.762</ele>
        <time>2014-05-18T05:55:12Z</time>
      </trkpt>
      <trkpt lat="43.63527" lon="5.51258">
        <ele>262.335</ele>
        <time>2014-05-18T05:55:19Z</time>
      </trkpt>
      <trkpt lat="43.63517" lon="5.51272">
        <ele>262.731</ele>
        <time>2014-05-18T05:55:24Z</time>
      </trkpt>
      <trkpt lat="43.63508" lon="5.51282">
        <ele>261.33</ele>
        <time>2014-05-18T05:55:28Z</time>
      </trkpt>
      <trkpt lat="43.63502" lon="5.51292">
        <ele>260.73</ele>
        <time>2014-05-18T05:55:30Z</time>
      </trkpt>
      <trkpt lat="43.63491" lon="5.51327">
        <ele>260.031</ele>
        <time>2014-05-18T05:55:36Z</time>
      </trkpt>
      <trkpt lat="43.63487" lon="5.51347">
        <ele>259.36</ele>
        <time>2014-05-18T05:55:39Z</time>
      </trkpt>
      <trkpt lat="43.63492" lon="5.51373">
        <ele>258.73</ele>
        <time>2014-05-18T05:55:43Z</time>
      </trkpt>
      <trkpt lat="43.63503" lon="5.51393">
        <ele>258.54</ele>
        <time>2014-05-18T05:55:46Z</time>
      </trkpt>
      <trkpt lat="43.63501" lon="5.51412">
        <ele>258.371</ele>
        <time>2014-05-18T05:55:49Z</time>
      </trkpt>
      <trkpt lat="43.63502" lon="5.51457">
        <ele>258.711</ele>
        <time>2014-05-18T05:55:56Z</time>
      </trkpt>
      <trkpt lat="43.63504" lon="5.51486">
        <ele>259.982</ele>
        <time>2014-05-18T05:56:02Z</time>
      </trkpt>
      <trkpt lat="43.635" lon="5.51517">
        <ele>262.593</ele>
        <time>2014-05-18T05:56:11Z</time>
      </trkpt>
      <trkpt lat="43.63495" lon="5.51541">
        <ele>265.803</ele>
        <time>2014-05-18T05:56:20Z</time>
      </trkpt>
      <trkpt lat="43.6349" lon="5.5157">
        <ele>269.173</ele>
        <time>2014-05-18T05:56:31Z</time>
      </trkpt>
      <trkpt lat="43.63488" lon="5.51588">
        <ele>271.243</ele>
        <time>2014-05-18T05:56:38Z</time>
      </trkpt>
      <trkpt lat="43.63485" lon="5.51604">
        <ele>273.223</ele>
        <time>2014-05-18T05:56:45Z</time>
      </trkpt>
      <trkpt lat="43.63482" lon="5.51627">
        <ele>275.913</ele>
        <time>2014-05-18T05:56:55Z</time>
      </trkpt>
      <trkpt lat="43.63481" lon="5.51648">
        <ele>277.432</ele>
        <time>2014-05-18T05:57:04Z</time>
      </trkpt>
      <trkpt lat="43.6348" lon="5.51675">
        <ele>278.062</ele>
        <time>2014-05-18T05:57:13Z</time>
      </trkpt>
      <trkpt lat="43.6348" lon="5.51683">
        <ele>277.971</ele>
        <time>2014-05-18T05:57:18Z</time>
      </trkpt>
      <trkpt lat="43.63505" lon="5.51705">
        <ele>276.87</ele>
        <time>2014-05-18T05:57:24Z</time>
      </trkpt>
      <trkpt lat="43.63519" lon="5.51741">
        <ele>274.979</ele>
        <time>2014-05-18T05:57:28Z</time>
      </trkpt>
      <trkpt lat="43.63521" lon="5.51764">
        <ele>273.858</ele>
        <time>2014-05-18T05:57:30Z</time>
      </trkpt>
      <trkpt lat="43.63514" lon="5.51832">
        <ele>270.819</ele>
        <time>2014-05-18T05:57:36Z</time>
      </trkpt>
      <trkpt lat="43.6351" lon="5.51856">
        <ele>269.178</ele>
        <time>2014-05-18T05:57:38Z</time>
      </trkpt>
      <trkpt lat="43.63497" lon="5.51905">
        <ele>265.978</ele>
        <time>2014-05-18T05:57:42Z</time>
      </trkpt>
      <trkpt lat="43.63474" lon="5.51931">
        <ele>263.998</ele>
        <time>2014-05-18T05:57:45Z</time>
      </trkpt>
      <trkpt lat="43.63456" lon="5.5194">
        <ele>262.868</ele>
        <time>2014-05-18T05:57:47Z</time>
      </trkpt>
      <trkpt lat="43.63392" lon="5.51966">
        <ele>259.229</ele>
        <time>2014-05-18T05:57:54Z</time>
      </trkpt>
      <trkpt lat="43.63356" lon="5.52008">
        <ele>256.208</ele>
        <time>2014-05-18T05:57:59Z</time>
      </trkpt>
      <trkpt lat="43.63313" lon="5.52092">
        <ele>251.208</ele>
        <time>2014-05-18T05:58:07Z</time>
      </trkpt>
      <trkpt lat="43.63274" lon="5.52177">
        <ele>248.471</ele>
        <time>2014-05-18T05:58:15Z</time>
      </trkpt>
      <trkpt lat="43.63263" lon="5.52196">
        <ele>248.742</ele>
        <time>2014-05-18T05:58:18Z</time>
      </trkpt>
      <trkpt lat="43.63243" lon="5.52196">
        <ele>249.062</ele>
        <time>2014-05-18T05:58:21Z</time>
      </trkpt>
      <trkpt lat="43.63225" lon="5.52133">
        <ele>249.652</ele>
        <time>2014-05-18T05:58:30Z</time>
      </trkpt>
      <trkpt lat="43.63187" lon="5.52072">
        <ele>249.912</ele>
        <time>2014-05-18T05:58:41Z</time>
      </trkpt>
      <trkpt lat="43.63183" lon="5.52066">
        <ele>249.962</ele>
        <time>2014-05-18T05:58:42Z</time>
      </trkpt>
      <trkpt lat="43.63166" lon="5.52048">
        <ele>250.093</ele>
        <time>2014-05-18T05:58:46Z</time>
      </trkpt>
      <trkpt lat="43.63146" lon="5.52063">
        <ele>250.943</ele>
        <time>2014-05-18T05:58:50Z</time>
      </trkpt>
      <trkpt lat="43.63097" lon="5.52094">
        <ele>251.963</ele>
        <time>2014-05-18T05:59:01Z</time>
      </trkpt>
      <trkpt lat="43.63058" lon="5.5212">
        <ele>253.233</ele>
        <time>2014-05-18T05:59:09Z</time>
      </trkpt>
      <trkpt lat="43.63049" lon="5.52127">
        <ele>253.483</ele>
        <time>2014-05-18T05:59:11Z</time>
      </trkpt>
      <trkpt lat="43.63029" lon="5.52153">
        <ele>252.992</ele>
        <time>2014-05-18T05:59:16Z</time>
      </trkpt>
      <trkpt lat="43.63027" lon="5.5216">
        <ele>252.902</ele>
        <time>2014-05-18T05:59:17Z</time>
      </trkpt>
      <trkpt lat="43.63012" lon="5.52219">
        <ele>252.492</ele>
        <time>2014-05-18T05:59:25Z</time>
      </trkpt>
      <trkpt lat="43.62995" lon="5.52268">
        <ele>251.972</ele>
        <time>2014-05-18T05:59:32Z</time>
      </trkpt>
      <trkpt lat="43.62988" lon="5.52281">
        <ele>252.022</ele>
        <time>2014-05-18T05:59:34Z</time>
      </trkpt>
      <trkpt lat="43.62962" lon="5.52308">
        <ele>250.822</ele>
        <time>2014-05-18T05:59:40Z</time>
      </trkpt>
      <trkpt lat="43.62948" lon="5.52308">
        <ele>250.802</ele>
        <time>2014-05-18T05:59:43Z</time>
      </trkpt>
      <trkpt lat="43.62944" lon="5.52304">
        <ele>251.043</ele>
        <time>2014-05-18T05:59:44Z</time>
      </trkpt>
      <trkpt lat="43.62907" lon="5.52265">
        <ele>252.433</ele>
        <time>2014-05-18T05:59:53Z</time>
      </trkpt>
      <trkpt lat="43.62872" lon="5.5224">
        <ele>252.333</ele>
        <time>2014-05-18T06:00:01Z</time>
      </trkpt>
      <trkpt lat="43.6285" lon="5.52223">
        <ele>253.914</ele>
        <time>2014-05-18T06:00:08Z</time>
      </trkpt>
      <trkpt lat="43.62839" lon="5.52197">
        <ele>254.724</ele>
        <time>2014-05-18T06:00:15Z</time>
      </trkpt>
      <trkpt lat="43.62831" lon="5.52154">
        <ele>257.253</ele>
        <time>2014-05-18T06:00:26Z</time>
      </trkpt>
      <trkpt lat="43.6283" lon="5.52142">
        <ele>257.202</ele>
        <time>2014-05-18T06:00:29Z</time>
      </trkpt>
      <trkpt lat="43.62823" lon="5.52136">
        <ele>256.661</ele>
        <time>2014-05-18T06:00:33Z</time>
      </trkpt>
      <trkpt lat="43.62815" lon="5.52137">
        <ele>256.1</ele>
        <time>2014-05-18T06:00:35Z</time>
      </trkpt>
      <trkpt lat="43.62783" lon="5.52138">
        <ele>253.648</ele>
        <time>2014-05-18T06:00:40Z</time>
      </trkpt>
      <trkpt lat="43.62734" lon="5.52127">
        <ele>250.36</ele>
        <time>2014-05-18T06:00:46Z</time>
      </trkpt>
      <trkpt lat="43.62695" lon="5.52105">
        <ele>250.773</ele>
        <time>2014-05-18T06:00:52Z</time>
      </trkpt>
      <trkpt lat="43.62682" lon="5.52095">
        <ele>252.073</ele>
        <time>2014-05-18T06:00:56Z</time>
      </trkpt>
      <trkpt lat="43.62678" lon="5.52096">
        <ele>252.252</ele>
        <time>2014-05-18T06:00:57Z</time>
      </trkpt>
      <trkpt lat="43.62652" lon="5.52101">
        <ele>252.892</ele>
        <time>2014-05-18T06:01:03Z</time>
      </trkpt>
      <trkpt lat="43.62648" lon="5.52098">
        <ele>252.902</ele>
        <time>2014-05-18T06:01:04Z</time>
      </trkpt>
      <trkpt lat="43.62597" lon="5.52067">
        <ele>254.722</ele>
        <time>2014-05-18T06:01:16Z</time>
      </trkpt>
      <trkpt lat="43.62564" lon="5.52043">
        <ele>256.412</ele>
        <time>2014-05-18T06:01:24Z</time>
      </trkpt>
      <trkpt lat="43.62519" lon="5.52014">
        <ele>257.131</ele>
        <time>2014-05-18T06:01:35Z</time>
      </trkpt>
      <trkpt lat="43.62472" lon="5.51989">
        <ele>257.861</ele>
        <time>2014-05-18T06:01:46Z</time>
      </trkpt>
      <trkpt lat="43.62426" lon="5.51966">
        <ele>259.462</ele>
        <time>2014-05-18T06:01:57Z</time>
      </trkpt>
      <trkpt lat="43.62402" lon="5.51958">
        <ele>260.464</ele>
        <time>2014-05-18T06:02:03Z</time>
      </trkpt>
      <trkpt lat="43.62396" lon="5.51968">
        <ele>261.501</ele>
        <time>2014-05-18T06:02:07Z</time>
      </trkpt>
      <trkpt lat="43.62384" lon="5.51986">
        <ele>262.242</ele>
        <time>2014-05-18T06:02:10Z</time>
      </trkpt>
      <trkpt lat="43.62381" lon="5.51984">
        <ele>262.331</ele>
        <time>2014-05-18T06:02:11Z</time>
      </trkpt>
      <trkpt lat="43.62352" lon="5.51984">
        <ele>262.712</ele>
        <time>2014-05-18T06:02:19Z</time>
      </trkpt>
      <trkpt lat="43.62323" lon="5.51984">
        <ele>265.512</ele>
        <time>2014-05-18T06:02:27Z</time>
      </trkpt>
      <trkpt lat="43.62291" lon="5.51984">
        <ele>267.931</ele>
        <time>2014-05-18T06:02:37Z</time>
      </trkpt>
      <trkpt lat="43.62251" lon="5.51993">
        <ele>268.27</ele>
        <time>2014-05-18T06:02:47Z</time>
      </trkpt>
      <trkpt lat="43.62243" lon="5.51994">
        <ele>268.17</ele>
        <time>2014-05-18T06:02:49Z</time>
      </trkpt>
      <trkpt lat="43.62203" lon="5.52007">
        <ele>266.778</ele>
        <time>2014-05-18T06:02:58Z</time>
      </trkpt>
      <trkpt lat="43.62186" lon="5.52014">
        <ele>265.658</ele>
        <time>2014-05-18T06:03:01Z</time>
      </trkpt>
      <trkpt lat="43.62163" lon="5.52037">
        <ele>264.929</ele>
        <time>2014-05-18T06:03:06Z</time>
      </trkpt>
      <trkpt lat="43.62132" lon="5.52075">
        <ele>264.34</ele>
        <time>2014-05-18T06:03:12Z</time>
      </trkpt>
      <trkpt lat="43.62116" lon="5.52091">
        <ele>264.801</ele>
        <time>2014-05-18T06:03:15Z</time>
      </trkpt>
      <trkpt lat="43.62093" lon="5.52103">
        <ele>264.82</ele>
        <time>2014-05-18T06:03:19Z</time>
      </trkpt>
      <trkpt lat="43.62035" lon="5.52113">
        <ele>265.921</ele>
        <time>2014-05-18T06:03:29Z</time>
      </trkpt>
      <trkpt lat="43.61998" lon="5.5212">
        <ele>267.21</ele>
        <time>2014-05-18T06:03:36Z</time>
      </trkpt>
      <trkpt lat="43.61952" lon="5.52128">
        <ele>268.671</ele>
        <time>2014-05-18T06:03:45Z</time>
      </trkpt>
      <trkpt lat="43.61915" lon="5.52146">
        <ele>272.161</ele>
        <time>2014-05-18T06:03:54Z</time>
      </trkpt>
      <trkpt lat="43.61881" lon="5.52163">
        <ele>274.121</ele>
        <time>2014-05-18T06:04:03Z</time>
      </trkpt>
      <trkpt lat="43.61844" lon="5.52182">
        <ele>276.491</ele>
        <time>2014-05-18T06:04:13Z</time>
      </trkpt>
      <trkpt lat="43.61816" lon="5.52196">
        <ele>275.887</ele>
        <time>2014-05-18T06:04:21Z</time>
      </trkpt>
      <trkpt lat="43.61793" lon="5.52209">
        <ele>272.926</ele>
        <time>2014-05-18T06:04:25Z</time>
      </trkpt>
      <trkpt lat="43.61751" lon="5.5223">
        <ele>273.353</ele>
        <time>2014-05-18T06:04:31Z</time>
      </trkpt>
      <trkpt lat="43.61725" lon="5.52237">
        <ele>275.232</ele>
        <time>2014-05-18T06:04:36Z</time>
      </trkpt>
      <trkpt lat="43.6168" lon="5.52246">
        <ele>275.9</ele>
        <time>2014-05-18T06:04:46Z</time>
      </trkpt>
      <trkpt lat="43.6163" lon="5.52254">
        <ele>276.84</ele>
        <time>2014-05-18T06:04:57Z</time>
      </trkpt>
      <trkpt lat="43.61594" lon="5.52256">
        <ele>278.381</ele>
        <time>2014-05-18T06:05:05Z</time>
      </trkpt>
      <trkpt lat="43.61563" lon="5.52255">
        <ele>279.149</ele>
        <time>2014-05-18T06:05:13Z</time>
      </trkpt>
      <trkpt lat="43.61546" lon="5.52253">
        <ele>278.119</ele>
        <time>2014-05-18T06:05:17Z</time>
      </trkpt>
      <trkpt lat="43.61542" lon="5.52254">
        <ele>278.76</ele>
        <time>2014-05-18T06:05:22Z</time>
      </trkpt>
      <trkpt lat="43.61496" lon="5.52249">
        <ele>278.168</ele>
        <time>2014-05-18T06:05:29Z</time>
      </trkpt>
      <trkpt lat="43.61493" lon="5.5225">
        <ele>277.787</ele>
        <time>2014-05-18T06:05:30Z</time>
      </trkpt>
      <trkpt lat="43.61473" lon="5.52244">
        <ele>277.579</ele>
        <time>2014-05-18T06:05:34Z</time>
      </trkpt>
      <trkpt lat="43.61458" lon="5.52233">
        <ele>279.531</ele>
        <time>2014-05-18T06:05:39Z</time>
      </trkpt>
      <trkpt lat="43.61437" lon="5.52228">
        <ele>280.239</ele>
        <time>2014-05-18T06:05:46Z</time>
      </trkpt>
      <trkpt lat="43.61409" lon="5.52222">
        <ele>280.209</ele>
        <time>2014-05-18T06:05:54Z</time>
      </trkpt>
      <trkpt lat="43.61374" lon="5.52215">
        <ele>281.219</ele>
        <time>2014-05-18T06:06:03Z</time>
      </trkpt>
      <trkpt lat="43.61343" lon="5.52208">
        <ele>280.697</ele>
        <time>2014-05-18T06:06:12Z</time>
      </trkpt>
      <trkpt lat="43.61317" lon="5.52202">
        <ele>279.188</ele>
        <time>2014-05-18T06:06:17Z</time>
      </trkpt>
      <trkpt lat="43.61283" lon="5.52196">
        <ele>279.479</ele>
        <time>2014-05-18T06:06:24Z</time>
      </trkpt>
      <trkpt lat="43.6126" lon="5.5219">
        <ele>281.02</ele>
        <time>2014-05-18T06:06:30Z</time>
      </trkpt>
      <trkpt lat="43.61242" lon="5.52186">
        <ele>283.18</ele>
        <time>2014-05-18T06:06:36Z</time>
      </trkpt>
      <trkpt lat="43.61224" lon="5.52183">
        <ele>283.327</ele>
        <time>2014-05-18T06:06:43Z</time>
      </trkpt>
      <trkpt lat="43.6122" lon="5.52182">
        <ele>282.876</ele>
        <time>2014-05-18T06:06:44Z</time>
      </trkpt>
      <trkpt lat="43.61185" lon="5.52177">
        <ele>280.988</ele>
        <time>2014-05-18T06:06:51Z</time>
      </trkpt>
      <trkpt lat="43.61161" lon="5.52174">
        <ele>280.297</ele>
        <time>2014-05-18T06:06:56Z</time>
      </trkpt>
      <trkpt lat="43.61125" lon="5.52172">
        <ele>280.698</ele>
        <time>2014-05-18T06:07:04Z</time>
      </trkpt>
      <trkpt lat="43.61103" lon="5.5217">
        <ele>281.699</ele>
        <time>2014-05-18T06:07:10Z</time>
      </trkpt>
      <trkpt lat="43.61082" lon="5.52168">
        <ele>282.258</ele>
        <time>2014-05-18T06:07:16Z</time>
      </trkpt>
      <trkpt lat="43.61055" lon="5.52166">
        <ele>282.018</ele>
        <time>2014-05-18T06:07:23Z</time>
      </trkpt>
      <trkpt lat="43.61041" lon="5.52165">
        <ele>282.178</ele>
        <time>2014-05-18T06:07:26Z</time>
      </trkpt>
      <trkpt lat="43.61004" lon="5.52157">
        <ele>283.268</ele>
        <time>2014-05-18T06:07:35Z</time>
      </trkpt>
      <trkpt lat="43.60974" lon="5.52147">
        <ele>284.548</ele>
        <time>2014-05-18T06:07:43Z</time>
      </trkpt>
      <trkpt lat="43.60947" lon="5.52135">
        <ele>284.147</ele>
        <time>2014-05-18T06:07:50Z</time>
      </trkpt>
      <trkpt lat="43.6091" lon="5.52115">
        <ele>285.248</ele>
        <time>2014-05-18T06:08:00Z</time>
      </trkpt>
      <trkpt lat="43.60884" lon="5.52098">
        <ele>284.997</ele>
        <time>2014-05-18T06:08:07Z</time>
      </trkpt>
      <trkpt lat="43.60857" lon="5.52077">
        <ele>285.368</ele>
        <time>2014-05-18T06:08:14Z</time>
      </trkpt>
      <trkpt lat="43.60831" lon="5.52057">
        <ele>284.406</ele>
        <time>2014-05-18T06:08:21Z</time>
      </trkpt>
      <trkpt lat="43.60808" lon="5.52033">
        <ele>282.736</ele>
        <time>2014-05-18T06:08:26Z</time>
      </trkpt>
      <trkpt lat="43.60796" lon="5.52018">
        <ele>282.577</ele>
        <time>2014-05-18T06:08:29Z</time>
      </trkpt>
      <trkpt lat="43.6077" lon="5.51996">
        <ele>281.566</ele>
        <time>2014-05-18T06:08:35Z</time>
      </trkpt>
      <trkpt lat="43.60763" lon="5.5199">
        <ele>281.055</ele>
        <time>2014-05-18T06:08:37Z</time>
      </trkpt>
      <trkpt lat="43.60744" lon="5.51983">
        <ele>279.394</ele>
        <time>2014-05-18T06:08:41Z</time>
      </trkpt>
      <trkpt lat="43.60722" lon="5.5196">
        <ele>279.257</ele>
        <time>2014-05-18T06:08:45Z</time>
      </trkpt>
      <trkpt lat="43.6072" lon="5.51954">
        <ele>279.648</ele>
        <time>2014-05-18T06:08:46Z</time>
      </trkpt>
      <trkpt lat="43.6072" lon="5.51947">
        <ele>281.418</ele>
        <time>2014-05-18T06:08:51Z</time>
      </trkpt>
      <trkpt lat="43.60694" lon="5.51921">
        <ele>282.838</ele>
        <time>2014-05-18T06:08:57Z</time>
      </trkpt>
      <trkpt lat="43.60675" lon="5.51908">
        <ele>282.917</ele>
        <time>2014-05-18T06:09:04Z</time>
      </trkpt>
      <trkpt lat="43.60654" lon="5.51895">
        <ele>283.256</ele>
        <time>2014-05-18T06:09:10Z</time>
      </trkpt>
      <trkpt lat="43.60644" lon="5.51884">
        <ele>283.196</ele>
        <time>2014-05-18T06:09:13Z</time>
      </trkpt>
      <trkpt lat="43.60609" lon="5.51851">
        <ele>283.827</ele>
        <time>2014-05-18T06:09:23Z</time>
      </trkpt>
      <trkpt lat="43.60598" lon="5.51842">
        <ele>284.187</ele>
        <time>2014-05-18T06:09:26Z</time>
      </trkpt>
      <trkpt lat="43.60577" lon="5.51816">
        <ele>285.086</ele>
        <time>2014-05-18T06:09:33Z</time>
      </trkpt>
      <trkpt lat="43.60571" lon="5.51811">
        <ele>285.467</ele>
        <time>2014-05-18T06:09:35Z</time>
      </trkpt>
      <trkpt lat="43.60546" lon="5.51787">
        <ele>286.176</ele>
        <time>2014-05-18T06:09:43Z</time>
      </trkpt>
      <trkpt lat="43.60532" lon="5.5176">
        <ele>287.026</ele>
        <time>2014-05-18T06:09:49Z</time>
      </trkpt>
      <trkpt lat="43.60524" lon="5.5175">
        <ele>287.376</ele>
        <time>2014-05-18T06:09:52Z</time>
      </trkpt>
      <trkpt lat="43.60505" lon="5.51727">
        <ele>287.276</ele>
        <time>2014-05-18T06:09:58Z</time>
      </trkpt>
      <trkpt lat="43.60476" lon="5.51698">
        <ele>287.605</ele>
        <time>2014-05-18T06:10:07Z</time>
      </trkpt>
      <trkpt lat="43.60453" lon="5.51679">
        <ele>286.495</ele>
        <time>2014-05-18T06:10:13Z</time>
      </trkpt>
      <trkpt lat="43.60426" lon="5.51662">
        <ele>286.957</ele>
        <time>2014-05-18T06:10:19Z</time>
      </trkpt>
      <trkpt lat="43.60399" lon="5.51642">
        <ele>286.354</ele>
        <time>2014-05-18T06:10:26Z</time>
      </trkpt>
      <trkpt lat="43.60386" lon="5.51633">
        <ele>285.955</ele>
        <time>2014-05-18T06:10:29Z</time>
      </trkpt>
      <trkpt lat="43.60369" lon="5.51623">
        <ele>285.895</ele>
        <time>2014-05-18T06:10:33Z</time>
      </trkpt>
      <trkpt lat="43.60339" lon="5.51609">
        <ele>287.285</ele>
        <time>2014-05-18T06:10:41Z</time>
      </trkpt>
      <trkpt lat="43.6033" lon="5.51607">
        <ele>287.294</ele>
        <time>2014-05-18T06:10:43Z</time>
      </trkpt>
      <trkpt lat="43.60307" lon="5.51606">
        <ele>287.635</ele>
        <time>2014-05-18T06:10:48Z</time>
      </trkpt>
      <trkpt lat="43.60284" lon="5.51613">
        <ele>288.275</ele>
        <time>2014-05-18T06:10:53Z</time>
      </trkpt>
      <trkpt lat="43.60249" lon="5.5163">
        <ele>289.145</ele>
        <time>2014-05-18T06:11:01Z</time>
      </trkpt>
      <trkpt lat="43.60244" lon="5.51631">
        <ele>289.345</ele>
        <time>2014-05-18T06:11:02Z</time>
      </trkpt>
      <trkpt lat="43.60213" lon="5.5163">
        <ele>290.916</ele>
        <time>2014-05-18T06:11:09Z</time>
      </trkpt>
      <trkpt lat="43.60194" lon="5.51633">
        <ele>291.175</ele>
        <time>2014-05-18T06:11:14Z</time>
      </trkpt>
      <trkpt lat="43.60155" lon="5.51656">
        <ele>291.996</ele>
        <time>2014-05-18T06:11:24Z</time>
      </trkpt>
      <trkpt lat="43.6012" lon="5.51679">
        <ele>292.855</ele>
        <time>2014-05-18T06:11:33Z</time>
      </trkpt>
      <trkpt lat="43.60076" lon="5.51703">
        <ele>293.525</ele>
        <time>2014-05-18T06:11:43Z</time>
      </trkpt>
      <trkpt lat="43.60053" lon="5.51712">
        <ele>294.025</ele>
        <time>2014-05-18T06:11:48Z</time>
      </trkpt>
      <trkpt lat="43.60021" lon="5.51714">
        <ele>294.825</ele>
        <time>2014-05-18T06:11:55Z</time>
      </trkpt>
      <trkpt lat="43.60004" lon="5.51725">
        <ele>295.275</ele>
        <time>2014-05-18T06:12:00Z</time>
      </trkpt>
      <trkpt lat="43.59981" lon="5.51758">
        <ele>296.305</ele>
        <time>2014-05-18T06:12:08Z</time>
      </trkpt>
      <trkpt lat="43.59956" lon="5.51803">
        <ele>296.505</ele>
        <time>2014-05-18T06:12:18Z</time>
      </trkpt>
      <trkpt lat="43.59947" lon="5.51815">
        <ele>296.545</ele>
        <time>2014-05-18T06:12:21Z</time>
      </trkpt>
      <trkpt lat="43.59933" lon="5.51829">
        <ele>296.815</ele>
        <time>2014-05-18T06:12:25Z</time>
      </trkpt>
      <trkpt lat="43.599" lon="5.51848">
        <ele>297.795</ele>
        <time>2014-05-18T06:12:33Z</time>
      </trkpt>
      <trkpt lat="43.59879" lon="5.51852">
        <ele>298.435</ele>
        <time>2014-05-18T06:12:38Z</time>
      </trkpt>
      <trkpt lat="43.59838" lon="5.51858">
        <ele>299.825</ele>
        <time>2014-05-18T06:12:47Z</time>
      </trkpt>
      <trkpt lat="43.59793" lon="5.51862">
        <ele>300.024</ele>
        <time>2014-05-18T06:12:56Z</time>
      </trkpt>
      <trkpt lat="43.59775" lon="5.51863">
        <ele>299.884</ele>
        <time>2014-05-18T06:12:59Z</time>
      </trkpt>
      <trkpt lat="43.59765" lon="5.51859">
        <ele>300.276</ele>
        <time>2014-05-18T06:13:01Z</time>
      </trkpt>
      <trkpt lat="43.59743" lon="5.51864">
        <ele>300.925</ele>
        <time>2014-05-18T06:13:06Z</time>
      </trkpt>
      <trkpt lat="43.59719" lon="5.51874">
        <ele>301.726</ele>
        <time>2014-05-18T06:13:11Z</time>
      </trkpt>
      <trkpt lat="43.59707" lon="5.51868">
        <ele>302.036</ele>
        <time>2014-05-18T06:13:14Z</time>
      </trkpt>
      <trkpt lat="43.59681" lon="5.51857">
        <ele>303.496</ele>
        <time>2014-05-18T06:13:22Z</time>
      </trkpt>
      <trkpt lat="43.5968" lon="5.51857">
        <ele>304.685</ele>
        <time>2014-05-18T06:13:27Z</time>
      </trkpt>
      <trkpt lat="43.59633" lon="5.51825">
        <ele>305.124</ele>
        <time>2014-05-18T06:13:35Z</time>
      </trkpt>
      <trkpt lat="43.596" lon="5.51799">
        <ele>306.535</ele>
        <time>2014-05-18T06:13:43Z</time>
      </trkpt>
      <trkpt lat="43.59571" lon="5.51767">
        <ele>307.644</ele>
        <time>2014-05-18T06:13:51Z</time>
      </trkpt>
      <trkpt lat="43.59552" lon="5.51748">
        <ele>308.494</ele>
        <time>2014-05-18T06:13:56Z</time>
      </trkpt>
      <trkpt lat="43.59507" lon="5.51726">
        <ele>309.674</ele>
        <time>2014-05-18T06:14:06Z</time>
      </trkpt>
      <trkpt lat="43.5948" lon="5.51702">
        <ele>309.244</ele>
        <time>2014-05-18T06:14:13Z</time>
      </trkpt>
      <trkpt lat="43.59453" lon="5.51679">
        <ele>310.274</ele>
        <time>2014-05-18T06:14:20Z</time>
      </trkpt>
      <trkpt lat="43.59412" lon="5.51661">
        <ele>311.954</ele>
        <time>2014-05-18T06:14:29Z</time>
      </trkpt>
      <trkpt lat="43.59409" lon="5.5166">
        <ele>311.854</ele>
        <time>2014-05-18T06:14:30Z</time>
      </trkpt>
      <trkpt lat="43.59376" lon="5.51639">
        <ele>311.724</ele>
        <time>2014-05-18T06:14:38Z</time>
      </trkpt>
      <trkpt lat="43.59341" lon="5.51608">
        <ele>312.643</ele>
        <time>2014-05-18T06:14:48Z</time>
      </trkpt>
      <trkpt lat="43.59309" lon="5.51586">
        <ele>313.513</ele>
        <time>2014-05-18T06:14:57Z</time>
      </trkpt>
      <trkpt lat="43.59271" lon="5.5156">
        <ele>314.153</ele>
        <time>2014-05-18T06:15:08Z</time>
      </trkpt>
      <trkpt lat="43.59254" lon="5.51547">
        <ele>314.244</ele>
        <time>2014-05-18T06:15:13Z</time>
      </trkpt>
      <trkpt lat="43.5924" lon="5.51516">
        <ele>313.612</ele>
        <time>2014-05-18T06:15:19Z</time>
      </trkpt>
      <trkpt lat="43.59237" lon="5.51502">
        <ele>313.202</ele>
        <time>2014-05-18T06:15:21Z</time>
      </trkpt>
      <trkpt lat="43.59233" lon="5.51435">
        <ele>312.132</ele>
        <time>2014-05-18T06:15:29Z</time>
      </trkpt>
      <trkpt lat="43.5924" lon="5.51389">
        <ele>313.834</ele>
        <time>2014-05-18T06:15:35Z</time>
      </trkpt>
      <trkpt lat="43.59238" lon="5.51356">
        <ele>315.933</ele>
        <time>2014-05-18T06:15:41Z</time>
      </trkpt>
      <trkpt lat="43.59227" lon="5.51328">
        <ele>316.562</ele>
        <time>2014-05-18T06:15:47Z</time>
      </trkpt>
      <trkpt lat="43.59197" lon="5.51289">
        <ele>316.992</ele>
        <time>2014-05-18T06:15:56Z</time>
      </trkpt>
      <trkpt lat="43.5916" lon="5.51244">
        <ele>317.872</ele>
        <time>2014-05-18T06:16:07Z</time>
      </trkpt>
      <trkpt lat="43.59125" lon="5.51201">
        <ele>318.802</ele>
        <time>2014-05-18T06:16:18Z</time>
      </trkpt>
      <trkpt lat="43.5909" lon="5.51159">
        <ele>319.822</ele>
        <time>2014-05-18T06:16:29Z</time>
      </trkpt>
      <trkpt lat="43.59058" lon="5.51119">
        <ele>320.861</ele>
        <time>2014-05-18T06:16:39Z</time>
      </trkpt>
      <trkpt lat="43.59027" lon="5.51078">
        <ele>322.001</ele>
        <time>2014-05-18T06:16:49Z</time>
      </trkpt>
      <trkpt lat="43.59" lon="5.51044">
        <ele>322.4</ele>
        <time>2014-05-18T06:16:58Z</time>
      </trkpt>
      <trkpt lat="43.58972" lon="5.5101">
        <ele>322.42</ele>
        <time>2014-05-18T06:17:06Z</time>
      </trkpt>
      <trkpt lat="43.58947" lon="5.50987">
        <ele>321.169</ele>
        <time>2014-05-18T06:17:12Z</time>
      </trkpt>
      <trkpt lat="43.58929" lon="5.50964">
        <ele>321.161</ele>
        <time>2014-05-18T06:17:17Z</time>
      </trkpt>
      <trkpt lat="43.58928" lon="5.50961">
        <ele>321.581</ele>
        <time>2014-05-18T06:17:21Z</time>
      </trkpt>
      <trkpt lat="43.58912" lon="5.50953">
        <ele>326.02</ele>
        <time>2014-05-18T06:20:17Z</time>
      </trkpt>
      <trkpt lat="43.58916" lon="5.50973">
        <ele>325.98</ele>
        <time>2014-05-18T06:20:21Z</time>
      </trkpt>
      <trkpt lat="43.58924" lon="5.50977">
        <ele>325.981</ele>
        <time>2014-05-18T06:20:22Z</time>
      </trkpt>
      <trkpt lat="43.58944" lon="5.50984">
        <ele>326.971</ele>
        <time>2014-05-18T06:20:28Z</time>
      </trkpt>
      <trkpt lat="43.58966" lon="5.51004">
        <ele>327.601</ele>
        <time>2014-05-18T06:20:36Z</time>
      </trkpt>
      <trkpt lat="43.58991" lon="5.51033">
        <ele>327.452</ele>
        <time>2014-05-18T06:20:45Z</time>
      </trkpt>
      <trkpt lat="43.59017" lon="5.51065">
        <ele>328.281</ele>
        <time>2014-05-18T06:20:54Z</time>
      </trkpt>
      <trkpt lat="43.59044" lon="5.51099">
        <ele>327.35</ele>
        <time>2014-05-18T06:21:02Z</time>
      </trkpt>
      <trkpt lat="43.59084" lon="5.51151">
        <ele>325.41</ele>
        <time>2014-05-18T06:21:12Z</time>
      </trkpt>
      <trkpt lat="43.59127" lon="5.51204">
        <ele>323.79</ele>
        <time>2014-05-18T06:21:22Z</time>
      </trkpt>
      <trkpt lat="43.59168" lon="5.51254">
        <ele>322.16</ele>
        <time>2014-05-18T06:21:31Z</time>
      </trkpt>
      <trkpt lat="43.59213" lon="5.51309">
        <ele>320.451</ele>
        <time>2014-05-18T06:21:41Z</time>
      </trkpt>
      <trkpt lat="43.59225" lon="5.51326">
        <ele>319.991</ele>
        <time>2014-05-18T06:21:44Z</time>
      </trkpt>
      <trkpt lat="43.59239" lon="5.51359">
        <ele>318.5</ele>
        <time>2014-05-18T06:21:49Z</time>
      </trkpt>
      <trkpt lat="43.5924" lon="5.51383">
        <ele>316.969</ele>
        <time>2014-05-18T06:21:52Z</time>
      </trkpt>
      <trkpt lat="43.59234" lon="5.51453">
        <ele>314.921</ele>
        <time>2014-05-18T06:22:00Z</time>
      </trkpt>
      <trkpt lat="43.59236" lon="5.515">
        <ele>315.643</ele>
        <time>2014-05-18T06:22:06Z</time>
      </trkpt>
      <trkpt lat="43.59243" lon="5.51525">
        <ele>316.073</ele>
        <time>2014-05-18T06:22:11Z</time>
      </trkpt>
      <trkpt lat="43.59223" lon="5.5156">
        <ele>317.555</ele>
        <time>2014-05-18T06:22:19Z</time>
      </trkpt>
      <trkpt lat="43.59214" lon="5.51585">
        <ele>319.062</ele>
        <time>2014-05-18T06:22:27Z</time>
      </trkpt>
      <trkpt lat="43.59209" lon="5.516">
        <ele>320.194</ele>
        <time>2014-05-18T06:22:32Z</time>
      </trkpt>
      <trkpt lat="43.59187" lon="5.51629">
        <ele>321.264</ele>
        <time>2014-05-18T06:22:42Z</time>
      </trkpt>
      <trkpt lat="43.59172" lon="5.51659">
        <ele>322.824</ele>
        <time>2014-05-18T06:22:51Z</time>
      </trkpt>
      <trkpt lat="43.59158" lon="5.51669">
        <ele>323.122</ele>
        <time>2014-05-18T06:22:57Z</time>
      </trkpt>
      <trkpt lat="43.59135" lon="5.51668">
        <ele>323.172</ele>
        <time>2014-05-18T06:23:05Z</time>
      </trkpt>
      <trkpt lat="43.5912" lon="5.51664">
        <ele>323.653</ele>
        <time>2014-05-18T06:23:10Z</time>
      </trkpt>
      <trkpt lat="43.59105" lon="5.51675">
        <ele>324.133</ele>
        <time>2014-05-18T06:23:16Z</time>
      </trkpt>
      <trkpt lat="43.59101" lon="5.51682">
        <ele>324.313</ele>
        <time>2014-05-18T06:23:18Z</time>
      </trkpt>
      <trkpt lat="43.59099" lon="5.51693">
        <ele>324.934</ele>
        <time>2014-05-18T06:23:22Z</time>
      </trkpt>
      <trkpt lat="43.59111" lon="5.51698">
        <ele>326.184</ele>
        <time>2014-05-18T06:23:26Z</time>
      </trkpt>
      <trkpt lat="43.59133" lon="5.5169">
        <ele>329.074</ele>
        <time>2014-05-18T06:23:36Z</time>
      </trkpt>
      <trkpt lat="43.59145" lon="5.51694">
        <ele>330.214</ele>
        <time>2014-05-18T06:23:42Z</time>
      </trkpt>
      <trkpt lat="43.59154" lon="5.5171">
        <ele>331.624</ele>
        <time>2014-05-18T06:23:49Z</time>
      </trkpt>
      <trkpt lat="43.5916" lon="5.51734">
        <ele>333.924</ele>
        <time>2014-05-18T06:23:58Z</time>
      </trkpt>
      <trkpt lat="43.59171" lon="5.51747">
        <ele>335.914</ele>
        <time>2014-05-18T06:24:05Z</time>
      </trkpt>
      <trkpt lat="43.59179" lon="5.51748">
        <ele>336.724</ele>
        <time>2014-05-18T06:24:09Z</time>
      </trkpt>
      <trkpt lat="43.59189" lon="5.51727">
        <ele>337.834</ele>
        <time>2014-05-18T06:24:17Z</time>
      </trkpt>
      <trkpt lat="43.59195" lon="5.51716">
        <ele>337.883</ele>
        <time>2014-05-18T06:24:22Z</time>
      </trkpt>
      <trkpt lat="43.59204" lon="5.51704">
        <ele>337.782</ele>
        <time>2014-05-18T06:24:27Z</time>
      </trkpt>
      <trkpt lat="43.59218" lon="5.51685">
        <ele>337.542</ele>
        <time>2014-05-18T06:24:34Z</time>
      </trkpt>
      <trkpt lat="43.59238" lon="5.51668">
        <ele>337.272</ele>
        <time>2014-05-18T06:24:42Z</time>
      </trkpt>
      <trkpt lat="43.59213" lon="5.51589">
        <ele>337.162</ele>
        <time>2014-05-18T06:24:49Z</time>
      </trkpt>
      <trkpt lat="43.59249" lon="5.51664">
        <ele>337.393</ele>
        <time>2014-05-18T06:24:53Z</time>
      </trkpt>
      <trkpt lat="43.59257" lon="5.51664">
        <ele>337.573</ele>
        <time>2014-05-18T06:24:58Z</time>
      </trkpt>
      <trkpt lat="43.593" lon="5.5158">
        <ele>338.063</ele>
        <time>2014-05-18T06:25:04Z</time>
      </trkpt>
      <trkpt lat="43.59311" lon="5.51588">
        <ele>338.012</ele>
        <time>2014-05-18T06:25:07Z</time>
      </trkpt>
      <trkpt lat="43.59342" lon="5.51609">
        <ele>337.903</ele>
        <time>2014-05-18T06:25:15Z</time>
      </trkpt>
      <trkpt lat="43.59367" lon="5.5163">
        <ele>337.363</ele>
        <time>2014-05-18T06:25:21Z</time>
      </trkpt>
      <trkpt lat="43.59378" lon="5.51641">
        <ele>337.202</ele>
        <time>2014-05-18T06:25:26Z</time>
      </trkpt>
      <trkpt lat="43.59387" lon="5.51711">
        <ele>337.342</ele>
        <time>2014-05-18T06:25:33Z</time>
      </trkpt>
      <trkpt lat="43.59386" lon="5.51771">
        <ele>337.532</ele>
        <time>2014-05-18T06:25:38Z</time>
      </trkpt>
      <trkpt lat="43.59386" lon="5.5178">
        <ele>337.343</ele>
        <time>2014-05-18T06:25:45Z</time>
      </trkpt>
      <trkpt lat="43.5939" lon="5.5181">
        <ele>337.673</ele>
        <time>2014-05-18T06:25:52Z</time>
      </trkpt>
      <trkpt lat="43.59392" lon="5.51816">
        <ele>338.063</ele>
        <time>2014-05-18T06:25:59Z</time>
      </trkpt>
      <trkpt lat="43.59358" lon="5.51954">
        <ele>337.743</ele>
        <time>2014-05-18T06:26:17Z</time>
      </trkpt>
      <trkpt lat="43.59369" lon="5.51945">
        <ele>339.994</ele>
        <time>2014-05-18T06:26:33Z</time>
      </trkpt>
      <trkpt lat="43.59379" lon="5.5194">
        <ele>340.184</ele>
        <time>2014-05-18T06:26:36Z</time>
      </trkpt>
      <trkpt lat="43.59388" lon="5.51936">
        <ele>340.654</ele>
        <time>2014-05-18T06:26:39Z</time>
      </trkpt>
      <trkpt lat="43.59448" lon="5.51911">
        <ele>340.984</ele>
        <time>2014-05-18T06:26:43Z</time>
      </trkpt>
      <trkpt lat="43.59452" lon="5.51915">
        <ele>341.054</ele>
        <time>2014-05-18T06:26:46Z</time>
      </trkpt>
      <trkpt lat="43.59487" lon="5.51966">
        <ele>341.024</ele>
        <time>2014-05-18T06:26:52Z</time>
      </trkpt>
      <trkpt lat="43.59424" lon="5.52108">
        <ele>340.724</ele>
        <time>2014-05-18T06:26:55Z</time>
      </trkpt>
      <trkpt lat="43.59519" lon="5.52076">
        <ele>341.034</ele>
        <time>2014-05-18T06:27:03Z</time>
      </trkpt>
      <trkpt lat="43.59452" lon="5.52104">
        <ele>341.034</ele>
        <time>2014-05-18T06:27:05Z</time>
      </trkpt>
      <trkpt lat="43.59449" lon="5.52114">
        <ele>341.524</ele>
        <time>2014-05-18T06:27:09Z</time>
      </trkpt>
      <trkpt lat="43.59451" lon="5.5211">
        <ele>339.86</ele>
        <time>2014-05-18T06:27:12Z</time>
      </trkpt>
      <trkpt lat="43.59462" lon="5.52096">
        <ele>337.45</ele>
        <time>2014-05-18T06:27:16Z</time>
      </trkpt>
      <trkpt lat="43.59474" lon="5.52086">
        <ele>334.936</ele>
        <time>2014-05-18T06:27:19Z</time>
      </trkpt>
      <trkpt lat="43.59495" lon="5.52078">
        <ele>331.157</ele>
        <time>2014-05-18T06:27:23Z</time>
      </trkpt>
      <trkpt lat="43.59523" lon="5.52076">
        <ele>327.791</ele>
        <time>2014-05-18T06:27:29Z</time>
      </trkpt>
      <trkpt lat="43.5953" lon="5.52076">
        <ele>327.412</ele>
        <time>2014-05-18T06:27:31Z</time>
      </trkpt>
      <trkpt lat="43.59547" lon="5.5206">
        <ele>325.752</ele>
        <time>2014-05-18T06:27:36Z</time>
      </trkpt>
      <trkpt lat="43.59568" lon="5.52041">
        <ele>323.381</ele>
        <time>2014-05-18T06:27:40Z</time>
      </trkpt>
      <trkpt lat="43.59578" lon="5.5205">
        <ele>321.271</ele>
        <time>2014-05-18T06:27:43Z</time>
      </trkpt>
      <trkpt lat="43.59583" lon="5.52054">
        <ele>320.101</ele>
        <time>2014-05-18T06:27:44Z</time>
      </trkpt>
      <trkpt lat="43.596" lon="5.52069">
        <ele>317.09</ele>
        <time>2014-05-18T06:27:47Z</time>
      </trkpt>
      <trkpt lat="43.59619" lon="5.52088">
        <ele>315.182</ele>
        <time>2014-05-18T06:27:51Z</time>
      </trkpt>
      <trkpt lat="43.59631" lon="5.52101">
        <ele>313.811</ele>
        <time>2014-05-18T06:27:54Z</time>
      </trkpt>
      <trkpt lat="43.5964" lon="5.52109">
        <ele>313.313</ele>
        <time>2014-05-18T06:27:57Z</time>
      </trkpt>
      <trkpt lat="43.59647" lon="5.52116">
        <ele>312.984</ele>
        <time>2014-05-18T06:28:00Z</time>
      </trkpt>
      <trkpt lat="43.59656" lon="5.52136">
        <ele>311.993</ele>
        <time>2014-05-18T06:28:04Z</time>
      </trkpt>
      <trkpt lat="43.59655" lon="5.52145">
        <ele>311.774</ele>
        <time>2014-05-18T06:28:08Z</time>
      </trkpt>
      <trkpt lat="43.59663" lon="5.52179">
        <ele>313.616</ele>
        <time>2014-05-18T06:28:15Z</time>
      </trkpt>
      <trkpt lat="43.59658" lon="5.52187">
        <ele>313.544</ele>
        <time>2014-05-18T06:28:18Z</time>
      </trkpt>
      <trkpt lat="43.59641" lon="5.52181">
        <ele>313.714</ele>
        <time>2014-05-18T06:28:21Z</time>
      </trkpt>
      <trkpt lat="43.59638" lon="5.52201">
        <ele>314.195</ele>
        <time>2014-05-18T06:28:25Z</time>
      </trkpt>
      <trkpt lat="43.59637" lon="5.52206">
        <ele>314.255</ele>
        <time>2014-05-18T06:28:26Z</time>
      </trkpt>
      <trkpt lat="43.59635" lon="5.52217">
        <ele>313.944</ele>
        <time>2014-05-18T06:28:28Z</time>
      </trkpt>
      <trkpt lat="43.59633" lon="5.52239">
        <ele>314.265</ele>
        <time>2014-05-18T06:28:32Z</time>
      </trkpt>
      <trkpt lat="43.59611" lon="5.52287">
        <ele>314.554</ele>
        <time>2014-05-18T06:28:40Z</time>
      </trkpt>
      <trkpt lat="43.596" lon="5.52319">
        <ele>314.415</ele>
        <time>2014-05-18T06:28:46Z</time>
      </trkpt>
      <trkpt lat="43.59585" lon="5.52363">
        <ele>315.746</ele>
        <time>2014-05-18T06:28:54Z</time>
      </trkpt>
      <trkpt lat="43.59576" lon="5.52392">
        <ele>316.376</ele>
        <time>2014-05-18T06:28:59Z</time>
      </trkpt>
      <trkpt lat="43.59563" lon="5.52437">
        <ele>316.506</ele>
        <time>2014-05-18T06:29:07Z</time>
      </trkpt>
      <trkpt lat="43.59552" lon="5.52475">
        <ele>316.805</ele>
        <time>2014-05-18T06:29:14Z</time>
      </trkpt>
      <trkpt lat="43.59545" lon="5.52498">
        <ele>316.915</ele>
        <time>2014-05-18T06:29:18Z</time>
      </trkpt>
      <trkpt lat="43.59545" lon="5.52547">
        <ele>316.334</ele>
        <time>2014-05-18T06:29:26Z</time>
      </trkpt>
      <trkpt lat="43.59542" lon="5.52605">
        <ele>315.155</ele>
        <time>2014-05-18T06:29:35Z</time>
      </trkpt>
      <trkpt lat="43.59542" lon="5.52659">
        <ele>314.505</ele>
        <time>2014-05-18T06:29:45Z</time>
      </trkpt>
      <trkpt lat="43.59542" lon="5.52693">
        <ele>314.586</ele>
        <time>2014-05-18T06:29:52Z</time>
      </trkpt>
      <trkpt lat="43.59542" lon="5.52721">
        <ele>315.447</ele>
        <time>2014-05-18T06:29:58Z</time>
      </trkpt>
      <trkpt lat="43.59542" lon="5.52725">
        <ele>315.756</ele>
        <time>2014-05-18T06:29:59Z</time>
      </trkpt>
      <trkpt lat="43.59531" lon="5.52732">
        <ele>316.206</ele>
        <time>2014-05-18T06:30:04Z</time>
      </trkpt>
      <trkpt lat="43.59516" lon="5.52729">
        <ele>317.296</ele>
        <time>2014-05-18T06:30:11Z</time>
      </trkpt>
      <trkpt lat="43.59502" lon="5.52722">
        <ele>319.759</ele>
        <time>2014-05-18T06:30:20Z</time>
      </trkpt>
      <trkpt lat="43.59488" lon="5.52731">
        <ele>321.977</ele>
        <time>2014-05-18T06:30:28Z</time>
      </trkpt>
      <trkpt lat="43.59474" lon="5.52737">
        <ele>324.337</ele>
        <time>2014-05-18T06:30:37Z</time>
      </trkpt>
      <trkpt lat="43.59457" lon="5.52749">
        <ele>326.137</ele>
        <time>2014-05-18T06:30:48Z</time>
      </trkpt>
      <trkpt lat="43.59442" lon="5.52753">
        <ele>328.777</ele>
        <time>2014-05-18T06:30:58Z</time>
      </trkpt>
      <trkpt lat="43.59431" lon="5.52753">
        <ele>330.507</ele>
        <time>2014-05-18T06:31:06Z</time>
      </trkpt>
      <trkpt lat="43.59418" lon="5.52756">
        <ele>332.477</ele>
        <time>2014-05-18T06:31:15Z</time>
      </trkpt>
      <trkpt lat="43.59404" lon="5.52759">
        <ele>335.257</ele>
        <time>2014-05-18T06:31:26Z</time>
      </trkpt>
      <trkpt lat="43.5939" lon="5.52762">
        <ele>336.807</ele>
        <time>2014-05-18T06:31:36Z</time>
      </trkpt>
      <trkpt lat="43.5939" lon="5.52684">
        <ele>338.256</ele>
        <time>2014-05-18T06:31:45Z</time>
      </trkpt>
      <trkpt lat="43.59378" lon="5.52765">
        <ele>339.327</ele>
        <time>2014-05-18T06:31:51Z</time>
      </trkpt>
      <trkpt lat="43.59373" lon="5.52769">
        <ele>340.325</ele>
        <time>2014-05-18T06:32:05Z</time>
      </trkpt>
      <trkpt lat="43.5936" lon="5.52786">
        <ele>343.297</ele>
        <time>2014-05-18T06:32:24Z</time>
      </trkpt>
      <trkpt lat="43.59348" lon="5.52794">
        <ele>344.397</ele>
        <time>2014-05-18T06:32:30Z</time>
      </trkpt>
      <trkpt lat="43.59338" lon="5.52804">
        <ele>346.317</ele>
        <time>2014-05-18T06:32:39Z</time>
      </trkpt>
      <trkpt lat="43.59331" lon="5.52821">
        <ele>348.727</ele>
        <time>2014-05-18T06:32:49Z</time>
      </trkpt>
      <trkpt lat="43.59325" lon="5.52836">
        <ele>350.417</ele>
        <time>2014-05-18T06:32:57Z</time>
      </trkpt>
      <trkpt lat="43.59322" lon="5.52847">
        <ele>351.497</ele>
        <time>2014-05-18T06:33:03Z</time>
      </trkpt>
      <trkpt lat="43.59314" lon="5.52854">
        <ele>352.726</ele>
        <time>2014-05-18T06:33:09Z</time>
      </trkpt>
      <trkpt lat="43.59309" lon="5.52855">
        <ele>352.816</ele>
        <time>2014-05-18T06:33:12Z</time>
      </trkpt>
      <trkpt lat="43.59305" lon="5.52862">
        <ele>352.886</ele>
        <time>2014-05-18T06:33:17Z</time>
      </trkpt>
      <trkpt lat="43.59298" lon="5.5288">
        <ele>353.816</ele>
        <time>2014-05-18T06:33:27Z</time>
      </trkpt>
      <trkpt lat="43.59292" lon="5.52894">
        <ele>355.297</ele>
        <time>2014-05-18T06:33:36Z</time>
      </trkpt>
      <trkpt lat="43.59286" lon="5.52907">
        <ele>356.237</ele>
        <time>2014-05-18T06:33:44Z</time>
      </trkpt>
      <trkpt lat="43.59281" lon="5.52916">
        <ele>357.888</ele>
        <time>2014-05-18T06:33:51Z</time>
      </trkpt>
      <trkpt lat="43.59279" lon="5.52932">
        <ele>360.678</ele>
        <time>2014-05-18T06:33:59Z</time>
      </trkpt>
      <trkpt lat="43.59277" lon="5.52944">
        <ele>363.397</ele>
        <time>2014-05-18T06:34:07Z</time>
      </trkpt>
      <trkpt lat="43.59276" lon="5.52954">
        <ele>366.017</ele>
        <time>2014-05-18T06:34:17Z</time>
      </trkpt>
      <trkpt lat="43.59268" lon="5.52986">
        <ele>367.707</ele>
        <time>2014-05-18T06:34:31Z</time>
      </trkpt>
      <trkpt lat="43.59265" lon="5.52997">
        <ele>368.847</ele>
        <time>2014-05-18T06:34:37Z</time>
      </trkpt>
      <trkpt lat="43.5926" lon="5.53015">
        <ele>370.507</ele>
        <time>2014-05-18T06:34:47Z</time>
      </trkpt>
      <trkpt lat="43.59258" lon="5.53022">
        <ele>371.608</ele>
        <time>2014-05-18T06:34:51Z</time>
      </trkpt>
      <trkpt lat="43.59258" lon="5.53035">
        <ele>374.098</ele>
        <time>2014-05-18T06:34:58Z</time>
      </trkpt>
      <trkpt lat="43.59259" lon="5.53046">
        <ele>375.847</ele>
        <time>2014-05-18T06:35:04Z</time>
      </trkpt>
      <trkpt lat="43.59255" lon="5.5306">
        <ele>376.016</ele>
        <time>2014-05-18T06:35:11Z</time>
      </trkpt>
      <trkpt lat="43.59246" lon="5.53073">
        <ele>376.977</ele>
        <time>2014-05-18T06:35:18Z</time>
      </trkpt>
      <trkpt lat="43.59236" lon="5.53083">
        <ele>377.256</ele>
        <time>2014-05-18T06:35:24Z</time>
      </trkpt>
      <trkpt lat="43.59228" lon="5.53094">
        <ele>376.036</ele>
        <time>2014-05-18T06:35:29Z</time>
      </trkpt>
      <trkpt lat="43.59219" lon="5.53107">
        <ele>377.336</ele>
        <time>2014-05-18T06:35:36Z</time>
      </trkpt>
      <trkpt lat="43.59209" lon="5.53116">
        <ele>376.966</ele>
        <time>2014-05-18T06:35:41Z</time>
      </trkpt>
      <trkpt lat="43.59197" lon="5.53126">
        <ele>377.356</ele>
        <time>2014-05-18T06:35:47Z</time>
      </trkpt>
      <trkpt lat="43.59185" lon="5.53135">
        <ele>377.126</ele>
        <time>2014-05-18T06:35:53Z</time>
      </trkpt>
      <trkpt lat="43.59176" lon="5.53148">
        <ele>377.166</ele>
        <time>2014-05-18T06:35:59Z</time>
      </trkpt>
      <trkpt lat="43.59166" lon="5.53159">
        <ele>377.046</ele>
        <time>2014-05-18T06:36:05Z</time>
      </trkpt>
      <trkpt lat="43.59154" lon="5.53174">
        <ele>377.246</ele>
        <time>2014-05-18T06:36:12Z</time>
      </trkpt>
      <trkpt lat="43.59141" lon="5.53179">
        <ele>377.136</ele>
        <time>2014-05-18T06:36:18Z</time>
      </trkpt>
      <trkpt lat="43.59139" lon="5.53181">
        <ele>377.116</ele>
        <time>2014-05-18T06:36:19Z</time>
      </trkpt>
      <trkpt lat="43.59133" lon="5.53189">
        <ele>377.366</ele>
        <time>2014-05-18T06:36:24Z</time>
      </trkpt>
      <trkpt lat="43.59123" lon="5.53199">
        <ele>377.956</ele>
        <time>2014-05-18T06:36:30Z</time>
      </trkpt>
      <trkpt lat="43.59119" lon="5.53203">
        <ele>378.486</ele>
        <time>2014-05-18T06:36:33Z</time>
      </trkpt>
      <trkpt lat="43.59109" lon="5.53209">
        <ele>379.086</ele>
        <time>2014-05-18T06:36:39Z</time>
      </trkpt>
      <trkpt lat="43.59101" lon="5.53219">
        <ele>380.106</ele>
        <time>2014-05-18T06:36:45Z</time>
      </trkpt>
      <trkpt lat="43.59094" lon="5.53232">
        <ele>381.797</ele>
        <time>2014-05-18T06:36:52Z</time>
      </trkpt>
      <trkpt lat="43.59089" lon="5.53241">
        <ele>381.676</ele>
        <time>2014-05-18T06:36:56Z</time>
      </trkpt>
      <trkpt lat="43.59078" lon="5.53252">
        <ele>382.396</ele>
        <time>2014-05-18T06:37:03Z</time>
      </trkpt>
      <trkpt lat="43.59064" lon="5.5326">
        <ele>383.016</ele>
        <time>2014-05-18T06:37:10Z</time>
      </trkpt>
      <trkpt lat="43.59058" lon="5.53274">
        <ele>383.806</ele>
        <time>2014-05-18T06:37:16Z</time>
      </trkpt>
      <trkpt lat="43.59056" lon="5.53287">
        <ele>384.906</ele>
        <time>2014-05-18T06:37:21Z</time>
      </trkpt>
      <trkpt lat="43.59054" lon="5.53296">
        <ele>385.576</ele>
        <time>2014-05-18T06:37:25Z</time>
      </trkpt>
      <trkpt lat="43.5905" lon="5.53302">
        <ele>385.836</ele>
        <time>2014-05-18T06:37:28Z</time>
      </trkpt>
      <trkpt lat="43.59046" lon="5.53307">
        <ele>386.466</ele>
        <time>2014-05-18T06:37:31Z</time>
      </trkpt>
      <trkpt lat="43.59041" lon="5.5331">
        <ele>387.116</ele>
        <time>2014-05-18T06:37:35Z</time>
      </trkpt>
      <trkpt lat="43.59036" lon="5.5331">
        <ele>386.866</ele>
        <time>2014-05-18T06:37:37Z</time>
      </trkpt>
      <trkpt lat="43.59027" lon="5.53315">
        <ele>387.296</ele>
        <time>2014-05-18T06:37:42Z</time>
      </trkpt>
      <trkpt lat="43.59021" lon="5.53324">
        <ele>387.767</ele>
        <time>2014-05-18T06:37:46Z</time>
      </trkpt>
      <trkpt lat="43.59021" lon="5.53329">
        <ele>387.896</ele>
        <time>2014-05-18T06:37:48Z</time>
      </trkpt>
      <trkpt lat="43.59019" lon="5.53342">
        <ele>388.746</ele>
        <time>2014-05-18T06:37:54Z</time>
      </trkpt>
      <trkpt lat="43.59007" lon="5.53348">
        <ele>389.076</ele>
        <time>2014-05-18T06:38:00Z</time>
      </trkpt>
      <trkpt lat="43.58997" lon="5.53354">
        <ele>389.547</ele>
        <time>2014-05-18T06:38:04Z</time>
      </trkpt>
      <trkpt lat="43.58993" lon="5.53366">
        <ele>390.727</ele>
        <time>2014-05-18T06:38:08Z</time>
      </trkpt>
      <trkpt lat="43.58979" lon="5.53377">
        <ele>390.306</ele>
        <time>2014-05-18T06:38:15Z</time>
      </trkpt>
      <trkpt lat="43.58964" lon="5.53389">
        <ele>390.536</ele>
        <time>2014-05-18T06:38:21Z</time>
      </trkpt>
      <trkpt lat="43.58957" lon="5.53397">
        <ele>391.067</ele>
        <time>2014-05-18T06:38:25Z</time>
      </trkpt>
      <trkpt lat="43.5895" lon="5.53411">
        <ele>392.687</ele>
        <time>2014-05-18T06:38:31Z</time>
      </trkpt>
      <trkpt lat="43.58948" lon="5.53423">
        <ele>393.877</ele>
        <time>2014-05-18T06:38:36Z</time>
      </trkpt>
      <trkpt lat="43.58939" lon="5.53434">
        <ele>393.776</ele>
        <time>2014-05-18T06:38:42Z</time>
      </trkpt>
      <trkpt lat="43.58926" lon="5.53436">
        <ele>393.065</ele>
        <time>2014-05-18T06:38:48Z</time>
      </trkpt>
      <trkpt lat="43.58915" lon="5.53442">
        <ele>393.886</ele>
        <time>2014-05-18T06:38:53Z</time>
      </trkpt>
      <trkpt lat="43.58914" lon="5.53445">
        <ele>394.297</ele>
        <time>2014-05-18T06:38:54Z</time>
      </trkpt>
      <trkpt lat="43.58906" lon="5.53458">
        <ele>395.457</ele>
        <time>2014-05-18T06:39:00Z</time>
      </trkpt>
      <trkpt lat="43.58904" lon="5.53462">
        <ele>395.918</ele>
        <time>2014-05-18T06:39:02Z</time>
      </trkpt>
      <trkpt lat="43.58897" lon="5.53469">
        <ele>395.596</ele>
        <time>2014-05-18T06:39:07Z</time>
      </trkpt>
      <trkpt lat="43.58895" lon="5.5347">
        <ele>395.926</ele>
        <time>2014-05-18T06:39:08Z</time>
      </trkpt>
      <trkpt lat="43.58885" lon="5.53484">
        <ele>395.725</ele>
        <time>2014-05-18T06:39:15Z</time>
      </trkpt>
      <trkpt lat="43.58883" lon="5.53487">
        <ele>395.124</ele>
        <time>2014-05-18T06:39:16Z</time>
      </trkpt>
      <trkpt lat="43.58867" lon="5.53505">
        <ele>395.246</ele>
        <time>2014-05-18T06:39:21Z</time>
      </trkpt>
      <trkpt lat="43.5886" lon="5.53516">
        <ele>395.286</ele>
        <time>2014-05-18T06:39:26Z</time>
      </trkpt>
      <trkpt lat="43.58851" lon="5.53529">
        <ele>397.368</ele>
        <time>2014-05-18T06:39:33Z</time>
      </trkpt>
      <trkpt lat="43.58843" lon="5.53543">
        <ele>399.427</ele>
        <time>2014-05-18T06:39:40Z</time>
      </trkpt>
      <trkpt lat="43.58838" lon="5.53549">
        <ele>399.736</ele>
        <time>2014-05-18T06:39:43Z</time>
      </trkpt>
      <trkpt lat="43.58825" lon="5.53552">
        <ele>399.135</ele>
        <time>2014-05-18T06:39:48Z</time>
      </trkpt>
      <trkpt lat="43.58821" lon="5.53552">
        <ele>399.025</ele>
        <time>2014-05-18T06:39:49Z</time>
      </trkpt>
      <trkpt lat="43.588" lon="5.53556">
        <ele>398.135</ele>
        <time>2014-05-18T06:39:55Z</time>
      </trkpt>
      <trkpt lat="43.58787" lon="5.53558">
        <ele>397.004</ele>
        <time>2014-05-18T06:39:59Z</time>
      </trkpt>
      <trkpt lat="43.58781" lon="5.53566">
        <ele>396.475</ele>
        <time>2014-05-18T06:40:01Z</time>
      </trkpt>
      <trkpt lat="43.58768" lon="5.53589">
        <ele>397.007</ele>
        <time>2014-05-18T06:40:07Z</time>
      </trkpt>
      <trkpt lat="43.58755" lon="5.53606">
        <ele>399.697</ele>
        <time>2014-05-18T06:40:15Z</time>
      </trkpt>
      <trkpt lat="43.58747" lon="5.5362">
        <ele>400.497</ele>
        <time>2014-05-18T06:40:21Z</time>
      </trkpt>
      <trkpt lat="43.58742" lon="5.53637">
        <ele>402.457</ele>
        <time>2014-05-18T06:40:28Z</time>
      </trkpt>
      <trkpt lat="43.58739" lon="5.53658">
        <ele>403.857</ele>
        <time>2014-05-18T06:40:36Z</time>
      </trkpt>
      <trkpt lat="43.58738" lon="5.53673">
        <ele>405.747</ele>
        <time>2014-05-18T06:40:43Z</time>
      </trkpt>
      <trkpt lat="43.58734" lon="5.5369">
        <ele>407.116</ele>
        <time>2014-05-18T06:40:51Z</time>
      </trkpt>
      <trkpt lat="43.58728" lon="5.53704">
        <ele>407.727</ele>
        <time>2014-05-18T06:40:58Z</time>
      </trkpt>
      <trkpt lat="43.58725" lon="5.53707">
        <ele>408.006</ele>
        <time>2014-05-18T06:41:00Z</time>
      </trkpt>
      <trkpt lat="43.58717" lon="5.53717">
        <ele>408.506</ele>
        <time>2014-05-18T06:41:06Z</time>
      </trkpt>
      <trkpt lat="43.58709" lon="5.53724">
        <ele>408.876</ele>
        <time>2014-05-18T06:41:11Z</time>
      </trkpt>
      <trkpt lat="43.58705" lon="5.53729">
        <ele>408.596</ele>
        <time>2014-05-18T06:41:14Z</time>
      </trkpt>
      <trkpt lat="43.58701" lon="5.53731">
        <ele>407.925</ele>
        <time>2014-05-18T06:41:16Z</time>
      </trkpt>
      <trkpt lat="43.58688" lon="5.53736">
        <ele>407.385</ele>
        <time>2014-05-18T06:41:21Z</time>
      </trkpt>
      <trkpt lat="43.58676" lon="5.53742">
        <ele>407.136</ele>
        <time>2014-05-18T06:41:26Z</time>
      </trkpt>
      <trkpt lat="43.58665" lon="5.53755">
        <ele>409.137</ele>
        <time>2014-05-18T06:41:32Z</time>
      </trkpt>
      <trkpt lat="43.58656" lon="5.53765">
        <ele>410.557</ele>
        <time>2014-05-18T06:41:38Z</time>
      </trkpt>
      <trkpt lat="43.5864" lon="5.53783">
        <ele>411.927</ele>
        <time>2014-05-18T06:41:47Z</time>
      </trkpt>
      <trkpt lat="43.58628" lon="5.53795">
        <ele>413.027</ele>
        <time>2014-05-18T06:41:54Z</time>
      </trkpt>
      <trkpt lat="43.58619" lon="5.53809">
        <ele>414.467</ele>
        <time>2014-05-18T06:42:01Z</time>
      </trkpt>
      <trkpt lat="43.58606" lon="5.53825">
        <ele>416.026</ele>
        <time>2014-05-18T06:42:11Z</time>
      </trkpt>
      <trkpt lat="43.58589" lon="5.53832">
        <ele>416.226</ele>
        <time>2014-05-18T06:42:19Z</time>
      </trkpt>
      <trkpt lat="43.58573" lon="5.53839">
        <ele>417.01</ele>
        <time>2014-05-18T06:42:26Z</time>
      </trkpt>
      <trkpt lat="43.58555" lon="5.53847">
        <ele>417.387</ele>
        <time>2014-05-18T06:42:34Z</time>
      </trkpt>
      <trkpt lat="43.58546" lon="5.53851">
        <ele>419.467</ele>
        <time>2014-05-18T06:42:40Z</time>
      </trkpt>
      <trkpt lat="43.58536" lon="5.53855">
        <ele>420.676</ele>
        <time>2014-05-18T06:42:46Z</time>
      </trkpt>
      <trkpt lat="43.58532" lon="5.53857">
        <ele>420.696</ele>
        <time>2014-05-18T06:42:48Z</time>
      </trkpt>
      <trkpt lat="43.58514" lon="5.53868">
        <ele>422.006</ele>
        <time>2014-05-18T06:42:57Z</time>
      </trkpt>
      <trkpt lat="43.58502" lon="5.53876">
        <ele>423.106</ele>
        <time>2014-05-18T06:43:03Z</time>
      </trkpt>
      <trkpt lat="43.58481" lon="5.53887">
        <ele>424.647</ele>
        <time>2014-05-18T06:43:14Z</time>
      </trkpt>
      <trkpt lat="43.58469" lon="5.53892">
        <ele>425.586</ele>
        <time>2014-05-18T06:43:20Z</time>
      </trkpt>
      <trkpt lat="43.5846" lon="5.53893">
        <ele>426.426</ele>
        <time>2014-05-18T06:43:25Z</time>
      </trkpt>
      <trkpt lat="43.58447" lon="5.53891">
        <ele>426.626</ele>
        <time>2014-05-18T06:43:32Z</time>
      </trkpt>
      <trkpt lat="43.58433" lon="5.53889">
        <ele>427.897</ele>
        <time>2014-05-18T06:43:39Z</time>
      </trkpt>
      <trkpt lat="43.58423" lon="5.53891">
        <ele>429.237</ele>
        <time>2014-05-18T06:43:44Z</time>
      </trkpt>
      <trkpt lat="43.58417" lon="5.53891">
        <ele>429.877</ele>
        <time>2014-05-18T06:43:47Z</time>
      </trkpt>
      <trkpt lat="43.58404" lon="5.53891">
        <ele>431.647</ele>
        <time>2014-05-18T06:43:54Z</time>
      </trkpt>
      <trkpt lat="43.58394" lon="5.53891">
        <ele>432.366</ele>
        <time>2014-05-18T06:43:59Z</time>
      </trkpt>
      <trkpt lat="43.58391" lon="5.53891">
        <ele>432.638</ele>
        <time>2014-05-18T06:44:01Z</time>
      </trkpt>
      <trkpt lat="43.58381" lon="5.53891">
        <ele>430.664</ele>
        <time>2014-05-18T06:44:06Z</time>
      </trkpt>
      <trkpt lat="43.58372" lon="5.53888">
        <ele>429.233</ele>
        <time>2014-05-18T06:44:09Z</time>
      </trkpt>
      <trkpt lat="43.58352" lon="5.53893">
        <ele>426.793</ele>
        <time>2014-05-18T06:44:14Z</time>
      </trkpt>
      <trkpt lat="43.58349" lon="5.53892">
        <ele>426.294</ele>
        <time>2014-05-18T06:44:15Z</time>
      </trkpt>
      <trkpt lat="43.58331" lon="5.53898">
        <ele>424.764</ele>
        <time>2014-05-18T06:44:20Z</time>
      </trkpt>
      <trkpt lat="43.5832" lon="5.5391">
        <ele>425.055</ele>
        <time>2014-05-18T06:44:26Z</time>
      </trkpt>
      <trkpt lat="43.58308" lon="5.53924">
        <ele>425.436</ele>
        <time>2014-05-18T06:44:32Z</time>
      </trkpt>
      <trkpt lat="43.58295" lon="5.53934">
        <ele>427.827</ele>
        <time>2014-05-18T06:44:39Z</time>
      </trkpt>
      <trkpt lat="43.58286" lon="5.53943">
        <ele>430.227</ele>
        <time>2014-05-18T06:44:45Z</time>
      </trkpt>
      <trkpt lat="43.58278" lon="5.53953">
        <ele>432.757</ele>
        <time>2014-05-18T06:44:52Z</time>
      </trkpt>
      <trkpt lat="43.58272" lon="5.53949">
        <ele>433.526</ele>
        <time>2014-05-18T06:44:56Z</time>
      </trkpt>
      <trkpt lat="43.58268" lon="5.5395">
        <ele>433.415</ele>
        <time>2014-05-18T06:45:02Z</time>
      </trkpt>
      <trkpt lat="43.58264" lon="5.53941">
        <ele>435.685</ele>
        <time>2014-05-18T06:45:38Z</time>
      </trkpt>
      <trkpt lat="43.58256" lon="5.53934">
        <ele>429.724</ele>
        <time>2014-05-18T06:46:08Z</time>
      </trkpt>
      <trkpt lat="43.58253" lon="5.53949">
        <ele>428.145</ele>
        <time>2014-05-18T06:46:13Z</time>
      </trkpt>
      <trkpt lat="43.58248" lon="5.53934">
        <ele>424.441</ele>
        <time>2014-05-18T06:46:18Z</time>
      </trkpt>
      <trkpt lat="43.58264" lon="5.53951">
        <ele>421.561</ele>
        <time>2014-05-18T06:46:22Z</time>
      </trkpt>
      <trkpt lat="43.58211" lon="5.54078">
        <ele>406.22</ele>
        <time>2014-05-18T06:46:35Z</time>
      </trkpt>
      <trkpt lat="43.58207" lon="5.54003">
        <ele>403.473</ele>
        <time>2014-05-18T06:46:40Z</time>
      </trkpt>
      <trkpt lat="43.58199" lon="5.54074">
        <ele>401.062</ele>
        <time>2014-05-18T06:46:45Z</time>
      </trkpt>
      <trkpt lat="43.58161" lon="5.54026">
        <ele>399.22</ele>
        <time>2014-05-18T06:46:47Z</time>
      </trkpt>
      <trkpt lat="43.58162" lon="5.54027">
        <ele>396.963</ele>
        <time>2014-05-18T06:46:52Z</time>
      </trkpt>
      <trkpt lat="43.58206" lon="5.54002">
        <ele>396.963</ele>
        <time>2014-05-18T06:46:53Z</time>
      </trkpt>
      <trkpt lat="43.58158" lon="5.54051">
        <ele>396.824</ele>
        <time>2014-05-18T06:46:59Z</time>
      </trkpt>
      <trkpt lat="43.58147" lon="5.54074">
        <ele>396.064</ele>
        <time>2014-05-18T06:47:04Z</time>
      </trkpt>
      <trkpt lat="43.58129" lon="5.54095">
        <ele>392.572</ele>
        <time>2014-05-18T06:47:10Z</time>
      </trkpt>
      <trkpt lat="43.58121" lon="5.54108">
        <ele>389.452</ele>
        <time>2014-05-18T06:47:14Z</time>
      </trkpt>
      <trkpt lat="43.58161" lon="5.54026">
        <ele>388.882</ele>
        <time>2014-05-18T06:47:15Z</time>
      </trkpt>
      <trkpt lat="43.58118" lon="5.54117">
        <ele>386.992</ele>
        <time>2014-05-18T06:47:19Z</time>
      </trkpt>
      <trkpt lat="43.58113" lon="5.54131">
        <ele>385.113</ele>
        <time>2014-05-18T06:47:23Z</time>
      </trkpt>
      <trkpt lat="43.58099" lon="5.54168">
        <ele>381.553</ele>
        <time>2014-05-18T06:47:30Z</time>
      </trkpt>
      <trkpt lat="43.58097" lon="5.54173">
        <ele>381.133</ele>
        <time>2014-05-18T06:47:31Z</time>
      </trkpt>
      <trkpt lat="43.58088" lon="5.54188">
        <ele>378.972</ele>
        <time>2014-05-18T06:47:34Z</time>
      </trkpt>
      <trkpt lat="43.5808" lon="5.54207">
        <ele>377.163</ele>
        <time>2014-05-18T06:47:38Z</time>
      </trkpt>
      <trkpt lat="43.58074" lon="5.54242">
        <ele>373.652</ele>
        <time>2014-05-18T06:47:45Z</time>
      </trkpt>
      <trkpt lat="43.58073" lon="5.54264">
        <ele>372.263</ele>
        <time>2014-05-18T06:47:49Z</time>
      </trkpt>
      <trkpt lat="43.58075" lon="5.54289">
        <ele>370.514</ele>
        <time>2014-05-18T06:47:54Z</time>
      </trkpt>
      <trkpt lat="43.58078" lon="5.54299">
        <ele>370.035</ele>
        <time>2014-05-18T06:48:14Z</time>
      </trkpt>
      <trkpt lat="43.58088" lon="5.5433">
        <ele>369.615</ele>
        <time>2014-05-18T06:48:21Z</time>
      </trkpt>
      <trkpt lat="43.58098" lon="5.54339">
        <ele>367.662</ele>
        <time>2014-05-18T06:48:25Z</time>
      </trkpt>
      <trkpt lat="43.58101" lon="5.54339">
        <ele>366.972</ele>
        <time>2014-05-18T06:48:26Z</time>
      </trkpt>
      <trkpt lat="43.58121" lon="5.54342">
        <ele>364.643</ele>
        <time>2014-05-18T06:48:30Z</time>
      </trkpt>
      <trkpt lat="43.58136" lon="5.54351">
        <ele>363.514</ele>
        <time>2014-05-18T06:48:34Z</time>
      </trkpt>
      <trkpt lat="43.58152" lon="5.54372">
        <ele>362.374</ele>
        <time>2014-05-18T06:48:39Z</time>
      </trkpt>
      <trkpt lat="43.58168" lon="5.54411">
        <ele>361.305</ele>
        <time>2014-05-18T06:48:46Z</time>
      </trkpt>
      <trkpt lat="43.58169" lon="5.54417">
        <ele>361.315</ele>
        <time>2014-05-18T06:48:47Z</time>
      </trkpt>
      <trkpt lat="43.58169" lon="5.54429">
        <ele>361.275</ele>
        <time>2014-05-18T06:48:49Z</time>
      </trkpt>
      <trkpt lat="43.58171" lon="5.5445">
        <ele>360.665</ele>
        <time>2014-05-18T06:48:53Z</time>
      </trkpt>
      <trkpt lat="43.58171" lon="5.54478">
        <ele>360.315</ele>
        <time>2014-05-18T06:48:57Z</time>
      </trkpt>
      <trkpt lat="43.58171" lon="5.54492">
        <ele>360.055</ele>
        <time>2014-05-18T06:48:59Z</time>
      </trkpt>
      <trkpt lat="43.58171" lon="5.54533">
        <ele>358.825</ele>
        <time>2014-05-18T06:49:05Z</time>
      </trkpt>
      <trkpt lat="43.58171" lon="5.54552">
        <ele>358.946</ele>
        <time>2014-05-18T06:49:09Z</time>
      </trkpt>
      <trkpt lat="43.5816" lon="5.54617">
        <ele>361.927</ele>
        <time>2014-05-18T06:49:40Z</time>
      </trkpt>
      <trkpt lat="43.58151" lon="5.54646">
        <ele>361.857</ele>
        <time>2014-05-18T06:49:45Z</time>
      </trkpt>
      <trkpt lat="43.58145" lon="5.54669">
        <ele>361.937</ele>
        <time>2014-05-18T06:49:49Z</time>
      </trkpt>
      <trkpt lat="43.58131" lon="5.54707">
        <ele>362.017</ele>
        <time>2014-05-18T06:49:56Z</time>
      </trkpt>
      <trkpt lat="43.58117" lon="5.5473">
        <ele>362.868</ele>
        <time>2014-05-18T06:50:01Z</time>
      </trkpt>
      <trkpt lat="43.58092" lon="5.5475">
        <ele>361.757</ele>
        <time>2014-05-18T06:50:08Z</time>
      </trkpt>
      <trkpt lat="43.58082" lon="5.54758">
        <ele>361.117</ele>
        <time>2014-05-18T06:50:11Z</time>
      </trkpt>
      <trkpt lat="43.58066" lon="5.54769">
        <ele>361.047</ele>
        <time>2014-05-18T06:50:15Z</time>
      </trkpt>
      <trkpt lat="43.58043" lon="5.54785">
        <ele>360.507</ele>
        <time>2014-05-18T06:50:21Z</time>
      </trkpt>
      <trkpt lat="43.58017" lon="5.54803">
        <ele>360.317</ele>
        <time>2014-05-18T06:50:28Z</time>
      </trkpt>
      <trkpt lat="43.57995" lon="5.54816">
        <ele>361.327</ele>
        <time>2014-05-18T06:50:34Z</time>
      </trkpt>
      <trkpt lat="43.57979" lon="5.54812">
        <ele>362.207</ele>
        <time>2014-05-18T06:50:38Z</time>
      </trkpt>
      <trkpt lat="43.57966" lon="5.54801">
        <ele>362.857</ele>
        <time>2014-05-18T06:50:42Z</time>
      </trkpt>
      <trkpt lat="43.57937" lon="5.54772">
        <ele>363.677</ele>
        <time>2014-05-18T06:50:51Z</time>
      </trkpt>
      <trkpt lat="43.57916" lon="5.5476">
        <ele>364.137</ele>
        <time>2014-05-18T06:50:57Z</time>
      </trkpt>
      <trkpt lat="43.57892" lon="5.54765">
        <ele>364.717</ele>
        <time>2014-05-18T06:51:03Z</time>
      </trkpt>
      <trkpt lat="43.57862" lon="5.54791">
        <ele>365.117</ele>
        <time>2014-05-18T06:51:12Z</time>
      </trkpt>
      <trkpt lat="43.57843" lon="5.5482">
        <ele>365.677</ele>
        <time>2014-05-18T06:51:20Z</time>
      </trkpt>
      <trkpt lat="43.57832" lon="5.54845">
        <ele>365.677</ele>
        <time>2014-05-18T06:51:26Z</time>
      </trkpt>
      <trkpt lat="43.57831" lon="5.54873">
        <ele>366.797</ele>
        <time>2014-05-18T06:51:32Z</time>
      </trkpt>
      <trkpt lat="43.57832" lon="5.54912">
        <ele>367.756</ele>
        <time>2014-05-18T06:51:41Z</time>
      </trkpt>
      <trkpt lat="43.57828" lon="5.54952">
        <ele>368.356</ele>
        <time>2014-05-18T06:51:50Z</time>
      </trkpt>
      <trkpt lat="43.57828" lon="5.54984">
        <ele>368.997</ele>
        <time>2014-05-18T06:51:57Z</time>
      </trkpt>
      <trkpt lat="43.57828" lon="5.55035">
        <ele>370.197</ele>
        <time>2014-05-18T06:52:08Z</time>
      </trkpt>
      <trkpt lat="43.57818" lon="5.55074">
        <ele>371.047</ele>
        <time>2014-05-18T06:52:17Z</time>
      </trkpt>
      <trkpt lat="43.57818" lon="5.55098">
        <ele>371.137</ele>
        <time>2014-05-18T06:52:22Z</time>
      </trkpt>
      <trkpt lat="43.57832" lon="5.55121">
        <ele>371.347</ele>
        <time>2014-05-18T06:52:28Z</time>
      </trkpt>
      <trkpt lat="43.57849" lon="5.55144">
        <ele>371.427</ele>
        <time>2014-05-18T06:52:36Z</time>
      </trkpt>
      <trkpt lat="43.57864" lon="5.55171">
        <ele>372.017</ele>
        <time>2014-05-18T06:52:45Z</time>
      </trkpt>
      <trkpt lat="43.57869" lon="5.55184">
        <ele>372.987</ele>
        <time>2014-05-18T06:52:50Z</time>
      </trkpt>
      <trkpt lat="43.5787" lon="5.55187">
        <ele>373.247</ele>
        <time>2014-05-18T06:52:56Z</time>
      </trkpt>
      <trkpt lat="43.57876" lon="5.55203">
        <ele>373.537</ele>
        <time>2014-05-18T06:53:02Z</time>
      </trkpt>
      <trkpt lat="43.57889" lon="5.55227">
        <ele>373.828</ele>
        <time>2014-05-18T06:53:08Z</time>
      </trkpt>
      <trkpt lat="43.57897" lon="5.55247">
        <ele>373.967</ele>
        <time>2014-05-18T06:53:14Z</time>
      </trkpt>
      <trkpt lat="43.57911" lon="5.55284">
        <ele>374.467</ele>
        <time>2014-05-18T06:53:23Z</time>
      </trkpt>
      <trkpt lat="43.57925" lon="5.55321">
        <ele>375.207</ele>
        <time>2014-05-18T06:53:32Z</time>
      </trkpt>
      <trkpt lat="43.57937" lon="5.55357">
        <ele>375.887</ele>
        <time>2014-05-18T06:53:41Z</time>
      </trkpt>
      <trkpt lat="43.57946" lon="5.55387">
        <ele>376.468</ele>
        <time>2014-05-18T06:53:48Z</time>
      </trkpt>
      <trkpt lat="43.57954" lon="5.55416">
        <ele>376.967</ele>
        <time>2014-05-18T06:53:55Z</time>
      </trkpt>
      <trkpt lat="43.57987" lon="5.55442">
        <ele>378.159</ele>
        <time>2014-05-18T06:54:04Z</time>
      </trkpt>
      <trkpt lat="43.57995" lon="5.55474">
        <ele>379.528</ele>
        <time>2014-05-18T06:54:12Z</time>
      </trkpt>
      <trkpt lat="43.58003" lon="5.55518">
        <ele>381.659</ele>
        <time>2014-05-18T06:54:23Z</time>
      </trkpt>
      <trkpt lat="43.58006" lon="5.55538">
        <ele>383.229</ele>
        <time>2014-05-18T06:54:29Z</time>
      </trkpt>
      <trkpt lat="43.57995" lon="5.55542">
        <ele>383.699</ele>
        <time>2014-05-18T06:54:31Z</time>
      </trkpt>
      <trkpt lat="43.57995" lon="5.55554">
        <ele>383.958</ele>
        <time>2014-05-18T06:54:35Z</time>
      </trkpt>
      <trkpt lat="43.57995" lon="5.55571">
        <ele>383.317</ele>
        <time>2014-05-18T06:54:39Z</time>
      </trkpt>
      <trkpt lat="43.57994" lon="5.55598">
        <ele>382.878</ele>
        <time>2014-05-18T06:54:45Z</time>
      </trkpt>
      <trkpt lat="43.57993" lon="5.5565">
        <ele>383.849</ele>
        <time>2014-05-18T06:54:55Z</time>
      </trkpt>
      <trkpt lat="43.5798" lon="5.55699">
        <ele>384.309</ele>
        <time>2014-05-18T06:55:05Z</time>
      </trkpt>
      <trkpt lat="43.57966" lon="5.55736">
        <ele>384.059</ele>
        <time>2014-05-18T06:55:13Z</time>
      </trkpt>
      <trkpt lat="43.57954" lon="5.5577">
        <ele>383.828</ele>
        <time>2014-05-18T06:55:20Z</time>
      </trkpt>
      <trkpt lat="43.57946" lon="5.55812">
        <ele>384.089</ele>
        <time>2014-05-18T06:55:28Z</time>
      </trkpt>
      <trkpt lat="43.57935" lon="5.55846">
        <ele>383.979</ele>
        <time>2014-05-18T06:55:35Z</time>
      </trkpt>
      <trkpt lat="43.57913" lon="5.55884">
        <ele>383.899</ele>
        <time>2014-05-18T06:55:44Z</time>
      </trkpt>
      <trkpt lat="43.57892" lon="5.55915">
        <ele>384.069</ele>
        <time>2014-05-18T06:55:52Z</time>
      </trkpt>
      <trkpt lat="43.57861" lon="5.55946">
        <ele>384.779</ele>
        <time>2014-05-18T06:56:02Z</time>
      </trkpt>
      <trkpt lat="43.57838" lon="5.55975">
        <ele>385.359</ele>
        <time>2014-05-18T06:56:11Z</time>
      </trkpt>
      <trkpt lat="43.57834" lon="5.55992">
        <ele>385.97</ele>
        <time>2014-05-18T06:56:16Z</time>
      </trkpt>
      <trkpt lat="43.57822" lon="5.55997">
        <ele>386.35</ele>
        <time>2014-05-18T06:56:20Z</time>
      </trkpt>
      <trkpt lat="43.57807" lon="5.56">
        <ele>388.17</ele>
        <time>2014-05-18T06:56:27Z</time>
      </trkpt>
      <trkpt lat="43.57786" lon="5.5601">
        <ele>389.289</ele>
        <time>2014-05-18T06:56:37Z</time>
      </trkpt>
      <trkpt lat="43.57766" lon="5.56016">
        <ele>390.209</ele>
        <time>2014-05-18T06:56:45Z</time>
      </trkpt>
      <trkpt lat="43.57756" lon="5.56007">
        <ele>391.04</ele>
        <time>2014-05-18T06:56:50Z</time>
      </trkpt>
      <trkpt lat="43.57746" lon="5.55989">
        <ele>392.179</ele>
        <time>2014-05-18T06:56:57Z</time>
      </trkpt>
      <trkpt lat="43.57733" lon="5.55978">
        <ele>392.859</ele>
        <time>2014-05-18T06:57:03Z</time>
      </trkpt>
      <trkpt lat="43.57718" lon="5.55979">
        <ele>393.479</ele>
        <time>2014-05-18T06:57:08Z</time>
      </trkpt>
      <trkpt lat="43.57697" lon="5.55993">
        <ele>394.199</ele>
        <time>2014-05-18T06:57:16Z</time>
      </trkpt>
      <trkpt lat="43.57669" lon="5.56016">
        <ele>394.969</ele>
        <time>2014-05-18T06:57:27Z</time>
      </trkpt>
      <trkpt lat="43.5764" lon="5.56033">
        <ele>395.739</ele>
        <time>2014-05-18T06:57:38Z</time>
      </trkpt>
      <trkpt lat="43.57617" lon="5.56042">
        <ele>396.549</ele>
        <time>2014-05-18T06:57:46Z</time>
      </trkpt>
      <trkpt lat="43.5759" lon="5.56046">
        <ele>397.419</ele>
        <time>2014-05-18T06:57:56Z</time>
      </trkpt>
      <trkpt lat="43.57561" lon="5.56048">
        <ele>398.469</ele>
        <time>2014-05-18T06:58:06Z</time>
      </trkpt>
      <trkpt lat="43.57544" lon="5.56053">
        <ele>398.969</ele>
        <time>2014-05-18T06:58:12Z</time>
      </trkpt>
      <trkpt lat="43.57519" lon="5.56071">
        <ele>399.579</ele>
        <time>2014-05-18T06:58:22Z</time>
      </trkpt>
      <trkpt lat="43.57499" lon="5.561">
        <ele>399.919</ele>
        <time>2014-05-18T06:58:33Z</time>
      </trkpt>
      <trkpt lat="43.57481" lon="5.56118">
        <ele>400.509</ele>
        <time>2014-05-18T06:58:41Z</time>
      </trkpt>
      <trkpt lat="43.57464" lon="5.56127">
        <ele>401.229</ele>
        <time>2014-05-18T06:58:48Z</time>
      </trkpt>
      <trkpt lat="43.57447" lon="5.56129">
        <ele>402.239</ele>
        <time>2014-05-18T06:58:55Z</time>
      </trkpt>
      <trkpt lat="43.57433" lon="5.56127">
        <ele>403.929</ele>
        <time>2014-05-18T06:59:01Z</time>
      </trkpt>
      <trkpt lat="43.57411" lon="5.56137">
        <ele>405.284</ele>
        <time>2014-05-18T06:59:12Z</time>
      </trkpt>
      <trkpt lat="43.57401" lon="5.56156">
        <ele>405.789</ele>
        <time>2014-05-18T06:59:20Z</time>
      </trkpt>
      <trkpt lat="43.57397" lon="5.56184">
        <ele>407.079</ele>
        <time>2014-05-18T06:59:29Z</time>
      </trkpt>
      <trkpt lat="43.57389" lon="5.56199">
        <ele>407.759</ele>
        <time>2014-05-18T06:59:35Z</time>
      </trkpt>
      <trkpt lat="43.57374" lon="5.562">
        <ele>408.108</ele>
        <time>2014-05-18T06:59:41Z</time>
      </trkpt>
      <trkpt lat="43.57351" lon="5.562">
        <ele>409.099</ele>
        <time>2014-05-18T06:59:50Z</time>
      </trkpt>
      <trkpt lat="43.57333" lon="5.56204">
        <ele>409.859</ele>
        <time>2014-05-18T06:59:58Z</time>
      </trkpt>
      <trkpt lat="43.57328" lon="5.56216">
        <ele>410.86</ele>
        <time>2014-05-18T07:00:03Z</time>
      </trkpt>
      <trkpt lat="43.57325" lon="5.56234">
        <ele>411.269</ele>
        <time>2014-05-18T07:00:10Z</time>
      </trkpt>
      <trkpt lat="43.57321" lon="5.56251">
        <ele>411.449</ele>
        <time>2014-05-18T07:00:17Z</time>
      </trkpt>
      <trkpt lat="43.57318" lon="5.56266">
        <ele>413.099</ele>
        <time>2014-05-18T07:00:24Z</time>
      </trkpt>
      <trkpt lat="43.57311" lon="5.5627">
        <ele>414.684</ele>
        <time>2014-05-18T07:00:29Z</time>
      </trkpt>
      <trkpt lat="43.57298" lon="5.56267">
        <ele>417.129</ele>
        <time>2014-05-18T07:00:37Z</time>
      </trkpt>
      <trkpt lat="43.57286" lon="5.56269">
        <ele>418.179</ele>
        <time>2014-05-18T07:00:44Z</time>
      </trkpt>
      <trkpt lat="43.57274" lon="5.56275">
        <ele>419.489</ele>
        <time>2014-05-18T07:00:52Z</time>
      </trkpt>
      <trkpt lat="43.57272" lon="5.56277">
        <ele>419.709</ele>
        <time>2014-05-18T07:00:57Z</time>
      </trkpt>
      <trkpt lat="43.57265" lon="5.56277">
        <ele>420.669</ele>
        <time>2014-05-18T07:01:02Z</time>
      </trkpt>
      <trkpt lat="43.57264" lon="5.56277">
        <ele>420.839</ele>
        <time>2014-05-18T07:01:03Z</time>
      </trkpt>
      <trkpt lat="43.57262" lon="5.56277">
        <ele>421.169</ele>
        <time>2014-05-18T07:01:10Z</time>
      </trkpt>
      <trkpt lat="43.57246" lon="5.56295">
        <ele>421.059</ele>
        <time>2014-05-18T07:01:17Z</time>
      </trkpt>
      <trkpt lat="43.57239" lon="5.56306">
        <ele>421.88</ele>
        <time>2014-05-18T07:01:24Z</time>
      </trkpt>
      <trkpt lat="43.57234" lon="5.56323">
        <ele>422.62</ele>
        <time>2014-05-18T07:01:32Z</time>
      </trkpt>
      <trkpt lat="43.57234" lon="5.56335">
        <ele>422.62</ele>
        <time>2014-05-18T07:01:38Z</time>
      </trkpt>
      <trkpt lat="43.57233" lon="5.56352">
        <ele>423.059</ele>
        <time>2014-05-18T07:01:46Z</time>
      </trkpt>
      <trkpt lat="43.57231" lon="5.56368">
        <ele>423.059</ele>
        <time>2014-05-18T07:01:54Z</time>
      </trkpt>
      <trkpt lat="43.57232" lon="5.56392">
        <ele>422.398</ele>
        <time>2014-05-18T07:02:03Z</time>
      </trkpt>
      <trkpt lat="43.57235" lon="5.56407">
        <ele>422.248</ele>
        <time>2014-05-18T07:02:09Z</time>
      </trkpt>
      <trkpt lat="43.57232" lon="5.56431">
        <ele>423.319</ele>
        <time>2014-05-18T07:02:18Z</time>
      </trkpt>
      <trkpt lat="43.57224" lon="5.56451">
        <ele>424.339</ele>
        <time>2014-05-18T07:02:27Z</time>
      </trkpt>
      <trkpt lat="43.57218" lon="5.56461">
        <ele>425.049</ele>
        <time>2014-05-18T07:02:32Z</time>
      </trkpt>
      <trkpt lat="43.57211" lon="5.56473">
        <ele>426.36</ele>
        <time>2014-05-18T07:02:40Z</time>
      </trkpt>
      <trkpt lat="43.5721" lon="5.56475">
        <ele>426.63</ele>
        <time>2014-05-18T07:02:41Z</time>
      </trkpt>
      <trkpt lat="43.57205" lon="5.56482">
        <ele>427.279</ele>
        <time>2014-05-18T07:02:45Z</time>
      </trkpt>
      <trkpt lat="43.57198" lon="5.56495">
        <ele>428.039</ele>
        <time>2014-05-18T07:02:52Z</time>
      </trkpt>
      <trkpt lat="43.57191" lon="5.56509">
        <ele>429.589</ele>
        <time>2014-05-18T07:02:59Z</time>
      </trkpt>
      <trkpt lat="43.57187" lon="5.56526">
        <ele>430.109</ele>
        <time>2014-05-18T07:03:07Z</time>
      </trkpt>
      <trkpt lat="43.57186" lon="5.5654">
        <ele>430.529</ele>
        <time>2014-05-18T07:03:13Z</time>
      </trkpt>
      <trkpt lat="43.57194" lon="5.5655">
        <ele>431.58</ele>
        <time>2014-05-18T07:03:19Z</time>
      </trkpt>
      <trkpt lat="43.57213" lon="5.5656">
        <ele>433.059</ele>
        <time>2014-05-18T07:03:28Z</time>
      </trkpt>
      <trkpt lat="43.5723" lon="5.56566">
        <ele>433.659</ele>
        <time>2014-05-18T07:03:36Z</time>
      </trkpt>
      <trkpt lat="43.57237" lon="5.56578">
        <ele>434.459</ele>
        <time>2014-05-18T07:03:43Z</time>
      </trkpt>
      <trkpt lat="43.57245" lon="5.56592">
        <ele>435.019</ele>
        <time>2014-05-18T07:03:50Z</time>
      </trkpt>
      <trkpt lat="43.57251" lon="5.56611">
        <ele>436.759</ele>
        <time>2014-05-18T07:03:58Z</time>
      </trkpt>
      <trkpt lat="43.57256" lon="5.56626">
        <ele>438.189</ele>
        <time>2014-05-18T07:04:05Z</time>
      </trkpt>
      <trkpt lat="43.57262" lon="5.56644">
        <ele>438.639</ele>
        <time>2014-05-18T07:04:13Z</time>
      </trkpt>
      <trkpt lat="43.57264" lon="5.56667">
        <ele>440.13</ele>
        <time>2014-05-18T07:04:21Z</time>
      </trkpt>
      <trkpt lat="43.57265" lon="5.56699">
        <ele>441.919</ele>
        <time>2014-05-18T07:04:31Z</time>
      </trkpt>
      <trkpt lat="43.57265" lon="5.56731">
        <ele>443.71</ele>
        <time>2014-05-18T07:04:41Z</time>
      </trkpt>
      <trkpt lat="43.57264" lon="5.56763">
        <ele>444.759</ele>
        <time>2014-05-18T07:04:51Z</time>
      </trkpt>
      <trkpt lat="43.57263" lon="5.56795">
        <ele>445.399</ele>
        <time>2014-05-18T07:05:01Z</time>
      </trkpt>
      <trkpt lat="43.57262" lon="5.56823">
        <ele>446.33</ele>
        <time>2014-05-18T07:05:10Z</time>
      </trkpt>
      <trkpt lat="43.57258" lon="5.5685">
        <ele>446.88</ele>
        <time>2014-05-18T07:05:19Z</time>
      </trkpt>
      <trkpt lat="43.57258" lon="5.56876">
        <ele>447.22</ele>
        <time>2014-05-18T07:05:27Z</time>
      </trkpt>
      <trkpt lat="43.57259" lon="5.56894">
        <ele>447.56</ele>
        <time>2014-05-18T07:05:33Z</time>
      </trkpt>
      <trkpt lat="43.57253" lon="5.56918">
        <ele>448.786</ele>
        <time>2014-05-18T07:05:41Z</time>
      </trkpt>
      <trkpt lat="43.57239" lon="5.56922">
        <ele>450.331</ele>
        <time>2014-05-18T07:05:48Z</time>
      </trkpt>
      <trkpt lat="43.57226" lon="5.56923">
        <ele>451.971</ele>
        <time>2014-05-18T07:05:54Z</time>
      </trkpt>
      <trkpt lat="43.57212" lon="5.56938">
        <ele>453.01</ele>
        <time>2014-05-18T07:06:02Z</time>
      </trkpt>
      <trkpt lat="43.57203" lon="5.56959">
        <ele>453.11</ele>
        <time>2014-05-18T07:06:10Z</time>
      </trkpt>
      <trkpt lat="43.57192" lon="5.56971">
        <ele>454.062</ele>
        <time>2014-05-18T07:06:17Z</time>
      </trkpt>
      <trkpt lat="43.5718" lon="5.56981">
        <ele>455.632</ele>
        <time>2014-05-18T07:06:24Z</time>
      </trkpt>
      <trkpt lat="43.57166" lon="5.56994">
        <ele>456.432</ele>
        <time>2014-05-18T07:06:32Z</time>
      </trkpt>
      <trkpt lat="43.57155" lon="5.57004">
        <ele>458.782</ele>
        <time>2014-05-18T07:06:39Z</time>
      </trkpt>
      <trkpt lat="43.57146" lon="5.57014">
        <ele>458.531</ele>
        <time>2014-05-18T07:06:45Z</time>
      </trkpt>
      <trkpt lat="43.57137" lon="5.5703">
        <ele>456.97</ele>
        <time>2014-05-18T07:06:52Z</time>
      </trkpt>
      <trkpt lat="43.57124" lon="5.5705">
        <ele>456.451</ele>
        <time>2014-05-18T07:07:01Z</time>
      </trkpt>
      <trkpt lat="43.57112" lon="5.57067">
        <ele>457.451</ele>
        <time>2014-05-18T07:07:09Z</time>
      </trkpt>
      <trkpt lat="43.57099" lon="5.57089">
        <ele>458.764</ele>
        <time>2014-05-18T07:07:19Z</time>
      </trkpt>
      <trkpt lat="43.57092" lon="5.57097">
        <ele>459.951</ele>
        <time>2014-05-18T07:07:24Z</time>
      </trkpt>
      <trkpt lat="43.57078" lon="5.571">
        <ele>462.242</ele>
        <time>2014-05-18T07:07:31Z</time>
      </trkpt>
      <trkpt lat="43.57067" lon="5.57104">
        <ele>462.55</ele>
        <time>2014-05-18T07:07:37Z</time>
      </trkpt>
      <trkpt lat="43.57055" lon="5.57116">
        <ele>463.212</ele>
        <time>2014-05-18T07:07:44Z</time>
      </trkpt>
      <trkpt lat="43.57044" lon="5.57132">
        <ele>463.501</ele>
        <time>2014-05-18T07:07:51Z</time>
      </trkpt>
      <trkpt lat="43.57033" lon="5.57154">
        <ele>463.831</ele>
        <time>2014-05-18T07:08:00Z</time>
      </trkpt>
      <trkpt lat="43.57027" lon="5.57171">
        <ele>465.251</ele>
        <time>2014-05-18T07:08:07Z</time>
      </trkpt>
      <trkpt lat="43.57016" lon="5.5719">
        <ele>466.611</ele>
        <time>2014-05-18T07:08:15Z</time>
      </trkpt>
      <trkpt lat="43.57003" lon="5.57204">
        <ele>467.411</ele>
        <time>2014-05-18T07:08:22Z</time>
      </trkpt>
      <trkpt lat="43.56989" lon="5.5722">
        <ele>467.821</ele>
        <time>2014-05-18T07:08:29Z</time>
      </trkpt>
      <trkpt lat="43.56979" lon="5.57246">
        <ele>468</ele>
        <time>2014-05-18T07:08:38Z</time>
      </trkpt>
      <trkpt lat="43.56973" lon="5.57273">
        <ele>468.8</ele>
        <time>2014-05-18T07:08:47Z</time>
      </trkpt>
      <trkpt lat="43.56968" lon="5.57297">
        <ele>469</ele>
        <time>2014-05-18T07:08:55Z</time>
      </trkpt>
      <trkpt lat="43.56968" lon="5.57315">
        <ele>469.4</ele>
        <time>2014-05-18T07:09:01Z</time>
      </trkpt>
      <trkpt lat="43.56968" lon="5.57336">
        <ele>470.93</ele>
        <time>2014-05-18T07:09:09Z</time>
      </trkpt>
      <trkpt lat="43.56966" lon="5.57355">
        <ele>472.171</ele>
        <time>2014-05-18T07:09:16Z</time>
      </trkpt>
      <trkpt lat="43.56961" lon="5.57379">
        <ele>472.51</ele>
        <time>2014-05-18T07:09:25Z</time>
      </trkpt>
      <trkpt lat="43.56954" lon="5.57398">
        <ele>473.371</ele>
        <time>2014-05-18T07:09:33Z</time>
      </trkpt>
      <trkpt lat="43.56942" lon="5.57419">
        <ele>474.371</ele>
        <time>2014-05-18T07:09:43Z</time>
      </trkpt>
      <trkpt lat="43.56932" lon="5.57434">
        <ele>476.532</ele>
        <time>2014-05-18T07:09:51Z</time>
      </trkpt>
      <trkpt lat="43.56926" lon="5.57442">
        <ele>478.011</ele>
        <time>2014-05-18T07:09:56Z</time>
      </trkpt>
      <trkpt lat="43.56917" lon="5.57452">
        <ele>477.52</ele>
        <time>2014-05-18T07:10:02Z</time>
      </trkpt>
      <trkpt lat="43.56907" lon="5.57459">
        <ele>477.73</ele>
        <time>2014-05-18T07:10:10Z</time>
      </trkpt>
      <trkpt lat="43.56902" lon="5.57463">
        <ele>477.432</ele>
        <time>2014-05-18T07:10:16Z</time>
      </trkpt>
      <trkpt lat="43.56884" lon="5.57464">
        <ele>485.699</ele>
        <time>2014-05-18T07:12:26Z</time>
      </trkpt>
      <trkpt lat="43.56871" lon="5.57465">
        <ele>481.839</ele>
        <time>2014-05-18T07:12:33Z</time>
      </trkpt>
      <trkpt lat="43.56858" lon="5.57468">
        <ele>480.139</ele>
        <time>2014-05-18T07:12:40Z</time>
      </trkpt>
      <trkpt lat="43.56845" lon="5.57471">
        <ele>480.31</ele>
        <time>2014-05-18T07:12:47Z</time>
      </trkpt>
      <trkpt lat="43.56832" lon="5.57478">
        <ele>477.119</ele>
        <time>2014-05-18T07:12:54Z</time>
      </trkpt>
      <trkpt lat="43.5682" lon="5.57485">
        <ele>479.869</ele>
        <time>2014-05-18T07:13:02Z</time>
      </trkpt>
      <trkpt lat="43.56814" lon="5.57491">
        <ele>479.448</ele>
        <time>2014-05-18T07:13:07Z</time>
      </trkpt>
      <trkpt lat="43.56806" lon="5.57498">
        <ele>477.607</ele>
        <time>2014-05-18T07:13:15Z</time>
      </trkpt>
      <trkpt lat="43.56799" lon="5.57505">
        <ele>480.958</ele>
        <time>2014-05-18T07:13:21Z</time>
      </trkpt>
      <trkpt lat="43.56792" lon="5.57513">
        <ele>485.119</ele>
        <time>2014-05-18T07:13:27Z</time>
      </trkpt>
      <trkpt lat="43.56785" lon="5.57522">
        <ele>481.968</ele>
        <time>2014-05-18T07:13:34Z</time>
      </trkpt>
      <trkpt lat="43.5678" lon="5.5753">
        <ele>479.358</ele>
        <time>2014-05-18T07:13:40Z</time>
      </trkpt>
      <trkpt lat="43.56773" lon="5.57539">
        <ele>482.429</ele>
        <time>2014-05-18T07:13:47Z</time>
      </trkpt>
      <trkpt lat="43.56768" lon="5.57549">
        <ele>483</ele>
        <time>2014-05-18T07:13:54Z</time>
      </trkpt>
      <trkpt lat="43.56763" lon="5.5756">
        <ele>485.969</ele>
        <time>2014-05-18T07:14:01Z</time>
      </trkpt>
      <trkpt lat="43.56759" lon="5.57575">
        <ele>484.569</ele>
        <time>2014-05-18T07:14:09Z</time>
      </trkpt>
      <trkpt lat="43.56756" lon="5.5759">
        <ele>497.302</ele>
        <time>2014-05-18T07:14:18Z</time>
      </trkpt>
      <trkpt lat="43.56755" lon="5.57604">
        <ele>500.671</ele>
        <time>2014-05-18T07:14:26Z</time>
      </trkpt>
      <trkpt lat="43.56753" lon="5.57617">
        <ele>504.321</ele>
        <time>2014-05-18T07:14:34Z</time>
      </trkpt>
      <trkpt lat="43.56751" lon="5.57632">
        <ele>504.151</ele>
        <time>2014-05-18T07:14:41Z</time>
      </trkpt>
      <trkpt lat="43.56753" lon="5.57652">
        <ele>504.33</ele>
        <time>2014-05-18T07:14:51Z</time>
      </trkpt>
      <trkpt lat="43.56755" lon="5.57665">
        <ele>508.591</ele>
        <time>2014-05-18T07:14:59Z</time>
      </trkpt>
      <trkpt lat="43.56755" lon="5.57675">
        <ele>511.581</ele>
        <time>2014-05-18T07:15:06Z</time>
      </trkpt>
      <trkpt lat="43.56755" lon="5.57698">
        <ele>500.268</ele>
        <time>2014-05-18T07:15:14Z</time>
      </trkpt>
      <trkpt lat="43.56757" lon="5.57716">
        <ele>501.66</ele>
        <time>2014-05-18T07:15:22Z</time>
      </trkpt>
      <trkpt lat="43.5676" lon="5.57731">
        <ele>508.592</ele>
        <time>2014-05-18T07:15:31Z</time>
      </trkpt>
      <trkpt lat="43.56762" lon="5.57741">
        <ele>509.472</ele>
        <time>2014-05-18T07:15:37Z</time>
      </trkpt>
      <trkpt lat="43.56764" lon="5.57758">
        <ele>513.012</ele>
        <time>2014-05-18T07:15:46Z</time>
      </trkpt>
      <trkpt lat="43.56761" lon="5.57774">
        <ele>515.001</ele>
        <time>2014-05-18T07:15:54Z</time>
      </trkpt>
      <trkpt lat="43.56752" lon="5.57794">
        <ele>518.661</ele>
        <time>2014-05-18T07:16:04Z</time>
      </trkpt>
      <trkpt lat="43.5674" lon="5.57809">
        <ele>518.009</ele>
        <time>2014-05-18T07:16:13Z</time>
      </trkpt>
      <trkpt lat="43.5673" lon="5.5782">
        <ele>518.12</ele>
        <time>2014-05-18T07:16:20Z</time>
      </trkpt>
      <trkpt lat="43.56721" lon="5.57833">
        <ele>521.011</ele>
        <time>2014-05-18T07:16:28Z</time>
      </trkpt>
      <trkpt lat="43.56711" lon="5.57851">
        <ele>522.851</ele>
        <time>2014-05-18T07:16:37Z</time>
      </trkpt>
      <trkpt lat="43.56706" lon="5.57867">
        <ele>521.35</ele>
        <time>2014-05-18T07:16:43Z</time>
      </trkpt>
      <trkpt lat="43.56704" lon="5.57887">
        <ele>524.782</ele>
        <time>2014-05-18T07:16:51Z</time>
      </trkpt>
      <trkpt lat="43.56701" lon="5.57907">
        <ele>524.91</ele>
        <time>2014-05-18T07:16:59Z</time>
      </trkpt>
      <trkpt lat="43.56698" lon="5.57927">
        <ele>523.06</ele>
        <time>2014-05-18T07:17:07Z</time>
      </trkpt>
      <trkpt lat="43.56694" lon="5.57945">
        <ele>521.239</ele>
        <time>2014-05-18T07:17:15Z</time>
      </trkpt>
      <trkpt lat="43.56685" lon="5.57962">
        <ele>522.25</ele>
        <time>2014-05-18T07:17:24Z</time>
      </trkpt>
      <trkpt lat="43.5668" lon="5.57973">
        <ele>523.15</ele>
        <time>2014-05-18T07:17:30Z</time>
      </trkpt>
      <trkpt lat="43.56674" lon="5.57988">
        <ele>524.072</ele>
        <time>2014-05-18T07:17:37Z</time>
      </trkpt>
      <trkpt lat="43.56669" lon="5.58">
        <ele>525.842</ele>
        <time>2014-05-18T07:17:43Z</time>
      </trkpt>
      <trkpt lat="43.56667" lon="5.58015">
        <ele>528.681</ele>
        <time>2014-05-18T07:17:49Z</time>
      </trkpt>
      <trkpt lat="43.56668" lon="5.58037">
        <ele>527.64</ele>
        <time>2014-05-18T07:17:57Z</time>
      </trkpt>
      <trkpt lat="43.5667" lon="5.58054">
        <ele>528.021</ele>
        <time>2014-05-18T07:18:03Z</time>
      </trkpt>
      <trkpt lat="43.56669" lon="5.58077">
        <ele>526.19</ele>
        <time>2014-05-18T07:18:12Z</time>
      </trkpt>
      <trkpt lat="43.56667" lon="5.58098">
        <ele>531.812</ele>
        <time>2014-05-18T07:18:21Z</time>
      </trkpt>
      <trkpt lat="43.56669" lon="5.58109">
        <ele>535.103</ele>
        <time>2014-05-18T07:18:28Z</time>
      </trkpt>
      <trkpt lat="43.56671" lon="5.58121">
        <ele>530.569</ele>
        <time>2014-05-18T07:18:36Z</time>
      </trkpt>
      <trkpt lat="43.56671" lon="5.5813">
        <ele>531.77</ele>
        <time>2014-05-18T07:18:43Z</time>
      </trkpt>
      <trkpt lat="43.56679" lon="5.58146">
        <ele>537.663</ele>
        <time>2014-05-18T07:18:52Z</time>
      </trkpt>
      <trkpt lat="43.56685" lon="5.58162">
        <ele>544.673</ele>
        <time>2014-05-18T07:19:01Z</time>
      </trkpt>
      <trkpt lat="43.56688" lon="5.58188">
        <ele>537.22</ele>
        <time>2014-05-18T07:19:08Z</time>
      </trkpt>
      <trkpt lat="43.56685" lon="5.58199">
        <ele>535.29</ele>
        <time>2014-05-18T07:19:13Z</time>
      </trkpt>
      <trkpt lat="43.56683" lon="5.58211">
        <ele>537.912</ele>
        <time>2014-05-18T07:19:19Z</time>
      </trkpt>
      <trkpt lat="43.56678" lon="5.58224">
        <ele>537.571</ele>
        <time>2014-05-18T07:19:26Z</time>
      </trkpt>
      <trkpt lat="43.56672" lon="5.58235">
        <ele>538.281</ele>
        <time>2014-05-18T07:19:32Z</time>
      </trkpt>
      <trkpt lat="43.56671" lon="5.58236">
        <ele>537.881</ele>
        <time>2014-05-18T07:19:33Z</time>
      </trkpt>
      <trkpt lat="43.56674" lon="5.58257">
        <ele>537.591</ele>
        <time>2014-05-18T07:19:38Z</time>
      </trkpt>
      <trkpt lat="43.56679" lon="5.58272">
        <ele>538.203</ele>
        <time>2014-05-18T07:19:47Z</time>
      </trkpt>
      <trkpt lat="43.56669" lon="5.58241">
        <ele>540.653</ele>
        <time>2014-05-18T07:19:56Z</time>
      </trkpt>
      <trkpt lat="43.5668" lon="5.58286">
        <ele>544.193</ele>
        <time>2014-05-18T07:20:04Z</time>
      </trkpt>
      <trkpt lat="43.5668" lon="5.5829">
        <ele>545.492</ele>
        <time>2014-05-18T07:20:12Z</time>
      </trkpt>
      <trkpt lat="43.56669" lon="5.58241">
        <ele>542.112</ele>
        <time>2014-05-18T07:20:20Z</time>
      </trkpt>
      <trkpt lat="43.5668" lon="5.5829">
        <ele>541.131</ele>
        <time>2014-05-18T07:20:28Z</time>
      </trkpt>
      <trkpt lat="43.56669" lon="5.58241">
        <ele>550.954</ele>
        <time>2014-05-18T07:20:42Z</time>
      </trkpt>
      <trkpt lat="43.5668" lon="5.5829">
        <ele>555.744</ele>
        <time>2014-05-18T07:20:48Z</time>
      </trkpt>
      <trkpt lat="43.56679" lon="5.58293">
        <ele>554.303</ele>
        <time>2014-05-18T07:20:56Z</time>
      </trkpt>
      <trkpt lat="43.56678" lon="5.58296">
        <ele>553.632</ele>
        <time>2014-05-18T07:21:00Z</time>
      </trkpt>
      <trkpt lat="43.56675" lon="5.58308">
        <ele>561.663</ele>
        <time>2014-05-18T07:21:21Z</time>
      </trkpt>
      <trkpt lat="43.56673" lon="5.58313">
        <ele>556.551</ele>
        <time>2014-05-18T07:21:38Z</time>
      </trkpt>
      <trkpt lat="43.56809" lon="5.58405">
        <ele>571.153</ele>
        <time>2014-05-18T07:22:55Z</time>
      </trkpt>
      <trkpt lat="43.56814" lon="5.58409">
        <ele>573.614</ele>
        <time>2014-05-18T07:23:03Z</time>
      </trkpt>
      <trkpt lat="43.56817" lon="5.58413">
        <ele>575.984</ele>
        <time>2014-05-18T07:23:09Z</time>
      </trkpt>
      <trkpt lat="43.56818" lon="5.58418">
        <ele>571.291</ele>
        <time>2014-05-18T07:23:18Z</time>
      </trkpt>
      <trkpt lat="43.56819" lon="5.58418">
        <ele>570.831</ele>
        <time>2014-05-18T07:23:19Z</time>
      </trkpt>
      <trkpt lat="43.5682" lon="5.58417">
        <ele>571.412</ele>
        <time>2014-05-18T07:23:25Z</time>
      </trkpt>
      <trkpt lat="43.56826" lon="5.58418">
        <ele>573.273</ele>
        <time>2014-05-18T07:23:32Z</time>
      </trkpt>
      <trkpt lat="43.56832" lon="5.58418">
        <ele>575.073</ele>
        <time>2014-05-18T07:23:37Z</time>
      </trkpt>
      <trkpt lat="43.56839" lon="5.58418">
        <ele>576.573</ele>
        <time>2014-05-18T07:23:44Z</time>
      </trkpt>
      <trkpt lat="43.56842" lon="5.58417">
        <ele>580.994</ele>
        <time>2014-05-18T07:23:50Z</time>
      </trkpt>
      <trkpt lat="43.56849" lon="5.58424">
        <ele>582.733</ele>
        <time>2014-05-18T07:24:04Z</time>
      </trkpt>
      <trkpt lat="43.56853" lon="5.58429">
        <ele>585.404</ele>
        <time>2014-05-18T07:24:11Z</time>
      </trkpt>
      <trkpt lat="43.56857" lon="5.58435">
        <ele>587.575</ele>
        <time>2014-05-18T07:24:19Z</time>
      </trkpt>
      <trkpt lat="43.56861" lon="5.58439">
        <ele>587.363</ele>
        <time>2014-05-18T07:24:28Z</time>
      </trkpt>
      <trkpt lat="43.56866" lon="5.58442">
        <ele>584.982</ele>
        <time>2014-05-18T07:24:41Z</time>
      </trkpt>
      <trkpt lat="43.56869" lon="5.58449">
        <ele>583.392</ele>
        <time>2014-05-18T07:24:48Z</time>
      </trkpt>
      <trkpt lat="43.56871" lon="5.58453">
        <ele>589.054</ele>
        <time>2014-05-18T07:24:53Z</time>
      </trkpt>
      <trkpt lat="43.56873" lon="5.58457">
        <ele>591.674</ele>
        <time>2014-05-18T07:25:01Z</time>
      </trkpt>
      <trkpt lat="43.56874" lon="5.58463">
        <ele>592.723</ele>
        <time>2014-05-18T07:25:09Z</time>
      </trkpt>
      <trkpt lat="43.56875" lon="5.58468">
        <ele>592.242</ele>
        <time>2014-05-18T07:25:14Z</time>
      </trkpt>
      <trkpt lat="43.56877" lon="5.58472">
        <ele>591.561</ele>
        <time>2014-05-18T07:25:19Z</time>
      </trkpt>
      <trkpt lat="43.56879" lon="5.58477">
        <ele>592.492</ele>
        <time>2014-05-18T07:25:31Z</time>
      </trkpt>
      <trkpt lat="43.56882" lon="5.5848">
        <ele>592.872</ele>
        <time>2014-05-18T07:25:38Z</time>
      </trkpt>
      <trkpt lat="43.56884" lon="5.58484">
        <ele>592.653</ele>
        <time>2014-05-18T07:25:43Z</time>
      </trkpt>
      <trkpt lat="43.56884" lon="5.58487">
        <ele>593.113</ele>
        <time>2014-05-18T07:25:46Z</time>
      </trkpt>
      <trkpt lat="43.56874" lon="5.58489">
        <ele>598.523</ele>
        <time>2014-05-18T07:25:54Z</time>
      </trkpt>
      <trkpt lat="43.56862" lon="5.58498">
        <ele>595.871</ele>
        <time>2014-05-18T07:26:11Z</time>
      </trkpt>
      <trkpt lat="43.56855" lon="5.58503">
        <ele>592.068</ele>
        <time>2014-05-18T07:26:19Z</time>
      </trkpt>
      <trkpt lat="43.5685" lon="5.58506">
        <ele>590.319</ele>
        <time>2014-05-18T07:26:23Z</time>
      </trkpt>
      <trkpt lat="43.56842" lon="5.58514">
        <ele>588.829</ele>
        <time>2014-05-18T07:26:29Z</time>
      </trkpt>
      <trkpt lat="43.56832" lon="5.58521">
        <ele>593.033</ele>
        <time>2014-05-18T07:26:36Z</time>
      </trkpt>
      <trkpt lat="43.56825" lon="5.58525">
        <ele>594.733</ele>
        <time>2014-05-18T07:26:41Z</time>
      </trkpt>
      <trkpt lat="43.56815" lon="5.58528">
        <ele>600.215</ele>
        <time>2014-05-18T07:26:49Z</time>
      </trkpt>
      <trkpt lat="43.56807" lon="5.58528">
        <ele>601.443</ele>
        <time>2014-05-18T07:26:56Z</time>
      </trkpt>
      <trkpt lat="43.56797" lon="5.58528">
        <ele>601.982</ele>
        <time>2014-05-18T07:27:02Z</time>
      </trkpt>
      <trkpt lat="43.56784" lon="5.5853">
        <ele>603.372</ele>
        <time>2014-05-18T07:27:10Z</time>
      </trkpt>
      <trkpt lat="43.56776" lon="5.58536">
        <ele>600.45</ele>
        <time>2014-05-18T07:27:16Z</time>
      </trkpt>
      <trkpt lat="43.56767" lon="5.58546">
        <ele>599.991</ele>
        <time>2014-05-18T07:27:23Z</time>
      </trkpt>
      <trkpt lat="43.56759" lon="5.58557">
        <ele>603.142</ele>
        <time>2014-05-18T07:27:30Z</time>
      </trkpt>
      <trkpt lat="43.56751" lon="5.58569">
        <ele>600.199</ele>
        <time>2014-05-18T07:27:38Z</time>
      </trkpt>
      <trkpt lat="43.56738" lon="5.58579">
        <ele>597.649</ele>
        <time>2014-05-18T07:27:45Z</time>
      </trkpt>
      <trkpt lat="43.56723" lon="5.5859">
        <ele>598.75</ele>
        <time>2014-05-18T07:27:52Z</time>
      </trkpt>
      <trkpt lat="43.56719" lon="5.58593">
        <ele>601.591</ele>
        <time>2014-05-18T07:27:57Z</time>
      </trkpt>
      <trkpt lat="43.56687" lon="5.58642">
        <ele>601.889</ele>
        <time>2014-05-18T07:28:06Z</time>
      </trkpt>
      <trkpt lat="43.5665" lon="5.58669">
        <ele>599.549</ele>
        <time>2014-05-18T07:28:15Z</time>
      </trkpt>
      <trkpt lat="43.56616" lon="5.5869">
        <ele>595.578</ele>
        <time>2014-05-18T07:28:22Z</time>
      </trkpt>
      <trkpt lat="43.56606" lon="5.58696">
        <ele>594.069</ele>
        <time>2014-05-18T07:28:24Z</time>
      </trkpt>
      <trkpt lat="43.56589" lon="5.58714">
        <ele>592.689</ele>
        <time>2014-05-18T07:28:28Z</time>
      </trkpt>
      <trkpt lat="43.56579" lon="5.58726">
        <ele>593.58</ele>
        <time>2014-05-18T07:28:32Z</time>
      </trkpt>
      <trkpt lat="43.56574" lon="5.58735">
        <ele>592.451</ele>
        <time>2014-05-18T07:28:35Z</time>
      </trkpt>
      <trkpt lat="43.56573" lon="5.58736">
        <ele>593.221</ele>
        <time>2014-05-18T07:28:36Z</time>
      </trkpt>
      <trkpt lat="43.56591" lon="5.58772">
        <ele>588.601</ele>
        <time>2014-05-18T07:28:43Z</time>
      </trkpt>
      <trkpt lat="43.56602" lon="5.58798">
        <ele>587.391</ele>
        <time>2014-05-18T07:28:49Z</time>
      </trkpt>
      <trkpt lat="43.56613" lon="5.58829">
        <ele>586.191</ele>
        <time>2014-05-18T07:28:56Z</time>
      </trkpt>
      <trkpt lat="43.56627" lon="5.5887">
        <ele>583.37</ele>
        <time>2014-05-18T07:29:04Z</time>
      </trkpt>
      <trkpt lat="43.56641" lon="5.58908">
        <ele>584.082</ele>
        <time>2014-05-18T07:29:11Z</time>
      </trkpt>
      <trkpt lat="43.56659" lon="5.58943">
        <ele>586.163</ele>
        <time>2014-05-18T07:29:18Z</time>
      </trkpt>
      <trkpt lat="43.56667" lon="5.58956">
        <ele>586.533</ele>
        <time>2014-05-18T07:29:21Z</time>
      </trkpt>
      <trkpt lat="43.56688" lon="5.58988">
        <ele>583.952</ele>
        <time>2014-05-18T07:29:28Z</time>
      </trkpt>
      <trkpt lat="43.56701" lon="5.59026">
        <ele>583.752</ele>
        <time>2014-05-18T07:29:34Z</time>
      </trkpt>
      <trkpt lat="43.56721" lon="5.59058">
        <ele>588.614</ele>
        <time>2014-05-18T07:29:41Z</time>
      </trkpt>
      <trkpt lat="43.56744" lon="5.59089">
        <ele>588.753</ele>
        <time>2014-05-18T07:29:48Z</time>
      </trkpt>
      <trkpt lat="43.56772" lon="5.59124">
        <ele>586.612</ele>
        <time>2014-05-18T07:29:56Z</time>
      </trkpt>
      <trkpt lat="43.56788" lon="5.59143">
        <ele>587.233</ele>
        <time>2014-05-18T07:30:00Z</time>
      </trkpt>
      <trkpt lat="43.56802" lon="5.59169">
        <ele>587.243</ele>
        <time>2014-05-18T07:30:04Z</time>
      </trkpt>
      <trkpt lat="43.5682" lon="5.59211">
        <ele>585.913</ele>
        <time>2014-05-18T07:30:11Z</time>
      </trkpt>
      <trkpt lat="43.5684" lon="5.59254">
        <ele>586.333</ele>
        <time>2014-05-18T07:30:19Z</time>
      </trkpt>
      <trkpt lat="43.56863" lon="5.59308">
        <ele>585.483</ele>
        <time>2014-05-18T07:30:28Z</time>
      </trkpt>
      <trkpt lat="43.56871" lon="5.59326">
        <ele>585.673</ele>
        <time>2014-05-18T07:30:31Z</time>
      </trkpt>
      <trkpt lat="43.56889" lon="5.59345">
        <ele>584.902</ele>
        <time>2014-05-18T07:30:35Z</time>
      </trkpt>
      <trkpt lat="43.56909" lon="5.5938">
        <ele>585.172</ele>
        <time>2014-05-18T07:30:40Z</time>
      </trkpt>
      <trkpt lat="43.56935" lon="5.59429">
        <ele>584.623</ele>
        <time>2014-05-18T07:30:47Z</time>
      </trkpt>
      <trkpt lat="43.5697" lon="5.59484">
        <ele>582.523</ele>
        <time>2014-05-18T07:30:55Z</time>
      </trkpt>
      <trkpt lat="43.57" lon="5.59534">
        <ele>580.223</ele>
        <time>2014-05-18T07:31:02Z</time>
      </trkpt>
      <trkpt lat="43.57015" lon="5.59577">
        <ele>578.992</ele>
        <time>2014-05-18T07:31:07Z</time>
      </trkpt>
      <trkpt lat="43.57036" lon="5.59657">
        <ele>574.342</ele>
        <time>2014-05-18T07:31:15Z</time>
      </trkpt>
      <trkpt lat="43.57058" lon="5.59722">
        <ele>574.723</ele>
        <time>2014-05-18T07:31:22Z</time>
      </trkpt>
      <trkpt lat="43.57085" lon="5.59793">
        <ele>572.194</ele>
        <time>2014-05-18T07:31:30Z</time>
      </trkpt>
      <trkpt lat="43.57099" lon="5.5983">
        <ele>574.065</ele>
        <time>2014-05-18T07:31:35Z</time>
      </trkpt>
      <trkpt lat="43.57102" lon="5.59836">
        <ele>574.286</ele>
        <time>2014-05-18T07:31:36Z</time>
      </trkpt>
      <trkpt lat="43.57115" lon="5.59895">
        <ele>574.025</ele>
        <time>2014-05-18T07:31:45Z</time>
      </trkpt>
      <trkpt lat="43.57118" lon="5.59909">
        <ele>574.405</ele>
        <time>2014-05-18T07:31:47Z</time>
      </trkpt>
      <trkpt lat="43.57136" lon="5.59936">
        <ele>573.525</ele>
        <time>2014-05-18T07:31:52Z</time>
      </trkpt>
      <trkpt lat="43.57159" lon="5.59949">
        <ele>574.585</ele>
        <time>2014-05-18T07:31:57Z</time>
      </trkpt>
      <trkpt lat="43.57183" lon="5.59955">
        <ele>576.086</ele>
        <time>2014-05-18T07:32:02Z</time>
      </trkpt>
      <trkpt lat="43.57211" lon="5.59962">
        <ele>578.526</ele>
        <time>2014-05-18T07:32:09Z</time>
      </trkpt>
      <trkpt lat="43.57236" lon="5.59979">
        <ele>581.016</ele>
        <time>2014-05-18T07:32:17Z</time>
      </trkpt>
      <trkpt lat="43.57244" lon="5.59998">
        <ele>583.086</ele>
        <time>2014-05-18T07:32:23Z</time>
      </trkpt>
      <trkpt lat="43.57257" lon="5.60029">
        <ele>585.737</ele>
        <time>2014-05-18T07:32:32Z</time>
      </trkpt>
      <trkpt lat="43.5727" lon="5.60054">
        <ele>584.626</ele>
        <time>2014-05-18T07:32:39Z</time>
      </trkpt>
      <trkpt lat="43.57282" lon="5.60078">
        <ele>582.495</ele>
        <time>2014-05-18T07:32:45Z</time>
      </trkpt>
      <trkpt lat="43.57293" lon="5.60112">
        <ele>582.226</ele>
        <time>2014-05-18T07:32:51Z</time>
      </trkpt>
      <trkpt lat="43.57301" lon="5.60147">
        <ele>582.976</ele>
        <time>2014-05-18T07:32:58Z</time>
      </trkpt>
      <trkpt lat="43.57302" lon="5.60153">
        <ele>583.736</ele>
        <time>2014-05-18T07:32:59Z</time>
      </trkpt>
      <trkpt lat="43.57307" lon="5.60216">
        <ele>588.326</ele>
        <time>2014-05-18T07:33:10Z</time>
      </trkpt>
      <trkpt lat="43.57306" lon="5.60222">
        <ele>588.766</ele>
        <time>2014-05-18T07:33:11Z</time>
      </trkpt>
      <trkpt lat="43.57302" lon="5.60251">
        <ele>589.696</ele>
        <time>2014-05-18T07:33:16Z</time>
      </trkpt>
      <trkpt lat="43.57301" lon="5.60275">
        <ele>591.416</ele>
        <time>2014-05-18T07:33:20Z</time>
      </trkpt>
      <trkpt lat="43.57316" lon="5.60315">
        <ele>591.997</ele>
        <time>2014-05-18T07:33:28Z</time>
      </trkpt>
      <trkpt lat="43.57332" lon="5.60355">
        <ele>591.416</ele>
        <time>2014-05-18T07:33:35Z</time>
      </trkpt>
      <trkpt lat="43.5735" lon="5.60392">
        <ele>582.994</ele>
        <time>2014-05-18T07:33:41Z</time>
      </trkpt>
      <trkpt lat="43.57353" lon="5.604">
        <ele>581.954</ele>
        <time>2014-05-18T07:33:42Z</time>
      </trkpt>
      <trkpt lat="43.57359" lon="5.60437">
        <ele>577.955</ele>
        <time>2014-05-18T07:33:47Z</time>
      </trkpt>
      <trkpt lat="43.57371" lon="5.6049">
        <ele>574.585</ele>
        <time>2014-05-18T07:33:54Z</time>
      </trkpt>
      <trkpt lat="43.57379" lon="5.60525">
        <ele>574.755</ele>
        <time>2014-05-18T07:33:59Z</time>
      </trkpt>
      <trkpt lat="43.57383" lon="5.60561">
        <ele>575.946</ele>
        <time>2014-05-18T07:34:05Z</time>
      </trkpt>
      <trkpt lat="43.57389" lon="5.60596">
        <ele>578.847</ele>
        <time>2014-05-18T07:34:12Z</time>
      </trkpt>
      <trkpt lat="43.57399" lon="5.60642">
        <ele>582.067</ele>
        <time>2014-05-18T07:34:22Z</time>
      </trkpt>
      <trkpt lat="43.57409" lon="5.60681">
        <ele>583.608</ele>
        <time>2014-05-18T07:34:31Z</time>
      </trkpt>
      <trkpt lat="43.57419" lon="5.60713">
        <ele>582.187</ele>
        <time>2014-05-18T07:34:38Z</time>
      </trkpt>
      <trkpt lat="43.57422" lon="5.60737">
        <ele>584.408</ele>
        <time>2014-05-18T07:34:42Z</time>
      </trkpt>
      <trkpt lat="43.57429" lon="5.60775">
        <ele>585.888</ele>
        <time>2014-05-18T07:34:49Z</time>
      </trkpt>
      <trkpt lat="43.57435" lon="5.60804">
        <ele>586.448</ele>
        <time>2014-05-18T07:34:55Z</time>
      </trkpt>
      <trkpt lat="43.57432" lon="5.60841">
        <ele>587.767</ele>
        <time>2014-05-18T07:35:01Z</time>
      </trkpt>
      <trkpt lat="43.57427" lon="5.60891">
        <ele>590.468</ele>
        <time>2014-05-18T07:35:09Z</time>
      </trkpt>
      <trkpt lat="43.57424" lon="5.60926">
        <ele>590.398</ele>
        <time>2014-05-18T07:35:16Z</time>
      </trkpt>
      <trkpt lat="43.57418" lon="5.60965">
        <ele>592.178</ele>
        <time>2014-05-18T07:35:23Z</time>
      </trkpt>
      <trkpt lat="43.57408" lon="5.61014">
        <ele>593.317</ele>
        <time>2014-05-18T07:35:31Z</time>
      </trkpt>
      <trkpt lat="43.57403" lon="5.61048">
        <ele>592.547</ele>
        <time>2014-05-18T07:35:36Z</time>
      </trkpt>
      <trkpt lat="43.57391" lon="5.61093">
        <ele>593.698</ele>
        <time>2014-05-18T07:35:43Z</time>
      </trkpt>
      <trkpt lat="43.57381" lon="5.61145">
        <ele>594.158</ele>
        <time>2014-05-18T07:35:50Z</time>
      </trkpt>
      <trkpt lat="43.57369" lon="5.61201">
        <ele>590.788</ele>
        <time>2014-05-18T07:35:58Z</time>
      </trkpt>
      <trkpt lat="43.57365" lon="5.61214">
        <ele>589.187</ele>
        <time>2014-05-18T07:36:00Z</time>
      </trkpt>
      <trkpt lat="43.57362" lon="5.61237">
        <ele>588.667</ele>
        <time>2014-05-18T07:36:03Z</time>
      </trkpt>
      <trkpt lat="43.57347" lon="5.61314">
        <ele>587.947</ele>
        <time>2014-05-18T07:36:13Z</time>
      </trkpt>
      <trkpt lat="43.57345" lon="5.61354">
        <ele>587.307</ele>
        <time>2014-05-18T07:36:18Z</time>
      </trkpt>
      <trkpt lat="43.57341" lon="5.61403">
        <ele>584.476</ele>
        <time>2014-05-18T07:36:24Z</time>
      </trkpt>
      <trkpt lat="43.57338" lon="5.61431">
        <ele>581.725</ele>
        <time>2014-05-18T07:36:27Z</time>
      </trkpt>
      <trkpt lat="43.57342" lon="5.61483">
        <ele>576.677</ele>
        <time>2014-05-18T07:36:32Z</time>
      </trkpt>
      <trkpt lat="43.57344" lon="5.61539">
        <ele>570.185</ele>
        <time>2014-05-18T07:36:37Z</time>
      </trkpt>
      <trkpt lat="43.57353" lon="5.61613">
        <ele>561.964</ele>
        <time>2014-05-18T07:36:43Z</time>
      </trkpt>
      <trkpt lat="43.57357" lon="5.61657">
        <ele>555.644</ele>
        <time>2014-05-18T07:36:48Z</time>
      </trkpt>
      <trkpt lat="43.57344" lon="5.61691">
        <ele>554.575</ele>
        <time>2014-05-18T07:36:53Z</time>
      </trkpt>
      <trkpt lat="43.57328" lon="5.61706">
        <ele>550.766</ele>
        <time>2014-05-18T07:36:58Z</time>
      </trkpt>
      <trkpt lat="43.57332" lon="5.61722">
        <ele>549.378</ele>
        <time>2014-05-18T07:37:04Z</time>
      </trkpt>
      <trkpt lat="43.57332" lon="5.61721">
        <ele>559.32</ele>
        <time>2014-05-18T07:38:50Z</time>
      </trkpt>
      <trkpt lat="43.5734" lon="5.61725">
        <ele>557.39</ele>
        <time>2014-05-18T07:38:56Z</time>
      </trkpt>
      <trkpt lat="43.57345" lon="5.61728">
        <ele>557.811</ele>
        <time>2014-05-18T07:39:01Z</time>
      </trkpt>
      <trkpt lat="43.57351" lon="5.61738">
        <ele>559.232</ele>
        <time>2014-05-18T07:39:10Z</time>
      </trkpt>
      <trkpt lat="43.57357" lon="5.6175">
        <ele>561.262</ele>
        <time>2014-05-18T07:39:17Z</time>
      </trkpt>
      <trkpt lat="43.57362" lon="5.61763">
        <ele>562.802</ele>
        <time>2014-05-18T07:39:25Z</time>
      </trkpt>
      <trkpt lat="43.57366" lon="5.61774">
        <ele>562.381</ele>
        <time>2014-05-18T07:39:31Z</time>
      </trkpt>
      <trkpt lat="43.57372" lon="5.61789">
        <ele>562.341</ele>
        <time>2014-05-18T07:39:37Z</time>
      </trkpt>
      <trkpt lat="43.5738" lon="5.61813">
        <ele>563.042</ele>
        <time>2014-05-18T07:39:46Z</time>
      </trkpt>
      <trkpt lat="43.57384" lon="5.61828">
        <ele>560.25</ele>
        <time>2014-05-18T07:39:52Z</time>
      </trkpt>
      <trkpt lat="43.5739" lon="5.6185">
        <ele>563.661</ele>
        <time>2014-05-18T07:40:00Z</time>
      </trkpt>
      <trkpt lat="43.57394" lon="5.61873">
        <ele>564.951</ele>
        <time>2014-05-18T07:40:08Z</time>
      </trkpt>
      <trkpt lat="43.57394" lon="5.61896">
        <ele>570.302</ele>
        <time>2014-05-18T07:40:16Z</time>
      </trkpt>
      <trkpt lat="43.57393" lon="5.61925">
        <ele>573.132</ele>
        <time>2014-05-18T07:40:24Z</time>
      </trkpt>
      <trkpt lat="43.57392" lon="5.61952">
        <ele>570.351</ele>
        <time>2014-05-18T07:40:31Z</time>
      </trkpt>
      <trkpt lat="43.5739" lon="5.61975">
        <ele>572.232</ele>
        <time>2014-05-18T07:40:37Z</time>
      </trkpt>
      <trkpt lat="43.57388" lon="5.62002">
        <ele>572.021</ele>
        <time>2014-05-18T07:40:43Z</time>
      </trkpt>
      <trkpt lat="43.5738" lon="5.62034">
        <ele>571.041</ele>
        <time>2014-05-18T07:40:49Z</time>
      </trkpt>
      <trkpt lat="43.57371" lon="5.62065">
        <ele>570.89</ele>
        <time>2014-05-18T07:40:55Z</time>
      </trkpt>
      <trkpt lat="43.57365" lon="5.62088">
        <ele>574.021</ele>
        <time>2014-05-18T07:41:00Z</time>
      </trkpt>
      <trkpt lat="43.57357" lon="5.62116">
        <ele>575.911</ele>
        <time>2014-05-18T07:41:06Z</time>
      </trkpt>
      <trkpt lat="43.57349" lon="5.62156">
        <ele>576.18</ele>
        <time>2014-05-18T07:41:14Z</time>
      </trkpt>
      <trkpt lat="43.57341" lon="5.62196">
        <ele>574.379</ele>
        <time>2014-05-18T07:41:22Z</time>
      </trkpt>
      <trkpt lat="43.57332" lon="5.62222">
        <ele>572.1</ele>
        <time>2014-05-18T07:41:28Z</time>
      </trkpt>
      <trkpt lat="43.57323" lon="5.62255">
        <ele>574.802</ele>
        <time>2014-05-18T07:41:35Z</time>
      </trkpt>
      <trkpt lat="43.57318" lon="5.62281">
        <ele>578.293</ele>
        <time>2014-05-18T07:41:40Z</time>
      </trkpt>
      <trkpt lat="43.57306" lon="5.62323">
        <ele>581.053</ele>
        <time>2014-05-18T07:41:48Z</time>
      </trkpt>
      <trkpt lat="43.57304" lon="5.62343">
        <ele>580.762</ele>
        <time>2014-05-18T07:41:52Z</time>
      </trkpt>
      <trkpt lat="43.57315" lon="5.6238">
        <ele>576.18</ele>
        <time>2014-05-18T07:41:58Z</time>
      </trkpt>
      <trkpt lat="43.57324" lon="5.62403">
        <ele>577.491</ele>
        <time>2014-05-18T07:42:03Z</time>
      </trkpt>
      <trkpt lat="43.57324" lon="5.62414">
        <ele>577.131</ele>
        <time>2014-05-18T07:42:07Z</time>
      </trkpt>
      <trkpt lat="43.57299" lon="5.62442">
        <ele>578.511</ele>
        <time>2014-05-18T07:42:14Z</time>
      </trkpt>
      <trkpt lat="43.57293" lon="5.62456">
        <ele>577.47</ele>
        <time>2014-05-18T07:42:17Z</time>
      </trkpt>
      <trkpt lat="43.57278" lon="5.62489">
        <ele>575.989</ele>
        <time>2014-05-18T07:42:23Z</time>
      </trkpt>
      <trkpt lat="43.5726" lon="5.62511">
        <ele>574.108</ele>
        <time>2014-05-18T07:42:27Z</time>
      </trkpt>
      <trkpt lat="43.57244" lon="5.62534">
        <ele>572.568</ele>
        <time>2014-05-18T07:42:30Z</time>
      </trkpt>
      <trkpt lat="43.57238" lon="5.62559">
        <ele>568.798</ele>
        <time>2014-05-18T07:42:34Z</time>
      </trkpt>
      <trkpt lat="43.57235" lon="5.62562">
        <ele>568.868</ele>
        <time>2014-05-18T07:42:35Z</time>
      </trkpt>
      <trkpt lat="43.57195" lon="5.62588">
        <ele>565.298</ele>
        <time>2014-05-18T07:42:41Z</time>
      </trkpt>
      <trkpt lat="43.57178" lon="5.62592">
        <ele>565.119</ele>
        <time>2014-05-18T07:42:43Z</time>
      </trkpt>
      <trkpt lat="43.57142" lon="5.62606">
        <ele>561.729</ele>
        <time>2014-05-18T07:42:48Z</time>
      </trkpt>
      <trkpt lat="43.57121" lon="5.62608">
        <ele>565.092</ele>
        <time>2014-05-18T07:42:51Z</time>
      </trkpt>
      <trkpt lat="43.57107" lon="5.62598">
        <ele>568.113</ele>
        <time>2014-05-18T07:42:55Z</time>
      </trkpt>
      <trkpt lat="43.57104" lon="5.62597">
        <ele>570.014</ele>
        <time>2014-05-18T07:42:57Z</time>
      </trkpt>
      <trkpt lat="43.57093" lon="5.62589">
        <ele>571.584</ele>
        <time>2014-05-18T07:43:04Z</time>
      </trkpt>
      <trkpt lat="43.57078" lon="5.62571">
        <ele>574.044</ele>
        <time>2014-05-18T07:43:12Z</time>
      </trkpt>
      <trkpt lat="43.57066" lon="5.62556">
        <ele>573.914</ele>
        <time>2014-05-18T07:43:19Z</time>
      </trkpt>
      <trkpt lat="43.57047" lon="5.62532">
        <ele>578.174</ele>
        <time>2014-05-18T07:43:29Z</time>
      </trkpt>
      <trkpt lat="43.57034" lon="5.62517">
        <ele>578.513</ele>
        <time>2014-05-18T07:43:36Z</time>
      </trkpt>
      <trkpt lat="43.57019" lon="5.62503">
        <ele>580.163</ele>
        <time>2014-05-18T07:43:44Z</time>
      </trkpt>
      <trkpt lat="43.57004" lon="5.62491">
        <ele>582.753</ele>
        <time>2014-05-18T07:43:52Z</time>
      </trkpt>
      <trkpt lat="43.5699" lon="5.62482">
        <ele>584.352</ele>
        <time>2014-05-18T07:43:59Z</time>
      </trkpt>
      <trkpt lat="43.56972" lon="5.62474">
        <ele>583.402</ele>
        <time>2014-05-18T07:44:07Z</time>
      </trkpt>
      <trkpt lat="43.56956" lon="5.62464">
        <ele>582.701</ele>
        <time>2014-05-18T07:44:14Z</time>
      </trkpt>
      <trkpt lat="43.56945" lon="5.62459">
        <ele>581.41</ele>
        <time>2014-05-18T07:44:17Z</time>
      </trkpt>
      <trkpt lat="43.56925" lon="5.62474">
        <ele>580.911</ele>
        <time>2014-05-18T07:44:22Z</time>
      </trkpt>
      <trkpt lat="43.56923" lon="5.62479">
        <ele>581.091</ele>
        <time>2014-05-18T07:44:23Z</time>
      </trkpt>
      <trkpt lat="43.5691" lon="5.62522">
        <ele>583.121</ele>
        <time>2014-05-18T07:44:32Z</time>
      </trkpt>
      <trkpt lat="43.56901" lon="5.62557">
        <ele>584.331</ele>
        <time>2014-05-18T07:44:39Z</time>
      </trkpt>
      <trkpt lat="43.56902" lon="5.62594">
        <ele>584.671</ele>
        <time>2014-05-18T07:44:46Z</time>
      </trkpt>
      <trkpt lat="43.56905" lon="5.62633">
        <ele>583.411</ele>
        <time>2014-05-18T07:44:54Z</time>
      </trkpt>
      <trkpt lat="43.56908" lon="5.62663">
        <ele>578.05</ele>
        <time>2014-05-18T07:45:02Z</time>
      </trkpt>
      <trkpt lat="43.5691" lon="5.62692">
        <ele>578.462</ele>
        <time>2014-05-18T07:45:10Z</time>
      </trkpt>
      <trkpt lat="43.5691" lon="5.62723">
        <ele>585.423</ele>
        <time>2014-05-18T07:45:20Z</time>
      </trkpt>
      <trkpt lat="43.56908" lon="5.62752">
        <ele>589.212</ele>
        <time>2014-05-18T07:45:30Z</time>
      </trkpt>
      <trkpt lat="43.56906" lon="5.6278">
        <ele>591.862</ele>
        <time>2014-05-18T07:45:40Z</time>
      </trkpt>
      <trkpt lat="43.56902" lon="5.62805">
        <ele>594.942</ele>
        <time>2014-05-18T07:45:49Z</time>
      </trkpt>
      <trkpt lat="43.56897" lon="5.62835">
        <ele>597.492</ele>
        <time>2014-05-18T07:46:00Z</time>
      </trkpt>
      <trkpt lat="43.56894" lon="5.62855">
        <ele>598.422</ele>
        <time>2014-05-18T07:46:08Z</time>
      </trkpt>
      <trkpt lat="43.5689" lon="5.62881">
        <ele>600.332</ele>
        <time>2014-05-18T07:46:18Z</time>
      </trkpt>
      <trkpt lat="43.56887" lon="5.62901">
        <ele>602.132</ele>
        <time>2014-05-18T07:46:26Z</time>
      </trkpt>
      <trkpt lat="43.56886" lon="5.62922">
        <ele>602.531</ele>
        <time>2014-05-18T07:46:34Z</time>
      </trkpt>
      <trkpt lat="43.56883" lon="5.62951">
        <ele>603.682</ele>
        <time>2014-05-18T07:46:45Z</time>
      </trkpt>
      <trkpt lat="43.5688" lon="5.62975">
        <ele>605.352</ele>
        <time>2014-05-18T07:46:55Z</time>
      </trkpt>
      <trkpt lat="43.56878" lon="5.62994">
        <ele>607.753</ele>
        <time>2014-05-18T07:47:02Z</time>
      </trkpt>
      <trkpt lat="43.56876" lon="5.63019">
        <ele>608.812</ele>
        <time>2014-05-18T07:47:11Z</time>
      </trkpt>
      <trkpt lat="43.56873" lon="5.63043">
        <ele>611.533</ele>
        <time>2014-05-18T07:47:20Z</time>
      </trkpt>
      <trkpt lat="43.56869" lon="5.63062">
        <ele>610.442</ele>
        <time>2014-05-18T07:47:28Z</time>
      </trkpt>
      <trkpt lat="43.56861" lon="5.63081">
        <ele>612.132</ele>
        <time>2014-05-18T07:47:37Z</time>
      </trkpt>
      <trkpt lat="43.56856" lon="5.63103">
        <ele>615.373</ele>
        <time>2014-05-18T07:47:46Z</time>
      </trkpt>
      <trkpt lat="43.56848" lon="5.6312">
        <ele>615.752</ele>
        <time>2014-05-18T07:47:54Z</time>
      </trkpt>
      <trkpt lat="43.56839" lon="5.6314">
        <ele>617.482</ele>
        <time>2014-05-18T07:48:03Z</time>
      </trkpt>
      <trkpt lat="43.56829" lon="5.6317">
        <ele>621.032</ele>
        <time>2014-05-18T07:48:15Z</time>
      </trkpt>
      <trkpt lat="43.56825" lon="5.63197">
        <ele>621.792</ele>
        <time>2014-05-18T07:48:25Z</time>
      </trkpt>
      <trkpt lat="43.56822" lon="5.63219">
        <ele>622.152</ele>
        <time>2014-05-18T07:48:33Z</time>
      </trkpt>
      <trkpt lat="43.56817" lon="5.63241">
        <ele>621.892</ele>
        <time>2014-05-18T07:48:42Z</time>
      </trkpt>
      <trkpt lat="43.56808" lon="5.63255">
        <ele>623.642</ele>
        <time>2014-05-18T07:48:49Z</time>
      </trkpt>
      <trkpt lat="43.56795" lon="5.63275">
        <ele>624.192</ele>
        <time>2014-05-18T07:48:59Z</time>
      </trkpt>
      <trkpt lat="43.56788" lon="5.63291">
        <ele>624.342</ele>
        <time>2014-05-18T07:49:06Z</time>
      </trkpt>
      <trkpt lat="43.56785" lon="5.6331">
        <ele>625.432</ele>
        <time>2014-05-18T07:49:13Z</time>
      </trkpt>
      <trkpt lat="43.56781" lon="5.63335">
        <ele>628.533</ele>
        <time>2014-05-18T07:49:23Z</time>
      </trkpt>
      <trkpt lat="43.56778" lon="5.6336">
        <ele>631.203</ele>
        <time>2014-05-18T07:49:33Z</time>
      </trkpt>
      <trkpt lat="43.56777" lon="5.63387">
        <ele>633.715</ele>
        <time>2014-05-18T07:49:44Z</time>
      </trkpt>
      <trkpt lat="43.56776" lon="5.63415">
        <ele>635.273</ele>
        <time>2014-05-18T07:49:55Z</time>
      </trkpt>
      <trkpt lat="43.56769" lon="5.63435">
        <ele>636.083</ele>
        <time>2014-05-18T07:50:03Z</time>
      </trkpt>
      <trkpt lat="43.56761" lon="5.63454">
        <ele>635.882</ele>
        <time>2014-05-18T07:50:10Z</time>
      </trkpt>
      <trkpt lat="43.56754" lon="5.63474">
        <ele>635.992</ele>
        <time>2014-05-18T07:50:16Z</time>
      </trkpt>
      <trkpt lat="43.56746" lon="5.63513">
        <ele>637.202</ele>
        <time>2014-05-18T07:50:27Z</time>
      </trkpt>
      <trkpt lat="43.56734" lon="5.63555">
        <ele>636.501</ele>
        <time>2014-05-18T07:50:38Z</time>
      </trkpt>
      <trkpt lat="43.56721" lon="5.63568">
        <ele>637.712</ele>
        <time>2014-05-18T07:50:44Z</time>
      </trkpt>
      <trkpt lat="43.56703" lon="5.63582">
        <ele>639.892</ele>
        <time>2014-05-18T07:50:51Z</time>
      </trkpt>
      <trkpt lat="43.56683" lon="5.63598">
        <ele>641.312</ele>
        <time>2014-05-18T07:50:59Z</time>
      </trkpt>
      <trkpt lat="43.56671" lon="5.63612">
        <ele>642.993</ele>
        <time>2014-05-18T07:51:05Z</time>
      </trkpt>
      <trkpt lat="43.56668" lon="5.63628">
        <ele>644.214</ele>
        <time>2014-05-18T07:51:11Z</time>
      </trkpt>
      <trkpt lat="43.56663" lon="5.63654">
        <ele>645.543</ele>
        <time>2014-05-18T07:51:21Z</time>
      </trkpt>
      <trkpt lat="43.56658" lon="5.63679">
        <ele>646.343</ele>
        <time>2014-05-18T07:51:30Z</time>
      </trkpt>
      <trkpt lat="43.56652" lon="5.6371">
        <ele>647.893</ele>
        <time>2014-05-18T07:51:41Z</time>
      </trkpt>
      <trkpt lat="43.5665" lon="5.63736">
        <ele>650.834</ele>
        <time>2014-05-18T07:51:50Z</time>
      </trkpt>
      <trkpt lat="43.56648" lon="5.63766">
        <ele>652.474</ele>
        <time>2014-05-18T07:52:01Z</time>
      </trkpt>
      <trkpt lat="43.56642" lon="5.63797">
        <ele>646.452</ele>
        <time>2014-05-18T07:52:13Z</time>
      </trkpt>
      <trkpt lat="43.56644" lon="5.6383">
        <ele>643.982</ele>
        <time>2014-05-18T07:52:23Z</time>
      </trkpt>
      <trkpt lat="43.56646" lon="5.63859">
        <ele>646.693</ele>
        <time>2014-05-18T07:52:33Z</time>
      </trkpt>
      <trkpt lat="43.56648" lon="5.63893">
        <ele>650.184</ele>
        <time>2014-05-18T07:52:45Z</time>
      </trkpt>
      <trkpt lat="43.56647" lon="5.63926">
        <ele>652.205</ele>
        <time>2014-05-18T07:52:56Z</time>
      </trkpt>
      <trkpt lat="43.56646" lon="5.6396">
        <ele>654.764</ele>
        <time>2014-05-18T07:53:07Z</time>
      </trkpt>
      <trkpt lat="43.56648" lon="5.63991">
        <ele>656.454</ele>
        <time>2014-05-18T07:53:17Z</time>
      </trkpt>
      <trkpt lat="43.56649" lon="5.64018">
        <ele>658.585</ele>
        <time>2014-05-18T07:53:26Z</time>
      </trkpt>
      <trkpt lat="43.56652" lon="5.64054">
        <ele>660.074</ele>
        <time>2014-05-18T07:53:37Z</time>
      </trkpt>
      <trkpt lat="43.56657" lon="5.64093">
        <ele>659.414</ele>
        <time>2014-05-18T07:53:48Z</time>
      </trkpt>
      <trkpt lat="43.56664" lon="5.64129">
        <ele>656.963</ele>
        <time>2014-05-18T07:53:57Z</time>
      </trkpt>
      <trkpt lat="43.5668" lon="5.64164">
        <ele>657.634</ele>
        <time>2014-05-18T07:54:05Z</time>
      </trkpt>
      <trkpt lat="43.56689" lon="5.64201">
        <ele>656.802</ele>
        <time>2014-05-18T07:54:11Z</time>
      </trkpt>
      <trkpt lat="43.56699" lon="5.64246">
        <ele>656.502</ele>
        <time>2014-05-18T07:54:18Z</time>
      </trkpt>
      <trkpt lat="43.56716" lon="5.64296">
        <ele>655.542</ele>
        <time>2014-05-18T07:54:25Z</time>
      </trkpt>
      <trkpt lat="43.56719" lon="5.64302">
        <ele>655.862</ele>
        <time>2014-05-18T07:54:26Z</time>
      </trkpt>
      <trkpt lat="43.56725" lon="5.64333">
        <ele>653.852</ele>
        <time>2014-05-18T07:54:30Z</time>
      </trkpt>
      <trkpt lat="43.56721" lon="5.6439">
        <ele>652.193</ele>
        <time>2014-05-18T07:54:38Z</time>
      </trkpt>
      <trkpt lat="43.56721" lon="5.64437">
        <ele>651.085</ele>
        <time>2014-05-18T07:54:46Z</time>
      </trkpt>
      <trkpt lat="43.56718" lon="5.6448">
        <ele>649.923</ele>
        <time>2014-05-18T07:54:55Z</time>
      </trkpt>
      <trkpt lat="43.56718" lon="5.64484">
        <ele>649.954</ele>
        <time>2014-05-18T07:54:56Z</time>
      </trkpt>
      <trkpt lat="43.56711" lon="5.64489">
        <ele>652.376</ele>
        <time>2014-05-18T07:55:00Z</time>
      </trkpt>
      <trkpt lat="43.56693" lon="5.64482">
        <ele>655.558</ele>
        <time>2014-05-18T07:55:06Z</time>
      </trkpt>
      <trkpt lat="43.5667" lon="5.64474">
        <ele>656.496</ele>
        <time>2014-05-18T07:55:12Z</time>
      </trkpt>
      <trkpt lat="43.56636" lon="5.64463">
        <ele>658.216</ele>
        <time>2014-05-18T07:55:20Z</time>
      </trkpt>
      <trkpt lat="43.56601" lon="5.64451">
        <ele>659.925</ele>
        <time>2014-05-18T07:55:29Z</time>
      </trkpt>
      <trkpt lat="43.56571" lon="5.64436">
        <ele>661.196</ele>
        <time>2014-05-18T07:55:37Z</time>
      </trkpt>
      <trkpt lat="43.56545" lon="5.64427">
        <ele>659.664</ele>
        <time>2014-05-18T07:55:44Z</time>
      </trkpt>
      <trkpt lat="43.56518" lon="5.64417">
        <ele>659.663</ele>
        <time>2014-05-18T07:55:50Z</time>
      </trkpt>
      <trkpt lat="43.56483" lon="5.64405">
        <ele>658.152</ele>
        <time>2014-05-18T07:55:56Z</time>
      </trkpt>
      <trkpt lat="43.56478" lon="5.64403">
        <ele>657.69</ele>
        <time>2014-05-18T07:55:57Z</time>
      </trkpt>
      <trkpt lat="43.56458" lon="5.64395">
        <ele>653.652</ele>
        <time>2014-05-18T07:56:02Z</time>
      </trkpt>
      <trkpt lat="43.56448" lon="5.64416">
        <ele>652.731</ele>
        <time>2014-05-18T07:56:06Z</time>
      </trkpt>
      <trkpt lat="43.56448" lon="5.64422">
        <ele>652.3</ele>
        <time>2014-05-18T07:56:07Z</time>
      </trkpt>
      <trkpt lat="43.56448" lon="5.64436">
        <ele>648.467</ele>
        <time>2014-05-18T07:56:09Z</time>
      </trkpt>
      <trkpt lat="43.5644" lon="5.64465">
        <ele>643.884</ele>
        <time>2014-05-18T07:56:13Z</time>
      </trkpt>
      <trkpt lat="43.56439" lon="5.64501">
        <ele>643.59</ele>
        <time>2014-05-18T07:56:18Z</time>
      </trkpt>
      <trkpt lat="43.56446" lon="5.64529">
        <ele>641.402</ele>
        <time>2014-05-18T07:56:24Z</time>
      </trkpt>
      <trkpt lat="43.56459" lon="5.6456">
        <ele>636.612</ele>
        <time>2014-05-18T07:56:30Z</time>
      </trkpt>
      <trkpt lat="43.56465" lon="5.6459">
        <ele>638.985</ele>
        <time>2014-05-18T07:56:37Z</time>
      </trkpt>
      <trkpt lat="43.56471" lon="5.64633">
        <ele>637.073</ele>
        <time>2014-05-18T07:56:45Z</time>
      </trkpt>
      <trkpt lat="43.56479" lon="5.64667">
        <ele>636.112</ele>
        <time>2014-05-18T07:56:51Z</time>
      </trkpt>
      <trkpt lat="43.56486" lon="5.64685">
        <ele>634.842</ele>
        <time>2014-05-18T07:56:54Z</time>
      </trkpt>
      <trkpt lat="43.56487" lon="5.6471">
        <ele>633.601</ele>
        <time>2014-05-18T07:56:58Z</time>
      </trkpt>
      <trkpt lat="43.56479" lon="5.64723">
        <ele>634.823</ele>
        <time>2014-05-18T07:57:00Z</time>
      </trkpt>
      <trkpt lat="43.56457" lon="5.64762">
        <ele>639.626</ele>
        <time>2014-05-18T07:57:05Z</time>
      </trkpt>
      <trkpt lat="43.56425" lon="5.648">
        <ele>639.705</ele>
        <time>2014-05-18T07:57:10Z</time>
      </trkpt>
      <trkpt lat="43.56414" lon="5.64818">
        <ele>638.613</ele>
        <time>2014-05-18T07:57:13Z</time>
      </trkpt>
      <trkpt lat="43.56397" lon="5.64832">
        <ele>638.25</ele>
        <time>2014-05-18T07:57:17Z</time>
      </trkpt>
      <trkpt lat="43.56372" lon="5.64837">
        <ele>639.265</ele>
        <time>2014-05-18T07:57:22Z</time>
      </trkpt>
      <trkpt lat="43.56341" lon="5.6483">
        <ele>642.359</ele>
        <time>2014-05-18T07:57:32Z</time>
      </trkpt>
      <trkpt lat="43.56325" lon="5.64823">
        <ele>645.179</ele>
        <time>2014-05-18T07:57:38Z</time>
      </trkpt>
      <trkpt lat="43.5631" lon="5.64798">
        <ele>642.064</ele>
        <time>2014-05-18T07:57:45Z</time>
      </trkpt>
      <trkpt lat="43.56292" lon="5.64767">
        <ele>638.321</ele>
        <time>2014-05-18T07:57:52Z</time>
      </trkpt>
      <trkpt lat="43.56277" lon="5.64734">
        <ele>635.139</ele>
        <time>2014-05-18T07:57:58Z</time>
      </trkpt>
      <trkpt lat="43.56261" lon="5.64717">
        <ele>635.552</ele>
        <time>2014-05-18T07:58:03Z</time>
      </trkpt>
      <trkpt lat="43.56251" lon="5.64714">
        <ele>634.752</ele>
        <time>2014-05-18T07:58:05Z</time>
      </trkpt>
      <trkpt lat="43.56205" lon="5.64722">
        <ele>632.049</ele>
        <time>2014-05-18T07:58:13Z</time>
      </trkpt>
      <trkpt lat="43.56179" lon="5.64721">
        <ele>634.854</ele>
        <time>2014-05-18T07:58:17Z</time>
      </trkpt>
      <trkpt lat="43.56162" lon="5.64722">
        <ele>638.78</ele>
        <time>2014-05-18T07:58:22Z</time>
      </trkpt>
      <trkpt lat="43.5615" lon="5.64731">
        <ele>640.718</ele>
        <time>2014-05-18T07:58:29Z</time>
      </trkpt>
      <trkpt lat="43.56141" lon="5.64741">
        <ele>642.486</ele>
        <time>2014-05-18T07:58:35Z</time>
      </trkpt>
      <trkpt lat="43.56128" lon="5.64756">
        <ele>645.317</ele>
        <time>2014-05-18T07:58:43Z</time>
      </trkpt>
      <trkpt lat="43.56118" lon="5.64768">
        <ele>646.035</ele>
        <time>2014-05-18T07:58:50Z</time>
      </trkpt>
      <trkpt lat="43.56111" lon="5.64778">
        <ele>645.044</ele>
        <time>2014-05-18T07:58:56Z</time>
      </trkpt>
      <trkpt lat="43.56107" lon="5.64797">
        <ele>643.922</ele>
        <time>2014-05-18T07:59:03Z</time>
      </trkpt>
      <trkpt lat="43.56107" lon="5.64821">
        <ele>645.674</ele>
        <time>2014-05-18T07:59:11Z</time>
      </trkpt>
      <trkpt lat="43.56109" lon="5.64843">
        <ele>647.406</ele>
        <time>2014-05-18T07:59:18Z</time>
      </trkpt>
      <trkpt lat="43.56121" lon="5.64867">
        <ele>649.729</ele>
        <time>2014-05-18T07:59:25Z</time>
      </trkpt>
      <trkpt lat="43.56126" lon="5.64893">
        <ele>651.098</ele>
        <time>2014-05-18T07:59:31Z</time>
      </trkpt>
      <trkpt lat="43.56126" lon="5.64923">
        <ele>652.017</ele>
        <time>2014-05-18T07:59:38Z</time>
      </trkpt>
      <trkpt lat="43.56127" lon="5.64961">
        <ele>650.216</ele>
        <time>2014-05-18T07:59:46Z</time>
      </trkpt>
      <trkpt lat="43.56132" lon="5.64999">
        <ele>647.172</ele>
        <time>2014-05-18T07:59:53Z</time>
      </trkpt>
      <trkpt lat="43.56139" lon="5.65041">
        <ele>647.696</ele>
        <time>2014-05-18T08:00:00Z</time>
      </trkpt>
      <trkpt lat="43.56146" lon="5.65075">
        <ele>645.446</ele>
        <time>2014-05-18T08:00:07Z</time>
      </trkpt>
      <trkpt lat="43.56156" lon="5.6511">
        <ele>648.79</ele>
        <time>2014-05-18T08:00:15Z</time>
      </trkpt>
      <trkpt lat="43.56168" lon="5.65148">
        <ele>647.257</ele>
        <time>2014-05-18T08:00:24Z</time>
      </trkpt>
      <trkpt lat="43.56179" lon="5.65181">
        <ele>644.836</ele>
        <time>2014-05-18T08:00:32Z</time>
      </trkpt>
      <trkpt lat="43.56184" lon="5.65224">
        <ele>646.475</ele>
        <time>2014-05-18T08:00:41Z</time>
      </trkpt>
      <trkpt lat="43.56182" lon="5.6526">
        <ele>648.765</ele>
        <time>2014-05-18T08:00:48Z</time>
      </trkpt>
      <trkpt lat="43.56184" lon="5.65301">
        <ele>648.927</ele>
        <time>2014-05-18T08:00:56Z</time>
      </trkpt>
      <trkpt lat="43.56182" lon="5.6534">
        <ele>649.146</ele>
        <time>2014-05-18T08:01:04Z</time>
      </trkpt>
      <trkpt lat="43.56178" lon="5.65386">
        <ele>649.986</ele>
        <time>2014-05-18T08:01:13Z</time>
      </trkpt>
      <trkpt lat="43.56176" lon="5.65428">
        <ele>649.205</ele>
        <time>2014-05-18T08:01:21Z</time>
      </trkpt>
      <trkpt lat="43.56173" lon="5.6547">
        <ele>649.385</ele>
        <time>2014-05-18T08:01:28Z</time>
      </trkpt>
      <trkpt lat="43.56167" lon="5.65532">
        <ele>650.084</ele>
        <time>2014-05-18T08:01:37Z</time>
      </trkpt>
      <trkpt lat="43.56165" lon="5.65577">
        <ele>655.196</ele>
        <time>2014-05-18T08:01:43Z</time>
      </trkpt>
      <trkpt lat="43.56163" lon="5.65639">
        <ele>657.287</ele>
        <time>2014-05-18T08:01:51Z</time>
      </trkpt>
      <trkpt lat="43.56154" lon="5.65699">
        <ele>655.786</ele>
        <time>2014-05-18T08:01:59Z</time>
      </trkpt>
      <trkpt lat="43.56145" lon="5.65748">
        <ele>653.424</ele>
        <time>2014-05-18T08:02:06Z</time>
      </trkpt>
      <trkpt lat="43.56144" lon="5.658">
        <ele>651.265</ele>
        <time>2014-05-18T08:02:13Z</time>
      </trkpt>
      <trkpt lat="43.56145" lon="5.65862">
        <ele>648.625</ele>
        <time>2014-05-18T08:02:21Z</time>
      </trkpt>
      <trkpt lat="43.56142" lon="5.65917">
        <ele>645.542</ele>
        <time>2014-05-18T08:02:28Z</time>
      </trkpt>
      <trkpt lat="43.56144" lon="5.65971">
        <ele>644.785</ele>
        <time>2014-05-18T08:02:35Z</time>
      </trkpt>
      <trkpt lat="43.56142" lon="5.66036">
        <ele>643.315</ele>
        <time>2014-05-18T08:02:43Z</time>
      </trkpt>
      <trkpt lat="43.56137" lon="5.66102">
        <ele>643.056</ele>
        <time>2014-05-18T08:02:51Z</time>
      </trkpt>
      <trkpt lat="43.56133" lon="5.6617">
        <ele>642.382</ele>
        <time>2014-05-18T08:02:59Z</time>
      </trkpt>
      <trkpt lat="43.56125" lon="5.66238">
        <ele>642.157</ele>
        <time>2014-05-18T08:03:07Z</time>
      </trkpt>
      <trkpt lat="43.5612" lon="5.66309">
        <ele>641.767</ele>
        <time>2014-05-18T08:03:16Z</time>
      </trkpt>
      <trkpt lat="43.56115" lon="5.66364">
        <ele>641.317</ele>
        <time>2014-05-18T08:03:23Z</time>
      </trkpt>
      <trkpt lat="43.56109" lon="5.66414">
        <ele>640.145</ele>
        <time>2014-05-18T08:03:30Z</time>
      </trkpt>
      <trkpt lat="43.56107" lon="5.66421">
        <ele>639.702</ele>
        <time>2014-05-18T08:03:31Z</time>
      </trkpt>
      <trkpt lat="43.56101" lon="5.66449">
        <ele>639.556</ele>
        <time>2014-05-18T08:03:35Z</time>
      </trkpt>
      <trkpt lat="43.56085" lon="5.66494">
        <ele>639.676</ele>
        <time>2014-05-18T08:03:42Z</time>
      </trkpt>
      <trkpt lat="43.56077" lon="5.66553">
        <ele>646.778</ele>
        <time>2014-05-18T08:03:50Z</time>
      </trkpt>
      <trkpt lat="43.56074" lon="5.666">
        <ele>645.914</ele>
        <time>2014-05-18T08:03:56Z</time>
      </trkpt>
      <trkpt lat="43.56073" lon="5.66617">
        <ele>646.357</ele>
        <time>2014-05-18T08:03:58Z</time>
      </trkpt>
      <trkpt lat="43.5607" lon="5.66643">
        <ele>644.744</ele>
        <time>2014-05-18T08:04:02Z</time>
      </trkpt>
      <trkpt lat="43.56063" lon="5.66646">
        <ele>644.927</ele>
        <time>2014-05-18T08:04:05Z</time>
      </trkpt>
      <trkpt lat="43.56058" lon="5.66635">
        <ele>644.298</ele>
        <time>2014-05-18T08:04:09Z</time>
      </trkpt>
      <trkpt lat="43.56056" lon="5.66621">
        <ele>641.598</ele>
        <time>2014-05-18T08:04:15Z</time>
      </trkpt>
      <trkpt lat="43.56056" lon="5.66619">
        <ele>643.8</ele>
        <time>2014-05-18T08:04:20Z</time>
      </trkpt>
      <trkpt lat="43.56056" lon="5.66614">
        <ele>650.178</ele>
        <time>2014-05-18T08:05:29Z</time>
      </trkpt>
      <trkpt lat="43.56056" lon="5.66593">
        <ele>645.636</ele>
        <time>2014-05-18T08:05:37Z</time>
      </trkpt>
      <trkpt lat="43.5606" lon="5.66576">
        <ele>640.835</ele>
        <time>2014-05-18T08:05:45Z</time>
      </trkpt>
      <trkpt lat="43.56061" lon="5.66551">
        <ele>637.356</ele>
        <time>2014-05-18T08:05:51Z</time>
      </trkpt>
      <trkpt lat="43.5606" lon="5.66534">
        <ele>635.487</ele>
        <time>2014-05-18T08:05:57Z</time>
      </trkpt>
      <trkpt lat="43.56062" lon="5.66521">
        <ele>636.048</ele>
        <time>2014-05-18T08:06:03Z</time>
      </trkpt>
      <trkpt lat="43.56064" lon="5.665">
        <ele>636.528</ele>
        <time>2014-05-18T08:06:09Z</time>
      </trkpt>
      <trkpt lat="43.56063" lon="5.66484">
        <ele>636.468</ele>
        <time>2014-05-18T08:06:16Z</time>
      </trkpt>
      <trkpt lat="43.56062" lon="5.66471">
        <ele>636.767</ele>
        <time>2014-05-18T08:06:22Z</time>
      </trkpt>
      <trkpt lat="43.56061" lon="5.66464">
        <ele>636.416</ele>
        <time>2014-05-18T08:06:25Z</time>
      </trkpt>
      <trkpt lat="43.5606" lon="5.66447">
        <ele>637.938</ele>
        <time>2014-05-18T08:06:32Z</time>
      </trkpt>
      <trkpt lat="43.56059" lon="5.6643">
        <ele>638.948</ele>
        <time>2014-05-18T08:06:39Z</time>
      </trkpt>
      <trkpt lat="43.56057" lon="5.66409">
        <ele>640.67</ele>
        <time>2014-05-18T08:06:47Z</time>
      </trkpt>
      <trkpt lat="43.56054" lon="5.66388">
        <ele>641.938</ele>
        <time>2014-05-18T08:06:55Z</time>
      </trkpt>
      <trkpt lat="43.56048" lon="5.66365">
        <ele>643.068</ele>
        <time>2014-05-18T08:07:05Z</time>
      </trkpt>
      <trkpt lat="43.56044" lon="5.66348">
        <ele>645.04</ele>
        <time>2014-05-18T08:07:12Z</time>
      </trkpt>
      <trkpt lat="43.56043" lon="5.66335">
        <ele>645.419</ele>
        <time>2014-05-18T08:07:18Z</time>
      </trkpt>
      <trkpt lat="43.56043" lon="5.66316">
        <ele>645.929</ele>
        <time>2014-05-18T08:07:26Z</time>
      </trkpt>
      <trkpt lat="43.56044" lon="5.66301">
        <ele>646.268</ele>
        <time>2014-05-18T08:07:34Z</time>
      </trkpt>
      <trkpt lat="43.56024" lon="5.66283">
        <ele>647.908</ele>
        <time>2014-05-18T08:07:38Z</time>
      </trkpt>
      <trkpt lat="43.56008" lon="5.66296">
        <ele>650.638</ele>
        <time>2014-05-18T08:07:46Z</time>
      </trkpt>
      <trkpt lat="43.55997" lon="5.66305">
        <ele>652.199</ele>
        <time>2014-05-18T08:07:52Z</time>
      </trkpt>
      <trkpt lat="43.55989" lon="5.66309">
        <ele>654.95</ele>
        <time>2014-05-18T08:07:58Z</time>
      </trkpt>
      <trkpt lat="43.55988" lon="5.66309">
        <ele>654.288</ele>
        <time>2014-05-18T08:08:03Z</time>
      </trkpt>
      <trkpt lat="43.55983" lon="5.66307">
        <ele>660.159</ele>
        <time>2014-05-18T08:09:04Z</time>
      </trkpt>
      <trkpt lat="43.55973" lon="5.66303">
        <ele>660.349</ele>
        <time>2014-05-18T08:09:10Z</time>
      </trkpt>
      <trkpt lat="43.55972" lon="5.66302">
        <ele>660.218</ele>
        <time>2014-05-18T08:09:11Z</time>
      </trkpt>
      <trkpt lat="43.55967" lon="5.66297">
        <ele>662.25</ele>
        <time>2014-05-18T08:09:18Z</time>
      </trkpt>
      <trkpt lat="43.55966" lon="5.66296">
        <ele>662.811</ele>
        <time>2014-05-18T08:09:19Z</time>
      </trkpt>
      <trkpt lat="43.55962" lon="5.6629">
        <ele>665.921</ele>
        <time>2014-05-18T08:09:27Z</time>
      </trkpt>
      <trkpt lat="43.55959" lon="5.66287">
        <ele>666.911</ele>
        <time>2014-05-18T08:09:33Z</time>
      </trkpt>
      <trkpt lat="43.55952" lon="5.6627">
        <ele>664.137</ele>
        <time>2014-05-18T08:09:42Z</time>
      </trkpt>
      <trkpt lat="43.55946" lon="5.66259">
        <ele>661.267</ele>
        <time>2014-05-18T08:09:48Z</time>
      </trkpt>
      <trkpt lat="43.55936" lon="5.66245">
        <ele>661.917</ele>
        <time>2014-05-18T08:09:56Z</time>
      </trkpt>
      <trkpt lat="43.55928" lon="5.66236">
        <ele>660.547</ele>
        <time>2014-05-18T08:10:02Z</time>
      </trkpt>
      <trkpt lat="43.5592" lon="5.66227">
        <ele>661.618</ele>
        <time>2014-05-18T08:10:07Z</time>
      </trkpt>
      <trkpt lat="43.55909" lon="5.66216">
        <ele>662.738</ele>
        <time>2014-05-18T08:10:13Z</time>
      </trkpt>
      <trkpt lat="43.55901" lon="5.66202">
        <ele>664.079</ele>
        <time>2014-05-18T08:10:20Z</time>
      </trkpt>
      <trkpt lat="43.55893" lon="5.66192">
        <ele>664.227</ele>
        <time>2014-05-18T08:10:26Z</time>
      </trkpt>
      <trkpt lat="43.55885" lon="5.66182">
        <ele>664.497</ele>
        <time>2014-05-18T08:10:31Z</time>
      </trkpt>
      <trkpt lat="43.55874" lon="5.6617">
        <ele>663.486</ele>
        <time>2014-05-18T08:10:36Z</time>
      </trkpt>
      <trkpt lat="43.55858" lon="5.66152">
        <ele>664.167</ele>
        <time>2014-05-18T08:10:43Z</time>
      </trkpt>
      <trkpt lat="43.55839" lon="5.66138">
        <ele>662.226</ele>
        <time>2014-05-18T08:10:52Z</time>
      </trkpt>
      <trkpt lat="43.55825" lon="5.66126">
        <ele>663.407</ele>
        <time>2014-05-18T08:10:58Z</time>
      </trkpt>
      <trkpt lat="43.55814" lon="5.6612">
        <ele>664.368</ele>
        <time>2014-05-18T08:11:03Z</time>
      </trkpt>
      <trkpt lat="43.558" lon="5.66112">
        <ele>665.718</ele>
        <time>2014-05-18T08:11:10Z</time>
      </trkpt>
      <trkpt lat="43.55781" lon="5.66111">
        <ele>666.038</ele>
        <time>2014-05-18T08:11:19Z</time>
      </trkpt>
      <trkpt lat="43.55778" lon="5.66111">
        <ele>666.157</ele>
        <time>2014-05-18T08:11:21Z</time>
      </trkpt>
      <trkpt lat="43.5577" lon="5.66116">
        <ele>665.707</ele>
        <time>2014-05-18T08:11:27Z</time>
      </trkpt>
      <trkpt lat="43.55768" lon="5.66118">
        <ele>666.117</ele>
        <time>2014-05-18T08:11:28Z</time>
      </trkpt>
      <trkpt lat="43.5576" lon="5.66132">
        <ele>668.387</ele>
        <time>2014-05-18T08:11:36Z</time>
      </trkpt>
      <trkpt lat="43.55756" lon="5.66136">
        <ele>668.897</ele>
        <time>2014-05-18T08:11:41Z</time>
      </trkpt>
      <trkpt lat="43.55754" lon="5.66139">
        <ele>669.197</ele>
        <time>2014-05-18T08:11:43Z</time>
      </trkpt>
      <trkpt lat="43.55746" lon="5.66137">
        <ele>670.498</ele>
        <time>2014-05-18T08:11:49Z</time>
      </trkpt>
      <trkpt lat="43.55739" lon="5.66134">
        <ele>670.738</ele>
        <time>2014-05-18T08:11:55Z</time>
      </trkpt>
      <trkpt lat="43.55736" lon="5.66133">
        <ele>670.037</ele>
        <time>2014-05-18T08:11:58Z</time>
      </trkpt>
      <trkpt lat="43.55733" lon="5.6613">
        <ele>669.197</ele>
        <time>2014-05-18T08:12:02Z</time>
      </trkpt>
      <trkpt lat="43.55729" lon="5.66125">
        <ele>669.107</ele>
        <time>2014-05-18T08:12:07Z</time>
      </trkpt>
      <trkpt lat="43.55721" lon="5.66113">
        <ele>669.247</ele>
        <time>2014-05-18T08:12:15Z</time>
      </trkpt>
      <trkpt lat="43.55714" lon="5.661">
        <ele>669.326</ele>
        <time>2014-05-18T08:12:22Z</time>
      </trkpt>
      <trkpt lat="43.55708" lon="5.66086">
        <ele>669.557</ele>
        <time>2014-05-18T08:12:29Z</time>
      </trkpt>
      <trkpt lat="43.55702" lon="5.66071">
        <ele>668.506</ele>
        <time>2014-05-18T08:12:37Z</time>
      </trkpt>
      <trkpt lat="43.55701" lon="5.66069">
        <ele>668.437</ele>
        <time>2014-05-18T08:12:38Z</time>
      </trkpt>
      <trkpt lat="43.55699" lon="5.66062">
        <ele>668.367</ele>
        <time>2014-05-18T08:12:42Z</time>
      </trkpt>
      <trkpt lat="43.55693" lon="5.66046">
        <ele>668.677</ele>
        <time>2014-05-18T08:12:52Z</time>
      </trkpt>
      <trkpt lat="43.55684" lon="5.6603">
        <ele>671.557</ele>
        <time>2014-05-18T08:13:03Z</time>
      </trkpt>
      <trkpt lat="43.55677" lon="5.66021">
        <ele>673.047</ele>
        <time>2014-05-18T08:13:10Z</time>
      </trkpt>
      <trkpt lat="43.55669" lon="5.66009">
        <ele>674.257</ele>
        <time>2014-05-18T08:13:18Z</time>
      </trkpt>
      <trkpt lat="43.55664" lon="5.65999">
        <ele>675.777</ele>
        <time>2014-05-18T08:13:25Z</time>
      </trkpt>
      <trkpt lat="43.55657" lon="5.65985">
        <ele>677.747</ele>
        <time>2014-05-18T08:13:34Z</time>
      </trkpt>
      <trkpt lat="43.55653" lon="5.6597">
        <ele>678.386</ele>
        <time>2014-05-18T08:13:43Z</time>
      </trkpt>
      <trkpt lat="43.55646" lon="5.6595">
        <ele>677.616</ele>
        <time>2014-05-18T08:13:53Z</time>
      </trkpt>
      <trkpt lat="43.55642" lon="5.65935">
        <ele>677.056</ele>
        <time>2014-05-18T08:14:01Z</time>
      </trkpt>
      <trkpt lat="43.55641" lon="5.65933">
        <ele>676.966</ele>
        <time>2014-05-18T08:14:02Z</time>
      </trkpt>
      <trkpt lat="43.55637" lon="5.6592">
        <ele>678.847</ele>
        <time>2014-05-18T08:14:10Z</time>
      </trkpt>
      <trkpt lat="43.55631" lon="5.65908">
        <ele>681.107</ele>
        <time>2014-05-18T08:14:18Z</time>
      </trkpt>
      <trkpt lat="43.55626" lon="5.65897">
        <ele>683.167</ele>
        <time>2014-05-18T08:14:26Z</time>
      </trkpt>
      <trkpt lat="43.5562" lon="5.65883">
        <ele>685.437</ele>
        <time>2014-05-18T08:14:35Z</time>
      </trkpt>
      <trkpt lat="43.55617" lon="5.65876">
        <ele>686.997</ele>
        <time>2014-05-18T08:14:40Z</time>
      </trkpt>
      <trkpt lat="43.55616" lon="5.65874">
        <ele>691.969</ele>
        <time>2014-05-18T08:14:45Z</time>
      </trkpt>
      <trkpt lat="43.55614" lon="5.65871">
        <ele>698.949</ele>
        <time>2014-05-18T08:14:51Z</time>
      </trkpt>
      <trkpt lat="43.5561" lon="5.65867">
        <ele>701.457</ele>
        <time>2014-05-18T08:14:58Z</time>
      </trkpt>
      <trkpt lat="43.55599" lon="5.65838">
        <ele>708.317</ele>
        <time>2014-05-18T08:15:36Z</time>
      </trkpt>
      <trkpt lat="43.55601" lon="5.65843">
        <ele>719.195</ele>
        <time>2014-05-18T08:17:32Z</time>
      </trkpt>
      <trkpt lat="43.55596" lon="5.6583">
        <ele>714.254</ele>
        <time>2014-05-18T08:17:45Z</time>
      </trkpt>
      <trkpt lat="43.5559" lon="5.65819">
        <ele>708.995</ele>
        <time>2014-05-18T08:17:51Z</time>
      </trkpt>
      <trkpt lat="43.55588" lon="5.65802">
        <ele>705.995</ele>
        <time>2014-05-18T08:17:59Z</time>
      </trkpt>
      <trkpt lat="43.55582" lon="5.65786">
        <ele>705.126</ele>
        <time>2014-05-18T08:18:09Z</time>
      </trkpt>
      <trkpt lat="43.55577" lon="5.65775">
        <ele>707.667</ele>
        <time>2014-05-18T08:18:18Z</time>
      </trkpt>
      <trkpt lat="43.5557" lon="5.65763">
        <ele>710.197</ele>
        <time>2014-05-18T08:18:26Z</time>
      </trkpt>
      <trkpt lat="43.55567" lon="5.65758">
        <ele>710.847</ele>
        <time>2014-05-18T08:18:29Z</time>
      </trkpt>
      <trkpt lat="43.55557" lon="5.65753">
        <ele>713.677</ele>
        <time>2014-05-18T08:18:37Z</time>
      </trkpt>
      <trkpt lat="43.55554" lon="5.65756">
        <ele>714.067</ele>
        <time>2014-05-18T08:18:40Z</time>
      </trkpt>
      <trkpt lat="43.55541" lon="5.65762">
        <ele>716.247</ele>
        <time>2014-05-18T08:18:49Z</time>
      </trkpt>
      <trkpt lat="43.55528" lon="5.65771">
        <ele>717.237</ele>
        <time>2014-05-18T08:18:56Z</time>
      </trkpt>
      <trkpt lat="43.55517" lon="5.65769">
        <ele>717.686</ele>
        <time>2014-05-18T08:19:04Z</time>
      </trkpt>
      <trkpt lat="43.55505" lon="5.65762">
        <ele>718.176</ele>
        <time>2014-05-18T08:19:14Z</time>
      </trkpt>
      <trkpt lat="43.55519" lon="5.65783">
        <ele>717.795</ele>
        <time>2014-05-18T08:19:21Z</time>
      </trkpt>
      <trkpt lat="43.55512" lon="5.65795">
        <ele>718.285</ele>
        <time>2014-05-18T08:19:29Z</time>
      </trkpt>
      <trkpt lat="43.55508" lon="5.65803">
        <ele>719.565</ele>
        <time>2014-05-18T08:19:37Z</time>
      </trkpt>
      <trkpt lat="43.5551" lon="5.65799">
        <ele>729.61</ele>
        <time>2014-05-18T08:20:21Z</time>
      </trkpt>
      <trkpt lat="43.55508" lon="5.65802">
        <ele>728.795</ele>
        <time>2014-05-18T08:20:26Z</time>
      </trkpt>
      <trkpt lat="43.55506" lon="5.65807">
        <ele>726.294</ele>
        <time>2014-05-18T08:21:03Z</time>
      </trkpt>
      <trkpt lat="43.55501" lon="5.65815">
        <ele>722.663</ele>
        <time>2014-05-18T08:21:09Z</time>
      </trkpt>
      <trkpt lat="43.55497" lon="5.65821">
        <ele>718.342</ele>
        <time>2014-05-18T08:21:14Z</time>
      </trkpt>
      <trkpt lat="43.55496" lon="5.65822">
        <ele>717.113</ele>
        <time>2014-05-18T08:21:18Z</time>
      </trkpt>
      <trkpt lat="43.55487" lon="5.65836">
        <ele>714.382</ele>
        <time>2014-05-18T08:21:23Z</time>
      </trkpt>
      <trkpt lat="43.5548" lon="5.65851">
        <ele>710.83</ele>
        <time>2014-05-18T08:21:27Z</time>
      </trkpt>
      <trkpt lat="43.55471" lon="5.65879">
        <ele>706.58</ele>
        <time>2014-05-18T08:21:32Z</time>
      </trkpt>
      <trkpt lat="43.55467" lon="5.65899">
        <ele>702.96</ele>
        <time>2014-05-18T08:21:36Z</time>
      </trkpt>
      <trkpt lat="43.55466" lon="5.65904">
        <ele>702.121</ele>
        <time>2014-05-18T08:21:38Z</time>
      </trkpt>
      <trkpt lat="43.55466" lon="5.65905">
        <ele>700.481</ele>
        <time>2014-05-18T08:21:41Z</time>
      </trkpt>
      <trkpt lat="43.55455" lon="5.65923">
        <ele>696.981</ele>
        <time>2014-05-18T08:21:46Z</time>
      </trkpt>
      <trkpt lat="43.55452" lon="5.65928">
        <ele>695.472</ele>
        <time>2014-05-18T08:21:48Z</time>
      </trkpt>
      <trkpt lat="43.55444" lon="5.65942">
        <ele>694.734</ele>
        <time>2014-05-18T08:21:54Z</time>
      </trkpt>
      <trkpt lat="43.55439" lon="5.65949">
        <ele>695.085</ele>
        <time>2014-05-18T08:21:57Z</time>
      </trkpt>
      <trkpt lat="43.55437" lon="5.65958">
        <ele>695.375</ele>
        <time>2014-05-18T08:21:59Z</time>
      </trkpt>
      <trkpt lat="43.55435" lon="5.65971">
        <ele>696.936</ele>
        <time>2014-05-18T08:22:04Z</time>
      </trkpt>
      <trkpt lat="43.55433" lon="5.65988">
        <ele>695.655</ele>
        <time>2014-05-18T08:22:09Z</time>
      </trkpt>
      <trkpt lat="43.55433" lon="5.66009">
        <ele>695.025</ele>
        <time>2014-05-18T08:22:14Z</time>
      </trkpt>
      <trkpt lat="43.55434" lon="5.66029">
        <ele>693.815</ele>
        <time>2014-05-18T08:22:20Z</time>
      </trkpt>
      <trkpt lat="43.55444" lon="5.66072">
        <ele>692.365</ele>
        <time>2014-05-18T08:22:28Z</time>
      </trkpt>
      <trkpt lat="43.55446" lon="5.66088">
        <ele>691.464</ele>
        <time>2014-05-18T08:22:31Z</time>
      </trkpt>
      <trkpt lat="43.55449" lon="5.66108">
        <ele>688.324</ele>
        <time>2014-05-18T08:22:37Z</time>
      </trkpt>
      <trkpt lat="43.5545" lon="5.66135">
        <ele>683.751</ele>
        <time>2014-05-18T08:22:42Z</time>
      </trkpt>
      <trkpt lat="43.55447" lon="5.66157">
        <ele>679.081</ele>
        <time>2014-05-18T08:22:47Z</time>
      </trkpt>
      <trkpt lat="43.55443" lon="5.66165">
        <ele>675.12</ele>
        <time>2014-05-18T08:22:51Z</time>
      </trkpt>
      <trkpt lat="43.55441" lon="5.66169">
        <ele>674.271</ele>
        <time>2014-05-18T08:22:52Z</time>
      </trkpt>
      <trkpt lat="43.55438" lon="5.66179">
        <ele>672.57</ele>
        <time>2014-05-18T08:22:54Z</time>
      </trkpt>
      <trkpt lat="43.55434" lon="5.66196">
        <ele>669.409</ele>
        <time>2014-05-18T08:22:57Z</time>
      </trkpt>
      <trkpt lat="43.5543" lon="5.66229">
        <ele>665.421</ele>
        <time>2014-05-18T08:23:02Z</time>
      </trkpt>
      <trkpt lat="43.55424" lon="5.66249">
        <ele>662.342</ele>
        <time>2014-05-18T08:23:07Z</time>
      </trkpt>
      <trkpt lat="43.5542" lon="5.66257">
        <ele>660.432</ele>
        <time>2014-05-18T08:23:10Z</time>
      </trkpt>
      <trkpt lat="43.55415" lon="5.66268">
        <ele>659.262</ele>
        <time>2014-05-18T08:23:15Z</time>
      </trkpt>
      <trkpt lat="43.55414" lon="5.66272">
        <ele>658.612</ele>
        <time>2014-05-18T08:23:17Z</time>
      </trkpt>
      <trkpt lat="43.55407" lon="5.6628">
        <ele>659.004</ele>
        <time>2014-05-18T08:23:21Z</time>
      </trkpt>
      <trkpt lat="43.554" lon="5.66288">
        <ele>659.766</ele>
        <time>2014-05-18T08:23:27Z</time>
      </trkpt>
      <trkpt lat="43.5539" lon="5.66308">
        <ele>673.407</ele>
        <time>2014-05-18T08:24:05Z</time>
      </trkpt>
      <trkpt lat="43.55385" lon="5.66318">
        <ele>674.398</ele>
        <time>2014-05-18T08:24:12Z</time>
      </trkpt>
      <trkpt lat="43.55381" lon="5.66325">
        <ele>674.727</ele>
        <time>2014-05-18T08:24:21Z</time>
      </trkpt>
      <trkpt lat="43.55377" lon="5.66331">
        <ele>677.097</ele>
        <time>2014-05-18T08:24:32Z</time>
      </trkpt>
      <trkpt lat="43.55374" lon="5.66335">
        <ele>678.196</ele>
        <time>2014-05-18T08:24:36Z</time>
      </trkpt>
      <trkpt lat="43.5537" lon="5.66342">
        <ele>681.978</ele>
        <time>2014-05-18T08:24:40Z</time>
      </trkpt>
      <trkpt lat="43.55369" lon="5.66344">
        <ele>682.858</ele>
        <time>2014-05-18T08:24:42Z</time>
      </trkpt>
      <trkpt lat="43.55367" lon="5.66347">
        <ele>683.597</ele>
        <time>2014-05-18T08:24:45Z</time>
      </trkpt>
      <trkpt lat="43.55367" lon="5.66348">
        <ele>679.945</ele>
        <time>2014-05-18T08:24:53Z</time>
      </trkpt>
      <trkpt lat="43.5536" lon="5.66357">
        <ele>681.556</ele>
        <time>2014-05-18T08:25:01Z</time>
      </trkpt>
      <trkpt lat="43.55358" lon="5.6636">
        <ele>683.707</ele>
        <time>2014-05-18T08:25:09Z</time>
      </trkpt>
      <trkpt lat="43.55356" lon="5.66362">
        <ele>682.916</ele>
        <time>2014-05-18T08:25:16Z</time>
      </trkpt>
      <trkpt lat="43.5535" lon="5.66372">
        <ele>686.738</ele>
        <time>2014-05-18T08:25:22Z</time>
      </trkpt>
      <trkpt lat="43.55347" lon="5.66378">
        <ele>688.788</ele>
        <time>2014-05-18T08:25:27Z</time>
      </trkpt>
      <trkpt lat="43.55346" lon="5.6638">
        <ele>689.307</ele>
        <time>2014-05-18T08:25:30Z</time>
      </trkpt>
      <trkpt lat="43.55344" lon="5.66388">
        <ele>686.225</ele>
        <time>2014-05-18T08:25:35Z</time>
      </trkpt>
      <trkpt lat="43.5534" lon="5.66414">
        <ele>684.156</ele>
        <time>2014-05-18T08:25:44Z</time>
      </trkpt>
      <trkpt lat="43.55335" lon="5.66424">
        <ele>681.646</ele>
        <time>2014-05-18T08:25:49Z</time>
      </trkpt>
      <trkpt lat="43.55334" lon="5.66425">
        <ele>681.426</ele>
        <time>2014-05-18T08:25:50Z</time>
      </trkpt>
      <trkpt lat="43.55331" lon="5.6643">
        <ele>682.718</ele>
        <time>2014-05-18T08:25:55Z</time>
      </trkpt>
      <trkpt lat="43.55322" lon="5.66449">
        <ele>678.755</ele>
        <time>2014-05-18T08:26:05Z</time>
      </trkpt>
      <trkpt lat="43.55314" lon="5.66462">
        <ele>676.185</ele>
        <time>2014-05-18T08:26:11Z</time>
      </trkpt>
      <trkpt lat="43.55301" lon="5.66473">
        <ele>673.284</ele>
        <time>2014-05-18T08:26:19Z</time>
      </trkpt>
      <trkpt lat="43.5529" lon="5.66481">
        <ele>672.115</ele>
        <time>2014-05-18T08:26:25Z</time>
      </trkpt>
      <trkpt lat="43.55281" lon="5.6649">
        <ele>671.925</ele>
        <time>2014-05-18T08:26:30Z</time>
      </trkpt>
      <trkpt lat="43.55273" lon="5.66503">
        <ele>670.525</ele>
        <time>2014-05-18T08:26:35Z</time>
      </trkpt>
      <trkpt lat="43.55268" lon="5.66511">
        <ele>669.224</ele>
        <time>2014-05-18T08:26:39Z</time>
      </trkpt>
      <trkpt lat="43.55261" lon="5.6652">
        <ele>667.834</ele>
        <time>2014-05-18T08:26:43Z</time>
      </trkpt>
      <trkpt lat="43.55253" lon="5.66529">
        <ele>667.145</ele>
        <time>2014-05-18T08:26:48Z</time>
      </trkpt>
      <trkpt lat="43.55242" lon="5.6654">
        <ele>665.324</ele>
        <time>2014-05-18T08:26:53Z</time>
      </trkpt>
      <trkpt lat="43.55225" lon="5.66556">
        <ele>663.154</ele>
        <time>2014-05-18T08:26:59Z</time>
      </trkpt>
      <trkpt lat="43.55205" lon="5.66573">
        <ele>661.924</ele>
        <time>2014-05-18T08:27:04Z</time>
      </trkpt>
      <trkpt lat="43.55192" lon="5.66585">
        <ele>661.225</ele>
        <time>2014-05-18T08:27:08Z</time>
      </trkpt>
      <trkpt lat="43.55191" lon="5.66586">
        <ele>661.125</ele>
        <time>2014-05-18T08:27:09Z</time>
      </trkpt>
      <trkpt lat="43.55182" lon="5.66602">
        <ele>661.766</ele>
        <time>2014-05-18T08:27:16Z</time>
      </trkpt>
      <trkpt lat="43.5518" lon="5.66609">
        <ele>662.526</ele>
        <time>2014-05-18T08:27:23Z</time>
      </trkpt>
      <trkpt lat="43.55176" lon="5.66619">
        <ele>661.386</ele>
        <time>2014-05-18T08:27:28Z</time>
      </trkpt>
      <trkpt lat="43.55173" lon="5.66629">
        <ele>663.117</ele>
        <time>2014-05-18T08:27:34Z</time>
      </trkpt>
      <trkpt lat="43.55169" lon="5.66645">
        <ele>664.327</ele>
        <time>2014-05-18T08:27:41Z</time>
      </trkpt>
      <trkpt lat="43.55166" lon="5.66665">
        <ele>664.306</ele>
        <time>2014-05-18T08:27:47Z</time>
      </trkpt>
      <trkpt lat="43.55157" lon="5.66685">
        <ele>665.538</ele>
        <time>2014-05-18T08:27:54Z</time>
      </trkpt>
      <trkpt lat="43.55151" lon="5.66702">
        <ele>666.667</ele>
        <time>2014-05-18T08:28:01Z</time>
      </trkpt>
      <trkpt lat="43.55146" lon="5.66715">
        <ele>666.857</ele>
        <time>2014-05-18T08:28:07Z</time>
      </trkpt>
      <trkpt lat="43.55142" lon="5.66729">
        <ele>666.536</ele>
        <time>2014-05-18T08:28:13Z</time>
      </trkpt>
      <trkpt lat="43.55135" lon="5.66744">
        <ele>666.716</ele>
        <time>2014-05-18T08:28:19Z</time>
      </trkpt>
      <trkpt lat="43.55125" lon="5.66753">
        <ele>668.247</ele>
        <time>2014-05-18T08:28:25Z</time>
      </trkpt>
      <trkpt lat="43.55123" lon="5.66753">
        <ele>670.067</ele>
        <time>2014-05-18T08:28:30Z</time>
      </trkpt>
      <trkpt lat="43.5512" lon="5.66753">
        <ele>674.177</ele>
        <time>2014-05-18T08:28:40Z</time>
      </trkpt>
      <trkpt lat="43.55092" lon="5.66734">
        <ele>672.276</ele>
        <time>2014-05-18T08:28:51Z</time>
      </trkpt>
      <trkpt lat="43.55077" lon="5.66729">
        <ele>670.937</ele>
        <time>2014-05-18T08:28:57Z</time>
      </trkpt>
      <trkpt lat="43.55076" lon="5.66728">
        <ele>670.287</ele>
        <time>2014-05-18T08:28:58Z</time>
      </trkpt>
      <trkpt lat="43.55066" lon="5.66725">
        <ele>667.746</ele>
        <time>2014-05-18T08:29:03Z</time>
      </trkpt>
      <trkpt lat="43.55062" lon="5.66718">
        <ele>666.016</ele>
        <time>2014-05-18T08:29:06Z</time>
      </trkpt>
      <trkpt lat="43.5505" lon="5.66708">
        <ele>664.595</ele>
        <time>2014-05-18T08:29:12Z</time>
      </trkpt>
      <trkpt lat="43.55043" lon="5.66702">
        <ele>664.155</ele>
        <time>2014-05-18T08:29:15Z</time>
      </trkpt>
      <trkpt lat="43.55037" lon="5.66693">
        <ele>663.825</ele>
        <time>2014-05-18T08:29:19Z</time>
      </trkpt>
      <trkpt lat="43.55026" lon="5.66674">
        <ele>663.215</ele>
        <time>2014-05-18T08:29:24Z</time>
      </trkpt>
      <trkpt lat="43.55023" lon="5.66668">
        <ele>663.506</ele>
        <time>2014-05-18T08:29:26Z</time>
      </trkpt>
      <trkpt lat="43.55016" lon="5.66655">
        <ele>663.565</ele>
        <time>2014-05-18T08:29:32Z</time>
      </trkpt>
      <trkpt lat="43.55012" lon="5.66649">
        <ele>663.485</ele>
        <time>2014-05-18T08:29:35Z</time>
      </trkpt>
      <trkpt lat="43.55004" lon="5.66637">
        <ele>663.556</ele>
        <time>2014-05-18T08:29:41Z</time>
      </trkpt>
      <trkpt lat="43.54994" lon="5.66639">
        <ele>661.475</ele>
        <time>2014-05-18T08:29:46Z</time>
      </trkpt>
      <trkpt lat="43.54994" lon="5.66635">
        <ele>659.996</ele>
        <time>2014-05-18T08:29:53Z</time>
      </trkpt>
      <trkpt lat="43.54995" lon="5.66631">
        <ele>661.557</ele>
        <time>2014-05-18T08:29:58Z</time>
      </trkpt>
      <trkpt lat="43.54997" lon="5.66625">
        <ele>660.956</ele>
        <time>2014-05-18T08:30:25Z</time>
      </trkpt>
      <trkpt lat="43.54993" lon="5.66624">
        <ele>664.395</ele>
        <time>2014-05-18T08:31:19Z</time>
      </trkpt>
      <trkpt lat="43.54993" lon="5.66622">
        <ele>672.827</ele>
        <time>2014-05-18T08:31:36Z</time>
      </trkpt>
      <trkpt lat="43.54986" lon="5.66612">
        <ele>669.296</ele>
        <time>2014-05-18T08:31:44Z</time>
      </trkpt>
      <trkpt lat="43.54979" lon="5.66603">
        <ele>666.665</ele>
        <time>2014-05-18T08:31:50Z</time>
      </trkpt>
      <trkpt lat="43.54969" lon="5.6659">
        <ele>662.014</ele>
        <time>2014-05-18T08:31:55Z</time>
      </trkpt>
      <trkpt lat="43.54962" lon="5.66582">
        <ele>657.863</ele>
        <time>2014-05-18T08:31:59Z</time>
      </trkpt>
      <trkpt lat="43.54958" lon="5.66576">
        <ele>653.443</ele>
        <time>2014-05-18T08:32:04Z</time>
      </trkpt>
      <trkpt lat="43.54951" lon="5.66567">
        <ele>651.925</ele>
        <time>2014-05-18T08:32:07Z</time>
      </trkpt>
      <trkpt lat="43.54942" lon="5.66558">
        <ele>650.144</ele>
        <time>2014-05-18T08:32:11Z</time>
      </trkpt>
      <trkpt lat="43.54932" lon="5.66548">
        <ele>648.994</ele>
        <time>2014-05-18T08:32:14Z</time>
      </trkpt>
      <trkpt lat="43.54919" lon="5.66537">
        <ele>647.443</ele>
        <time>2014-05-18T08:32:17Z</time>
      </trkpt>
      <trkpt lat="43.54897" lon="5.66519">
        <ele>643.441</ele>
        <time>2014-05-18T08:32:22Z</time>
      </trkpt>
      <trkpt lat="43.54875" lon="5.66506">
        <ele>641.463</ele>
        <time>2014-05-18T08:32:26Z</time>
      </trkpt>
      <trkpt lat="43.54872" lon="5.66504">
        <ele>641.032</ele>
        <time>2014-05-18T08:32:27Z</time>
      </trkpt>
      <trkpt lat="43.54858" lon="5.66493">
        <ele>638.042</ele>
        <time>2014-05-18T08:32:31Z</time>
      </trkpt>
      <trkpt lat="43.54841" lon="5.66495">
        <ele>635.242</ele>
        <time>2014-05-18T08:32:35Z</time>
      </trkpt>
      <trkpt lat="43.54832" lon="5.66495">
        <ele>633.414</ele>
        <time>2014-05-18T08:32:39Z</time>
      </trkpt>
      <trkpt lat="43.5483" lon="5.66495">
        <ele>631.164</ele>
        <time>2014-05-18T08:32:44Z</time>
      </trkpt>
      <trkpt lat="43.54812" lon="5.66501">
        <ele>632.986</ele>
        <time>2014-05-18T08:32:49Z</time>
      </trkpt>
      <trkpt lat="43.54811" lon="5.66502">
        <ele>636.887</ele>
        <time>2014-05-18T08:32:55Z</time>
      </trkpt>
      <trkpt lat="43.54807" lon="5.66506">
        <ele>638.016</ele>
        <time>2014-05-18T08:33:02Z</time>
      </trkpt>
      <trkpt lat="43.54836" lon="5.66527">
        <ele>637.796</ele>
        <time>2014-05-18T08:33:04Z</time>
      </trkpt>
      <trkpt lat="43.54839" lon="5.66537">
        <ele>635.135</ele>
        <time>2014-05-18T08:33:08Z</time>
      </trkpt>
      <trkpt lat="43.54841" lon="5.66543">
        <ele>634.004</ele>
        <time>2014-05-18T08:33:10Z</time>
      </trkpt>
      <trkpt lat="43.54849" lon="5.66562">
        <ele>631.282</ele>
        <time>2014-05-18T08:33:14Z</time>
      </trkpt>
      <trkpt lat="43.54859" lon="5.66587">
        <ele>629.292</ele>
        <time>2014-05-18T08:33:19Z</time>
      </trkpt>
      <trkpt lat="43.54864" lon="5.66602">
        <ele>629.483</ele>
        <time>2014-05-18T08:33:22Z</time>
      </trkpt>
      <trkpt lat="43.54872" lon="5.66631">
        <ele>627.222</ele>
        <time>2014-05-18T08:33:28Z</time>
      </trkpt>
      <trkpt lat="43.54876" lon="5.6665">
        <ele>626.694</ele>
        <time>2014-05-18T08:33:32Z</time>
      </trkpt>
      <trkpt lat="43.54879" lon="5.66663">
        <ele>629.636</ele>
        <time>2014-05-18T08:33:45Z</time>
      </trkpt>
      <trkpt lat="43.5488" lon="5.66664">
        <ele>629.796</ele>
        <time>2014-05-18T08:33:46Z</time>
      </trkpt>
      <trkpt lat="43.54881" lon="5.66669">
        <ele>629.266</ele>
        <time>2014-05-18T08:33:51Z</time>
      </trkpt>
      <trkpt lat="43.54884" lon="5.66683">
        <ele>627.385</ele>
        <time>2014-05-18T08:33:56Z</time>
      </trkpt>
      <trkpt lat="43.54885" lon="5.66688">
        <ele>626.834</ele>
        <time>2014-05-18T08:33:57Z</time>
      </trkpt>
      <trkpt lat="43.54889" lon="5.66713">
        <ele>623.814</ele>
        <time>2014-05-18T08:34:02Z</time>
      </trkpt>
      <trkpt lat="43.5489" lon="5.66741">
        <ele>621.264</ele>
        <time>2014-05-18T08:34:08Z</time>
      </trkpt>
      <trkpt lat="43.54891" lon="5.66751">
        <ele>619.684</ele>
        <time>2014-05-18T08:34:10Z</time>
      </trkpt>
      <trkpt lat="43.54894" lon="5.66769">
        <ele>618.404</ele>
        <time>2014-05-18T08:34:13Z</time>
      </trkpt>
      <trkpt lat="43.54903" lon="5.66798">
        <ele>619.355</ele>
        <time>2014-05-18T08:34:18Z</time>
      </trkpt>
      <trkpt lat="43.54909" lon="5.66815">
        <ele>616.625</ele>
        <time>2014-05-18T08:34:22Z</time>
      </trkpt>
      <trkpt lat="43.54913" lon="5.66825">
        <ele>616.085</ele>
        <time>2014-05-18T08:34:24Z</time>
      </trkpt>
      <trkpt lat="43.54924" lon="5.66854">
        <ele>615.534</ele>
        <time>2014-05-18T08:34:29Z</time>
      </trkpt>
      <trkpt lat="43.5493" lon="5.66871">
        <ele>614.445</ele>
        <time>2014-05-18T08:34:32Z</time>
      </trkpt>
      <trkpt lat="43.54935" lon="5.66884">
        <ele>610.253</ele>
        <time>2014-05-18T08:34:35Z</time>
      </trkpt>
      <trkpt lat="43.54944" lon="5.66909">
        <ele>604.602</ele>
        <time>2014-05-18T08:34:40Z</time>
      </trkpt>
      <trkpt lat="43.54946" lon="5.66916">
        <ele>605.374</ele>
        <time>2014-05-18T08:34:44Z</time>
      </trkpt>
      <trkpt lat="43.54948" lon="5.66922">
        <ele>612.267</ele>
        <time>2014-05-18T08:35:06Z</time>
      </trkpt>
      <trkpt lat="43.5495" lon="5.66927">
        <ele>614.207</ele>
        <time>2014-05-18T08:35:10Z</time>
      </trkpt>
      <trkpt lat="43.54955" lon="5.66941">
        <ele>616.018</ele>
        <time>2014-05-18T08:35:18Z</time>
      </trkpt>
      <trkpt lat="43.54958" lon="5.66948">
        <ele>613.936</ele>
        <time>2014-05-18T08:35:24Z</time>
      </trkpt>
      <trkpt lat="43.54963" lon="5.66961">
        <ele>608.144</ele>
        <time>2014-05-18T08:35:29Z</time>
      </trkpt>
      <trkpt lat="43.54964" lon="5.66964">
        <ele>606.792</ele>
        <time>2014-05-18T08:35:30Z</time>
      </trkpt>
      <trkpt lat="43.54969" lon="5.66979">
        <ele>604.174</ele>
        <time>2014-05-18T08:35:36Z</time>
      </trkpt>
      <trkpt lat="43.54975" lon="5.66995">
        <ele>602.024</ele>
        <time>2014-05-18T08:35:41Z</time>
      </trkpt>
      <trkpt lat="43.54981" lon="5.67012">
        <ele>600.965</ele>
        <time>2014-05-18T08:35:47Z</time>
      </trkpt>
      <trkpt lat="43.54985" lon="5.67021">
        <ele>603.726</ele>
        <time>2014-05-18T08:35:57Z</time>
      </trkpt>
      <trkpt lat="43.54988" lon="5.67033">
        <ele>603.046</ele>
        <time>2014-05-18T08:36:02Z</time>
      </trkpt>
      <trkpt lat="43.54991" lon="5.67052">
        <ele>598.634</ele>
        <time>2014-05-18T08:36:07Z</time>
      </trkpt>
      <trkpt lat="43.54993" lon="5.6707">
        <ele>598.054</ele>
        <time>2014-05-18T08:36:10Z</time>
      </trkpt>
      <trkpt lat="43.55" lon="5.67099">
        <ele>595.064</ele>
        <time>2014-05-18T08:36:15Z</time>
      </trkpt>
      <trkpt lat="43.5501" lon="5.67127">
        <ele>594.065</ele>
        <time>2014-05-18T08:36:21Z</time>
      </trkpt>
      <trkpt lat="43.55015" lon="5.67141">
        <ele>592.796</ele>
        <time>2014-05-18T08:36:26Z</time>
      </trkpt>
      <trkpt lat="43.55022" lon="5.6716">
        <ele>593.076</ele>
        <time>2014-05-18T08:36:32Z</time>
      </trkpt>
      <trkpt lat="43.5503" lon="5.67182">
        <ele>592.697</ele>
        <time>2014-05-18T08:36:38Z</time>
      </trkpt>
      <trkpt lat="43.55035" lon="5.67197">
        <ele>591.906</ele>
        <time>2014-05-18T08:36:42Z</time>
      </trkpt>
      <trkpt lat="43.55037" lon="5.67207">
        <ele>591.766</ele>
        <time>2014-05-18T08:36:44Z</time>
      </trkpt>
      <trkpt lat="43.5504" lon="5.67232">
        <ele>589.885</ele>
        <time>2014-05-18T08:36:48Z</time>
      </trkpt>
      <trkpt lat="43.55043" lon="5.67242">
        <ele>589.675</ele>
        <time>2014-05-18T08:36:50Z</time>
      </trkpt>
      <trkpt lat="43.55048" lon="5.67254">
        <ele>589.775</ele>
        <time>2014-05-18T08:36:54Z</time>
      </trkpt>
      <trkpt lat="43.55052" lon="5.67266">
        <ele>595.868</ele>
        <time>2014-05-18T08:38:04Z</time>
      </trkpt>
      <trkpt lat="43.5504" lon="5.67278">
        <ele>594.327</ele>
        <time>2014-05-18T08:38:09Z</time>
      </trkpt>
      <trkpt lat="43.55036" lon="5.67273">
        <ele>589.155</ele>
        <time>2014-05-18T08:38:12Z</time>
      </trkpt>
      <trkpt lat="43.55017" lon="5.67256">
        <ele>580.455</ele>
        <time>2014-05-18T08:38:20Z</time>
      </trkpt>
      <trkpt lat="43.54989" lon="5.67249">
        <ele>576.206</ele>
        <time>2014-05-18T08:38:29Z</time>
      </trkpt>
      <trkpt lat="43.54974" lon="5.67239">
        <ele>575.947</ele>
        <time>2014-05-18T08:38:37Z</time>
      </trkpt>
      <trkpt lat="43.54961" lon="5.67236">
        <ele>576.638</ele>
        <time>2014-05-18T08:38:42Z</time>
      </trkpt>
      <trkpt lat="43.54939" lon="5.67245">
        <ele>575.617</ele>
        <time>2014-05-18T08:38:50Z</time>
      </trkpt>
      <trkpt lat="43.54924" lon="5.67259">
        <ele>575.027</ele>
        <time>2014-05-18T08:38:57Z</time>
      </trkpt>
      <trkpt lat="43.54914" lon="5.67251">
        <ele>576.058</ele>
        <time>2014-05-18T08:39:03Z</time>
      </trkpt>
      <trkpt lat="43.54902" lon="5.67243">
        <ele>579.62</ele>
        <time>2014-05-18T08:39:09Z</time>
      </trkpt>
      <trkpt lat="43.54887" lon="5.67244">
        <ele>580.918</ele>
        <time>2014-05-18T08:39:16Z</time>
      </trkpt>
      <trkpt lat="43.54868" lon="5.67244">
        <ele>582.728</ele>
        <time>2014-05-18T08:39:25Z</time>
      </trkpt>
      <trkpt lat="43.54855" lon="5.6724">
        <ele>585.399</ele>
        <time>2014-05-18T08:39:32Z</time>
      </trkpt>
      <trkpt lat="43.54837" lon="5.67243">
        <ele>587.677</ele>
        <time>2014-05-18T08:39:40Z</time>
      </trkpt>
      <trkpt lat="43.54813" lon="5.67243">
        <ele>591.509</ele>
        <time>2014-05-18T08:39:49Z</time>
      </trkpt>
      <trkpt lat="43.54796" lon="5.67241">
        <ele>593.398</ele>
        <time>2014-05-18T08:39:57Z</time>
      </trkpt>
      <trkpt lat="43.54782" lon="5.6724">
        <ele>595.298</ele>
        <time>2014-05-18T08:40:05Z</time>
      </trkpt>
      <trkpt lat="43.54768" lon="5.67234">
        <ele>598.148</ele>
        <time>2014-05-18T08:40:14Z</time>
      </trkpt>
      <trkpt lat="43.54749" lon="5.67227">
        <ele>599.857</ele>
        <time>2014-05-18T08:40:24Z</time>
      </trkpt>
      <trkpt lat="43.54737" lon="5.67225">
        <ele>601.058</ele>
        <time>2014-05-18T08:40:30Z</time>
      </trkpt>
      <trkpt lat="43.54726" lon="5.67222">
        <ele>601.858</ele>
        <time>2014-05-18T08:40:36Z</time>
      </trkpt>
      <trkpt lat="43.54709" lon="5.67216">
        <ele>602.897</ele>
        <time>2014-05-18T08:40:45Z</time>
      </trkpt>
      <trkpt lat="43.54697" lon="5.6721">
        <ele>604.058</ele>
        <time>2014-05-18T08:40:52Z</time>
      </trkpt>
      <trkpt lat="43.54689" lon="5.67206">
        <ele>606.668</ele>
        <time>2014-05-18T08:40:59Z</time>
      </trkpt>
      <trkpt lat="43.54682" lon="5.67204">
        <ele>609.029</ele>
        <time>2014-05-18T08:41:06Z</time>
      </trkpt>
      <trkpt lat="43.54678" lon="5.67204">
        <ele>609.318</ele>
        <time>2014-05-18T08:41:13Z</time>
      </trkpt>
      <trkpt lat="43.54655" lon="5.67185">
        <ele>610.908</ele>
        <time>2014-05-18T08:41:21Z</time>
      </trkpt>
      <trkpt lat="43.54645" lon="5.6717">
        <ele>613.278</ele>
        <time>2014-05-18T08:41:30Z</time>
      </trkpt>
      <trkpt lat="43.54637" lon="5.67154">
        <ele>617.109</ele>
        <time>2014-05-18T08:41:39Z</time>
      </trkpt>
      <trkpt lat="43.54629" lon="5.67134">
        <ele>619.009</ele>
        <time>2014-05-18T08:41:48Z</time>
      </trkpt>
      <trkpt lat="43.54623" lon="5.67117">
        <ele>618.867</ele>
        <time>2014-05-18T08:41:55Z</time>
      </trkpt>
      <trkpt lat="43.54611" lon="5.67094">
        <ele>619.668</ele>
        <time>2014-05-18T08:42:04Z</time>
      </trkpt>
      <trkpt lat="43.54593" lon="5.6708">
        <ele>621.137</ele>
        <time>2014-05-18T08:42:14Z</time>
      </trkpt>
      <trkpt lat="43.54575" lon="5.67061">
        <ele>623.178</ele>
        <time>2014-05-18T08:42:25Z</time>
      </trkpt>
      <trkpt lat="43.54569" lon="5.67054">
        <ele>625.279</ele>
        <time>2014-05-18T08:42:29Z</time>
      </trkpt>
      <trkpt lat="43.54552" lon="5.67036">
        <ele>628.379</ele>
        <time>2014-05-18T08:42:40Z</time>
      </trkpt>
      <trkpt lat="43.54538" lon="5.67021">
        <ele>631.059</ele>
        <time>2014-05-18T08:42:49Z</time>
      </trkpt>
      <trkpt lat="43.54524" lon="5.6701">
        <ele>631.017</ele>
        <time>2014-05-18T08:42:57Z</time>
      </trkpt>
      <trkpt lat="43.5451" lon="5.67006">
        <ele>629.345</ele>
        <time>2014-05-18T08:43:03Z</time>
      </trkpt>
      <trkpt lat="43.54502" lon="5.67028">
        <ele>629.326</ele>
        <time>2014-05-18T08:43:08Z</time>
      </trkpt>
      <trkpt lat="43.54505" lon="5.67033">
        <ele>628.085</ele>
        <time>2014-05-18T08:43:10Z</time>
      </trkpt>
      <trkpt lat="43.54518" lon="5.67057">
        <ele>625.996</ele>
        <time>2014-05-18T08:43:20Z</time>
      </trkpt>
      <trkpt lat="43.54517" lon="5.67068">
        <ele>628.497</ele>
        <time>2014-05-18T08:43:26Z</time>
      </trkpt>
      <trkpt lat="43.54509" lon="5.67073">
        <ele>628.807</ele>
        <time>2014-05-18T08:43:32Z</time>
      </trkpt>
      <trkpt lat="43.54496" lon="5.67088">
        <ele>626.865</ele>
        <time>2014-05-18T08:43:38Z</time>
      </trkpt>
      <trkpt lat="43.54501" lon="5.67103">
        <ele>628.266</ele>
        <time>2014-05-18T08:43:43Z</time>
      </trkpt>
      <trkpt lat="43.54504" lon="5.67106">
        <ele>629.967</ele>
        <time>2014-05-18T08:43:45Z</time>
      </trkpt>
      <trkpt lat="43.54512" lon="5.67113">
        <ele>634.037</ele>
        <time>2014-05-18T08:43:52Z</time>
      </trkpt>
      <trkpt lat="43.54522" lon="5.67121">
        <ele>638.678</ele>
        <time>2014-05-18T08:43:59Z</time>
      </trkpt>
      <trkpt lat="43.54531" lon="5.6713">
        <ele>640.537</ele>
        <time>2014-05-18T08:44:06Z</time>
      </trkpt>
      <trkpt lat="43.54543" lon="5.67143">
        <ele>641.076</ele>
        <time>2014-05-18T08:44:15Z</time>
      </trkpt>
      <trkpt lat="43.54548" lon="5.67164">
        <ele>640.446</ele>
        <time>2014-05-18T08:44:22Z</time>
      </trkpt>
      <trkpt lat="43.54554" lon="5.67191">
        <ele>641.016</ele>
        <time>2014-05-18T08:44:32Z</time>
      </trkpt>
      <trkpt lat="43.54553" lon="5.67213">
        <ele>641.747</ele>
        <time>2014-05-18T08:44:40Z</time>
      </trkpt>
      <trkpt lat="43.54551" lon="5.67233">
        <ele>642.807</ele>
        <time>2014-05-18T08:44:48Z</time>
      </trkpt>
      <trkpt lat="43.54541" lon="5.67246">
        <ele>642.867</ele>
        <time>2014-05-18T08:44:56Z</time>
      </trkpt>
      <trkpt lat="43.54527" lon="5.67244">
        <ele>641.746</ele>
        <time>2014-05-18T08:45:03Z</time>
      </trkpt>
      <trkpt lat="43.54502" lon="5.67243">
        <ele>639.515</ele>
        <time>2014-05-18T08:45:13Z</time>
      </trkpt>
      <trkpt lat="43.54481" lon="5.67244">
        <ele>641.926</ele>
        <time>2014-05-18T08:45:22Z</time>
      </trkpt>
      <trkpt lat="43.54462" lon="5.67242">
        <ele>646.218</ele>
        <time>2014-05-18T08:45:31Z</time>
      </trkpt>
      <trkpt lat="43.54446" lon="5.67242">
        <ele>648.008</ele>
        <time>2014-05-18T08:45:39Z</time>
      </trkpt>
      <trkpt lat="43.54433" lon="5.67242">
        <ele>649.947</ele>
        <time>2014-05-18T08:45:46Z</time>
      </trkpt>
      <trkpt lat="43.5442" lon="5.67246">
        <ele>651.877</ele>
        <time>2014-05-18T08:45:53Z</time>
      </trkpt>
      <trkpt lat="43.54407" lon="5.67256">
        <ele>654.207</ele>
        <time>2014-05-18T08:46:01Z</time>
      </trkpt>
      <trkpt lat="43.54403" lon="5.6726">
        <ele>653.576</ele>
        <time>2014-05-18T08:46:05Z</time>
      </trkpt>
      <trkpt lat="43.54404" lon="5.67268">
        <ele>653.347</ele>
        <time>2014-05-18T08:46:10Z</time>
      </trkpt>
      <trkpt lat="43.54407" lon="5.67274">
        <ele>654.387</ele>
        <time>2014-05-18T08:46:12Z</time>
      </trkpt>
      <trkpt lat="43.54417" lon="5.67287">
        <ele>655.428</ele>
        <time>2014-05-18T08:46:19Z</time>
      </trkpt>
      <trkpt lat="43.54428" lon="5.67302">
        <ele>655.386</ele>
        <time>2014-05-18T08:46:27Z</time>
      </trkpt>
      <trkpt lat="43.54436" lon="5.67316">
        <ele>657.057</ele>
        <time>2014-05-18T08:46:34Z</time>
      </trkpt>
      <trkpt lat="43.54445" lon="5.67335">
        <ele>659.957</ele>
        <time>2014-05-18T08:46:43Z</time>
      </trkpt>
      <trkpt lat="43.54452" lon="5.6735">
        <ele>664.078</ele>
        <time>2014-05-18T08:46:52Z</time>
      </trkpt>
      <trkpt lat="43.54456" lon="5.67361">
        <ele>669.358</ele>
        <time>2014-05-18T08:47:00Z</time>
      </trkpt>
      <trkpt lat="43.5446" lon="5.67371">
        <ele>670.737</ele>
        <time>2014-05-18T08:47:06Z</time>
      </trkpt>
      <trkpt lat="43.54468" lon="5.67389">
        <ele>667.676</ele>
        <time>2014-05-18T08:47:13Z</time>
      </trkpt>
      <trkpt lat="43.5447" lon="5.67412">
        <ele>668.056</ele>
        <time>2014-05-18T08:47:22Z</time>
      </trkpt>
      <trkpt lat="43.54469" lon="5.67415">
        <ele>672.656</ele>
        <time>2014-05-18T08:47:44Z</time>
      </trkpt>
      <trkpt lat="43.54457" lon="5.67425">
        <ele>671.126</ele>
        <time>2014-05-18T08:47:49Z</time>
      </trkpt>
      <trkpt lat="43.54436" lon="5.67431">
        <ele>669.426</ele>
        <time>2014-05-18T08:47:57Z</time>
      </trkpt>
      <trkpt lat="43.54414" lon="5.67435">
        <ele>669.066</ele>
        <time>2014-05-18T08:48:05Z</time>
      </trkpt>
      <trkpt lat="43.54398" lon="5.67442">
        <ele>669.727</ele>
        <time>2014-05-18T08:48:14Z</time>
      </trkpt>
      <trkpt lat="43.54384" lon="5.67448">
        <ele>672.818</ele>
        <time>2014-05-18T08:48:22Z</time>
      </trkpt>
      <trkpt lat="43.54369" lon="5.67454">
        <ele>674.717</ele>
        <time>2014-05-18T08:48:31Z</time>
      </trkpt>
      <trkpt lat="43.5436" lon="5.67472">
        <ele>674.366</ele>
        <time>2014-05-18T08:48:41Z</time>
      </trkpt>
      <trkpt lat="43.54366" lon="5.67483">
        <ele>677.216</ele>
        <time>2014-05-18T08:48:47Z</time>
      </trkpt>
      <trkpt lat="43.54378" lon="5.67496">
        <ele>674.446</ele>
        <time>2014-05-18T08:48:53Z</time>
      </trkpt>
      <trkpt lat="43.54397" lon="5.67515">
        <ele>673.956</ele>
        <time>2014-05-18T08:49:01Z</time>
      </trkpt>
      <trkpt lat="43.5441" lon="5.67535">
        <ele>676.667</ele>
        <time>2014-05-18T08:49:07Z</time>
      </trkpt>
      <trkpt lat="43.54408" lon="5.67545">
        <ele>677.337</ele>
        <time>2014-05-18T08:49:11Z</time>
      </trkpt>
      <trkpt lat="43.54393" lon="5.67562">
        <ele>676.787</ele>
        <time>2014-05-18T08:49:20Z</time>
      </trkpt>
      <trkpt lat="43.54375" lon="5.67579">
        <ele>677.618</ele>
        <time>2014-05-18T08:49:29Z</time>
      </trkpt>
      <trkpt lat="43.54358" lon="5.67597">
        <ele>677.277</ele>
        <time>2014-05-18T08:49:39Z</time>
      </trkpt>
      <trkpt lat="43.5435" lon="5.6761">
        <ele>678.467</ele>
        <time>2014-05-18T08:49:46Z</time>
      </trkpt>
      <trkpt lat="43.54347" lon="5.67625">
        <ele>680.298</ele>
        <time>2014-05-18T08:49:52Z</time>
      </trkpt>
      <trkpt lat="43.54341" lon="5.67642">
        <ele>683.228</ele>
        <time>2014-05-18T08:50:01Z</time>
      </trkpt>
      <trkpt lat="43.54328" lon="5.6766">
        <ele>682.037</ele>
        <time>2014-05-18T08:50:10Z</time>
      </trkpt>
      <trkpt lat="43.54308" lon="5.67664">
        <ele>682.478</ele>
        <time>2014-05-18T08:50:19Z</time>
      </trkpt>
      <trkpt lat="43.54292" lon="5.67673">
        <ele>683.367</ele>
        <time>2014-05-18T08:50:26Z</time>
      </trkpt>
      <trkpt lat="43.54279" lon="5.67696">
        <ele>683.227</ele>
        <time>2014-05-18T08:50:34Z</time>
      </trkpt>
      <trkpt lat="43.54273" lon="5.67721">
        <ele>685.808</ele>
        <time>2014-05-18T08:50:42Z</time>
      </trkpt>
      <trkpt lat="43.54271" lon="5.67746">
        <ele>687.057</ele>
        <time>2014-05-18T08:50:49Z</time>
      </trkpt>
      <trkpt lat="43.5427" lon="5.67781">
        <ele>687.347</ele>
        <time>2014-05-18T08:50:56Z</time>
      </trkpt>
      <trkpt lat="43.54275" lon="5.67813">
        <ele>690.928</ele>
        <time>2014-05-18T08:51:04Z</time>
      </trkpt>
      <trkpt lat="43.54281" lon="5.67844">
        <ele>691.977</ele>
        <time>2014-05-18T08:51:12Z</time>
      </trkpt>
      <trkpt lat="43.5429" lon="5.67877">
        <ele>694.678</ele>
        <time>2014-05-18T08:51:21Z</time>
      </trkpt>
      <trkpt lat="43.54296" lon="5.67902">
        <ele>694.918</ele>
        <time>2014-05-18T08:51:29Z</time>
      </trkpt>
      <trkpt lat="43.54298" lon="5.67924">
        <ele>693.988</ele>
        <time>2014-05-18T08:51:37Z</time>
      </trkpt>
      <trkpt lat="43.54291" lon="5.67946">
        <ele>694.347</ele>
        <time>2014-05-18T08:51:44Z</time>
      </trkpt>
      <trkpt lat="43.54286" lon="5.67964">
        <ele>694.807</ele>
        <time>2014-05-18T08:51:49Z</time>
      </trkpt>
      <trkpt lat="43.5428" lon="5.67986">
        <ele>693.657</ele>
        <time>2014-05-18T08:51:55Z</time>
      </trkpt>
      <trkpt lat="43.54273" lon="5.67987">
        <ele>691.896</ele>
        <time>2014-05-18T08:52:00Z</time>
      </trkpt>
      <trkpt lat="43.54269" lon="5.67975">
        <ele>695.108</ele>
        <time>2014-05-18T08:52:04Z</time>
      </trkpt>
      <trkpt lat="43.54268" lon="5.67958">
        <ele>698.929</ele>
        <time>2014-05-18T08:52:09Z</time>
      </trkpt>
      <trkpt lat="43.54267" lon="5.67955">
        <ele>698.469</ele>
        <time>2014-05-18T08:52:10Z</time>
      </trkpt>
      <trkpt lat="43.54256" lon="5.67925">
        <ele>696.948</ele>
        <time>2014-05-18T08:52:19Z</time>
      </trkpt>
      <trkpt lat="43.54246" lon="5.67902">
        <ele>697.638</ele>
        <time>2014-05-18T08:52:27Z</time>
      </trkpt>
      <trkpt lat="43.54235" lon="5.67884">
        <ele>701.198</ele>
        <time>2014-05-18T08:52:34Z</time>
      </trkpt>
      <trkpt lat="43.5423" lon="5.67862">
        <ele>705.319</ele>
        <time>2014-05-18T08:52:41Z</time>
      </trkpt>
      <trkpt lat="43.54225" lon="5.67838">
        <ele>705.618</ele>
        <time>2014-05-18T08:52:49Z</time>
      </trkpt>
      <trkpt lat="43.54218" lon="5.67816">
        <ele>706.088</ele>
        <time>2014-05-18T08:52:57Z</time>
      </trkpt>
      <trkpt lat="43.5421" lon="5.67796">
        <ele>702.487</ele>
        <time>2014-05-18T08:53:06Z</time>
      </trkpt>
      <trkpt lat="43.54206" lon="5.67769">
        <ele>706.239</ele>
        <time>2014-05-18T08:53:16Z</time>
      </trkpt>
      <trkpt lat="43.54205" lon="5.67746">
        <ele>708.289</ele>
        <time>2014-05-18T08:53:25Z</time>
      </trkpt>
      <trkpt lat="43.54202" lon="5.67735">
        <ele>708.068</ele>
        <time>2014-05-18T08:53:31Z</time>
      </trkpt>
      <trkpt lat="43.54198" lon="5.67723">
        <ele>706.487</ele>
        <time>2014-05-18T08:53:40Z</time>
      </trkpt>
      <trkpt lat="43.54197" lon="5.67713">
        <ele>707.708</ele>
        <time>2014-05-18T08:53:45Z</time>
      </trkpt>
      <trkpt lat="43.54196" lon="5.67696">
        <ele>714.16</ele>
        <time>2014-05-18T08:53:54Z</time>
      </trkpt>
      <trkpt lat="43.54195" lon="5.67684">
        <ele>719.83</ele>
        <time>2014-05-18T08:54:02Z</time>
      </trkpt>
      <trkpt lat="43.54195" lon="5.67673">
        <ele>722.17</ele>
        <time>2014-05-18T08:54:08Z</time>
      </trkpt>
      <trkpt lat="43.54195" lon="5.67659">
        <ele>724.13</ele>
        <time>2014-05-18T08:54:15Z</time>
      </trkpt>
      <trkpt lat="43.54195" lon="5.67656">
        <ele>724.933</ele>
        <time>2014-05-18T08:54:16Z</time>
      </trkpt>
      <trkpt lat="43.54193" lon="5.67642">
        <ele>722.157</ele>
        <time>2014-05-18T08:54:24Z</time>
      </trkpt>
      <trkpt lat="43.54189" lon="5.6763">
        <ele>722.838</ele>
        <time>2014-05-18T08:54:32Z</time>
      </trkpt>
      <trkpt lat="43.54186" lon="5.6762">
        <ele>724.018</ele>
        <time>2014-05-18T08:54:40Z</time>
      </trkpt>
      <trkpt lat="43.54182" lon="5.67608">
        <ele>720.706</ele>
        <time>2014-05-18T08:54:48Z</time>
      </trkpt>
      <trkpt lat="43.54177" lon="5.67596">
        <ele>722.677</ele>
        <time>2014-05-18T08:54:56Z</time>
      </trkpt>
      <trkpt lat="43.54176" lon="5.67591">
        <ele>726.039</ele>
        <time>2014-05-18T08:54:59Z</time>
      </trkpt>
      <trkpt lat="43.54172" lon="5.67581">
        <ele>729.599</ele>
        <time>2014-05-18T08:55:07Z</time>
      </trkpt>
      <trkpt lat="43.54169" lon="5.6757">
        <ele>731.268</ele>
        <time>2014-05-18T08:55:15Z</time>
      </trkpt>
      <trkpt lat="43.54164" lon="5.67555">
        <ele>734.409</ele>
        <time>2014-05-18T08:55:25Z</time>
      </trkpt>
      <trkpt lat="43.54159" lon="5.67543">
        <ele>735.869</ele>
        <time>2014-05-18T08:55:33Z</time>
      </trkpt>
      <trkpt lat="43.54153" lon="5.67535">
        <ele>732.577</ele>
        <time>2014-05-18T08:55:39Z</time>
      </trkpt>
      <trkpt lat="43.54146" lon="5.67522">
        <ele>734.348</ele>
        <time>2014-05-18T08:55:48Z</time>
      </trkpt>
      <trkpt lat="43.54147" lon="5.6751">
        <ele>737.408</ele>
        <time>2014-05-18T08:55:54Z</time>
      </trkpt>
      <trkpt lat="43.54151" lon="5.67497">
        <ele>738.578</ele>
        <time>2014-05-18T08:56:01Z</time>
      </trkpt>
      <trkpt lat="43.54151" lon="5.67496">
        <ele>739.138</ele>
        <time>2014-05-18T08:56:02Z</time>
      </trkpt>
      <trkpt lat="43.54155" lon="5.67484">
        <ele>744.279</ele>
        <time>2014-05-18T08:56:11Z</time>
      </trkpt>
      <trkpt lat="43.54159" lon="5.6747">
        <ele>743.628</ele>
        <time>2014-05-18T08:56:20Z</time>
      </trkpt>
      <trkpt lat="43.54162" lon="5.67458">
        <ele>746.638</ele>
        <time>2014-05-18T08:56:28Z</time>
      </trkpt>
      <trkpt lat="43.54164" lon="5.67448">
        <ele>747.977</ele>
        <time>2014-05-18T08:56:35Z</time>
      </trkpt>
      <trkpt lat="43.54164" lon="5.67437">
        <ele>750.318</ele>
        <time>2014-05-18T08:56:41Z</time>
      </trkpt>
      <trkpt lat="43.54161" lon="5.67421">
        <ele>747.888</ele>
        <time>2014-05-18T08:56:49Z</time>
      </trkpt>
      <trkpt lat="43.54161" lon="5.67412">
        <ele>747.867</ele>
        <time>2014-05-18T08:56:57Z</time>
      </trkpt>
      <trkpt lat="43.54161" lon="5.67401">
        <ele>748.616</ele>
        <time>2014-05-18T08:57:13Z</time>
      </trkpt>
      <trkpt lat="43.54162" lon="5.67396">
        <ele>753.077</ele>
        <time>2014-05-18T09:01:15Z</time>
      </trkpt>
      <trkpt lat="43.54165" lon="5.67385">
        <ele>755.718</ele>
        <time>2014-05-18T09:01:22Z</time>
      </trkpt>
      <trkpt lat="43.54161" lon="5.67375">
        <ele>759.059</ele>
        <time>2014-05-18T09:01:30Z</time>
      </trkpt>
      <trkpt lat="43.54157" lon="5.67361">
        <ele>759.627</ele>
        <time>2014-05-18T09:01:38Z</time>
      </trkpt>
      <trkpt lat="43.54153" lon="5.6735">
        <ele>760.477</ele>
        <time>2014-05-18T09:01:45Z</time>
      </trkpt>
      <trkpt lat="43.54151" lon="5.67342">
        <ele>762.929</ele>
        <time>2014-05-18T09:01:51Z</time>
      </trkpt>
      <trkpt lat="43.54151" lon="5.67338">
        <ele>763.859</ele>
        <time>2014-05-18T09:01:53Z</time>
      </trkpt>
      <trkpt lat="43.5415" lon="5.67333">
        <ele>765.578</ele>
        <time>2014-05-18T09:01:57Z</time>
      </trkpt>
      <trkpt lat="43.54147" lon="5.6732">
        <ele>763.227</ele>
        <time>2014-05-18T09:02:04Z</time>
      </trkpt>
      <trkpt lat="43.54145" lon="5.67311">
        <ele>761.646</ele>
        <time>2014-05-18T09:02:11Z</time>
      </trkpt>
      <trkpt lat="43.54139" lon="5.67298">
        <ele>760.286</ele>
        <time>2014-05-18T09:02:21Z</time>
      </trkpt>
      <trkpt lat="43.54131" lon="5.67287">
        <ele>762.136</ele>
        <time>2014-05-18T09:02:31Z</time>
      </trkpt>
      <trkpt lat="43.54125" lon="5.67278">
        <ele>763.687</ele>
        <time>2014-05-18T09:02:39Z</time>
      </trkpt>
      <trkpt lat="43.5412" lon="5.67264">
        <ele>766.387</ele>
        <time>2014-05-18T09:02:49Z</time>
      </trkpt>
      <trkpt lat="43.54116" lon="5.67253">
        <ele>768.307</ele>
        <time>2014-05-18T09:02:57Z</time>
      </trkpt>
      <trkpt lat="43.5411" lon="5.67241">
        <ele>768.077</ele>
        <time>2014-05-18T09:03:06Z</time>
      </trkpt>
      <trkpt lat="43.54101" lon="5.67232">
        <ele>767.056</ele>
        <time>2014-05-18T09:03:16Z</time>
      </trkpt>
      <trkpt lat="43.54099" lon="5.6723">
        <ele>767.746</ele>
        <time>2014-05-18T09:03:18Z</time>
      </trkpt>
      <trkpt lat="43.54094" lon="5.67223">
        <ele>771.908</ele>
        <time>2014-05-18T09:03:25Z</time>
      </trkpt>
      <trkpt lat="43.54094" lon="5.67217">
        <ele>776.088</ele>
        <time>2014-05-18T09:03:32Z</time>
      </trkpt>
      <trkpt lat="43.54089" lon="5.67194">
        <ele>780.547</ele>
        <time>2014-05-18T09:03:48Z</time>
      </trkpt>
      <trkpt lat="43.54084" lon="5.67184">
        <ele>783.618</ele>
        <time>2014-05-18T09:03:55Z</time>
      </trkpt>
      <trkpt lat="43.54085" lon="5.67176">
        <ele>785.898</ele>
        <time>2014-05-18T09:04:01Z</time>
      </trkpt>
      <trkpt lat="43.54093" lon="5.67158">
        <ele>784.366</ele>
        <time>2014-05-18T09:04:10Z</time>
      </trkpt>
      <trkpt lat="43.541" lon="5.6714">
        <ele>784.446</ele>
        <time>2014-05-18T09:04:18Z</time>
      </trkpt>
      <trkpt lat="43.54103" lon="5.67122">
        <ele>783.806</ele>
        <time>2014-05-18T09:04:23Z</time>
      </trkpt>
      <trkpt lat="43.54102" lon="5.67102">
        <ele>785.306</ele>
        <time>2014-05-18T09:04:29Z</time>
      </trkpt>
      <trkpt lat="43.54094" lon="5.67087">
        <ele>783.036</ele>
        <time>2014-05-18T09:04:35Z</time>
      </trkpt>
      <trkpt lat="43.54084" lon="5.67069">
        <ele>782.295</ele>
        <time>2014-05-18T09:04:42Z</time>
      </trkpt>
      <trkpt lat="43.54071" lon="5.67045">
        <ele>781.315</ele>
        <time>2014-05-18T09:04:50Z</time>
      </trkpt>
      <trkpt lat="43.54067" lon="5.67026">
        <ele>784.297</ele>
        <time>2014-05-18T09:04:55Z</time>
      </trkpt>
      <trkpt lat="43.54061" lon="5.66996">
        <ele>788.089</ele>
        <time>2014-05-18T09:05:03Z</time>
      </trkpt>
      <trkpt lat="43.54061" lon="5.66971">
        <ele>789.518</ele>
        <time>2014-05-18T09:05:09Z</time>
      </trkpt>
      <trkpt lat="43.54061" lon="5.66941">
        <ele>788.786</ele>
        <time>2014-05-18T09:05:15Z</time>
      </trkpt>
      <trkpt lat="43.5405" lon="5.66917">
        <ele>787.425</ele>
        <time>2014-05-18T09:05:20Z</time>
      </trkpt>
      <trkpt lat="43.54029" lon="5.66912">
        <ele>784.624</ele>
        <time>2014-05-18T09:05:25Z</time>
      </trkpt>
      <trkpt lat="43.54022" lon="5.66915">
        <ele>784.154</ele>
        <time>2014-05-18T09:05:27Z</time>
      </trkpt>
      <trkpt lat="43.54002" lon="5.66929">
        <ele>781.624</ele>
        <time>2014-05-18T09:05:35Z</time>
      </trkpt>
      <trkpt lat="43.53986" lon="5.66934">
        <ele>778.712</ele>
        <time>2014-05-18T09:05:41Z</time>
      </trkpt>
      <trkpt lat="43.53972" lon="5.66946">
        <ele>779.554</ele>
        <time>2014-05-18T09:05:48Z</time>
      </trkpt>
      <trkpt lat="43.53958" lon="5.66956">
        <ele>780.454</ele>
        <time>2014-05-18T09:05:55Z</time>
      </trkpt>
      <trkpt lat="43.53944" lon="5.66969">
        <ele>782.296</ele>
        <time>2014-05-18T09:06:02Z</time>
      </trkpt>
      <trkpt lat="43.53933" lon="5.66983">
        <ele>781.934</ele>
        <time>2014-05-18T09:06:08Z</time>
      </trkpt>
      <trkpt lat="43.53923" lon="5.66996">
        <ele>780.393</ele>
        <time>2014-05-18T09:06:14Z</time>
      </trkpt>
      <trkpt lat="43.53921" lon="5.67">
        <ele>780.893</ele>
        <time>2014-05-18T09:06:55Z</time>
      </trkpt>
      <trkpt lat="43.53914" lon="5.66989">
        <ele>793.065</ele>
        <time>2014-05-18T09:09:18Z</time>
      </trkpt>
      <trkpt lat="43.53912" lon="5.66987">
        <ele>793.335</ele>
        <time>2014-05-18T09:09:21Z</time>
      </trkpt>
      <trkpt lat="43.53916" lon="5.66979">
        <ele>791.115</ele>
        <time>2014-05-18T09:09:25Z</time>
      </trkpt>
      <trkpt lat="43.53919" lon="5.66976">
        <ele>791.626</ele>
        <time>2014-05-18T09:09:31Z</time>
      </trkpt>
      <trkpt lat="43.53922" lon="5.66968">
        <ele>791.596</ele>
        <time>2014-05-18T09:09:40Z</time>
      </trkpt>
      <trkpt lat="43.53923" lon="5.66961">
        <ele>793.836</ele>
        <time>2014-05-18T09:09:45Z</time>
      </trkpt>
      <trkpt lat="43.53923" lon="5.66957">
        <ele>794.317</ele>
        <time>2014-05-18T09:09:47Z</time>
      </trkpt>
      <trkpt lat="43.53923" lon="5.66955">
        <ele>793.425</ele>
        <time>2014-05-18T09:09:54Z</time>
      </trkpt>
      <trkpt lat="43.53923" lon="5.66951">
        <ele>793.875</ele>
        <time>2014-05-18T09:09:58Z</time>
      </trkpt>
      <trkpt lat="43.53926" lon="5.66947">
        <ele>791.895</ele>
        <time>2014-05-18T09:10:05Z</time>
      </trkpt>
      <trkpt lat="43.53922" lon="5.66929">
        <ele>791.474</ele>
        <time>2014-05-18T09:10:17Z</time>
      </trkpt>
      <trkpt lat="43.5392" lon="5.66926">
        <ele>790.844</ele>
        <time>2014-05-18T09:10:19Z</time>
      </trkpt>
      <trkpt lat="43.53923" lon="5.66914">
        <ele>792.585</ele>
        <time>2014-05-18T09:10:27Z</time>
      </trkpt>
      <trkpt lat="43.53928" lon="5.66903">
        <ele>795.006</ele>
        <time>2014-05-18T09:10:33Z</time>
      </trkpt>
      <trkpt lat="43.53931" lon="5.6689">
        <ele>797.746</ele>
        <time>2014-05-18T09:10:40Z</time>
      </trkpt>
      <trkpt lat="43.53936" lon="5.66876">
        <ele>798.076</ele>
        <time>2014-05-18T09:10:47Z</time>
      </trkpt>
      <trkpt lat="43.53931" lon="5.66866">
        <ele>798.306</ele>
        <time>2014-05-18T09:10:54Z</time>
      </trkpt>
      <trkpt lat="43.53926" lon="5.66856">
        <ele>800.446</ele>
        <time>2014-05-18T09:11:00Z</time>
      </trkpt>
      <trkpt lat="43.53925" lon="5.66852">
        <ele>801.777</ele>
        <time>2014-05-18T09:11:03Z</time>
      </trkpt>
      <trkpt lat="43.53925" lon="5.66847">
        <ele>803.177</ele>
        <time>2014-05-18T09:11:06Z</time>
      </trkpt>
      <trkpt lat="43.5392" lon="5.66836">
        <ele>807.117</ele>
        <time>2014-05-18T09:11:14Z</time>
      </trkpt>
      <trkpt lat="43.53914" lon="5.66828">
        <ele>806.145</ele>
        <time>2014-05-18T09:11:20Z</time>
      </trkpt>
      <trkpt lat="43.53914" lon="5.66823">
        <ele>807.536</ele>
        <time>2014-05-18T09:11:24Z</time>
      </trkpt>
      <trkpt lat="43.53914" lon="5.66809">
        <ele>811.457</ele>
        <time>2014-05-18T09:11:35Z</time>
      </trkpt>
      <trkpt lat="43.53913" lon="5.66806">
        <ele>811.737</ele>
        <time>2014-05-18T09:11:36Z</time>
      </trkpt>
      <trkpt lat="43.53911" lon="5.66793">
        <ele>813.536</ele>
        <time>2014-05-18T09:11:44Z</time>
      </trkpt>
      <trkpt lat="43.53911" lon="5.66789">
        <ele>813.405</ele>
        <time>2014-05-18T09:11:46Z</time>
      </trkpt>
      <trkpt lat="43.53912" lon="5.66768">
        <ele>809.375</ele>
        <time>2014-05-18T09:11:55Z</time>
      </trkpt>
      <trkpt lat="43.53914" lon="5.66758">
        <ele>809.695</ele>
        <time>2014-05-18T09:12:00Z</time>
      </trkpt>
      <trkpt lat="43.53914" lon="5.66755">
        <ele>810.426</ele>
        <time>2014-05-18T09:12:03Z</time>
      </trkpt>
      <trkpt lat="43.53916" lon="5.66742">
        <ele>811.575</ele>
        <time>2014-05-18T09:12:11Z</time>
      </trkpt>
      <trkpt lat="43.5391" lon="5.66736">
        <ele>812.145</ele>
        <time>2014-05-18T09:12:16Z</time>
      </trkpt>
      <trkpt lat="43.53904" lon="5.66732">
        <ele>814.905</ele>
        <time>2014-05-18T09:12:26Z</time>
      </trkpt>
      <trkpt lat="43.53903" lon="5.66728">
        <ele>815.326</ele>
        <time>2014-05-18T09:12:31Z</time>
      </trkpt>
      <trkpt lat="43.53895" lon="5.66716">
        <ele>813.013</ele>
        <time>2014-05-18T09:12:40Z</time>
      </trkpt>
      <trkpt lat="43.53891" lon="5.66711">
        <ele>813.494</ele>
        <time>2014-05-18T09:12:45Z</time>
      </trkpt>
      <trkpt lat="43.53885" lon="5.66699">
        <ele>816.366</ele>
        <time>2014-05-18T09:12:54Z</time>
      </trkpt>
      <trkpt lat="43.53884" lon="5.66689">
        <ele>819.416</ele>
        <time>2014-05-18T09:13:01Z</time>
      </trkpt>
      <trkpt lat="43.53884" lon="5.66678">
        <ele>820.676</ele>
        <time>2014-05-18T09:13:08Z</time>
      </trkpt>
      <trkpt lat="43.53884" lon="5.66676">
        <ele>820.926</ele>
        <time>2014-05-18T09:13:09Z</time>
      </trkpt>
      <trkpt lat="43.53884" lon="5.6667">
        <ele>819.185</ele>
        <time>2014-05-18T09:13:12Z</time>
      </trkpt>
      <trkpt lat="43.53881" lon="5.66657">
        <ele>820.134</ele>
        <time>2014-05-18T09:13:21Z</time>
      </trkpt>
      <trkpt lat="43.53878" lon="5.66645">
        <ele>821.985</ele>
        <time>2014-05-18T09:13:29Z</time>
      </trkpt>
      <trkpt lat="43.53879" lon="5.66636">
        <ele>820.694</ele>
        <time>2014-05-18T09:13:34Z</time>
      </trkpt>
      <trkpt lat="43.53875" lon="5.66626">
        <ele>822.375</ele>
        <time>2014-05-18T09:13:42Z</time>
      </trkpt>
      <trkpt lat="43.53875" lon="5.66621">
        <ele>821.494</ele>
        <time>2014-05-18T09:13:47Z</time>
      </trkpt>
      <trkpt lat="43.53874" lon="5.6661">
        <ele>822.274</ele>
        <time>2014-05-18T09:13:54Z</time>
      </trkpt>
      <trkpt lat="43.53873" lon="5.66609">
        <ele>822.384</ele>
        <time>2014-05-18T09:13:55Z</time>
      </trkpt>
      <trkpt lat="43.53867" lon="5.66604">
        <ele>823.775</ele>
        <time>2014-05-18T09:14:01Z</time>
      </trkpt>
      <trkpt lat="43.53868" lon="5.66594">
        <ele>830.617</ele>
        <time>2014-05-18T09:14:09Z</time>
      </trkpt>
      <trkpt lat="43.53868" lon="5.66592">
        <ele>832.047</ele>
        <time>2014-05-18T09:14:12Z</time>
      </trkpt>
      <trkpt lat="43.53866" lon="5.66577">
        <ele>835.146</ele>
        <time>2014-05-18T09:14:20Z</time>
      </trkpt>
      <trkpt lat="43.53864" lon="5.6657">
        <ele>837.016</ele>
        <time>2014-05-18T09:14:28Z</time>
      </trkpt>
      <trkpt lat="43.53863" lon="5.66563">
        <ele>837.615</ele>
        <time>2014-05-18T09:14:32Z</time>
      </trkpt>
      <trkpt lat="43.53865" lon="5.66551">
        <ele>835.374</ele>
        <time>2014-05-18T09:14:41Z</time>
      </trkpt>
      <trkpt lat="43.53868" lon="5.66534">
        <ele>836.024</ele>
        <time>2014-05-18T09:15:00Z</time>
      </trkpt>
      <trkpt lat="43.5387" lon="5.66523">
        <ele>834.974</ele>
        <time>2014-05-18T09:15:07Z</time>
      </trkpt>
      <trkpt lat="43.5387" lon="5.66518">
        <ele>834.763</ele>
        <time>2014-05-18T09:15:15Z</time>
      </trkpt>
      <trkpt lat="43.53873" lon="5.66504">
        <ele>835.094</ele>
        <time>2014-05-18T09:15:25Z</time>
      </trkpt>
      <trkpt lat="43.53871" lon="5.66502">
        <ele>835.304</ele>
        <time>2014-05-18T09:15:28Z</time>
      </trkpt>
      <trkpt lat="43.53871" lon="5.66497">
        <ele>834.904</ele>
        <time>2014-05-18T09:15:32Z</time>
      </trkpt>
      <trkpt lat="43.5387" lon="5.66492">
        <ele>835.604</ele>
        <time>2014-05-18T09:15:36Z</time>
      </trkpt>
      <trkpt lat="43.53867" lon="5.66485">
        <ele>836.023</ele>
        <time>2014-05-18T09:15:43Z</time>
      </trkpt>
      <trkpt lat="43.53865" lon="5.66477">
        <ele>845.714</ele>
        <time>2014-05-18T09:16:30Z</time>
      </trkpt>
      <trkpt lat="43.53861" lon="5.66464">
        <ele>846.545</ele>
        <time>2014-05-18T09:16:39Z</time>
      </trkpt>
      <trkpt lat="43.53861" lon="5.66451">
        <ele>847.284</ele>
        <time>2014-05-18T09:16:46Z</time>
      </trkpt>
      <trkpt lat="43.53862" lon="5.66448">
        <ele>847.414</ele>
        <time>2014-05-18T09:16:54Z</time>
      </trkpt>
      <trkpt lat="43.53863" lon="5.66435">
        <ele>852.144</ele>
        <time>2014-05-18T09:17:15Z</time>
      </trkpt>
      <trkpt lat="43.53867" lon="5.66412">
        <ele>856.506</ele>
        <time>2014-05-18T09:17:46Z</time>
      </trkpt>
      <trkpt lat="43.53867" lon="5.66387">
        <ele>859.964</ele>
        <time>2014-05-18T09:18:11Z</time>
      </trkpt>
      <trkpt lat="43.53865" lon="5.66377">
        <ele>860.995</ele>
        <time>2014-05-18T09:18:18Z</time>
      </trkpt>
      <trkpt lat="43.53863" lon="5.66367">
        <ele>860.835</ele>
        <time>2014-05-18T09:18:26Z</time>
      </trkpt>
      <trkpt lat="43.53864" lon="5.66351">
        <ele>862.044</ele>
        <time>2014-05-18T09:18:34Z</time>
      </trkpt>
      <trkpt lat="43.53867" lon="5.66343">
        <ele>862.614</ele>
        <time>2014-05-18T09:18:41Z</time>
      </trkpt>
      <trkpt lat="43.53867" lon="5.66342">
        <ele>862.094</ele>
        <time>2014-05-18T09:18:47Z</time>
      </trkpt>
      <trkpt lat="43.5387" lon="5.66335">
        <ele>862.427</ele>
        <time>2014-05-18T09:18:55Z</time>
      </trkpt>
      <trkpt lat="43.53871" lon="5.66322">
        <ele>862.694</ele>
        <time>2014-05-18T09:19:07Z</time>
      </trkpt>
      <trkpt lat="43.53868" lon="5.66309">
        <ele>863.744</ele>
        <time>2014-05-18T09:19:12Z</time>
      </trkpt>
      <trkpt lat="43.53868" lon="5.66308">
        <ele>865.004</ele>
        <time>2014-05-18T09:19:14Z</time>
      </trkpt>
      <trkpt lat="43.53868" lon="5.66305">
        <ele>866.194</ele>
        <time>2014-05-18T09:19:22Z</time>
      </trkpt>
      <trkpt lat="43.5387" lon="5.6628">
        <ele>866.054</ele>
        <time>2014-05-18T09:19:39Z</time>
      </trkpt>
      <trkpt lat="43.53871" lon="5.66273">
        <ele>866.744</ele>
        <time>2014-05-18T09:19:46Z</time>
      </trkpt>
      <trkpt lat="43.53871" lon="5.66266">
        <ele>870.295</ele>
        <time>2014-05-18T09:19:53Z</time>
      </trkpt>
      <trkpt lat="43.53871" lon="5.66259">
        <ele>869.864</ele>
        <time>2014-05-18T09:19:56Z</time>
      </trkpt>
      <trkpt lat="43.53868" lon="5.66255">
        <ele>871.055</ele>
        <time>2014-05-18T09:20:03Z</time>
      </trkpt>
      <trkpt lat="43.53867" lon="5.66247">
        <ele>873.734</ele>
        <time>2014-05-18T09:20:09Z</time>
      </trkpt>
      <trkpt lat="43.53867" lon="5.66233">
        <ele>875.704</ele>
        <time>2014-05-18T09:20:17Z</time>
      </trkpt>
      <trkpt lat="43.53867" lon="5.6623">
        <ele>875.563</ele>
        <time>2014-05-18T09:20:25Z</time>
      </trkpt>
      <trkpt lat="43.53865" lon="5.66218">
        <ele>872.162</ele>
        <time>2014-05-18T09:20:31Z</time>
      </trkpt>
      <trkpt lat="43.53872" lon="5.66211">
        <ele>872.493</ele>
        <time>2014-05-18T09:20:36Z</time>
      </trkpt>
      <trkpt lat="43.53875" lon="5.66201">
        <ele>872.713</ele>
        <time>2014-05-18T09:20:41Z</time>
      </trkpt>
      <trkpt lat="43.5388" lon="5.66189">
        <ele>871.162</ele>
        <time>2014-05-18T09:20:48Z</time>
      </trkpt>
      <trkpt lat="43.53884" lon="5.66179">
        <ele>872.103</ele>
        <time>2014-05-18T09:20:55Z</time>
      </trkpt>
      <trkpt lat="43.5389" lon="5.66168">
        <ele>873.264</ele>
        <time>2014-05-18T09:21:08Z</time>
      </trkpt>
      <trkpt lat="43.53893" lon="5.6614">
        <ele>880.244</ele>
        <time>2014-05-18T09:21:45Z</time>
      </trkpt>
      <trkpt lat="43.53891" lon="5.66125">
        <ele>880.854</ele>
        <time>2014-05-18T09:22:00Z</time>
      </trkpt>
      <trkpt lat="43.53889" lon="5.66112">
        <ele>882.614</ele>
        <time>2014-05-18T09:22:06Z</time>
      </trkpt>
      <trkpt lat="43.53891" lon="5.66103">
        <ele>880.933</ele>
        <time>2014-05-18T09:22:10Z</time>
      </trkpt>
      <trkpt lat="43.53895" lon="5.66087">
        <ele>879.583</ele>
        <time>2014-05-18T09:22:18Z</time>
      </trkpt>
      <trkpt lat="43.53896" lon="5.66079">
        <ele>880.433</ele>
        <time>2014-05-18T09:22:23Z</time>
      </trkpt>
      <trkpt lat="43.539" lon="5.66065">
        <ele>879.843</ele>
        <time>2014-05-18T09:22:29Z</time>
      </trkpt>
      <trkpt lat="43.53901" lon="5.66062">
        <ele>879.883</ele>
        <time>2014-05-18T09:22:30Z</time>
      </trkpt>
      <trkpt lat="43.53903" lon="5.66044">
        <ele>879.713</ele>
        <time>2014-05-18T09:22:36Z</time>
      </trkpt>
      <trkpt lat="43.53905" lon="5.66027">
        <ele>877.341</ele>
        <time>2014-05-18T09:22:41Z</time>
      </trkpt>
      <trkpt lat="43.53909" lon="5.66005">
        <ele>876.082</ele>
        <time>2014-05-18T09:22:46Z</time>
      </trkpt>
      <trkpt lat="43.53916" lon="5.6599">
        <ele>874.852</ele>
        <time>2014-05-18T09:22:51Z</time>
      </trkpt>
      <trkpt lat="43.53921" lon="5.65966">
        <ele>874.432</ele>
        <time>2014-05-18T09:22:57Z</time>
      </trkpt>
      <trkpt lat="43.53923" lon="5.65948">
        <ele>873.161</ele>
        <time>2014-05-18T09:23:01Z</time>
      </trkpt>
      <trkpt lat="43.53924" lon="5.65938">
        <ele>872.883</ele>
        <time>2014-05-18T09:23:05Z</time>
      </trkpt>
      <trkpt lat="43.53927" lon="5.65923">
        <ele>872.703</ele>
        <time>2014-05-18T09:23:09Z</time>
      </trkpt>
      <trkpt lat="43.53927" lon="5.65904">
        <ele>872.553</ele>
        <time>2014-05-18T09:23:16Z</time>
      </trkpt>
      <trkpt lat="43.53928" lon="5.65902">
        <ele>872.433</ele>
        <time>2014-05-18T09:23:17Z</time>
      </trkpt>
      <trkpt lat="43.53932" lon="5.65895">
        <ele>873.653</ele>
        <time>2014-05-18T09:23:21Z</time>
      </trkpt>
      <trkpt lat="43.53939" lon="5.65882">
        <ele>872.022</ele>
        <time>2014-05-18T09:23:26Z</time>
      </trkpt>
      <trkpt lat="43.53938" lon="5.65874">
        <ele>877.212</ele>
        <time>2014-05-18T09:23:51Z</time>
      </trkpt>
      <trkpt lat="43.5394" lon="5.65862">
        <ele>878.663</ele>
        <time>2014-05-18T09:23:58Z</time>
      </trkpt>
      <trkpt lat="43.53938" lon="5.65774">
        <ele>885.563</ele>
        <time>2014-05-18T09:25:49Z</time>
      </trkpt>
      <trkpt lat="43.53935" lon="5.65748">
        <ele>898.754</ele>
        <time>2014-05-18T09:26:27Z</time>
      </trkpt>
      <trkpt lat="43.53938" lon="5.65735">
        <ele>898.963</ele>
        <time>2014-05-18T09:26:35Z</time>
      </trkpt>
      <trkpt lat="43.53942" lon="5.65668">
        <ele>912.313</ele>
        <time>2014-05-18T09:28:13Z</time>
      </trkpt>
      <trkpt lat="43.53946" lon="5.65622">
        <ele>916.153</ele>
        <time>2014-05-18T09:29:04Z</time>
      </trkpt>
      <trkpt lat="43.53948" lon="5.65601">
        <ele>922.212</ele>
        <time>2014-05-18T09:29:32Z</time>
      </trkpt>
      <trkpt lat="43.53934" lon="5.65475">
        <ele>947.633</ele>
        <time>2014-05-18T09:32:11Z</time>
      </trkpt>
      <trkpt lat="43.53936" lon="5.65459">
        <ele>945.122</ele>
        <time>2014-05-18T09:32:24Z</time>
      </trkpt>
      <trkpt lat="43.53941" lon="5.65407">
        <ele>947.54</ele>
        <time>2014-05-18T09:33:21Z</time>
      </trkpt>
      <trkpt lat="43.53941" lon="5.65405">
        <ele>950.102</ele>
        <time>2014-05-18T09:33:28Z</time>
      </trkpt>
      <trkpt lat="43.53944" lon="5.6539">
        <ele>950.372</ele>
        <time>2014-05-18T09:33:43Z</time>
      </trkpt>
      <trkpt lat="43.53944" lon="5.65384">
        <ele>950.332</ele>
        <time>2014-05-18T09:33:50Z</time>
      </trkpt>
      <trkpt lat="43.53936" lon="5.65356">
        <ele>967.001</ele>
        <time>2014-05-18T09:34:39Z</time>
      </trkpt>
      <trkpt lat="43.53934" lon="5.65353">
        <ele>965.74</ele>
        <time>2014-05-18T09:34:46Z</time>
      </trkpt>
      <trkpt lat="43.53928" lon="5.6532">
        <ele>964.751</ele>
        <time>2014-05-18T09:35:06Z</time>
      </trkpt>
      <trkpt lat="43.53928" lon="5.65314">
        <ele>965.831</ele>
        <time>2014-05-18T09:35:10Z</time>
      </trkpt>
      <trkpt lat="43.53928" lon="5.65311">
        <ele>967.723</ele>
        <time>2014-05-18T09:35:19Z</time>
      </trkpt>
      <trkpt lat="43.53929" lon="5.65305">
        <ele>968.162</ele>
        <time>2014-05-18T09:35:22Z</time>
      </trkpt>
      <trkpt lat="43.5393" lon="5.65291">
        <ele>967.891</ele>
        <time>2014-05-18T09:35:31Z</time>
      </trkpt>
      <trkpt lat="43.5393" lon="5.6529">
        <ele>967.581</ele>
        <time>2014-05-18T09:35:32Z</time>
      </trkpt>
      <trkpt lat="43.53931" lon="5.65282">
        <ele>967.594</ele>
        <time>2014-05-18T09:35:39Z</time>
      </trkpt>
      <trkpt lat="43.53931" lon="5.65269">
        <ele>970.362</ele>
        <time>2014-05-18T09:35:56Z</time>
      </trkpt>
      <trkpt lat="43.5393" lon="5.6526">
        <ele>969.811</ele>
        <time>2014-05-18T09:36:05Z</time>
      </trkpt>
      <trkpt lat="43.53929" lon="5.65239">
        <ele>971.832</ele>
        <time>2014-05-18T09:36:23Z</time>
      </trkpt>
      <trkpt lat="43.53928" lon="5.65226">
        <ele>970.311</ele>
        <time>2014-05-18T09:36:32Z</time>
      </trkpt>
      <trkpt lat="43.53925" lon="5.65214">
        <ele>973.582</ele>
        <time>2014-05-18T09:36:42Z</time>
      </trkpt>
      <trkpt lat="43.53924" lon="5.65205">
        <ele>975.461</ele>
        <time>2014-05-18T09:36:50Z</time>
      </trkpt>
      <trkpt lat="43.53922" lon="5.65198">
        <ele>975.591</ele>
        <time>2014-05-18T09:36:58Z</time>
      </trkpt>
      <trkpt lat="43.53918" lon="5.65173">
        <ele>973.821</ele>
        <time>2014-05-18T09:37:08Z</time>
      </trkpt>
      <trkpt lat="43.53918" lon="5.65172">
        <ele>973.891</ele>
        <time>2014-05-18T09:37:09Z</time>
      </trkpt>
      <trkpt lat="43.53936" lon="5.65158">
        <ele>974.071</ele>
        <time>2014-05-18T09:37:18Z</time>
      </trkpt>
      <trkpt lat="43.53936" lon="5.65149">
        <ele>974.361</ele>
        <time>2014-05-18T09:37:26Z</time>
      </trkpt>
      <trkpt lat="43.53936" lon="5.65148">
        <ele>972.63</ele>
        <time>2014-05-18T09:37:33Z</time>
      </trkpt>
      <trkpt lat="43.53936" lon="5.65142">
        <ele>974.731</ele>
        <time>2014-05-18T09:37:40Z</time>
      </trkpt>
      <trkpt lat="43.5394" lon="5.65107">
        <ele>973.641</ele>
        <time>2014-05-18T09:38:13Z</time>
      </trkpt>
      <trkpt lat="43.5394" lon="5.65102">
        <ele>976.211</ele>
        <time>2014-05-18T09:38:21Z</time>
      </trkpt>
      <trkpt lat="43.5394" lon="5.65085">
        <ele>980.101</ele>
        <time>2014-05-18T09:38:36Z</time>
      </trkpt>
      <trkpt lat="43.5394" lon="5.65078">
        <ele>983.132</ele>
        <time>2014-05-18T09:38:43Z</time>
      </trkpt>
      <trkpt lat="43.53941" lon="5.65069">
        <ele>987.282</ele>
        <time>2014-05-18T09:38:55Z</time>
      </trkpt>
      <trkpt lat="43.53942" lon="5.65058">
        <ele>986.56</ele>
        <time>2014-05-18T09:39:06Z</time>
      </trkpt>
      <trkpt lat="43.53942" lon="5.65046">
        <ele>981.111</ele>
        <time>2014-05-18T09:39:23Z</time>
      </trkpt>
      <trkpt lat="43.53943" lon="5.65025">
        <ele>980.78</ele>
        <time>2014-05-18T09:39:29Z</time>
      </trkpt>
      <trkpt lat="43.53944" lon="5.6501">
        <ele>981.931</ele>
        <time>2014-05-18T09:39:34Z</time>
      </trkpt>
      <trkpt lat="43.53944" lon="5.65005">
        <ele>982.671</ele>
        <time>2014-05-18T09:39:40Z</time>
      </trkpt>
      <trkpt lat="43.53945" lon="5.64996">
        <ele>983.5</ele>
        <time>2014-05-18T09:39:50Z</time>
      </trkpt>
      <trkpt lat="43.53946" lon="5.64977">
        <ele>983.781</ele>
        <time>2014-05-18T09:39:59Z</time>
      </trkpt>
      <trkpt lat="43.53945" lon="5.6496">
        <ele>984.671</ele>
        <time>2014-05-18T09:40:08Z</time>
      </trkpt>
      <trkpt lat="43.53945" lon="5.64959">
        <ele>984.791</ele>
        <time>2014-05-18T09:40:09Z</time>
      </trkpt>
      <trkpt lat="43.53945" lon="5.64952">
        <ele>986.271</ele>
        <time>2014-05-18T09:40:16Z</time>
      </trkpt>
      <trkpt lat="43.5394" lon="5.64917">
        <ele>993.87</ele>
        <time>2014-05-18T09:41:04Z</time>
      </trkpt>
      <trkpt lat="43.53941" lon="5.64914">
        <ele>994.2</ele>
        <time>2014-05-18T09:41:10Z</time>
      </trkpt>
      <trkpt lat="43.53942" lon="5.64894">
        <ele>993.73</ele>
        <time>2014-05-18T09:41:19Z</time>
      </trkpt>
      <trkpt lat="43.53944" lon="5.64877">
        <ele>994.92</ele>
        <time>2014-05-18T09:41:27Z</time>
      </trkpt>
      <trkpt lat="43.53944" lon="5.64871">
        <ele>995.21</ele>
        <time>2014-05-18T09:41:31Z</time>
      </trkpt>
      <trkpt lat="43.53945" lon="5.64865">
        <ele>994.57</ele>
        <time>2014-05-18T09:41:37Z</time>
      </trkpt>
      <trkpt lat="43.53944" lon="5.64842">
        <ele>994.05</ele>
        <time>2014-05-18T09:41:44Z</time>
      </trkpt>
      <trkpt lat="43.53946" lon="5.64829">
        <ele>993.77</ele>
        <time>2014-05-18T09:41:51Z</time>
      </trkpt>
      <trkpt lat="43.53946" lon="5.64812">
        <ele>994.2</ele>
        <time>2014-05-18T09:41:59Z</time>
      </trkpt>
      <trkpt lat="43.53945" lon="5.64798">
        <ele>994.77</ele>
        <time>2014-05-18T09:42:06Z</time>
      </trkpt>
      <trkpt lat="43.53944" lon="5.64784">
        <ele>994.931</ele>
        <time>2014-05-18T09:42:14Z</time>
      </trkpt>
      <trkpt lat="43.53944" lon="5.64774">
        <ele>996.041</ele>
        <time>2014-05-18T09:42:21Z</time>
      </trkpt>
      <trkpt lat="43.5394" lon="5.64755">
        <ele>1003.2</ele>
        <time>2014-05-18T09:42:49Z</time>
      </trkpt>
      <trkpt lat="43.53936" lon="5.6474">
        <ele>1001.69</ele>
        <time>2014-05-18T09:42:58Z</time>
      </trkpt>
      <trkpt lat="43.53935" lon="5.64726">
        <ele>1001.28</ele>
        <time>2014-05-18T09:43:07Z</time>
      </trkpt>
      <trkpt lat="43.5393" lon="5.6471">
        <ele>1002.31</ele>
        <time>2014-05-18T09:43:17Z</time>
      </trkpt>
      <trkpt lat="43.53927" lon="5.64698">
        <ele>1001.519</ele>
        <time>2014-05-18T09:43:24Z</time>
      </trkpt>
      <trkpt lat="43.53924" lon="5.64689">
        <ele>1002.49</ele>
        <time>2014-05-18T09:43:31Z</time>
      </trkpt>
      <trkpt lat="43.53923" lon="5.64685">
        <ele>1004.47</ele>
        <time>2014-05-18T09:43:38Z</time>
      </trkpt>
      <trkpt lat="43.53922" lon="5.64679">
        <ele>1006.85</ele>
        <time>2014-05-18T09:43:47Z</time>
      </trkpt>
      <trkpt lat="43.53921" lon="5.64666">
        <ele>1008.64</ele>
        <time>2014-05-18T09:43:54Z</time>
      </trkpt>
      <trkpt lat="43.53917" lon="5.64628">
        <ele>1016.989</ele>
        <time>2014-05-18T09:44:44Z</time>
      </trkpt>
      <trkpt lat="43.53915" lon="5.64623">
        <ele>1018.59</ele>
        <time>2014-05-18T09:44:51Z</time>
      </trkpt>
      <trkpt lat="43.53914" lon="5.64617">
        <ele>1018.029</ele>
        <time>2014-05-18T09:44:58Z</time>
      </trkpt>
      <trkpt lat="43.53914" lon="5.64607">
        <ele>1018.98</ele>
        <time>2014-05-18T09:45:04Z</time>
      </trkpt>
      <trkpt lat="43.53914" lon="5.64593">
        <ele>1018.159</ele>
        <time>2014-05-18T09:45:09Z</time>
      </trkpt>
      <trkpt lat="43.53912" lon="5.64586">
        <ele>1018.34</ele>
        <time>2014-05-18T09:45:14Z</time>
      </trkpt>
      <trkpt lat="43.53912" lon="5.64585">
        <ele>1017.82</ele>
        <time>2014-05-18T09:45:29Z</time>
      </trkpt>
      <trkpt lat="43.5391" lon="5.64569">
        <ele>1024.301</ele>
        <time>2014-05-18T09:45:42Z</time>
      </trkpt>
      <trkpt lat="43.53909" lon="5.64559">
        <ele>1025.89</ele>
        <time>2014-05-18T09:46:00Z</time>
      </trkpt>
      <trkpt lat="43.53908" lon="5.64558">
        <ele>1024.959</ele>
        <time>2014-05-18T09:46:03Z</time>
      </trkpt>
      <trkpt lat="43.53908" lon="5.64555">
        <ele>1025.739</ele>
        <time>2014-05-18T09:46:12Z</time>
      </trkpt>
      <trkpt lat="43.53907" lon="5.64552">
        <ele>1013.127</ele>
        <time>2014-05-18T09:46:29Z</time>
      </trkpt>
      <trkpt lat="43.53906" lon="5.64544">
        <ele>1007.629</ele>
        <time>2014-05-18T10:03:21Z</time>
      </trkpt>
      <trkpt lat="43.53906" lon="5.64541">
        <ele>1008.06</ele>
        <time>2014-05-18T10:03:23Z</time>
      </trkpt>
      <trkpt lat="43.53906" lon="5.6454">
        <ele>1008.519</ele>
        <time>2014-05-18T10:03:30Z</time>
      </trkpt>
      <trkpt lat="43.53906" lon="5.64545">
        <ele>1009.759</ele>
        <time>2014-05-18T10:03:44Z</time>
      </trkpt>
      <trkpt lat="43.53907" lon="5.6455">
        <ele>1010.079</ele>
        <time>2014-05-18T10:03:57Z</time>
      </trkpt>
      <trkpt lat="43.53908" lon="5.64556">
        <ele>1010.539</ele>
        <time>2014-05-18T10:04:09Z</time>
      </trkpt>
      <trkpt lat="43.5391" lon="5.6457">
        <ele>1012.198</ele>
        <time>2014-05-18T10:06:00Z</time>
      </trkpt>
      <trkpt lat="43.53911" lon="5.64579">
        <ele>1011.848</ele>
        <time>2014-05-18T10:06:07Z</time>
      </trkpt>
      <trkpt lat="43.53911" lon="5.64582">
        <ele>1011.958</ele>
        <time>2014-05-18T10:06:13Z</time>
      </trkpt>
      <trkpt lat="43.53914" lon="5.646">
        <ele>1009.689</ele>
        <time>2014-05-18T10:06:25Z</time>
      </trkpt>
      <trkpt lat="43.53914" lon="5.64615">
        <ele>1009.589</ele>
        <time>2014-05-18T10:06:31Z</time>
      </trkpt>
      <trkpt lat="43.53916" lon="5.64626">
        <ele>1008.578</ele>
        <time>2014-05-18T10:06:37Z</time>
      </trkpt>
      <trkpt lat="43.53917" lon="5.64629">
        <ele>1008.019</ele>
        <time>2014-05-18T10:06:43Z</time>
      </trkpt>
      <trkpt lat="43.53919" lon="5.64637">
        <ele>1006.389</ele>
        <time>2014-05-18T10:07:03Z</time>
      </trkpt>
      <trkpt lat="43.53919" lon="5.64648">
        <ele>1005.137</ele>
        <time>2014-05-18T10:07:08Z</time>
      </trkpt>
      <trkpt lat="43.53921" lon="5.64661">
        <ele>1002.535</ele>
        <time>2014-05-18T10:07:12Z</time>
      </trkpt>
      <trkpt lat="43.53923" lon="5.64685">
        <ele>999.325</ele>
        <time>2014-05-18T10:07:17Z</time>
      </trkpt>
      <trkpt lat="43.53929" lon="5.64703">
        <ele>997.157</ele>
        <time>2014-05-18T10:07:21Z</time>
      </trkpt>
      <trkpt lat="43.53934" lon="5.64721">
        <ele>995.547</ele>
        <time>2014-05-18T10:07:26Z</time>
      </trkpt>
      <trkpt lat="43.53937" lon="5.64744">
        <ele>993.466</ele>
        <time>2014-05-18T10:07:30Z</time>
      </trkpt>
      <trkpt lat="43.53944" lon="5.6477">
        <ele>990.996</ele>
        <time>2014-05-18T10:07:35Z</time>
      </trkpt>
      <trkpt lat="43.53944" lon="5.64782">
        <ele>988.755</ele>
        <time>2014-05-18T10:07:39Z</time>
      </trkpt>
      <trkpt lat="43.53946" lon="5.64815">
        <ele>984.064</ele>
        <time>2014-05-18T10:07:44Z</time>
      </trkpt>
      <trkpt lat="43.53946" lon="5.64832">
        <ele>981.725</ele>
        <time>2014-05-18T10:07:48Z</time>
      </trkpt>
      <trkpt lat="43.53957" lon="5.64833">
        <ele>980.945</ele>
        <time>2014-05-18T10:07:49Z</time>
      </trkpt>
      <trkpt lat="43.53964" lon="5.64852">
        <ele>977.834</ele>
        <time>2014-05-18T10:07:53Z</time>
      </trkpt>
      <trkpt lat="43.53966" lon="5.6488">
        <ele>975.907</ele>
        <time>2014-05-18T10:07:58Z</time>
      </trkpt>
      <trkpt lat="43.53967" lon="5.64896">
        <ele>974.658</ele>
        <time>2014-05-18T10:08:03Z</time>
      </trkpt>
      <trkpt lat="43.53968" lon="5.64907">
        <ele>973.587</ele>
        <time>2014-05-18T10:08:07Z</time>
      </trkpt>
      <trkpt lat="43.53972" lon="5.64926">
        <ele>971.927</ele>
        <time>2014-05-18T10:08:11Z</time>
      </trkpt>
      <trkpt lat="43.53973" lon="5.6493">
        <ele>971.357</ele>
        <time>2014-05-18T10:08:12Z</time>
      </trkpt>
      <trkpt lat="43.53976" lon="5.64957">
        <ele>967.876</ele>
        <time>2014-05-18T10:08:19Z</time>
      </trkpt>
      <trkpt lat="43.53978" lon="5.64974">
        <ele>965.277</ele>
        <time>2014-05-18T10:08:24Z</time>
      </trkpt>
      <trkpt lat="43.53977" lon="5.64993">
        <ele>963.097</ele>
        <time>2014-05-18T10:08:29Z</time>
      </trkpt>
      <trkpt lat="43.53975" lon="5.65016">
        <ele>960.907</ele>
        <time>2014-05-18T10:08:34Z</time>
      </trkpt>
      <trkpt lat="43.53975" lon="5.65023">
        <ele>959.867</ele>
        <time>2014-05-18T10:08:36Z</time>
      </trkpt>
      <trkpt lat="43.53976" lon="5.65041">
        <ele>958.489</ele>
        <time>2014-05-18T10:08:40Z</time>
      </trkpt>
      <trkpt lat="43.53981" lon="5.6506">
        <ele>956.347</ele>
        <time>2014-05-18T10:08:46Z</time>
      </trkpt>
      <trkpt lat="43.53982" lon="5.65069">
        <ele>954.437</ele>
        <time>2014-05-18T10:08:51Z</time>
      </trkpt>
      <trkpt lat="43.53984" lon="5.65076">
        <ele>951.519</ele>
        <time>2014-05-18T10:09:16Z</time>
      </trkpt>
      <trkpt lat="43.5399" lon="5.65085">
        <ele>949.317</ele>
        <time>2014-05-18T10:09:22Z</time>
      </trkpt>
      <trkpt lat="43.5399" lon="5.65087">
        <ele>949.018</ele>
        <time>2014-05-18T10:09:23Z</time>
      </trkpt>
      <trkpt lat="43.53993" lon="5.65092">
        <ele>947.589</ele>
        <time>2014-05-18T10:09:29Z</time>
      </trkpt>
      <trkpt lat="43.53997" lon="5.65101">
        <ele>947.089</ele>
        <time>2014-05-18T10:09:33Z</time>
      </trkpt>
      <trkpt lat="43.53999" lon="5.65105">
        <ele>946.439</ele>
        <time>2014-05-18T10:09:38Z</time>
      </trkpt>
      <trkpt lat="43.54002" lon="5.6512">
        <ele>945.439</ele>
        <time>2014-05-18T10:09:43Z</time>
      </trkpt>
      <trkpt lat="43.54002" lon="5.65126">
        <ele>944.559</ele>
        <time>2014-05-18T10:09:48Z</time>
      </trkpt>
      <trkpt lat="43.54" lon="5.65125">
        <ele>942.238</ele>
        <time>2014-05-18T10:09:54Z</time>
      </trkpt>
      <trkpt lat="43.54008" lon="5.65129">
        <ele>938.626</ele>
        <time>2014-05-18T10:10:01Z</time>
      </trkpt>
      <trkpt lat="43.5401" lon="5.65129">
        <ele>937.279</ele>
        <time>2014-05-18T10:10:17Z</time>
      </trkpt>
      <trkpt lat="43.54024" lon="5.65134">
        <ele>934.007</ele>
        <time>2014-05-18T10:10:22Z</time>
      </trkpt>
      <trkpt lat="43.5403" lon="5.65136">
        <ele>932.627</ele>
        <time>2014-05-18T10:10:24Z</time>
      </trkpt>
      <trkpt lat="43.54044" lon="5.65147">
        <ele>930.378</ele>
        <time>2014-05-18T10:10:29Z</time>
      </trkpt>
      <trkpt lat="43.54053" lon="5.65162">
        <ele>929.218</ele>
        <time>2014-05-18T10:10:33Z</time>
      </trkpt>
      <trkpt lat="43.54059" lon="5.65175">
        <ele>927.888</ele>
        <time>2014-05-18T10:10:36Z</time>
      </trkpt>
      <trkpt lat="43.54064" lon="5.65183">
        <ele>927.018</ele>
        <time>2014-05-18T10:10:38Z</time>
      </trkpt>
      <trkpt lat="43.54076" lon="5.65203">
        <ele>925.468</ele>
        <time>2014-05-18T10:10:42Z</time>
      </trkpt>
      <trkpt lat="43.54086" lon="5.65222">
        <ele>924.208</ele>
        <time>2014-05-18T10:10:46Z</time>
      </trkpt>
      <trkpt lat="43.54094" lon="5.65255">
        <ele>919.385</ele>
        <time>2014-05-18T10:10:51Z</time>
      </trkpt>
      <trkpt lat="43.54101" lon="5.65277">
        <ele>916.566</ele>
        <time>2014-05-18T10:10:55Z</time>
      </trkpt>
      <trkpt lat="43.54108" lon="5.65289">
        <ele>914.977</ele>
        <time>2014-05-18T10:10:58Z</time>
      </trkpt>
      <trkpt lat="43.54116" lon="5.65316">
        <ele>912.768</ele>
        <time>2014-05-18T10:11:04Z</time>
      </trkpt>
      <trkpt lat="43.54119" lon="5.65324">
        <ele>911.719</ele>
        <time>2014-05-18T10:11:09Z</time>
      </trkpt>
      <trkpt lat="43.5412" lon="5.65329">
        <ele>910.831</ele>
        <time>2014-05-18T10:11:26Z</time>
      </trkpt>
      <trkpt lat="43.54122" lon="5.65339">
        <ele>909.56</ele>
        <time>2014-05-18T10:11:31Z</time>
      </trkpt>
      <trkpt lat="43.54124" lon="5.65349">
        <ele>908.339</ele>
        <time>2014-05-18T10:11:34Z</time>
      </trkpt>
      <trkpt lat="43.54126" lon="5.65379">
        <ele>907.581</ele>
        <time>2014-05-18T10:11:40Z</time>
      </trkpt>
      <trkpt lat="43.5413" lon="5.65404">
        <ele>906.851</ele>
        <time>2014-05-18T10:11:47Z</time>
      </trkpt>
      <trkpt lat="43.54131" lon="5.65421">
        <ele>906.601</ele>
        <time>2014-05-18T10:11:52Z</time>
      </trkpt>
      <trkpt lat="43.54131" lon="5.65436">
        <ele>905.55</ele>
        <time>2014-05-18T10:11:56Z</time>
      </trkpt>
      <trkpt lat="43.54131" lon="5.65445">
        <ele>904.949</ele>
        <time>2014-05-18T10:11:58Z</time>
      </trkpt>
      <trkpt lat="43.54127" lon="5.65466">
        <ele>903.239</ele>
        <time>2014-05-18T10:12:02Z</time>
      </trkpt>
      <trkpt lat="43.54121" lon="5.65493">
        <ele>902.25</ele>
        <time>2014-05-18T10:12:10Z</time>
      </trkpt>
      <trkpt lat="43.54117" lon="5.65516">
        <ele>900.779</ele>
        <time>2014-05-18T10:12:15Z</time>
      </trkpt>
      <trkpt lat="43.54116" lon="5.65538">
        <ele>899.187</ele>
        <time>2014-05-18T10:12:19Z</time>
      </trkpt>
      <trkpt lat="43.54114" lon="5.65551">
        <ele>898.289</ele>
        <time>2014-05-18T10:12:21Z</time>
      </trkpt>
      <trkpt lat="43.54109" lon="5.65571">
        <ele>896.988</ele>
        <time>2014-05-18T10:12:24Z</time>
      </trkpt>
      <trkpt lat="43.541" lon="5.65608">
        <ele>894.488</ele>
        <time>2014-05-18T10:12:29Z</time>
      </trkpt>
      <trkpt lat="43.54097" lon="5.65629">
        <ele>892.988</ele>
        <time>2014-05-18T10:12:33Z</time>
      </trkpt>
      <trkpt lat="43.54096" lon="5.65634">
        <ele>892.378</ele>
        <time>2014-05-18T10:12:34Z</time>
      </trkpt>
      <trkpt lat="43.54091" lon="5.65666">
        <ele>889.388</ele>
        <time>2014-05-18T10:12:39Z</time>
      </trkpt>
      <trkpt lat="43.54089" lon="5.65677">
        <ele>888.49</ele>
        <time>2014-05-18T10:12:44Z</time>
      </trkpt>
      <trkpt lat="43.54086" lon="5.65683">
        <ele>887.97</ele>
        <time>2014-05-18T10:12:47Z</time>
      </trkpt>
      <trkpt lat="43.54087" lon="5.65686">
        <ele>887.55</ele>
        <time>2014-05-18T10:12:49Z</time>
      </trkpt>
      <trkpt lat="43.54086" lon="5.65704">
        <ele>886.46</ele>
        <time>2014-05-18T10:12:54Z</time>
      </trkpt>
      <trkpt lat="43.54088" lon="5.65714">
        <ele>885.209</ele>
        <time>2014-05-18T10:12:57Z</time>
      </trkpt>
      <trkpt lat="43.54092" lon="5.65726">
        <ele>884.129</ele>
        <time>2014-05-18T10:13:00Z</time>
      </trkpt>
      <trkpt lat="43.54094" lon="5.65734">
        <ele>881.81</ele>
        <time>2014-05-18T10:13:04Z</time>
      </trkpt>
      <trkpt lat="43.54095" lon="5.65735">
        <ele>880.321</ele>
        <time>2014-05-18T10:13:11Z</time>
      </trkpt>
      <trkpt lat="43.54101" lon="5.6575">
        <ele>878.312</ele>
        <time>2014-05-18T10:13:29Z</time>
      </trkpt>
      <trkpt lat="43.54101" lon="5.6576">
        <ele>876.33</ele>
        <time>2014-05-18T10:13:33Z</time>
      </trkpt>
      <trkpt lat="43.54101" lon="5.65768">
        <ele>875.309</ele>
        <time>2014-05-18T10:13:35Z</time>
      </trkpt>
      <trkpt lat="43.54101" lon="5.65778">
        <ele>873.971</ele>
        <time>2014-05-18T10:13:40Z</time>
      </trkpt>
      <trkpt lat="43.54103" lon="5.65787">
        <ele>871.859</ele>
        <time>2014-05-18T10:13:45Z</time>
      </trkpt>
      <trkpt lat="43.54106" lon="5.65797">
        <ele>869.01</ele>
        <time>2014-05-18T10:13:50Z</time>
      </trkpt>
      <trkpt lat="43.54108" lon="5.65802">
        <ele>866.828</ele>
        <time>2014-05-18T10:13:53Z</time>
      </trkpt>
      <trkpt lat="43.54112" lon="5.65814">
        <ele>864.409</ele>
        <time>2014-05-18T10:13:58Z</time>
      </trkpt>
      <trkpt lat="43.54114" lon="5.65825">
        <ele>861.579</ele>
        <time>2014-05-18T10:14:03Z</time>
      </trkpt>
      <trkpt lat="43.54115" lon="5.65826">
        <ele>861.059</ele>
        <time>2014-05-18T10:14:04Z</time>
      </trkpt>
      <trkpt lat="43.54118" lon="5.6583">
        <ele>859.73</ele>
        <time>2014-05-18T10:14:07Z</time>
      </trkpt>
      <trkpt lat="43.54127" lon="5.65833">
        <ele>856.449</ele>
        <time>2014-05-18T10:14:13Z</time>
      </trkpt>
      <trkpt lat="43.54131" lon="5.65837">
        <ele>854.349</ele>
        <time>2014-05-18T10:14:17Z</time>
      </trkpt>
      <trkpt lat="43.54135" lon="5.65841">
        <ele>852.09</ele>
        <time>2014-05-18T10:14:22Z</time>
      </trkpt>
      <trkpt lat="43.54137" lon="5.65843">
        <ele>850.831</ele>
        <time>2014-05-18T10:14:27Z</time>
      </trkpt>
      <trkpt lat="43.54143" lon="5.65847">
        <ele>848.25</ele>
        <time>2014-05-18T10:14:58Z</time>
      </trkpt>
      <trkpt lat="43.54144" lon="5.65848">
        <ele>847.76</ele>
        <time>2014-05-18T10:14:59Z</time>
      </trkpt>
      <trkpt lat="43.54147" lon="5.65854">
        <ele>847.02</ele>
        <time>2014-05-18T10:15:02Z</time>
      </trkpt>
      <trkpt lat="43.54154" lon="5.6586">
        <ele>843.678</ele>
        <time>2014-05-18T10:15:08Z</time>
      </trkpt>
      <trkpt lat="43.54157" lon="5.65862">
        <ele>842.669</ele>
        <time>2014-05-18T10:15:10Z</time>
      </trkpt>
      <trkpt lat="43.54159" lon="5.65863">
        <ele>841.529</ele>
        <time>2014-05-18T10:15:12Z</time>
      </trkpt>
      <trkpt lat="43.54168" lon="5.65865">
        <ele>838.567</ele>
        <time>2014-05-18T10:15:19Z</time>
      </trkpt>
      <trkpt lat="43.54169" lon="5.65867">
        <ele>837.482</ele>
        <time>2014-05-18T10:15:25Z</time>
      </trkpt>
      <trkpt lat="43.54116" lon="5.65875">
        <ele>829.872</ele>
        <time>2014-05-18T10:16:18Z</time>
      </trkpt>
      <trkpt lat="43.54196" lon="5.65879">
        <ele>827.083</ele>
        <time>2014-05-18T10:16:38Z</time>
      </trkpt>
      <trkpt lat="43.542" lon="5.65877">
        <ele>827.193</ele>
        <time>2014-05-18T10:16:47Z</time>
      </trkpt>
      <trkpt lat="43.54207" lon="5.65877">
        <ele>825.973</ele>
        <time>2014-05-18T10:17:09Z</time>
      </trkpt>
      <trkpt lat="43.54209" lon="5.65876">
        <ele>825.043</ele>
        <time>2014-05-18T10:17:15Z</time>
      </trkpt>
      <trkpt lat="43.54212" lon="5.65876">
        <ele>825.704</ele>
        <time>2014-05-18T10:17:19Z</time>
      </trkpt>
      <trkpt lat="43.54214" lon="5.65875">
        <ele>824.653</ele>
        <time>2014-05-18T10:17:24Z</time>
      </trkpt>
      <trkpt lat="43.54215" lon="5.65874">
        <ele>823.672</ele>
        <time>2014-05-18T10:17:28Z</time>
      </trkpt>
      <trkpt lat="43.54216" lon="5.65879">
        <ele>821.03</ele>
        <time>2014-05-18T10:17:33Z</time>
      </trkpt>
      <trkpt lat="43.54219" lon="5.6588">
        <ele>820.131</ele>
        <time>2014-05-18T10:17:36Z</time>
      </trkpt>
      <trkpt lat="43.54226" lon="5.65883">
        <ele>816.458</ele>
        <time>2014-05-18T10:17:42Z</time>
      </trkpt>
      <trkpt lat="43.5423" lon="5.65885">
        <ele>815.359</ele>
        <time>2014-05-18T10:17:44Z</time>
      </trkpt>
      <trkpt lat="43.54236" lon="5.65887">
        <ele>813.7</ele>
        <time>2014-05-18T10:17:48Z</time>
      </trkpt>
      <trkpt lat="43.5424" lon="5.65894">
        <ele>812.651</ele>
        <time>2014-05-18T10:17:53Z</time>
      </trkpt>
      <trkpt lat="43.54241" lon="5.65892">
        <ele>812.511</ele>
        <time>2014-05-18T10:17:54Z</time>
      </trkpt>
      <trkpt lat="43.54246" lon="5.65902">
        <ele>808.74</ele>
        <time>2014-05-18T10:18:00Z</time>
      </trkpt>
      <trkpt lat="43.54248" lon="5.65903">
        <ele>807.232</ele>
        <time>2014-05-18T10:18:05Z</time>
      </trkpt>
      <trkpt lat="43.54255" lon="5.65905">
        <ele>804.491</ele>
        <time>2014-05-18T10:18:23Z</time>
      </trkpt>
      <trkpt lat="43.5426" lon="5.65907">
        <ele>802.502</ele>
        <time>2014-05-18T10:18:29Z</time>
      </trkpt>
      <trkpt lat="43.54263" lon="5.65907">
        <ele>801.643</ele>
        <time>2014-05-18T10:18:37Z</time>
      </trkpt>
      <trkpt lat="43.54277" lon="5.65917">
        <ele>797.42</ele>
        <time>2014-05-18T10:19:01Z</time>
      </trkpt>
      <trkpt lat="43.54285" lon="5.6592">
        <ele>793.94</ele>
        <time>2014-05-18T10:19:06Z</time>
      </trkpt>
      <trkpt lat="43.54289" lon="5.65922">
        <ele>792.529</ele>
        <time>2014-05-18T10:19:08Z</time>
      </trkpt>
      <trkpt lat="43.54304" lon="5.6593">
        <ele>788.14</ele>
        <time>2014-05-18T10:19:15Z</time>
      </trkpt>
      <trkpt lat="43.5431" lon="5.65934">
        <ele>786.419</ele>
        <time>2014-05-18T10:19:18Z</time>
      </trkpt>
      <trkpt lat="43.54316" lon="5.65938">
        <ele>784.53</ele>
        <time>2014-05-18T10:19:22Z</time>
      </trkpt>
      <trkpt lat="43.54328" lon="5.65949">
        <ele>782.12</ele>
        <time>2014-05-18T10:19:27Z</time>
      </trkpt>
      <trkpt lat="43.54329" lon="5.6595">
        <ele>781.661</ele>
        <time>2014-05-18T10:19:28Z</time>
      </trkpt>
      <trkpt lat="43.54342" lon="5.6595">
        <ele>779.781</ele>
        <time>2014-05-18T10:19:33Z</time>
      </trkpt>
      <trkpt lat="43.54346" lon="5.65951">
        <ele>778.942</ele>
        <time>2014-05-18T10:19:36Z</time>
      </trkpt>
      <trkpt lat="43.54349" lon="5.65954">
        <ele>779.023</ele>
        <time>2014-05-18T10:19:39Z</time>
      </trkpt>
      <trkpt lat="43.54352" lon="5.65964">
        <ele>778.062</ele>
        <time>2014-05-18T10:19:43Z</time>
      </trkpt>
      <trkpt lat="43.54356" lon="5.65978">
        <ele>776.282</ele>
        <time>2014-05-18T10:19:49Z</time>
      </trkpt>
      <trkpt lat="43.54357" lon="5.65981">
        <ele>775.663</ele>
        <time>2014-05-18T10:19:58Z</time>
      </trkpt>
      <trkpt lat="43.54358" lon="5.65982">
        <ele>775.433</ele>
        <time>2014-05-18T10:19:59Z</time>
      </trkpt>
      <trkpt lat="43.5436" lon="5.65994">
        <ele>772.871</ele>
        <time>2014-05-18T10:20:05Z</time>
      </trkpt>
      <trkpt lat="43.54362" lon="5.66002">
        <ele>770.6</ele>
        <time>2014-05-18T10:20:08Z</time>
      </trkpt>
      <trkpt lat="43.54363" lon="5.66007">
        <ele>768.871</ele>
        <time>2014-05-18T10:20:12Z</time>
      </trkpt>
      <trkpt lat="43.54367" lon="5.66015">
        <ele>766.29</ele>
        <time>2014-05-18T10:20:18Z</time>
      </trkpt>
      <trkpt lat="43.54371" lon="5.66021">
        <ele>764.102</ele>
        <time>2014-05-18T10:20:23Z</time>
      </trkpt>
      <trkpt lat="43.54378" lon="5.66042">
        <ele>758.392</ele>
        <time>2014-05-18T10:21:02Z</time>
      </trkpt>
      <trkpt lat="43.54384" lon="5.66061">
        <ele>753.01</ele>
        <time>2014-05-18T10:21:31Z</time>
      </trkpt>
      <trkpt lat="43.54392" lon="5.66076">
        <ele>748.309</ele>
        <time>2014-05-18T10:21:37Z</time>
      </trkpt>
      <trkpt lat="43.54396" lon="5.66083">
        <ele>746.33</ele>
        <time>2014-05-18T10:21:41Z</time>
      </trkpt>
      <trkpt lat="43.54404" lon="5.66094">
        <ele>743.691</ele>
        <time>2014-05-18T10:21:46Z</time>
      </trkpt>
      <trkpt lat="43.54406" lon="5.66095">
        <ele>742.56</ele>
        <time>2014-05-18T10:21:49Z</time>
      </trkpt>
      <trkpt lat="43.54412" lon="5.66102">
        <ele>740.29</ele>
        <time>2014-05-18T10:21:54Z</time>
      </trkpt>
      <trkpt lat="43.54414" lon="5.66111">
        <ele>737.35</ele>
        <time>2014-05-18T10:21:59Z</time>
      </trkpt>
      <trkpt lat="43.54414" lon="5.66116">
        <ele>735.512</ele>
        <time>2014-05-18T10:22:04Z</time>
      </trkpt>
      <trkpt lat="43.54415" lon="5.6612">
        <ele>734.733</ele>
        <time>2014-05-18T10:22:09Z</time>
      </trkpt>
      <trkpt lat="43.5442" lon="5.66129">
        <ele>733.713</ele>
        <time>2014-05-18T10:22:19Z</time>
      </trkpt>
      <trkpt lat="43.54421" lon="5.66133">
        <ele>733.724</ele>
        <time>2014-05-18T10:22:21Z</time>
      </trkpt>
      <trkpt lat="43.54423" lon="5.66137">
        <ele>732.974</ele>
        <time>2014-05-18T10:22:27Z</time>
      </trkpt>
      <trkpt lat="43.54426" lon="5.66145">
        <ele>733.253</ele>
        <time>2014-05-18T10:24:03Z</time>
      </trkpt>
      <trkpt lat="43.54427" lon="5.66149">
        <ele>732.582</ele>
        <time>2014-05-18T10:24:04Z</time>
      </trkpt>
      <trkpt lat="43.54431" lon="5.66158">
        <ele>731</ele>
        <time>2014-05-18T10:24:06Z</time>
      </trkpt>
      <trkpt lat="43.54444" lon="5.66181">
        <ele>730.633</ele>
        <time>2014-05-18T10:24:10Z</time>
      </trkpt>
      <trkpt lat="43.54453" lon="5.66195">
        <ele>731.715</ele>
        <time>2014-05-18T10:24:14Z</time>
      </trkpt>
      <trkpt lat="43.54459" lon="5.66204">
        <ele>733.035</ele>
        <time>2014-05-18T10:24:18Z</time>
      </trkpt>
      <trkpt lat="43.54462" lon="5.66208">
        <ele>734.375</ele>
        <time>2014-05-18T10:24:21Z</time>
      </trkpt>
      <trkpt lat="43.54473" lon="5.66223">
        <ele>735.515</ele>
        <time>2014-05-18T10:24:29Z</time>
      </trkpt>
      <trkpt lat="43.54479" lon="5.66235">
        <ele>736.254</ele>
        <time>2014-05-18T10:24:34Z</time>
      </trkpt>
      <trkpt lat="43.54484" lon="5.66243">
        <ele>735.193</ele>
        <time>2014-05-18T10:24:37Z</time>
      </trkpt>
      <trkpt lat="43.54492" lon="5.66264">
        <ele>732.471</ele>
        <time>2014-05-18T10:24:41Z</time>
      </trkpt>
      <trkpt lat="43.54496" lon="5.66272">
        <ele>729.231</ele>
        <time>2014-05-18T10:24:46Z</time>
      </trkpt>
      <trkpt lat="43.54499" lon="5.66278">
        <ele>726.51</ele>
        <time>2014-05-18T10:24:50Z</time>
      </trkpt>
      <trkpt lat="43.54503" lon="5.66281">
        <ele>723.79</ele>
        <time>2014-05-18T10:24:53Z</time>
      </trkpt>
      <trkpt lat="43.54509" lon="5.66288">
        <ele>720.99</ele>
        <time>2014-05-18T10:24:57Z</time>
      </trkpt>
      <trkpt lat="43.54511" lon="5.66289">
        <ele>718.76</ele>
        <time>2014-05-18T10:25:00Z</time>
      </trkpt>
      <trkpt lat="43.54452" lon="5.66334">
        <ele>716.673</ele>
        <time>2014-05-18T10:25:12Z</time>
      </trkpt>
      <trkpt lat="43.54459" lon="5.66354">
        <ele>715.803</ele>
        <time>2014-05-18T10:25:20Z</time>
      </trkpt>
      <trkpt lat="43.54511" lon="5.66289">
        <ele>715.433</ele>
        <time>2014-05-18T10:25:25Z</time>
      </trkpt>
      <trkpt lat="43.54452" lon="5.66333">
        <ele>714.794</ele>
        <time>2014-05-18T10:25:32Z</time>
      </trkpt>
      <trkpt lat="43.54511" lon="5.66289">
        <ele>712.114</ele>
        <time>2014-05-18T10:25:49Z</time>
      </trkpt>
      <trkpt lat="43.54558" lon="5.66252">
        <ele>687.691</ele>
        <time>2014-05-18T10:27:52Z</time>
      </trkpt>
      <trkpt lat="43.54569" lon="5.66252">
        <ele>684.851</ele>
        <time>2014-05-18T10:27:56Z</time>
      </trkpt>
      <trkpt lat="43.54576" lon="5.66249">
        <ele>681.891</ele>
        <time>2014-05-18T10:28:01Z</time>
      </trkpt>
      <trkpt lat="43.54579" lon="5.6625">
        <ele>680.263</ele>
        <time>2014-05-18T10:28:06Z</time>
      </trkpt>
      <trkpt lat="43.54585" lon="5.66249">
        <ele>679.393</ele>
        <time>2014-05-18T10:28:17Z</time>
      </trkpt>
      <trkpt lat="43.5459" lon="5.66247">
        <ele>677.742</ele>
        <time>2014-05-18T10:28:22Z</time>
      </trkpt>
      <trkpt lat="43.54599" lon="5.66249">
        <ele>677.232</ele>
        <time>2014-05-18T10:28:24Z</time>
      </trkpt>
      <trkpt lat="43.54607" lon="5.66269">
        <ele>675.253</ele>
        <time>2014-05-18T10:28:30Z</time>
      </trkpt>
      <trkpt lat="43.54607" lon="5.66287">
        <ele>673.582</ele>
        <time>2014-05-18T10:28:34Z</time>
      </trkpt>
      <trkpt lat="43.54607" lon="5.66292">
        <ele>672.563</ele>
        <time>2014-05-18T10:28:39Z</time>
      </trkpt>
      <trkpt lat="43.54607" lon="5.66293">
        <ele>672.303</ele>
        <time>2014-05-18T10:28:40Z</time>
      </trkpt>
      <trkpt lat="43.54609" lon="5.66298">
        <ele>670.773</ele>
        <time>2014-05-18T10:28:45Z</time>
      </trkpt>
      <trkpt lat="43.54616" lon="5.66308">
        <ele>667.032</ele>
        <time>2014-05-18T10:28:53Z</time>
      </trkpt>
      <trkpt lat="43.54617" lon="5.6631">
        <ele>666.401</ele>
        <time>2014-05-18T10:28:54Z</time>
      </trkpt>
      <trkpt lat="43.54628" lon="5.66313">
        <ele>663.292</ele>
        <time>2014-05-18T10:28:59Z</time>
      </trkpt>
      <trkpt lat="43.5464" lon="5.66315">
        <ele>663.574</ele>
        <time>2014-05-18T10:29:03Z</time>
      </trkpt>
      <trkpt lat="43.54658" lon="5.66321">
        <ele>663.864</ele>
        <time>2014-05-18T10:29:11Z</time>
      </trkpt>
      <trkpt lat="43.54668" lon="5.6633">
        <ele>662.873</ele>
        <time>2014-05-18T10:29:15Z</time>
      </trkpt>
      <trkpt lat="43.54672" lon="5.66333">
        <ele>662.593</ele>
        <time>2014-05-18T10:29:16Z</time>
      </trkpt>
      <trkpt lat="43.54684" lon="5.6635">
        <ele>661.733</ele>
        <time>2014-05-18T10:29:21Z</time>
      </trkpt>
      <trkpt lat="43.54693" lon="5.66364">
        <ele>660.673</ele>
        <time>2014-05-18T10:29:26Z</time>
      </trkpt>
      <trkpt lat="43.54702" lon="5.66373">
        <ele>659.874</ele>
        <time>2014-05-18T10:29:31Z</time>
      </trkpt>
      <trkpt lat="43.5471" lon="5.66379">
        <ele>658.783</ele>
        <time>2014-05-18T10:29:35Z</time>
      </trkpt>
      <trkpt lat="43.54717" lon="5.66382">
        <ele>658.403</ele>
        <time>2014-05-18T10:29:37Z</time>
      </trkpt>
      <trkpt lat="43.54724" lon="5.66385">
        <ele>658.013</ele>
        <time>2014-05-18T10:29:39Z</time>
      </trkpt>
      <trkpt lat="43.54733" lon="5.66391">
        <ele>657.504</ele>
        <time>2014-05-18T10:29:43Z</time>
      </trkpt>
      <trkpt lat="43.54746" lon="5.66406">
        <ele>655.934</ele>
        <time>2014-05-18T10:29:49Z</time>
      </trkpt>
      <trkpt lat="43.54753" lon="5.66419">
        <ele>655.895</ele>
        <time>2014-05-18T10:29:54Z</time>
      </trkpt>
      <trkpt lat="43.54757" lon="5.66433">
        <ele>655.614</ele>
        <time>2014-05-18T10:29:59Z</time>
      </trkpt>
      <trkpt lat="43.54761" lon="5.66441">
        <ele>654.332</ele>
        <time>2014-05-18T10:30:02Z</time>
      </trkpt>
      <trkpt lat="43.54771" lon="5.66451">
        <ele>651.412</ele>
        <time>2014-05-18T10:30:08Z</time>
      </trkpt>
      <trkpt lat="43.54775" lon="5.66453">
        <ele>650.154</ele>
        <time>2014-05-18T10:30:13Z</time>
      </trkpt>
      <trkpt lat="43.5483" lon="5.66495">
        <ele>648.804</ele>
        <time>2014-05-18T10:30:27Z</time>
      </trkpt>
      <trkpt lat="43.54795" lon="5.66466">
        <ele>642.883</ele>
        <time>2014-05-18T10:30:52Z</time>
      </trkpt>
      <trkpt lat="43.5483" lon="5.66495">
        <ele>640.802</ele>
        <time>2014-05-18T10:30:57Z</time>
      </trkpt>
      <trkpt lat="43.5483" lon="5.6649">
        <ele>638.252</ele>
        <time>2014-05-18T10:31:01Z</time>
      </trkpt>
      <trkpt lat="43.5483" lon="5.66495">
        <ele>636.772</ele>
        <time>2014-05-18T10:31:04Z</time>
      </trkpt>
      <trkpt lat="43.5483" lon="5.66496">
        <ele>634.712</ele>
        <time>2014-05-18T10:31:10Z</time>
      </trkpt>
      <trkpt lat="43.54832" lon="5.66512">
        <ele>633.854</ele>
        <time>2014-05-18T10:31:14Z</time>
      </trkpt>
      <trkpt lat="43.54833" lon="5.66515">
        <ele>633.444</ele>
        <time>2014-05-18T10:31:16Z</time>
      </trkpt>
      <trkpt lat="43.54837" lon="5.6653">
        <ele>633.094</ele>
        <time>2014-05-18T10:31:21Z</time>
      </trkpt>
      <trkpt lat="43.5484" lon="5.66539">
        <ele>632.453</ele>
        <time>2014-05-18T10:31:24Z</time>
      </trkpt>
      <trkpt lat="43.54846" lon="5.66555">
        <ele>631.563</ele>
        <time>2014-05-18T10:31:28Z</time>
      </trkpt>
      <trkpt lat="43.54848" lon="5.6656">
        <ele>631.063</ele>
        <time>2014-05-18T10:31:29Z</time>
      </trkpt>
      <trkpt lat="43.54861" lon="5.66593">
        <ele>627.833</ele>
        <time>2014-05-18T10:31:35Z</time>
      </trkpt>
      <trkpt lat="43.54863" lon="5.66599">
        <ele>627.535</ele>
        <time>2014-05-18T10:31:38Z</time>
      </trkpt>
      <trkpt lat="43.54866" lon="5.6661">
        <ele>626.344</ele>
        <time>2014-05-18T10:31:42Z</time>
      </trkpt>
      <trkpt lat="43.5487" lon="5.66622">
        <ele>625.283</ele>
        <time>2014-05-18T10:31:45Z</time>
      </trkpt>
      <trkpt lat="43.54876" lon="5.66647">
        <ele>623.774</ele>
        <time>2014-05-18T10:31:50Z</time>
      </trkpt>
      <trkpt lat="43.54877" lon="5.66652">
        <ele>623.466</ele>
        <time>2014-05-18T10:31:55Z</time>
      </trkpt>
      <trkpt lat="43.54879" lon="5.66663">
        <ele>622.574</ele>
        <time>2014-05-18T10:32:00Z</time>
      </trkpt>
      <trkpt lat="43.54884" lon="5.66685">
        <ele>620.963</ele>
        <time>2014-05-18T10:32:05Z</time>
      </trkpt>
      <trkpt lat="43.54889" lon="5.66715">
        <ele>619.794</ele>
        <time>2014-05-18T10:32:10Z</time>
      </trkpt>
      <trkpt lat="43.5489" lon="5.66737">
        <ele>619.054</ele>
        <time>2014-05-18T10:32:14Z</time>
      </trkpt>
      <trkpt lat="43.54893" lon="5.66767">
        <ele>617.763</ele>
        <time>2014-05-18T10:32:19Z</time>
      </trkpt>
      <trkpt lat="43.54895" lon="5.66773">
        <ele>617.173</ele>
        <time>2014-05-18T10:32:20Z</time>
      </trkpt>
      <trkpt lat="43.54905" lon="5.66805">
        <ele>614.492</ele>
        <time>2014-05-18T10:32:25Z</time>
      </trkpt>
      <trkpt lat="43.54916" lon="5.66833">
        <ele>611.263</ele>
        <time>2014-05-18T10:32:30Z</time>
      </trkpt>
      <trkpt lat="43.54927" lon="5.66863">
        <ele>608.243</ele>
        <time>2014-05-18T10:32:35Z</time>
      </trkpt>
      <trkpt lat="43.54934" lon="5.66883">
        <ele>606.885</ele>
        <time>2014-05-18T10:32:39Z</time>
      </trkpt>
      <trkpt lat="43.54938" lon="5.66893">
        <ele>606.375</ele>
        <time>2014-05-18T10:32:41Z</time>
      </trkpt>
      <trkpt lat="43.54944" lon="5.6691">
        <ele>605.786</ele>
        <time>2014-05-18T10:32:45Z</time>
      </trkpt>
      <trkpt lat="43.54945" lon="5.66914">
        <ele>605.576</ele>
        <time>2014-05-18T10:32:49Z</time>
      </trkpt>
      <trkpt lat="43.54947" lon="5.66918">
        <ele>606.738</ele>
        <time>2014-05-18T10:32:56Z</time>
      </trkpt>
      <trkpt lat="43.54951" lon="5.66928">
        <ele>609.108</ele>
        <time>2014-05-18T10:33:04Z</time>
      </trkpt>
      <trkpt lat="43.54955" lon="5.66939">
        <ele>610.107</ele>
        <time>2014-05-18T10:33:12Z</time>
      </trkpt>
      <trkpt lat="43.54955" lon="5.6694">
        <ele>610.057</ele>
        <time>2014-05-18T10:33:13Z</time>
      </trkpt>
      <trkpt lat="43.54961" lon="5.66957">
        <ele>608.035</ele>
        <time>2014-05-18T10:33:20Z</time>
      </trkpt>
      <trkpt lat="43.54967" lon="5.66972">
        <ele>606.735</ele>
        <time>2014-05-18T10:33:24Z</time>
      </trkpt>
      <trkpt lat="43.54973" lon="5.66989">
        <ele>606.617</ele>
        <time>2014-05-18T10:33:30Z</time>
      </trkpt>
      <trkpt lat="43.54977" lon="5.67001">
        <ele>606.707</ele>
        <time>2014-05-18T10:33:36Z</time>
      </trkpt>
      <trkpt lat="43.5498" lon="5.67009">
        <ele>606.747</ele>
        <time>2014-05-18T10:33:40Z</time>
      </trkpt>
      <trkpt lat="43.54984" lon="5.67018">
        <ele>606.056</ele>
        <time>2014-05-18T10:33:51Z</time>
      </trkpt>
      <trkpt lat="43.54985" lon="5.67022">
        <ele>605.866</ele>
        <time>2014-05-18T10:33:53Z</time>
      </trkpt>
      <trkpt lat="43.54989" lon="5.6704">
        <ele>604.645</ele>
        <time>2014-05-18T10:33:58Z</time>
      </trkpt>
      <trkpt lat="43.54993" lon="5.67065">
        <ele>602.164</ele>
        <time>2014-05-18T10:34:02Z</time>
      </trkpt>
      <trkpt lat="43.55" lon="5.67098">
        <ele>599.754</ele>
        <time>2014-05-18T10:34:07Z</time>
      </trkpt>
      <trkpt lat="43.55002" lon="5.67104">
        <ele>599.325</ele>
        <time>2014-05-18T10:34:08Z</time>
      </trkpt>
      <trkpt lat="43.55012" lon="5.67133">
        <ele>598.157</ele>
        <time>2014-05-18T10:34:14Z</time>
      </trkpt>
      <trkpt lat="43.55021" lon="5.67155">
        <ele>597.637</ele>
        <time>2014-05-18T10:34:20Z</time>
      </trkpt>
      <trkpt lat="43.55028" lon="5.67175">
        <ele>596.706</ele>
        <time>2014-05-18T10:34:25Z</time>
      </trkpt>
      <trkpt lat="43.55033" lon="5.67192">
        <ele>595.756</ele>
        <time>2014-05-18T10:34:29Z</time>
      </trkpt>
      <trkpt lat="43.55034" lon="5.67196">
        <ele>595.255</ele>
        <time>2014-05-18T10:34:30Z</time>
      </trkpt>
      <trkpt lat="43.55036" lon="5.67206">
        <ele>593.924</ele>
        <time>2014-05-18T10:34:32Z</time>
      </trkpt>
      <trkpt lat="43.5504" lon="5.67232">
        <ele>590.543</ele>
        <time>2014-05-18T10:34:36Z</time>
      </trkpt>
      <trkpt lat="43.55042" lon="5.67238">
        <ele>589.863</ele>
        <time>2014-05-18T10:34:37Z</time>
      </trkpt>
      <trkpt lat="43.55052" lon="5.67266">
        <ele>588.086</ele>
        <time>2014-05-18T10:34:43Z</time>
      </trkpt>
      <trkpt lat="43.55071" lon="5.67304">
        <ele>586.487</ele>
        <time>2014-05-18T10:34:51Z</time>
      </trkpt>
      <trkpt lat="43.55092" lon="5.6735">
        <ele>584.485</ele>
        <time>2014-05-18T10:34:59Z</time>
      </trkpt>
      <trkpt lat="43.55099" lon="5.67406">
        <ele>582.566</ele>
        <time>2014-05-18T10:35:06Z</time>
      </trkpt>
      <trkpt lat="43.55099" lon="5.67414">
        <ele>582.246</ele>
        <time>2014-05-18T10:35:07Z</time>
      </trkpt>
      <trkpt lat="43.55103" lon="5.67435">
        <ele>582.408</ele>
        <time>2014-05-18T10:35:12Z</time>
      </trkpt>
      <trkpt lat="43.55113" lon="5.67475">
        <ele>585.259</ele>
        <time>2014-05-18T10:35:18Z</time>
      </trkpt>
      <trkpt lat="43.55142" lon="5.67489">
        <ele>588.419</ele>
        <time>2014-05-18T10:35:27Z</time>
      </trkpt>
      <trkpt lat="43.55159" lon="5.67509">
        <ele>590.8</ele>
        <time>2014-05-18T10:35:37Z</time>
      </trkpt>
      <trkpt lat="43.55172" lon="5.67527">
        <ele>592.609</ele>
        <time>2014-05-18T10:35:46Z</time>
      </trkpt>
      <trkpt lat="43.55182" lon="5.67551">
        <ele>593.689</ele>
        <time>2014-05-18T10:35:55Z</time>
      </trkpt>
      <trkpt lat="43.55187" lon="5.67567">
        <ele>593.849</ele>
        <time>2014-05-18T10:36:02Z</time>
      </trkpt>
      <trkpt lat="43.55188" lon="5.6757">
        <ele>593.198</ele>
        <time>2014-05-18T10:36:08Z</time>
      </trkpt>
      <trkpt lat="43.55194" lon="5.67582">
        <ele>594.68</ele>
        <time>2014-05-18T10:36:45Z</time>
      </trkpt>
      <trkpt lat="43.55204" lon="5.67597">
        <ele>595.839</ele>
        <time>2014-05-18T10:36:53Z</time>
      </trkpt>
      <trkpt lat="43.5522" lon="5.67615">
        <ele>596.309</ele>
        <time>2014-05-18T10:37:02Z</time>
      </trkpt>
      <trkpt lat="43.55232" lon="5.67642">
        <ele>597.649</ele>
        <time>2014-05-18T10:37:11Z</time>
      </trkpt>
      <trkpt lat="43.55246" lon="5.6767">
        <ele>597.729</ele>
        <time>2014-05-18T10:37:20Z</time>
      </trkpt>
      <trkpt lat="43.55259" lon="5.67688">
        <ele>597.689</ele>
        <time>2014-05-18T10:37:26Z</time>
      </trkpt>
      <trkpt lat="43.55282" lon="5.67695">
        <ele>597.768</ele>
        <time>2014-05-18T10:37:33Z</time>
      </trkpt>
      <trkpt lat="43.55308" lon="5.67702">
        <ele>597.008</ele>
        <time>2014-05-18T10:37:39Z</time>
      </trkpt>
      <trkpt lat="43.55333" lon="5.67698">
        <ele>596.398</ele>
        <time>2014-05-18T10:37:44Z</time>
      </trkpt>
      <trkpt lat="43.5537" lon="5.67702">
        <ele>595.738</ele>
        <time>2014-05-18T10:37:50Z</time>
      </trkpt>
      <trkpt lat="43.55394" lon="5.67707">
        <ele>594.998</ele>
        <time>2014-05-18T10:37:54Z</time>
      </trkpt>
      <trkpt lat="43.55419" lon="5.67706">
        <ele>593.568</ele>
        <time>2014-05-18T10:37:58Z</time>
      </trkpt>
      <trkpt lat="43.55425" lon="5.67703">
        <ele>593.187</ele>
        <time>2014-05-18T10:37:59Z</time>
      </trkpt>
      <trkpt lat="43.55436" lon="5.67694">
        <ele>592.437</ele>
        <time>2014-05-18T10:38:01Z</time>
      </trkpt>
      <trkpt lat="43.5546" lon="5.67676">
        <ele>592.3</ele>
        <time>2014-05-18T10:38:05Z</time>
      </trkpt>
      <trkpt lat="43.55497" lon="5.6766">
        <ele>593.64</ele>
        <time>2014-05-18T10:38:12Z</time>
      </trkpt>
      <trkpt lat="43.55534" lon="5.67643">
        <ele>593.849</ele>
        <time>2014-05-18T10:38:20Z</time>
      </trkpt>
      <trkpt lat="43.55584" lon="5.67605">
        <ele>593.499</ele>
        <time>2014-05-18T10:38:31Z</time>
      </trkpt>
      <trkpt lat="43.55626" lon="5.67575">
        <ele>593.25</ele>
        <time>2014-05-18T10:38:40Z</time>
      </trkpt>
      <trkpt lat="43.55664" lon="5.67558">
        <ele>594.48</ele>
        <time>2014-05-18T10:38:48Z</time>
      </trkpt>
      <trkpt lat="43.55709" lon="5.67536">
        <ele>595.462</ele>
        <time>2014-05-18T10:38:58Z</time>
      </trkpt>
      <trkpt lat="43.55743" lon="5.67512">
        <ele>595.92</ele>
        <time>2014-05-18T10:39:06Z</time>
      </trkpt>
      <trkpt lat="43.55786" lon="5.67488">
        <ele>596.44</ele>
        <time>2014-05-18T10:39:16Z</time>
      </trkpt>
      <trkpt lat="43.55836" lon="5.6746">
        <ele>595.909</ele>
        <time>2014-05-18T10:39:27Z</time>
      </trkpt>
      <trkpt lat="43.55856" lon="5.67448">
        <ele>595.168</ele>
        <time>2014-05-18T10:39:31Z</time>
      </trkpt>
      <trkpt lat="43.55874" lon="5.6743">
        <ele>593.156</ele>
        <time>2014-05-18T10:39:35Z</time>
      </trkpt>
      <trkpt lat="43.55878" lon="5.67423">
        <ele>592.636</ele>
        <time>2014-05-18T10:39:36Z</time>
      </trkpt>
      <trkpt lat="43.55882" lon="5.67406">
        <ele>591.586</ele>
        <time>2014-05-18T10:39:38Z</time>
      </trkpt>
      <trkpt lat="43.55895" lon="5.67366">
        <ele>589.497</ele>
        <time>2014-05-18T10:39:43Z</time>
      </trkpt>
      <trkpt lat="43.55901" lon="5.6736">
        <ele>588.926</ele>
        <time>2014-05-18T10:39:44Z</time>
      </trkpt>
      <trkpt lat="43.55941" lon="5.67334">
        <ele>586.178</ele>
        <time>2014-05-18T10:39:50Z</time>
      </trkpt>
      <trkpt lat="43.55976" lon="5.67299">
        <ele>586</ele>
        <time>2014-05-18T10:39:56Z</time>
      </trkpt>
      <trkpt lat="43.55996" lon="5.67283">
        <ele>587.372</ele>
        <time>2014-05-18T10:40:00Z</time>
      </trkpt>
      <trkpt lat="43.55998" lon="5.67281">
        <ele>588.322</ele>
        <time>2014-05-18T10:40:02Z</time>
      </trkpt>
      <trkpt lat="43.56012" lon="5.67268">
        <ele>595.721</ele>
        <time>2014-05-18T10:40:28Z</time>
      </trkpt>
      <trkpt lat="43.56088" lon="5.67335">
        <ele>596.731</ele>
        <time>2014-05-18T10:40:33Z</time>
      </trkpt>
      <trkpt lat="43.56084" lon="5.67307">
        <ele>597.761</ele>
        <time>2014-05-18T10:40:42Z</time>
      </trkpt>
      <trkpt lat="43.5608" lon="5.67283">
        <ele>599.101</ele>
        <time>2014-05-18T10:40:51Z</time>
      </trkpt>
      <trkpt lat="43.56076" lon="5.67259">
        <ele>600.301</ele>
        <time>2014-05-18T10:41:00Z</time>
      </trkpt>
      <trkpt lat="43.56075" lon="5.67239">
        <ele>601.571</ele>
        <time>2014-05-18T10:41:08Z</time>
      </trkpt>
      <trkpt lat="43.56075" lon="5.67213">
        <ele>603.341</ele>
        <time>2014-05-18T10:41:18Z</time>
      </trkpt>
      <trkpt lat="43.56075" lon="5.6721">
        <ele>604.861</ele>
        <time>2014-05-18T10:41:27Z</time>
      </trkpt>
      <trkpt lat="43.56096" lon="5.67176">
        <ele>606.111</ele>
        <time>2014-05-18T10:41:36Z</time>
      </trkpt>
      <trkpt lat="43.56104" lon="5.67127">
        <ele>607.6</ele>
        <time>2014-05-18T10:41:51Z</time>
      </trkpt>
      <trkpt lat="43.56111" lon="5.67109">
        <ele>608.19</ele>
        <time>2014-05-18T10:41:58Z</time>
      </trkpt>
      <trkpt lat="43.56126" lon="5.67092">
        <ele>608.86</ele>
        <time>2014-05-18T10:42:06Z</time>
      </trkpt>
      <trkpt lat="43.56142" lon="5.67069">
        <ele>609.46</ele>
        <time>2014-05-18T10:42:14Z</time>
      </trkpt>
      <trkpt lat="43.56162" lon="5.67039">
        <ele>610.28</ele>
        <time>2014-05-18T10:42:24Z</time>
      </trkpt>
      <trkpt lat="43.56174" lon="5.67019">
        <ele>610.74</ele>
        <time>2014-05-18T10:42:30Z</time>
      </trkpt>
      <trkpt lat="43.5619" lon="5.66992">
        <ele>610.199</ele>
        <time>2014-05-18T10:42:37Z</time>
      </trkpt>
      <trkpt lat="43.56196" lon="5.66969">
        <ele>608.347</ele>
        <time>2014-05-18T10:42:41Z</time>
      </trkpt>
      <trkpt lat="43.56197" lon="5.66948">
        <ele>607.018</ele>
        <time>2014-05-18T10:42:45Z</time>
      </trkpt>
      <trkpt lat="43.56217" lon="5.66948">
        <ele>607.36</ele>
        <time>2014-05-18T10:42:48Z</time>
      </trkpt>
      <trkpt lat="43.56247" lon="5.66953">
        <ele>610.272</ele>
        <time>2014-05-18T10:42:57Z</time>
      </trkpt>
      <trkpt lat="43.56255" lon="5.66974">
        <ele>611.321</ele>
        <time>2014-05-18T10:43:01Z</time>
      </trkpt>
      <trkpt lat="43.56262" lon="5.66999">
        <ele>612.181</ele>
        <time>2014-05-18T10:43:07Z</time>
      </trkpt>
      <trkpt lat="43.56284" lon="5.67026">
        <ele>612.72</ele>
        <time>2014-05-18T10:43:17Z</time>
      </trkpt>
      <trkpt lat="43.56307" lon="5.67048">
        <ele>613.781</ele>
        <time>2014-05-18T10:43:27Z</time>
      </trkpt>
      <trkpt lat="43.56328" lon="5.67053">
        <ele>615.341</ele>
        <time>2014-05-18T10:43:36Z</time>
      </trkpt>
      <trkpt lat="43.56354" lon="5.67053">
        <ele>618.171</ele>
        <time>2014-05-18T10:43:47Z</time>
      </trkpt>
      <trkpt lat="43.56373" lon="5.67048">
        <ele>619.171</ele>
        <time>2014-05-18T10:43:55Z</time>
      </trkpt>
      <trkpt lat="43.56398" lon="5.67041">
        <ele>618.88</ele>
        <time>2014-05-18T10:44:04Z</time>
      </trkpt>
      <trkpt lat="43.56426" lon="5.67034">
        <ele>617.459</ele>
        <time>2014-05-18T10:44:12Z</time>
      </trkpt>
      <trkpt lat="43.56435" lon="5.67029">
        <ele>617.06</ele>
        <time>2014-05-18T10:44:15Z</time>
      </trkpt>
      <trkpt lat="43.56435" lon="5.67021">
        <ele>617.141</ele>
        <time>2014-05-18T10:44:29Z</time>
      </trkpt>
      <trkpt lat="43.56437" lon="5.67001">
        <ele>617.379</ele>
        <time>2014-05-18T10:44:35Z</time>
      </trkpt>
      <trkpt lat="43.56443" lon="5.66983">
        <ele>616.829</ele>
        <time>2014-05-18T10:44:39Z</time>
      </trkpt>
      <trkpt lat="43.56453" lon="5.6696">
        <ele>614.177</ele>
        <time>2014-05-18T10:44:44Z</time>
      </trkpt>
      <trkpt lat="43.5646" lon="5.66945">
        <ele>611.296</ele>
        <time>2014-05-18T10:44:48Z</time>
      </trkpt>
      <trkpt lat="43.56463" lon="5.6694">
        <ele>610.469</ele>
        <time>2014-05-18T10:44:52Z</time>
      </trkpt>
      <trkpt lat="43.56467" lon="5.6693">
        <ele>608.007</ele>
        <time>2014-05-18T10:44:57Z</time>
      </trkpt>
      <trkpt lat="43.56477" lon="5.66923">
        <ele>605.447</ele>
        <time>2014-05-18T10:45:02Z</time>
      </trkpt>
      <trkpt lat="43.56471" lon="5.66914">
        <ele>602.945</ele>
        <time>2014-05-18T10:45:06Z</time>
      </trkpt>
      <trkpt lat="43.56473" lon="5.66897">
        <ele>600.336</ele>
        <time>2014-05-18T10:45:10Z</time>
      </trkpt>
      <trkpt lat="43.56476" lon="5.66882">
        <ele>598.467</ele>
        <time>2014-05-18T10:45:14Z</time>
      </trkpt>
      <trkpt lat="43.56476" lon="5.66873">
        <ele>596.595</ele>
        <time>2014-05-18T10:45:16Z</time>
      </trkpt>
      <trkpt lat="43.56485" lon="5.66848">
        <ele>590.014</ele>
        <time>2014-05-18T10:45:22Z</time>
      </trkpt>
      <trkpt lat="43.56489" lon="5.66833">
        <ele>586.394</ele>
        <time>2014-05-18T10:45:27Z</time>
      </trkpt>
      <trkpt lat="43.56492" lon="5.66818">
        <ele>582.795</ele>
        <time>2014-05-18T10:45:32Z</time>
      </trkpt>
      <trkpt lat="43.56503" lon="5.668">
        <ele>578.944</ele>
        <time>2014-05-18T10:45:36Z</time>
      </trkpt>
      <trkpt lat="43.5651" lon="5.66793">
        <ele>576.383</ele>
        <time>2014-05-18T10:45:38Z</time>
      </trkpt>
      <trkpt lat="43.56521" lon="5.66778">
        <ele>572.313</ele>
        <time>2014-05-18T10:45:42Z</time>
      </trkpt>
      <trkpt lat="43.56533" lon="5.66762">
        <ele>566.712</ele>
        <time>2014-05-18T10:45:46Z</time>
      </trkpt>
      <trkpt lat="43.56539" lon="5.66753">
        <ele>564.102</ele>
        <time>2014-05-18T10:45:48Z</time>
      </trkpt>
      <trkpt lat="43.56549" lon="5.66736">
        <ele>558.892</ele>
        <time>2014-05-18T10:45:52Z</time>
      </trkpt>
      <trkpt lat="43.56579" lon="5.66678">
        <ele>554.143</ele>
        <time>2014-05-18T10:45:57Z</time>
      </trkpt>
      <trkpt lat="43.56609" lon="5.66652">
        <ele>551.246</ele>
        <time>2014-05-18T10:46:01Z</time>
      </trkpt>
      <trkpt lat="43.56634" lon="5.66633">
        <ele>552.56</ele>
        <time>2014-05-18T10:46:05Z</time>
      </trkpt>
      <trkpt lat="43.56647" lon="5.66619">
        <ele>553.711</ele>
        <time>2014-05-18T10:46:09Z</time>
      </trkpt>
      <trkpt lat="43.56655" lon="5.66603">
        <ele>555.011</ele>
        <time>2014-05-18T10:46:16Z</time>
      </trkpt>
      <trkpt lat="43.56669" lon="5.66584">
        <ele>557.341</ele>
        <time>2014-05-18T10:46:26Z</time>
      </trkpt>
      <trkpt lat="43.56676" lon="5.66577">
        <ele>559.381</ele>
        <time>2014-05-18T10:46:34Z</time>
      </trkpt>
      <trkpt lat="43.56738" lon="5.66543">
        <ele>555.724</ele>
        <time>2014-05-18T10:47:05Z</time>
      </trkpt>
      <trkpt lat="43.56777" lon="5.66512">
        <ele>550.735</ele>
        <time>2014-05-18T10:47:10Z</time>
      </trkpt>
      <trkpt lat="43.56802" lon="5.66482">
        <ele>546.843</ele>
        <time>2014-05-18T10:47:14Z</time>
      </trkpt>
      <trkpt lat="43.56823" lon="5.66442">
        <ele>542.403</ele>
        <time>2014-05-18T10:47:18Z</time>
      </trkpt>
      <trkpt lat="43.56866" lon="5.66371">
        <ele>539.277</ele>
        <time>2014-05-18T10:47:25Z</time>
      </trkpt>
      <trkpt lat="43.569" lon="5.66335">
        <ele>537.066</ele>
        <time>2014-05-18T10:47:30Z</time>
      </trkpt>
      <trkpt lat="43.56927" lon="5.66305">
        <ele>534.297</ele>
        <time>2014-05-18T10:47:34Z</time>
      </trkpt>
      <trkpt lat="43.56955" lon="5.66258">
        <ele>535.341</ele>
        <time>2014-05-18T10:47:38Z</time>
      </trkpt>
      <trkpt lat="43.56959" lon="5.66251">
        <ele>535.711</ele>
        <time>2014-05-18T10:47:39Z</time>
      </trkpt>
      <trkpt lat="43.56982" lon="5.66208">
        <ele>537.12</ele>
        <time>2014-05-18T10:47:48Z</time>
      </trkpt>
      <trkpt lat="43.56998" lon="5.66179">
        <ele>537.829</ele>
        <time>2014-05-18T10:47:54Z</time>
      </trkpt>
      <trkpt lat="43.57016" lon="5.66147">
        <ele>536.938</ele>
        <time>2014-05-18T10:48:00Z</time>
      </trkpt>
      <trkpt lat="43.57029" lon="5.66121">
        <ele>535.978</ele>
        <time>2014-05-18T10:48:04Z</time>
      </trkpt>
      <trkpt lat="43.57043" lon="5.66095">
        <ele>535.359</ele>
        <time>2014-05-18T10:48:08Z</time>
      </trkpt>
      <trkpt lat="43.57062" lon="5.66043">
        <ele>534.94</ele>
        <time>2014-05-18T10:48:15Z</time>
      </trkpt>
      <trkpt lat="43.57066" lon="5.66018">
        <ele>535.561</ele>
        <time>2014-05-18T10:48:18Z</time>
      </trkpt>
      <trkpt lat="43.57075" lon="5.65982">
        <ele>536.6</ele>
        <time>2014-05-18T10:48:24Z</time>
      </trkpt>
      <trkpt lat="43.57091" lon="5.6594">
        <ele>536.149</ele>
        <time>2014-05-18T10:48:31Z</time>
      </trkpt>
      <trkpt lat="43.57105" lon="5.65891">
        <ele>535.709</ele>
        <time>2014-05-18T10:48:38Z</time>
      </trkpt>
      <trkpt lat="43.57107" lon="5.65885">
        <ele>535.76</ele>
        <time>2014-05-18T10:48:39Z</time>
      </trkpt>
      <trkpt lat="43.57113" lon="5.65838">
        <ele>536.69</ele>
        <time>2014-05-18T10:48:47Z</time>
      </trkpt>
      <trkpt lat="43.57113" lon="5.658">
        <ele>538.741</ele>
        <time>2014-05-18T10:48:54Z</time>
      </trkpt>
      <trkpt lat="43.57111" lon="5.65766">
        <ele>541.201</ele>
        <time>2014-05-18T10:49:02Z</time>
      </trkpt>
      <trkpt lat="43.57109" lon="5.65721">
        <ele>542.73</ele>
        <time>2014-05-18T10:49:13Z</time>
      </trkpt>
      <trkpt lat="43.57109" lon="5.65684">
        <ele>542.979</ele>
        <time>2014-05-18T10:49:21Z</time>
      </trkpt>
      <trkpt lat="43.57109" lon="5.65641">
        <ele>543.64</ele>
        <time>2014-05-18T10:49:29Z</time>
      </trkpt>
      <trkpt lat="43.57109" lon="5.65615">
        <ele>543.388</ele>
        <time>2014-05-18T10:49:35Z</time>
      </trkpt>
      <trkpt lat="43.57127" lon="5.65605">
        <ele>542.087</ele>
        <time>2014-05-18T10:49:39Z</time>
      </trkpt>
      <trkpt lat="43.57146" lon="5.65593">
        <ele>541.618</ele>
        <time>2014-05-18T10:49:44Z</time>
      </trkpt>
      <trkpt lat="43.57148" lon="5.6558">
        <ele>542.11</ele>
        <time>2014-05-18T10:49:48Z</time>
      </trkpt>
      <trkpt lat="43.57148" lon="5.65576">
        <ele>542.59</ele>
        <time>2014-05-18T10:49:49Z</time>
      </trkpt>
      <trkpt lat="43.5715" lon="5.65558">
        <ele>544.641</ele>
        <time>2014-05-18T10:49:56Z</time>
      </trkpt>
      <trkpt lat="43.57152" lon="5.65533">
        <ele>546.83</ele>
        <time>2014-05-18T10:50:05Z</time>
      </trkpt>
      <trkpt lat="43.57157" lon="5.6551">
        <ele>548.39</ele>
        <time>2014-05-18T10:50:15Z</time>
      </trkpt>
      <trkpt lat="43.57161" lon="5.65489">
        <ele>548.6</ele>
        <time>2014-05-18T10:50:25Z</time>
      </trkpt>
      <trkpt lat="43.57164" lon="5.65469">
        <ele>549.68</ele>
        <time>2014-05-18T10:50:34Z</time>
      </trkpt>
      <trkpt lat="43.57171" lon="5.65448">
        <ele>550.44</ele>
        <time>2014-05-18T10:50:43Z</time>
      </trkpt>
      <trkpt lat="43.57174" lon="5.65432">
        <ele>551.44</ele>
        <time>2014-05-18T10:50:51Z</time>
      </trkpt>
      <trkpt lat="43.57177" lon="5.65403">
        <ele>553.51</ele>
        <time>2014-05-18T10:51:02Z</time>
      </trkpt>
      <trkpt lat="43.57178" lon="5.65374">
        <ele>555.209</ele>
        <time>2014-05-18T10:51:13Z</time>
      </trkpt>
      <trkpt lat="43.5718" lon="5.65346">
        <ele>556.759</ele>
        <time>2014-05-18T10:51:24Z</time>
      </trkpt>
      <trkpt lat="43.57182" lon="5.65324">
        <ele>557.979</ele>
        <time>2014-05-18T10:51:33Z</time>
      </trkpt>
      <trkpt lat="43.57185" lon="5.65296">
        <ele>560.43</ele>
        <time>2014-05-18T10:51:45Z</time>
      </trkpt>
      <trkpt lat="43.57186" lon="5.65281">
        <ele>561.399</ele>
        <time>2014-05-18T10:51:52Z</time>
      </trkpt>
      <trkpt lat="43.57186" lon="5.65259">
        <ele>562.529</ele>
        <time>2014-05-18T10:52:01Z</time>
      </trkpt>
      <trkpt lat="43.57184" lon="5.65227">
        <ele>562.919</ele>
        <time>2014-05-18T10:52:12Z</time>
      </trkpt>
      <trkpt lat="43.57182" lon="5.65194">
        <ele>563.509</ele>
        <time>2014-05-18T10:52:22Z</time>
      </trkpt>
      <trkpt lat="43.5718" lon="5.65157">
        <ele>564.939</ele>
        <time>2014-05-18T10:52:34Z</time>
      </trkpt>
      <trkpt lat="43.57179" lon="5.65129">
        <ele>565.999</ele>
        <time>2014-05-18T10:52:43Z</time>
      </trkpt>
      <trkpt lat="43.57178" lon="5.65102">
        <ele>567.269</ele>
        <time>2014-05-18T10:52:52Z</time>
      </trkpt>
      <trkpt lat="43.57176" lon="5.65079">
        <ele>568.549</ele>
        <time>2014-05-18T10:53:00Z</time>
      </trkpt>
      <trkpt lat="43.57175" lon="5.65053">
        <ele>570.599</ele>
        <time>2014-05-18T10:53:09Z</time>
      </trkpt>
      <trkpt lat="43.57173" lon="5.65025">
        <ele>572.029</ele>
        <time>2014-05-18T10:53:19Z</time>
      </trkpt>
      <trkpt lat="43.57171" lon="5.65003">
        <ele>573.278</ele>
        <time>2014-05-18T10:53:27Z</time>
      </trkpt>
      <trkpt lat="43.57169" lon="5.64975">
        <ele>575.279</ele>
        <time>2014-05-18T10:53:37Z</time>
      </trkpt>
      <trkpt lat="43.57166" lon="5.64948">
        <ele>577.028</ele>
        <time>2014-05-18T10:53:47Z</time>
      </trkpt>
      <trkpt lat="43.57165" lon="5.64923">
        <ele>578.398</ele>
        <time>2014-05-18T10:53:56Z</time>
      </trkpt>
      <trkpt lat="43.5717" lon="5.64917">
        <ele>578.638</ele>
        <time>2014-05-18T10:54:01Z</time>
      </trkpt>
      <trkpt lat="43.57174" lon="5.64923">
        <ele>577.977</ele>
        <time>2014-05-18T10:54:14Z</time>
      </trkpt>
      <trkpt lat="43.57177" lon="5.64931">
        <ele>577.557</ele>
        <time>2014-05-18T10:54:16Z</time>
      </trkpt>
      <trkpt lat="43.57182" lon="5.64953">
        <ele>576.586</ele>
        <time>2014-05-18T10:54:20Z</time>
      </trkpt>
      <trkpt lat="43.57187" lon="5.64984">
        <ele>575.026</ele>
        <time>2014-05-18T10:54:25Z</time>
      </trkpt>
      <trkpt lat="43.57188" lon="5.64997">
        <ele>574.496</ele>
        <time>2014-05-18T10:54:27Z</time>
      </trkpt>
      <trkpt lat="43.57194" lon="5.65021">
        <ele>573.426</ele>
        <time>2014-05-18T10:54:31Z</time>
      </trkpt>
      <trkpt lat="43.57205" lon="5.65035">
        <ele>572.956</ele>
        <time>2014-05-18T10:54:34Z</time>
      </trkpt>
      <trkpt lat="43.57216" lon="5.65065">
        <ele>571.817</ele>
        <time>2014-05-18T10:54:39Z</time>
      </trkpt>
      <trkpt lat="43.57226" lon="5.65113">
        <ele>570.888</ele>
        <time>2014-05-18T10:54:48Z</time>
      </trkpt>
      <trkpt lat="43.57229" lon="5.65133">
        <ele>570.678</ele>
        <time>2014-05-18T10:54:54Z</time>
      </trkpt>
      <trkpt lat="43.57231" lon="5.65136">
        <ele>570.368</ele>
        <time>2014-05-18T10:55:18Z</time>
      </trkpt>
      <trkpt lat="43.57242" lon="5.65151">
        <ele>570.297</ele>
        <time>2014-05-18T10:55:24Z</time>
      </trkpt>
      <trkpt lat="43.57246" lon="5.65155">
        <ele>570.106</ele>
        <time>2014-05-18T10:55:26Z</time>
      </trkpt>
      <trkpt lat="43.57256" lon="5.65169">
        <ele>569.627</ele>
        <time>2014-05-18T10:55:30Z</time>
      </trkpt>
      <trkpt lat="43.57256" lon="5.65175">
        <ele>569.517</ele>
        <time>2014-05-18T10:55:31Z</time>
      </trkpt>
      <trkpt lat="43.57259" lon="5.65226">
        <ele>568.727</ele>
        <time>2014-05-18T10:55:40Z</time>
      </trkpt>
      <trkpt lat="43.57262" lon="5.65262">
        <ele>567.627</ele>
        <time>2014-05-18T10:55:46Z</time>
      </trkpt>
      <trkpt lat="43.57264" lon="5.65304">
        <ele>566.587</ele>
        <time>2014-05-18T10:55:52Z</time>
      </trkpt>
      <trkpt lat="43.57264" lon="5.65354">
        <ele>564.756</ele>
        <time>2014-05-18T10:55:59Z</time>
      </trkpt>
      <trkpt lat="43.57261" lon="5.65412">
        <ele>561.534</ele>
        <time>2014-05-18T10:56:06Z</time>
      </trkpt>
      <trkpt lat="43.57259" lon="5.65462">
        <ele>557.163</ele>
        <time>2014-05-18T10:56:11Z</time>
      </trkpt>
      <trkpt lat="43.57258" lon="5.65474">
        <ele>556.373</ele>
        <time>2014-05-18T10:56:12Z</time>
      </trkpt>
      <trkpt lat="43.57265" lon="5.65524">
        <ele>554.745</ele>
        <time>2014-05-18T10:56:16Z</time>
      </trkpt>
      <trkpt lat="43.57272" lon="5.65545">
        <ele>554.618</ele>
        <time>2014-05-18T10:56:18Z</time>
      </trkpt>
      <trkpt lat="43.57282" lon="5.65572">
        <ele>554.528</ele>
        <time>2014-05-18T10:56:21Z</time>
      </trkpt>
      <trkpt lat="43.57285" lon="5.65607">
        <ele>554.598</ele>
        <time>2014-05-18T10:56:25Z</time>
      </trkpt>
      <trkpt lat="43.57285" lon="5.65624">
        <ele>554.678</ele>
        <time>2014-05-18T10:56:27Z</time>
      </trkpt>
      <trkpt lat="43.57287" lon="5.6567">
        <ele>553.997</ele>
        <time>2014-05-18T10:56:33Z</time>
      </trkpt>
      <trkpt lat="43.57285" lon="5.65718">
        <ele>552.977</ele>
        <time>2014-05-18T10:56:39Z</time>
      </trkpt>
      <trkpt lat="43.57287" lon="5.65733">
        <ele>552.597</ele>
        <time>2014-05-18T10:56:41Z</time>
      </trkpt>
      <trkpt lat="43.57284" lon="5.65762">
        <ele>551.997</ele>
        <time>2014-05-18T10:56:45Z</time>
      </trkpt>
      <trkpt lat="43.57292" lon="5.65793">
        <ele>550.917</ele>
        <time>2014-05-18T10:56:49Z</time>
      </trkpt>
      <trkpt lat="43.57302" lon="5.65815">
        <ele>549.076</ele>
        <time>2014-05-18T10:56:52Z</time>
      </trkpt>
      <trkpt lat="43.57308" lon="5.65831">
        <ele>548.347</ele>
        <time>2014-05-18T10:56:54Z</time>
      </trkpt>
      <trkpt lat="43.57327" lon="5.65842">
        <ele>547.408</ele>
        <time>2014-05-18T10:56:58Z</time>
      </trkpt>
      <trkpt lat="43.57328" lon="5.6584">
        <ele>547.198</ele>
        <time>2014-05-18T10:56:59Z</time>
      </trkpt>
      <trkpt lat="43.57331" lon="5.65835">
        <ele>546.628</ele>
        <time>2014-05-18T10:57:01Z</time>
      </trkpt>
      <trkpt lat="43.5734" lon="5.65817">
        <ele>544.846</ele>
        <time>2014-05-18T10:57:05Z</time>
      </trkpt>
      <trkpt lat="43.57343" lon="5.65805">
        <ele>543.636</ele>
        <time>2014-05-18T10:57:07Z</time>
      </trkpt>
      <trkpt lat="43.57403" lon="5.65784">
        <ele>542.547</ele>
        <time>2014-05-18T10:57:11Z</time>
      </trkpt>
      <trkpt lat="43.57366" lon="5.65787">
        <ele>541.787</ele>
        <time>2014-05-18T10:57:15Z</time>
      </trkpt>
      <trkpt lat="43.57309" lon="5.65832">
        <ele>540.787</ele>
        <time>2014-05-18T10:57:18Z</time>
      </trkpt>
      <trkpt lat="43.57365" lon="5.65796">
        <ele>539.637</ele>
        <time>2014-05-18T10:57:21Z</time>
      </trkpt>
      <trkpt lat="43.57368" lon="5.65774">
        <ele>538.987</ele>
        <time>2014-05-18T10:57:25Z</time>
      </trkpt>
      <trkpt lat="43.57371" lon="5.65762">
        <ele>538.026</ele>
        <time>2014-05-18T10:57:27Z</time>
      </trkpt>
      <trkpt lat="43.57391" lon="5.65711">
        <ele>533.796</ele>
        <time>2014-05-18T10:57:34Z</time>
      </trkpt>
      <trkpt lat="43.57393" lon="5.65703">
        <ele>533.345</ele>
        <time>2014-05-18T10:57:35Z</time>
      </trkpt>
      <trkpt lat="43.57397" lon="5.65661">
        <ele>531.876</ele>
        <time>2014-05-18T10:57:40Z</time>
      </trkpt>
      <trkpt lat="43.57399" lon="5.65644">
        <ele>531.267</ele>
        <time>2014-05-18T10:57:42Z</time>
      </trkpt>
      <trkpt lat="43.57405" lon="5.65627">
        <ele>530.887</ele>
        <time>2014-05-18T10:57:44Z</time>
      </trkpt>
      <trkpt lat="43.5741" lon="5.65603">
        <ele>531.88</ele>
        <time>2014-05-18T10:57:48Z</time>
      </trkpt>
      <trkpt lat="43.57411" lon="5.656">
        <ele>532.41</ele>
        <time>2014-05-18T10:57:52Z</time>
      </trkpt>
      <trkpt lat="43.57507" lon="5.65608">
        <ele>564.621</ele>
        <time>2014-05-18T11:00:58Z</time>
      </trkpt>
      <trkpt lat="43.57526" lon="5.6561">
        <ele>562.799</ele>
        <time>2014-05-18T11:01:27Z</time>
      </trkpt>
      <trkpt lat="43.5754" lon="5.65611">
        <ele>563.941</ele>
        <time>2014-05-18T11:01:50Z</time>
      </trkpt>
      <trkpt lat="43.57541" lon="5.65611">
        <ele>566.292</ele>
        <time>2014-05-18T11:01:59Z</time>
      </trkpt>
      <trkpt lat="43.57543" lon="5.65611">
        <ele>567.891</ele>
        <time>2014-05-18T11:02:09Z</time>
      </trkpt>
      <trkpt lat="43.57578" lon="5.65607">
        <ele>572.481</ele>
        <time>2014-05-18T11:02:36Z</time>
      </trkpt>
      <trkpt lat="43.57582" lon="5.65605">
        <ele>573.271</ele>
        <time>2014-05-18T11:02:45Z</time>
      </trkpt>
      <trkpt lat="43.57592" lon="5.65603">
        <ele>573.211</ele>
        <time>2014-05-18T11:02:53Z</time>
      </trkpt>
      <trkpt lat="43.576" lon="5.65602">
        <ele>572.74</ele>
        <time>2014-05-18T11:03:00Z</time>
      </trkpt>
      <trkpt lat="43.57618" lon="5.65601">
        <ele>575.661</ele>
        <time>2014-05-18T11:03:26Z</time>
      </trkpt>
      <trkpt lat="43.57659" lon="5.65599">
        <ele>584.94</ele>
        <time>2014-05-18T11:04:30Z</time>
      </trkpt>
      <trkpt lat="43.57667" lon="5.65599">
        <ele>585.001</ele>
        <time>2014-05-18T11:04:48Z</time>
      </trkpt>
      <trkpt lat="43.5768" lon="5.65595">
        <ele>585.791</ele>
        <time>2014-05-18T11:04:59Z</time>
      </trkpt>
      <trkpt lat="43.57681" lon="5.65595">
        <ele>586.812</ele>
        <time>2014-05-18T11:05:02Z</time>
      </trkpt>
      <trkpt lat="43.57684" lon="5.65594">
        <ele>587.682</ele>
        <time>2014-05-18T11:05:04Z</time>
      </trkpt>
      <trkpt lat="43.57686" lon="5.65594">
        <ele>588.443</ele>
        <time>2014-05-18T11:05:06Z</time>
      </trkpt>
      <trkpt lat="43.57694" lon="5.65592">
        <ele>589.38</ele>
        <time>2014-05-18T11:05:16Z</time>
      </trkpt>
      <trkpt lat="43.5772" lon="5.65584">
        <ele>592.341</ele>
        <time>2014-05-18T11:05:56Z</time>
      </trkpt>
      <trkpt lat="43.57766" lon="5.65585">
        <ele>601.59</ele>
        <time>2014-05-18T11:07:32Z</time>
      </trkpt>
      <trkpt lat="43.57774" lon="5.65576">
        <ele>602.491</ele>
        <time>2014-05-18T11:13:29Z</time>
      </trkpt>
      <trkpt lat="43.57777" lon="5.65575">
        <ele>602.97</ele>
        <time>2014-05-18T11:13:37Z</time>
      </trkpt>
      <trkpt lat="43.57789" lon="5.65575">
        <ele>602.019</ele>
        <time>2014-05-18T11:13:55Z</time>
      </trkpt>
      <trkpt lat="43.57797" lon="5.65579">
        <ele>600.358</ele>
        <time>2014-05-18T11:14:01Z</time>
      </trkpt>
      <trkpt lat="43.57805" lon="5.65586">
        <ele>597.486</ele>
        <time>2014-05-18T11:14:05Z</time>
      </trkpt>
      <trkpt lat="43.57819" lon="5.65588">
        <ele>592.525</ele>
        <time>2014-05-18T11:14:11Z</time>
      </trkpt>
      <trkpt lat="43.5782" lon="5.65587">
        <ele>591.755</ele>
        <time>2014-05-18T11:14:12Z</time>
      </trkpt>
      <trkpt lat="43.57827" lon="5.65574">
        <ele>587.475</ele>
        <time>2014-05-18T11:14:18Z</time>
      </trkpt>
      <trkpt lat="43.57835" lon="5.65561">
        <ele>583.695</ele>
        <time>2014-05-18T11:14:23Z</time>
      </trkpt>
      <trkpt lat="43.57837" lon="5.65558">
        <ele>582.436</ele>
        <time>2014-05-18T11:14:25Z</time>
      </trkpt>
      <trkpt lat="43.57851" lon="5.65542">
        <ele>576.273</ele>
        <time>2014-05-18T11:14:32Z</time>
      </trkpt>
      <trkpt lat="43.57854" lon="5.65539">
        <ele>575.292</ele>
        <time>2014-05-18T11:14:33Z</time>
      </trkpt>
      <trkpt lat="43.57867" lon="5.65526">
        <ele>571.814</ele>
        <time>2014-05-18T11:14:37Z</time>
      </trkpt>
      <trkpt lat="43.57876" lon="5.65517">
        <ele>570.255</ele>
        <time>2014-05-18T11:14:40Z</time>
      </trkpt>
      <trkpt lat="43.57889" lon="5.65507">
        <ele>566.716</ele>
        <time>2014-05-18T11:14:45Z</time>
      </trkpt>
      <trkpt lat="43.57895" lon="5.65503">
        <ele>565.826</ele>
        <time>2014-05-18T11:14:47Z</time>
      </trkpt>
      <trkpt lat="43.57898" lon="5.655">
        <ele>564.766</ele>
        <time>2014-05-18T11:14:49Z</time>
      </trkpt>
      <trkpt lat="43.57916" lon="5.65482">
        <ele>560.825</ele>
        <time>2014-05-18T11:14:55Z</time>
      </trkpt>
      <trkpt lat="43.57926" lon="5.65472">
        <ele>558.437</ele>
        <time>2014-05-18T11:15:00Z</time>
      </trkpt>
      <trkpt lat="43.57929" lon="5.65468">
        <ele>557.877</ele>
        <time>2014-05-18T11:15:01Z</time>
      </trkpt>
      <trkpt lat="43.57935" lon="5.6544">
        <ele>556.058</ele>
        <time>2014-05-18T11:15:07Z</time>
      </trkpt>
      <trkpt lat="43.57936" lon="5.65437">
        <ele>555.328</ele>
        <time>2014-05-18T11:15:08Z</time>
      </trkpt>
      <trkpt lat="43.57995" lon="5.65484">
        <ele>551.686</ele>
        <time>2014-05-18T11:15:13Z</time>
      </trkpt>
      <trkpt lat="43.57972" lon="5.65415">
        <ele>548.946</ele>
        <time>2014-05-18T11:15:17Z</time>
      </trkpt>
      <trkpt lat="43.5798" lon="5.65416">
        <ele>546.536</ele>
        <time>2014-05-18T11:15:21Z</time>
      </trkpt>
      <trkpt lat="43.57986" lon="5.65417">
        <ele>545.287</ele>
        <time>2014-05-18T11:15:25Z</time>
      </trkpt>
      <trkpt lat="43.57994" lon="5.6542">
        <ele>544.057</ele>
        <time>2014-05-18T11:15:27Z</time>
      </trkpt>
      <trkpt lat="43.58006" lon="5.65425">
        <ele>542.136</ele>
        <time>2014-05-18T11:15:30Z</time>
      </trkpt>
      <trkpt lat="43.58018" lon="5.65428">
        <ele>539.054</ele>
        <time>2014-05-18T11:15:34Z</time>
      </trkpt>
      <trkpt lat="43.58021" lon="5.65429">
        <ele>538.475</ele>
        <time>2014-05-18T11:15:35Z</time>
      </trkpt>
      <trkpt lat="43.58023" lon="5.65429">
        <ele>533.775</ele>
        <time>2014-05-18T11:15:39Z</time>
      </trkpt>
      <trkpt lat="43.58028" lon="5.65415">
        <ele>531.229</ele>
        <time>2014-05-18T11:15:48Z</time>
      </trkpt>
      <trkpt lat="43.58031" lon="5.65399">
        <ele>529.947</ele>
        <time>2014-05-18T11:15:53Z</time>
      </trkpt>
      <trkpt lat="43.58032" lon="5.65392">
        <ele>529.257</ele>
        <time>2014-05-18T11:15:54Z</time>
      </trkpt>
      <trkpt lat="43.58041" lon="5.65353">
        <ele>524.084</ele>
        <time>2014-05-18T11:15:59Z</time>
      </trkpt>
      <trkpt lat="43.58052" lon="5.65325">
        <ele>518.353</ele>
        <time>2014-05-18T11:16:03Z</time>
      </trkpt>
      <trkpt lat="43.58069" lon="5.65313">
        <ele>515.354</ele>
        <time>2014-05-18T11:16:06Z</time>
      </trkpt>
      <trkpt lat="43.58078" lon="5.65319">
        <ele>513.945</ele>
        <time>2014-05-18T11:16:08Z</time>
      </trkpt>
      <trkpt lat="43.58103" lon="5.65315">
        <ele>509.575</ele>
        <time>2014-05-18T11:16:13Z</time>
      </trkpt>
      <trkpt lat="43.5811" lon="5.65299">
        <ele>505.654</ele>
        <time>2014-05-18T11:16:16Z</time>
      </trkpt>
      <trkpt lat="43.58115" lon="5.65279">
        <ele>500.717</ele>
        <time>2014-05-18T11:16:20Z</time>
      </trkpt>
      <trkpt lat="43.58137" lon="5.65235">
        <ele>497.566</ele>
        <time>2014-05-18T11:16:25Z</time>
      </trkpt>
      <trkpt lat="43.58168" lon="5.65196">
        <ele>494.056</ele>
        <time>2014-05-18T11:16:31Z</time>
      </trkpt>
      <trkpt lat="43.58178" lon="5.65188">
        <ele>492.896</ele>
        <time>2014-05-18T11:16:33Z</time>
      </trkpt>
      <trkpt lat="43.58194" lon="5.65168">
        <ele>488.115</ele>
        <time>2014-05-18T11:16:37Z</time>
      </trkpt>
      <trkpt lat="43.58216" lon="5.65152">
        <ele>482.975</ele>
        <time>2014-05-18T11:16:42Z</time>
      </trkpt>
      <trkpt lat="43.58239" lon="5.65136">
        <ele>478.864</ele>
        <time>2014-05-18T11:16:46Z</time>
      </trkpt>
      <trkpt lat="43.58254" lon="5.65121">
        <ele>475.345</ele>
        <time>2014-05-18T11:16:50Z</time>
      </trkpt>
      <trkpt lat="43.58265" lon="5.65131">
        <ele>472.564</ele>
        <time>2014-05-18T11:16:53Z</time>
      </trkpt>
      <trkpt lat="43.5828" lon="5.65124">
        <ele>469.044</ele>
        <time>2014-05-18T11:16:56Z</time>
      </trkpt>
      <trkpt lat="43.58313" lon="5.65111">
        <ele>463.494</ele>
        <time>2014-05-18T11:17:01Z</time>
      </trkpt>
      <trkpt lat="43.58323" lon="5.65095">
        <ele>461.456</ele>
        <time>2014-05-18T11:17:04Z</time>
      </trkpt>
      <trkpt lat="43.58323" lon="5.65081">
        <ele>460.626</ele>
        <time>2014-05-18T11:17:06Z</time>
      </trkpt>
      <trkpt lat="43.58322" lon="5.65062">
        <ele>459.026</ele>
        <time>2014-05-18T11:17:08Z</time>
      </trkpt>
      <trkpt lat="43.58326" lon="5.65023">
        <ele>456.006</ele>
        <time>2014-05-18T11:17:12Z</time>
      </trkpt>
      <trkpt lat="43.5833" lon="5.65014">
        <ele>454.786</ele>
        <time>2014-05-18T11:17:13Z</time>
      </trkpt>
      <trkpt lat="43.58345" lon="5.64989">
        <ele>450.364</ele>
        <time>2014-05-18T11:17:16Z</time>
      </trkpt>
      <trkpt lat="43.58363" lon="5.64955">
        <ele>447.315</ele>
        <time>2014-05-18T11:17:20Z</time>
      </trkpt>
      <trkpt lat="43.5839" lon="5.6491">
        <ele>444.056</ele>
        <time>2014-05-18T11:17:26Z</time>
      </trkpt>
      <trkpt lat="43.58395" lon="5.64903">
        <ele>443.717</ele>
        <time>2014-05-18T11:17:27Z</time>
      </trkpt>
      <trkpt lat="43.58417" lon="5.64869">
        <ele>446.43</ele>
        <time>2014-05-18T11:17:32Z</time>
      </trkpt>
      <trkpt lat="43.58422" lon="5.64855">
        <ele>446.99</ele>
        <time>2014-05-18T11:17:34Z</time>
      </trkpt>
      <trkpt lat="43.58429" lon="5.64825">
        <ele>446.519</ele>
        <time>2014-05-18T11:17:38Z</time>
      </trkpt>
      <trkpt lat="43.58427" lon="5.64806">
        <ele>446.94</ele>
        <time>2014-05-18T11:17:41Z</time>
      </trkpt>
      <trkpt lat="43.58427" lon="5.648">
        <ele>447.09</ele>
        <time>2014-05-18T11:17:42Z</time>
      </trkpt>
      <trkpt lat="43.58431" lon="5.64786">
        <ele>445.989</ele>
        <time>2014-05-18T11:17:48Z</time>
      </trkpt>
      <trkpt lat="43.58441" lon="5.6478">
        <ele>444.639</ele>
        <time>2014-05-18T11:17:53Z</time>
      </trkpt>
      <trkpt lat="43.58451" lon="5.64776">
        <ele>441.648</ele>
        <time>2014-05-18T11:17:56Z</time>
      </trkpt>
      <trkpt lat="43.58469" lon="5.64768">
        <ele>439.738</ele>
        <time>2014-05-18T11:18:00Z</time>
      </trkpt>
      <trkpt lat="43.58492" lon="5.64765">
        <ele>437.867</ele>
        <time>2014-05-18T11:18:04Z</time>
      </trkpt>
      <trkpt lat="43.58514" lon="5.64776">
        <ele>436.347</ele>
        <time>2014-05-18T11:18:07Z</time>
      </trkpt>
      <trkpt lat="43.58532" lon="5.64781">
        <ele>434.146</ele>
        <time>2014-05-18T11:18:09Z</time>
      </trkpt>
      <trkpt lat="43.58551" lon="5.64785">
        <ele>431.585</ele>
        <time>2014-05-18T11:18:11Z</time>
      </trkpt>
      <trkpt lat="43.58579" lon="5.64786">
        <ele>428.897</ele>
        <time>2014-05-18T11:18:15Z</time>
      </trkpt>
      <trkpt lat="43.58581" lon="5.64785">
        <ele>426.666</ele>
        <time>2014-05-18T11:18:19Z</time>
      </trkpt>
      <trkpt lat="43.58597" lon="5.64752">
        <ele>423.619</ele>
        <time>2014-05-18T11:18:27Z</time>
      </trkpt>
      <trkpt lat="43.58602" lon="5.64729">
        <ele>423.019</ele>
        <time>2014-05-18T11:18:32Z</time>
      </trkpt>
      <trkpt lat="43.58604" lon="5.64717">
        <ele>423.57</ele>
        <time>2014-05-18T11:18:36Z</time>
      </trkpt>
      <trkpt lat="43.58605" lon="5.64706">
        <ele>425.44</ele>
        <time>2014-05-18T11:20:26Z</time>
      </trkpt>
      <trkpt lat="43.58608" lon="5.64673">
        <ele>426</ele>
        <time>2014-05-18T11:20:34Z</time>
      </trkpt>
      <trkpt lat="43.58611" lon="5.64644">
        <ele>424.699</ele>
        <time>2014-05-18T11:20:39Z</time>
      </trkpt>
      <trkpt lat="43.58619" lon="5.64619">
        <ele>423.298</ele>
        <time>2014-05-18T11:20:43Z</time>
      </trkpt>
      <trkpt lat="43.58635" lon="5.64602">
        <ele>420.429</ele>
        <time>2014-05-18T11:20:47Z</time>
      </trkpt>
      <trkpt lat="43.58637" lon="5.6459">
        <ele>419.069</ele>
        <time>2014-05-18T11:20:49Z</time>
      </trkpt>
      <trkpt lat="43.58637" lon="5.64556">
        <ele>417.4</ele>
        <time>2014-05-18T11:20:55Z</time>
      </trkpt>
      <trkpt lat="43.58637" lon="5.64531">
        <ele>419.822</ele>
        <time>2014-05-18T11:21:01Z</time>
      </trkpt>
      <trkpt lat="43.58633" lon="5.64515">
        <ele>423.202</ele>
        <time>2014-05-18T11:21:07Z</time>
      </trkpt>
      <trkpt lat="43.58623" lon="5.64502">
        <ele>423.951</ele>
        <time>2014-05-18T11:21:14Z</time>
      </trkpt>
      <trkpt lat="43.58615" lon="5.64485">
        <ele>424.701</ele>
        <time>2014-05-18T11:21:23Z</time>
      </trkpt>
      <trkpt lat="43.58609" lon="5.64474">
        <ele>426.311</ele>
        <time>2014-05-18T11:21:31Z</time>
      </trkpt>
      <trkpt lat="43.58602" lon="5.64464">
        <ele>428.262</ele>
        <time>2014-05-18T11:21:39Z</time>
      </trkpt>
      <trkpt lat="43.58594" lon="5.64444">
        <ele>429.27</ele>
        <time>2014-05-18T11:21:50Z</time>
      </trkpt>
      <trkpt lat="43.58587" lon="5.6442">
        <ele>430.49</ele>
        <time>2014-05-18T11:22:02Z</time>
      </trkpt>
      <trkpt lat="43.58581" lon="5.64401">
        <ele>431.88</ele>
        <time>2014-05-18T11:22:11Z</time>
      </trkpt>
      <trkpt lat="43.58579" lon="5.6438">
        <ele>435.351</ele>
        <time>2014-05-18T11:22:20Z</time>
      </trkpt>
      <trkpt lat="43.58576" lon="5.64358">
        <ele>434.53</ele>
        <time>2014-05-18T11:22:29Z</time>
      </trkpt>
      <trkpt lat="43.58573" lon="5.64336">
        <ele>435.01</ele>
        <time>2014-05-18T11:22:38Z</time>
      </trkpt>
      <trkpt lat="43.58574" lon="5.64318">
        <ele>438.591</ele>
        <time>2014-05-18T11:22:46Z</time>
      </trkpt>
      <trkpt lat="43.5858" lon="5.64301">
        <ele>437.79</ele>
        <time>2014-05-18T11:22:54Z</time>
      </trkpt>
      <trkpt lat="43.58583" lon="5.64284">
        <ele>438.58</ele>
        <time>2014-05-18T11:23:03Z</time>
      </trkpt>
      <trkpt lat="43.58585" lon="5.64267">
        <ele>440.24</ele>
        <time>2014-05-18T11:23:12Z</time>
      </trkpt>
      <trkpt lat="43.58586" lon="5.64254">
        <ele>441.41</ele>
        <time>2014-05-18T11:23:19Z</time>
      </trkpt>
      <trkpt lat="43.58585" lon="5.64238">
        <ele>443.19</ele>
        <time>2014-05-18T11:23:28Z</time>
      </trkpt>
      <trkpt lat="43.58581" lon="5.64218">
        <ele>443.909</ele>
        <time>2014-05-18T11:23:38Z</time>
      </trkpt>
      <trkpt lat="43.58577" lon="5.64197">
        <ele>443.65</ele>
        <time>2014-05-18T11:23:48Z</time>
      </trkpt>
      <trkpt lat="43.58573" lon="5.64184">
        <ele>444.27</ele>
        <time>2014-05-18T11:23:54Z</time>
      </trkpt>
      <trkpt lat="43.5857" lon="5.6417">
        <ele>445.71</ele>
        <time>2014-05-18T11:24:00Z</time>
      </trkpt>
      <trkpt lat="43.58563" lon="5.64146">
        <ele>447.119</ele>
        <time>2014-05-18T11:24:10Z</time>
      </trkpt>
      <trkpt lat="43.58555" lon="5.64118">
        <ele>449.249</ele>
        <time>2014-05-18T11:24:21Z</time>
      </trkpt>
      <trkpt lat="43.58558" lon="5.64098">
        <ele>450.9</ele>
        <time>2014-05-18T11:24:28Z</time>
      </trkpt>
      <trkpt lat="43.58568" lon="5.64092">
        <ele>451.079</ele>
        <time>2014-05-18T11:24:35Z</time>
      </trkpt>
      <trkpt lat="43.58573" lon="5.6409">
        <ele>449.848</ele>
        <time>2014-05-18T11:24:41Z</time>
      </trkpt>
      <trkpt lat="43.586" lon="5.64091">
        <ele>448.957</ele>
        <time>2014-05-18T11:24:45Z</time>
      </trkpt>
      <trkpt lat="43.58626" lon="5.64079">
        <ele>448.317</ele>
        <time>2014-05-18T11:24:50Z</time>
      </trkpt>
      <trkpt lat="43.5863" lon="5.64073">
        <ele>448.197</ele>
        <time>2014-05-18T11:24:51Z</time>
      </trkpt>
      <trkpt lat="43.58641" lon="5.64051">
        <ele>447.817</ele>
        <time>2014-05-18T11:24:54Z</time>
      </trkpt>
      <trkpt lat="43.58653" lon="5.64017">
        <ele>447.137</ele>
        <time>2014-05-18T11:24:58Z</time>
      </trkpt>
      <trkpt lat="43.58656" lon="5.63944">
        <ele>445.617</ele>
        <time>2014-05-18T11:25:05Z</time>
      </trkpt>
      <trkpt lat="43.58659" lon="5.6391">
        <ele>445.006</ele>
        <time>2014-05-18T11:25:08Z</time>
      </trkpt>
      <trkpt lat="43.5867" lon="5.63875">
        <ele>441.535</ele>
        <time>2014-05-18T11:25:11Z</time>
      </trkpt>
      <trkpt lat="43.58688" lon="5.63871">
        <ele>438.815</ele>
        <time>2014-05-18T11:25:13Z</time>
      </trkpt>
      <trkpt lat="43.58702" lon="5.63882">
        <ele>436.635</ele>
        <time>2014-05-18T11:25:15Z</time>
      </trkpt>
      <trkpt lat="43.58715" lon="5.63912">
        <ele>433.395</ele>
        <time>2014-05-18T11:25:18Z</time>
      </trkpt>
      <trkpt lat="43.58716" lon="5.63946">
        <ele>431.065</ele>
        <time>2014-05-18T11:25:21Z</time>
      </trkpt>
      <trkpt lat="43.58722" lon="5.63995">
        <ele>428.725</ele>
        <time>2014-05-18T11:25:25Z</time>
      </trkpt>
      <trkpt lat="43.58728" lon="5.64004">
        <ele>428.075</ele>
        <time>2014-05-18T11:25:26Z</time>
      </trkpt>
      <trkpt lat="43.58764" lon="5.64052">
        <ele>425.386</ele>
        <time>2014-05-18T11:25:32Z</time>
      </trkpt>
      <trkpt lat="43.58788" lon="5.641">
        <ele>422.926</ele>
        <time>2014-05-18T11:25:37Z</time>
      </trkpt>
      <trkpt lat="43.58791" lon="5.64111">
        <ele>422.386</ele>
        <time>2014-05-18T11:25:38Z</time>
      </trkpt>
      <trkpt lat="43.58816" lon="5.64172">
        <ele>418.705</ele>
        <time>2014-05-18T11:25:44Z</time>
      </trkpt>
      <trkpt lat="43.58823" lon="5.6418">
        <ele>418.246</ele>
        <time>2014-05-18T11:25:45Z</time>
      </trkpt>
      <trkpt lat="43.58876" lon="5.64222">
        <ele>416.586</ele>
        <time>2014-05-18T11:25:52Z</time>
      </trkpt>
      <trkpt lat="43.58918" lon="5.64239">
        <ele>414.676</ele>
        <time>2014-05-18T11:25:57Z</time>
      </trkpt>
      <trkpt lat="43.58952" lon="5.64242">
        <ele>413.076</ele>
        <time>2014-05-18T11:26:01Z</time>
      </trkpt>
      <trkpt lat="43.58978" lon="5.64236">
        <ele>410.856</ele>
        <time>2014-05-18T11:26:04Z</time>
      </trkpt>
      <trkpt lat="43.58989" lon="5.64219">
        <ele>410.266</ele>
        <time>2014-05-18T11:26:06Z</time>
      </trkpt>
      <trkpt lat="43.59001" lon="5.64176">
        <ele>408.316</ele>
        <time>2014-05-18T11:26:10Z</time>
      </trkpt>
      <trkpt lat="43.59008" lon="5.64176">
        <ele>407.377</ele>
        <time>2014-05-18T11:26:12Z</time>
      </trkpt>
      <trkpt lat="43.59044" lon="5.64223">
        <ele>404.498</ele>
        <time>2014-05-18T11:26:18Z</time>
      </trkpt>
      <trkpt lat="43.59067" lon="5.64252">
        <ele>403.439</ele>
        <time>2014-05-18T11:26:23Z</time>
      </trkpt>
      <trkpt lat="43.59084" lon="5.64258">
        <ele>403.44</ele>
        <time>2014-05-18T11:26:27Z</time>
      </trkpt>
      <trkpt lat="43.59096" lon="5.6425">
        <ele>405.371</ele>
        <time>2014-05-18T11:26:31Z</time>
      </trkpt>
      <trkpt lat="43.59098" lon="5.64249">
        <ele>406.21</ele>
        <time>2014-05-18T11:26:36Z</time>
      </trkpt>
      <trkpt lat="43.59102" lon="5.64246">
        <ele>406.28</ele>
        <time>2014-05-18T11:26:40Z</time>
      </trkpt>
      <trkpt lat="43.59106" lon="5.64243">
        <ele>406.561</ele>
        <time>2014-05-18T11:26:43Z</time>
      </trkpt>
      <trkpt lat="43.59108" lon="5.64241">
        <ele>406.61</ele>
        <time>2014-05-18T11:26:46Z</time>
      </trkpt>
      <trkpt lat="43.5911" lon="5.64239">
        <ele>406.07</ele>
        <time>2014-05-18T11:26:53Z</time>
      </trkpt>
      <trkpt lat="43.59107" lon="5.64242">
        <ele>408.762</ele>
        <time>2014-05-18T11:26:59Z</time>
      </trkpt>
      <trkpt lat="43.59104" lon="5.64245">
        <ele>403.959</ele>
        <time>2014-05-18T11:28:21Z</time>
      </trkpt>
      <trkpt lat="43.59115" lon="5.64234">
        <ele>404.72</ele>
        <time>2014-05-18T11:29:03Z</time>
      </trkpt>
      <trkpt lat="43.59125" lon="5.64226">
        <ele>405.831</ele>
        <time>2014-05-18T11:29:10Z</time>
      </trkpt>
      <trkpt lat="43.59137" lon="5.6422">
        <ele>407.211</ele>
        <time>2014-05-18T11:29:17Z</time>
      </trkpt>
      <trkpt lat="43.59154" lon="5.6421">
        <ele>408.971</ele>
        <time>2014-05-18T11:29:27Z</time>
      </trkpt>
      <trkpt lat="43.5917" lon="5.64199">
        <ele>410.161</ele>
        <time>2014-05-18T11:29:37Z</time>
      </trkpt>
      <trkpt lat="43.59182" lon="5.64192">
        <ele>411.692</ele>
        <time>2014-05-18T11:29:45Z</time>
      </trkpt>
      <trkpt lat="43.59194" lon="5.64185">
        <ele>413.501</ele>
        <time>2014-05-18T11:29:54Z</time>
      </trkpt>
      <trkpt lat="43.59207" lon="5.64176">
        <ele>415.191</ele>
        <time>2014-05-18T11:30:03Z</time>
      </trkpt>
      <trkpt lat="43.59217" lon="5.64163">
        <ele>416.36</ele>
        <time>2014-05-18T11:30:13Z</time>
      </trkpt>
      <trkpt lat="43.59222" lon="5.64152">
        <ele>417.212</ele>
        <time>2014-05-18T11:30:19Z</time>
      </trkpt>
      <trkpt lat="43.59229" lon="5.64135">
        <ele>418.6</ele>
        <time>2014-05-18T11:30:29Z</time>
      </trkpt>
      <trkpt lat="43.59237" lon="5.64124">
        <ele>419.58</ele>
        <time>2014-05-18T11:30:37Z</time>
      </trkpt>
      <trkpt lat="43.59243" lon="5.64087">
        <ele>421.001</ele>
        <time>2014-05-18T11:30:47Z</time>
      </trkpt>
      <trkpt lat="43.59255" lon="5.64099">
        <ele>422.591</ele>
        <time>2014-05-18T11:30:56Z</time>
      </trkpt>
      <trkpt lat="43.59226" lon="5.64072">
        <ele>423.321</ele>
        <time>2014-05-18T11:31:04Z</time>
      </trkpt>
      <trkpt lat="43.59221" lon="5.6405">
        <ele>425.631</ele>
        <time>2014-05-18T11:31:14Z</time>
      </trkpt>
      <trkpt lat="43.59215" lon="5.64033">
        <ele>426.931</ele>
        <time>2014-05-18T11:31:22Z</time>
      </trkpt>
      <trkpt lat="43.59203" lon="5.64018">
        <ele>428.571</ele>
        <time>2014-05-18T11:31:32Z</time>
      </trkpt>
      <trkpt lat="43.59189" lon="5.64006">
        <ele>430.211</ele>
        <time>2014-05-18T11:31:43Z</time>
      </trkpt>
      <trkpt lat="43.59176" lon="5.63994">
        <ele>431.601</ele>
        <time>2014-05-18T11:31:52Z</time>
      </trkpt>
      <trkpt lat="43.59168" lon="5.63981">
        <ele>433.181</ele>
        <time>2014-05-18T11:32:00Z</time>
      </trkpt>
      <trkpt lat="43.59161" lon="5.63968">
        <ele>434.081</ele>
        <time>2014-05-18T11:32:07Z</time>
      </trkpt>
      <trkpt lat="43.59154" lon="5.63948">
        <ele>436.31</ele>
        <time>2014-05-18T11:32:17Z</time>
      </trkpt>
      <trkpt lat="43.59152" lon="5.63924">
        <ele>437.25</ele>
        <time>2014-05-18T11:32:28Z</time>
      </trkpt>
      <trkpt lat="43.59154" lon="5.63903">
        <ele>437.91</ele>
        <time>2014-05-18T11:32:36Z</time>
      </trkpt>
      <trkpt lat="43.59156" lon="5.63874">
        <ele>438.49</ele>
        <time>2014-05-18T11:32:48Z</time>
      </trkpt>
      <trkpt lat="43.5916" lon="5.63849">
        <ele>439.7</ele>
        <time>2014-05-18T11:32:59Z</time>
      </trkpt>
      <trkpt lat="43.59169" lon="5.63832">
        <ele>440.36</ele>
        <time>2014-05-18T11:33:07Z</time>
      </trkpt>
      <trkpt lat="43.59183" lon="5.63821">
        <ele>441.67</ele>
        <time>2014-05-18T11:33:15Z</time>
      </trkpt>
      <trkpt lat="43.59196" lon="5.63802">
        <ele>443.2</ele>
        <time>2014-05-18T11:33:25Z</time>
      </trkpt>
      <trkpt lat="43.59204" lon="5.63773">
        <ele>445.32</ele>
        <time>2014-05-18T11:33:37Z</time>
      </trkpt>
      <trkpt lat="43.59208" lon="5.63747">
        <ele>447.13</ele>
        <time>2014-05-18T11:33:47Z</time>
      </trkpt>
      <trkpt lat="43.59209" lon="5.63717">
        <ele>447.84</ele>
        <time>2014-05-18T11:33:58Z</time>
      </trkpt>
      <trkpt lat="43.59208" lon="5.63697">
        <ele>448.54</ele>
        <time>2014-05-18T11:34:05Z</time>
      </trkpt>
      <trkpt lat="43.59203" lon="5.63678">
        <ele>450.2</ele>
        <time>2014-05-18T11:34:14Z</time>
      </trkpt>
      <trkpt lat="43.59199" lon="5.63666">
        <ele>451.98</ele>
        <time>2014-05-18T11:34:21Z</time>
      </trkpt>
      <trkpt lat="43.59191" lon="5.63648">
        <ele>453.039</ele>
        <time>2014-05-18T11:34:30Z</time>
      </trkpt>
      <trkpt lat="43.59181" lon="5.63631">
        <ele>454.66</ele>
        <time>2014-05-18T11:34:40Z</time>
      </trkpt>
      <trkpt lat="43.5917" lon="5.63611">
        <ele>456.199</ele>
        <time>2014-05-18T11:34:51Z</time>
      </trkpt>
      <trkpt lat="43.59166" lon="5.63597">
        <ele>456.439</ele>
        <time>2014-05-18T11:34:57Z</time>
      </trkpt>
      <trkpt lat="43.59157" lon="5.6358">
        <ele>456.429</ele>
        <time>2014-05-18T11:35:03Z</time>
      </trkpt>
      <trkpt lat="43.59151" lon="5.63574">
        <ele>455.757</ele>
        <time>2014-05-18T11:35:06Z</time>
      </trkpt>
      <trkpt lat="43.59135" lon="5.63553">
        <ele>454.478</ele>
        <time>2014-05-18T11:35:11Z</time>
      </trkpt>
      <trkpt lat="43.59127" lon="5.63537">
        <ele>455.449</ele>
        <time>2014-05-18T11:35:15Z</time>
      </trkpt>
      <trkpt lat="43.59121" lon="5.63525">
        <ele>457.25</ele>
        <time>2014-05-18T11:35:21Z</time>
      </trkpt>
      <trkpt lat="43.59114" lon="5.63512">
        <ele>459.299</ele>
        <time>2014-05-18T11:35:30Z</time>
      </trkpt>
      <trkpt lat="43.59107" lon="5.63501">
        <ele>460.999</ele>
        <time>2014-05-18T11:35:39Z</time>
      </trkpt>
      <trkpt lat="43.591" lon="5.63492">
        <ele>462.419</ele>
        <time>2014-05-18T11:35:47Z</time>
      </trkpt>
      <trkpt lat="43.59094" lon="5.6348">
        <ele>463.148</ele>
        <time>2014-05-18T11:35:55Z</time>
      </trkpt>
      <trkpt lat="43.59086" lon="5.63465">
        <ele>464.269</ele>
        <time>2014-05-18T11:36:05Z</time>
      </trkpt>
      <trkpt lat="43.59075" lon="5.63448">
        <ele>465.889</ele>
        <time>2014-05-18T11:36:17Z</time>
      </trkpt>
      <trkpt lat="43.59067" lon="5.63439">
        <ele>467.149</ele>
        <time>2014-05-18T11:36:25Z</time>
      </trkpt>
      <trkpt lat="43.59056" lon="5.63431">
        <ele>469.189</ele>
        <time>2014-05-18T11:36:34Z</time>
      </trkpt>
      <trkpt lat="43.59045" lon="5.6343">
        <ele>470.979</ele>
        <time>2014-05-18T11:36:42Z</time>
      </trkpt>
      <trkpt lat="43.59033" lon="5.63432">
        <ele>472.809</ele>
        <time>2014-05-18T11:36:52Z</time>
      </trkpt>
      <trkpt lat="43.59019" lon="5.63433">
        <ele>474.698</ele>
        <time>2014-05-18T11:37:03Z</time>
      </trkpt>
      <trkpt lat="43.59009" lon="5.63435">
        <ele>475.659</ele>
        <time>2014-05-18T11:37:11Z</time>
      </trkpt>
      <trkpt lat="43.59" lon="5.63438">
        <ele>477.039</ele>
        <time>2014-05-18T11:37:20Z</time>
      </trkpt>
      <trkpt lat="43.58989" lon="5.63441">
        <ele>478.889</ele>
        <time>2014-05-18T11:37:30Z</time>
      </trkpt>
      <trkpt lat="43.58982" lon="5.63439">
        <ele>479.968</ele>
        <time>2014-05-18T11:37:37Z</time>
      </trkpt>
      <trkpt lat="43.58981" lon="5.63428">
        <ele>481.489</ele>
        <time>2014-05-18T11:37:45Z</time>
      </trkpt>
      <trkpt lat="43.58977" lon="5.63414">
        <ele>483.839</ele>
        <time>2014-05-18T11:37:56Z</time>
      </trkpt>
      <trkpt lat="43.58974" lon="5.63402">
        <ele>485.019</ele>
        <time>2014-05-18T11:38:05Z</time>
      </trkpt>
      <trkpt lat="43.58972" lon="5.63397">
        <ele>485.609</ele>
        <time>2014-05-18T11:38:09Z</time>
      </trkpt>
      <trkpt lat="43.58968" lon="5.63389">
        <ele>486.138</ele>
        <time>2014-05-18T11:38:16Z</time>
      </trkpt>
      <trkpt lat="43.58961" lon="5.63377">
        <ele>487.118</ele>
        <time>2014-05-18T11:38:25Z</time>
      </trkpt>
      <trkpt lat="43.58956" lon="5.63372">
        <ele>488.579</ele>
        <time>2014-05-18T11:38:32Z</time>
      </trkpt>
      <trkpt lat="43.58957" lon="5.63354">
        <ele>490.469</ele>
        <time>2014-05-18T11:38:39Z</time>
      </trkpt>
      <trkpt lat="43.58958" lon="5.63353">
        <ele>490.679</ele>
        <time>2014-05-18T11:38:40Z</time>
      </trkpt>
      <trkpt lat="43.58965" lon="5.63354">
        <ele>491.739</ele>
        <time>2014-05-18T11:38:45Z</time>
      </trkpt>
      <trkpt lat="43.58974" lon="5.6335">
        <ele>493.358</ele>
        <time>2014-05-18T11:38:55Z</time>
      </trkpt>
      <trkpt lat="43.58979" lon="5.6334">
        <ele>494.729</ele>
        <time>2014-05-18T11:39:02Z</time>
      </trkpt>
      <trkpt lat="43.5898" lon="5.63338">
        <ele>495.209</ele>
        <time>2014-05-18T11:39:04Z</time>
      </trkpt>
      <trkpt lat="43.5898" lon="5.63332">
        <ele>496.149</ele>
        <time>2014-05-18T11:39:08Z</time>
      </trkpt>
      <trkpt lat="43.5897" lon="5.63325">
        <ele>497.638</ele>
        <time>2014-05-18T11:39:17Z</time>
      </trkpt>
      <trkpt lat="43.58964" lon="5.63326">
        <ele>498.548</ele>
        <time>2014-05-18T11:39:23Z</time>
      </trkpt>
      <trkpt lat="43.58988" lon="5.63312">
        <ele>499.828</ele>
        <time>2014-05-18T11:39:30Z</time>
      </trkpt>
      <trkpt lat="43.58966" lon="5.63303">
        <ele>501.208</ele>
        <time>2014-05-18T11:39:39Z</time>
      </trkpt>
      <trkpt lat="43.58967" lon="5.63302">
        <ele>501.518</ele>
        <time>2014-05-18T11:39:41Z</time>
      </trkpt>
      <trkpt lat="43.58974" lon="5.6329">
        <ele>502.278</ele>
        <time>2014-05-18T11:39:50Z</time>
      </trkpt>
      <trkpt lat="43.58979" lon="5.63279">
        <ele>503.458</ele>
        <time>2014-05-18T11:39:57Z</time>
      </trkpt>
      <trkpt lat="43.58982" lon="5.63268">
        <ele>504.778</ele>
        <time>2014-05-18T11:40:05Z</time>
      </trkpt>
      <trkpt lat="43.58982" lon="5.6326">
        <ele>505.418</ele>
        <time>2014-05-18T11:40:11Z</time>
      </trkpt>
      <trkpt lat="43.58982" lon="5.63248">
        <ele>506.008</ele>
        <time>2014-05-18T11:40:19Z</time>
      </trkpt>
      <trkpt lat="43.58978" lon="5.63246">
        <ele>506.308</ele>
        <time>2014-05-18T11:40:25Z</time>
      </trkpt>
      <trkpt lat="43.5897" lon="5.63235">
        <ele>507.418</ele>
        <time>2014-05-18T11:40:35Z</time>
      </trkpt>
      <trkpt lat="43.58963" lon="5.63225">
        <ele>508.417</ele>
        <time>2014-05-18T11:40:44Z</time>
      </trkpt>
      <trkpt lat="43.58955" lon="5.63216">
        <ele>509.649</ele>
        <time>2014-05-18T11:40:53Z</time>
      </trkpt>
      <trkpt lat="43.5895" lon="5.63207">
        <ele>510.958</ele>
        <time>2014-05-18T11:41:01Z</time>
      </trkpt>
      <trkpt lat="43.58943" lon="5.63196">
        <ele>512.478</ele>
        <time>2014-05-18T11:41:11Z</time>
      </trkpt>
      <trkpt lat="43.58937" lon="5.63184">
        <ele>514.088</ele>
        <time>2014-05-18T11:41:21Z</time>
      </trkpt>
      <trkpt lat="43.58932" lon="5.63173">
        <ele>515.487</ele>
        <time>2014-05-18T11:41:30Z</time>
      </trkpt>
      <trkpt lat="43.58927" lon="5.63162">
        <ele>516.448</ele>
        <time>2014-05-18T11:41:38Z</time>
      </trkpt>
      <trkpt lat="43.58924" lon="5.6315">
        <ele>517.808</ele>
        <time>2014-05-18T11:41:46Z</time>
      </trkpt>
      <trkpt lat="43.58917" lon="5.63137">
        <ele>519.508</ele>
        <time>2014-05-18T11:41:56Z</time>
      </trkpt>
      <trkpt lat="43.58909" lon="5.63125">
        <ele>520.998</ele>
        <time>2014-05-18T11:42:06Z</time>
      </trkpt>
      <trkpt lat="43.58909" lon="5.63124">
        <ele>521.138</ele>
        <time>2014-05-18T11:42:07Z</time>
      </trkpt>
      <trkpt lat="43.58905" lon="5.63119">
        <ele>521.868</ele>
        <time>2014-05-18T11:42:12Z</time>
      </trkpt>
      <trkpt lat="43.589" lon="5.63111">
        <ele>522.978</ele>
        <time>2014-05-18T11:42:19Z</time>
      </trkpt>
      <trkpt lat="43.58898" lon="5.63106">
        <ele>523.467</ele>
        <time>2014-05-18T11:42:23Z</time>
      </trkpt>
      <trkpt lat="43.58889" lon="5.63089">
        <ele>524.797</ele>
        <time>2014-05-18T11:42:36Z</time>
      </trkpt>
      <trkpt lat="43.58882" lon="5.6307">
        <ele>526.157</ele>
        <time>2014-05-18T11:42:49Z</time>
      </trkpt>
      <trkpt lat="43.58877" lon="5.63058">
        <ele>527.157</ele>
        <time>2014-05-18T11:42:58Z</time>
      </trkpt>
      <trkpt lat="43.58871" lon="5.63042">
        <ele>527.937</ele>
        <time>2014-05-18T11:43:08Z</time>
      </trkpt>
      <trkpt lat="43.58865" lon="5.63028">
        <ele>528.977</ele>
        <time>2014-05-18T11:43:17Z</time>
      </trkpt>
      <trkpt lat="43.58859" lon="5.63014">
        <ele>530.247</ele>
        <time>2014-05-18T11:43:27Z</time>
      </trkpt>
      <trkpt lat="43.58853" lon="5.63">
        <ele>531.657</ele>
        <time>2014-05-18T11:43:37Z</time>
      </trkpt>
      <trkpt lat="43.58848" lon="5.62988">
        <ele>532.817</ele>
        <time>2014-05-18T11:43:46Z</time>
      </trkpt>
      <trkpt lat="43.58841" lon="5.62976">
        <ele>534.257</ele>
        <time>2014-05-18T11:43:56Z</time>
      </trkpt>
      <trkpt lat="43.58835" lon="5.62966">
        <ele>535.377</ele>
        <time>2014-05-18T11:44:04Z</time>
      </trkpt>
      <trkpt lat="43.58827" lon="5.62952">
        <ele>537.618</ele>
        <time>2014-05-18T11:44:15Z</time>
      </trkpt>
      <trkpt lat="43.5882" lon="5.62942">
        <ele>538.176</ele>
        <time>2014-05-18T11:44:23Z</time>
      </trkpt>
      <trkpt lat="43.58813" lon="5.6293">
        <ele>539.537</ele>
        <time>2014-05-18T11:44:32Z</time>
      </trkpt>
      <trkpt lat="43.58807" lon="5.6292">
        <ele>540.687</ele>
        <time>2014-05-18T11:44:40Z</time>
      </trkpt>
      <trkpt lat="43.58796" lon="5.62903">
        <ele>542.117</ele>
        <time>2014-05-18T11:44:53Z</time>
      </trkpt>
      <trkpt lat="43.58789" lon="5.62893">
        <ele>543.017</ele>
        <time>2014-05-18T11:45:01Z</time>
      </trkpt>
      <trkpt lat="43.58781" lon="5.62881">
        <ele>543.957</ele>
        <time>2014-05-18T11:45:10Z</time>
      </trkpt>
      <trkpt lat="43.58772" lon="5.62869">
        <ele>545.036</ele>
        <time>2014-05-18T11:45:20Z</time>
      </trkpt>
      <trkpt lat="43.58772" lon="5.62867">
        <ele>545.436</ele>
        <time>2014-05-18T11:45:25Z</time>
      </trkpt>
      <trkpt lat="43.58765" lon="5.62873">
        <ele>545.866</ele>
        <time>2014-05-18T11:45:36Z</time>
      </trkpt>
      <trkpt lat="43.58769" lon="5.6287">
        <ele>548.006</ele>
        <time>2014-05-18T11:48:29Z</time>
      </trkpt>
      <trkpt lat="43.5877" lon="5.62869">
        <ele>547.976</ele>
        <time>2014-05-18T11:48:35Z</time>
      </trkpt>
      <trkpt lat="43.5877" lon="5.62867">
        <ele>547.446</ele>
        <time>2014-05-18T11:48:54Z</time>
      </trkpt>
      <trkpt lat="43.58765" lon="5.62856">
        <ele>546.798</ele>
        <time>2014-05-18T11:49:01Z</time>
      </trkpt>
      <trkpt lat="43.58759" lon="5.62839">
        <ele>547.216</ele>
        <time>2014-05-18T11:49:09Z</time>
      </trkpt>
      <trkpt lat="43.58753" lon="5.62819">
        <ele>547.767</ele>
        <time>2014-05-18T11:49:19Z</time>
      </trkpt>
      <trkpt lat="43.58747" lon="5.62801">
        <ele>548.076</ele>
        <time>2014-05-18T11:49:28Z</time>
      </trkpt>
      <trkpt lat="43.58741" lon="5.62781">
        <ele>549.236</ele>
        <time>2014-05-18T11:49:39Z</time>
      </trkpt>
      <trkpt lat="43.58736" lon="5.62764">
        <ele>550.446</ele>
        <time>2014-05-18T11:49:49Z</time>
      </trkpt>
      <trkpt lat="43.58733" lon="5.62749">
        <ele>551.696</ele>
        <time>2014-05-18T11:49:58Z</time>
      </trkpt>
      <trkpt lat="43.58731" lon="5.62734">
        <ele>553.047</ele>
        <time>2014-05-18T11:50:07Z</time>
      </trkpt>
      <trkpt lat="43.5873" lon="5.62731">
        <ele>553.216</ele>
        <time>2014-05-18T11:50:09Z</time>
      </trkpt>
      <trkpt lat="43.58727" lon="5.62716">
        <ele>553.716</ele>
        <time>2014-05-18T11:50:17Z</time>
      </trkpt>
      <trkpt lat="43.58724" lon="5.62705">
        <ele>554.687</ele>
        <time>2014-05-18T11:50:24Z</time>
      </trkpt>
      <trkpt lat="43.5872" lon="5.62688">
        <ele>556.216</ele>
        <time>2014-05-18T11:50:35Z</time>
      </trkpt>
      <trkpt lat="43.58716" lon="5.62672">
        <ele>557.446</ele>
        <time>2014-05-18T11:50:44Z</time>
      </trkpt>
      <trkpt lat="43.58716" lon="5.62658">
        <ele>558.636</ele>
        <time>2014-05-18T11:50:53Z</time>
      </trkpt>
      <trkpt lat="43.58716" lon="5.62644">
        <ele>559.336</ele>
        <time>2014-05-18T11:51:01Z</time>
      </trkpt>
      <trkpt lat="43.58712" lon="5.6263">
        <ele>560.747</ele>
        <time>2014-05-18T11:51:10Z</time>
      </trkpt>
      <trkpt lat="43.5871" lon="5.62618">
        <ele>562.247</ele>
        <time>2014-05-18T11:51:18Z</time>
      </trkpt>
      <trkpt lat="43.5871" lon="5.62603">
        <ele>563.946</ele>
        <time>2014-05-18T11:51:28Z</time>
      </trkpt>
      <trkpt lat="43.58709" lon="5.6259">
        <ele>565.446</ele>
        <time>2014-05-18T11:51:37Z</time>
      </trkpt>
      <trkpt lat="43.58709" lon="5.62578">
        <ele>566.916</ele>
        <time>2014-05-18T11:51:45Z</time>
      </trkpt>
      <trkpt lat="43.58709" lon="5.62565">
        <ele>568.667</ele>
        <time>2014-05-18T11:51:54Z</time>
      </trkpt>
      <trkpt lat="43.58708" lon="5.62554">
        <ele>570.177</ele>
        <time>2014-05-18T11:52:02Z</time>
      </trkpt>
      <trkpt lat="43.58708" lon="5.6254">
        <ele>572.287</ele>
        <time>2014-05-18T11:52:12Z</time>
      </trkpt>
      <trkpt lat="43.58708" lon="5.62528">
        <ele>573.276</ele>
        <time>2014-05-18T11:52:20Z</time>
      </trkpt>
      <trkpt lat="43.5871" lon="5.62514">
        <ele>574.906</ele>
        <time>2014-05-18T11:52:30Z</time>
      </trkpt>
      <trkpt lat="43.58712" lon="5.62503">
        <ele>576.106</ele>
        <time>2014-05-18T11:52:38Z</time>
      </trkpt>
      <trkpt lat="43.58714" lon="5.62487">
        <ele>577.666</ele>
        <time>2014-05-18T11:52:49Z</time>
      </trkpt>
      <trkpt lat="43.58717" lon="5.6247">
        <ele>579.466</ele>
        <time>2014-05-18T11:53:01Z</time>
      </trkpt>
      <trkpt lat="43.58719" lon="5.62454">
        <ele>581.276</ele>
        <time>2014-05-18T11:53:12Z</time>
      </trkpt>
      <trkpt lat="43.58721" lon="5.62442">
        <ele>582.106</ele>
        <time>2014-05-18T11:53:20Z</time>
      </trkpt>
      <trkpt lat="43.58725" lon="5.6243">
        <ele>583.266</ele>
        <time>2014-05-18T11:53:29Z</time>
      </trkpt>
      <trkpt lat="43.58728" lon="5.62419">
        <ele>584.656</ele>
        <time>2014-05-18T11:53:38Z</time>
      </trkpt>
      <trkpt lat="43.5873" lon="5.62404">
        <ele>586.146</ele>
        <time>2014-05-18T11:53:48Z</time>
      </trkpt>
      <trkpt lat="43.58733" lon="5.62393">
        <ele>587.386</ele>
        <time>2014-05-18T11:53:56Z</time>
      </trkpt>
      <trkpt lat="43.58738" lon="5.62377">
        <ele>588.976</ele>
        <time>2014-05-18T11:54:08Z</time>
      </trkpt>
      <trkpt lat="43.58742" lon="5.62364">
        <ele>590.366</ele>
        <time>2014-05-18T11:54:18Z</time>
      </trkpt>
      <trkpt lat="43.58745" lon="5.62353">
        <ele>591.386</ele>
        <time>2014-05-18T11:54:26Z</time>
      </trkpt>
      <trkpt lat="43.58747" lon="5.62341">
        <ele>592.546</ele>
        <time>2014-05-18T11:54:34Z</time>
      </trkpt>
      <trkpt lat="43.5875" lon="5.62331">
        <ele>593.946</ele>
        <time>2014-05-18T11:54:42Z</time>
      </trkpt>
      <trkpt lat="43.58752" lon="5.62321">
        <ele>595.296</ele>
        <time>2014-05-18T11:54:49Z</time>
      </trkpt>
      <trkpt lat="43.58755" lon="5.62305">
        <ele>597.346</ele>
        <time>2014-05-18T11:55:00Z</time>
      </trkpt>
      <trkpt lat="43.58758" lon="5.62289">
        <ele>598.916</ele>
        <time>2014-05-18T11:55:11Z</time>
      </trkpt>
      <trkpt lat="43.5876" lon="5.62278">
        <ele>600.237</ele>
        <time>2014-05-18T11:55:19Z</time>
      </trkpt>
      <trkpt lat="43.58761" lon="5.62262">
        <ele>601.655</ele>
        <time>2014-05-18T11:55:30Z</time>
      </trkpt>
      <trkpt lat="43.58763" lon="5.62245">
        <ele>603.216</ele>
        <time>2014-05-18T11:55:41Z</time>
      </trkpt>
      <trkpt lat="43.58764" lon="5.62233">
        <ele>604.346</ele>
        <time>2014-05-18T11:55:50Z</time>
      </trkpt>
      <trkpt lat="43.58765" lon="5.62221">
        <ele>605.285</ele>
        <time>2014-05-18T11:55:58Z</time>
      </trkpt>
      <trkpt lat="43.5877" lon="5.62206">
        <ele>606.855</ele>
        <time>2014-05-18T11:56:09Z</time>
      </trkpt>
      <trkpt lat="43.58771" lon="5.62198">
        <ele>607.676</ele>
        <time>2014-05-18T11:56:14Z</time>
      </trkpt>
      <trkpt lat="43.58775" lon="5.62182">
        <ele>609.236</ele>
        <time>2014-05-18T11:56:26Z</time>
      </trkpt>
      <trkpt lat="43.58778" lon="5.62165">
        <ele>611.166</ele>
        <time>2014-05-18T11:56:37Z</time>
      </trkpt>
      <trkpt lat="43.58781" lon="5.6215">
        <ele>612.155</ele>
        <time>2014-05-18T11:56:46Z</time>
      </trkpt>
      <trkpt lat="43.58782" lon="5.62138">
        <ele>613.315</ele>
        <time>2014-05-18T11:56:54Z</time>
      </trkpt>
      <trkpt lat="43.58785" lon="5.6212">
        <ele>615.255</ele>
        <time>2014-05-18T11:57:06Z</time>
      </trkpt>
      <trkpt lat="43.5879" lon="5.62106">
        <ele>616.495</ele>
        <time>2014-05-18T11:57:15Z</time>
      </trkpt>
      <trkpt lat="43.5879" lon="5.62091">
        <ele>617.846</ele>
        <time>2014-05-18T11:57:21Z</time>
      </trkpt>
      <trkpt lat="43.58783" lon="5.62092">
        <ele>618.825</ele>
        <time>2014-05-18T11:57:27Z</time>
      </trkpt>
      <trkpt lat="43.58782" lon="5.62094">
        <ele>618.915</ele>
        <time>2014-05-18T11:57:28Z</time>
      </trkpt>
      <trkpt lat="43.58776" lon="5.62113">
        <ele>619.995</ele>
        <time>2014-05-18T11:57:40Z</time>
      </trkpt>
      <trkpt lat="43.5877" lon="5.6212">
        <ele>620.555</ele>
        <time>2014-05-18T11:57:46Z</time>
      </trkpt>
      <trkpt lat="43.58766" lon="5.62114">
        <ele>621.375</ele>
        <time>2014-05-18T11:57:53Z</time>
      </trkpt>
      <trkpt lat="43.58766" lon="5.62113">
        <ele>621.485</ele>
        <time>2014-05-18T11:57:54Z</time>
      </trkpt>
      <trkpt lat="43.58767" lon="5.62097">
        <ele>623.336</ele>
        <time>2014-05-18T11:58:04Z</time>
      </trkpt>
      <trkpt lat="43.58768" lon="5.62083">
        <ele>624.755</ele>
        <time>2014-05-18T11:58:13Z</time>
      </trkpt>
      <trkpt lat="43.58768" lon="5.62071">
        <ele>625.835</ele>
        <time>2014-05-18T11:58:20Z</time>
      </trkpt>
      <trkpt lat="43.58771" lon="5.62052">
        <ele>627.305</ele>
        <time>2014-05-18T11:58:31Z</time>
      </trkpt>
      <trkpt lat="43.58771" lon="5.62051">
        <ele>627.374</ele>
        <time>2014-05-18T11:58:36Z</time>
      </trkpt>
      <trkpt lat="43.58777" lon="5.62038">
        <ele>629.674</ele>
        <time>2014-05-18T11:59:28Z</time>
      </trkpt>
      <trkpt lat="43.58787" lon="5.62037">
        <ele>629.635</ele>
        <time>2014-05-18T11:59:34Z</time>
      </trkpt>
      <trkpt lat="43.5879" lon="5.62039">
        <ele>629.134</ele>
        <time>2014-05-18T11:59:38Z</time>
      </trkpt>
      <trkpt lat="43.58793" lon="5.62041">
        <ele>629.095</ele>
        <time>2014-05-18T11:59:42Z</time>
      </trkpt>
      <trkpt lat="43.58802" lon="5.62048">
        <ele>629.295</ele>
        <time>2014-05-18T11:59:52Z</time>
      </trkpt>
      <trkpt lat="43.58812" lon="5.62049">
        <ele>630.635</ele>
        <time>2014-05-18T12:00:02Z</time>
      </trkpt>
      <trkpt lat="43.58823" lon="5.62046">
        <ele>633.345</ele>
        <time>2014-05-18T12:00:13Z</time>
      </trkpt>
      <trkpt lat="43.58826" lon="5.62045">
        <ele>635.365</ele>
        <time>2014-05-18T12:00:21Z</time>
      </trkpt>
      <trkpt lat="43.58836" lon="5.62041">
        <ele>637.035</ele>
        <time>2014-05-18T12:00:31Z</time>
      </trkpt>
      <trkpt lat="43.58846" lon="5.62041">
        <ele>638.346</ele>
        <time>2014-05-18T12:00:43Z</time>
      </trkpt>
      <trkpt lat="43.58853" lon="5.62041">
        <ele>640.161</ele>
        <time>2014-05-18T12:00:52Z</time>
      </trkpt>
      <trkpt lat="43.58859" lon="5.62043">
        <ele>642.416</ele>
        <time>2014-05-18T12:01:02Z</time>
      </trkpt>
      <trkpt lat="43.58867" lon="5.62048">
        <ele>644.646</ele>
        <time>2014-05-18T12:01:12Z</time>
      </trkpt>
      <trkpt lat="43.58874" lon="5.62052">
        <ele>646.546</ele>
        <time>2014-05-18T12:01:20Z</time>
      </trkpt>
      <trkpt lat="43.58876" lon="5.62053">
        <ele>648.536</ele>
        <time>2014-05-18T12:01:29Z</time>
      </trkpt>
      <trkpt lat="43.58887" lon="5.62062">
        <ele>651.126</ele>
        <time>2014-05-18T12:01:45Z</time>
      </trkpt>
      <trkpt lat="43.58903" lon="5.62076">
        <ele>652.836</ele>
        <time>2014-05-18T12:02:05Z</time>
      </trkpt>
      <trkpt lat="43.58904" lon="5.62077">
        <ele>652.725</ele>
        <time>2014-05-18T12:02:14Z</time>
      </trkpt>
      <trkpt lat="43.58914" lon="5.62086">
        <ele>653.005</ele>
        <time>2014-05-18T12:02:24Z</time>
      </trkpt>
      <trkpt lat="43.58918" lon="5.62091">
        <ele>654.225</ele>
        <time>2014-05-18T12:02:34Z</time>
      </trkpt>
      <trkpt lat="43.5894" lon="5.62115">
        <ele>661.056</ele>
        <time>2014-05-18T12:03:11Z</time>
      </trkpt>
      <trkpt lat="43.58944" lon="5.62119">
        <ele>662.676</ele>
        <time>2014-05-18T12:03:20Z</time>
      </trkpt>
      <trkpt lat="43.58983" lon="5.62119">
        <ele>668.866</ele>
        <time>2014-05-18T12:04:23Z</time>
      </trkpt>
      <trkpt lat="43.58985" lon="5.62116">
        <ele>669.626</ele>
        <time>2014-05-18T12:04:34Z</time>
      </trkpt>
      <trkpt lat="43.5899" lon="5.621">
        <ele>670.896</ele>
        <time>2014-05-18T12:04:51Z</time>
      </trkpt>
      <trkpt lat="43.58992" lon="5.62091">
        <ele>672.186</ele>
        <time>2014-05-18T12:05:00Z</time>
      </trkpt>
      <trkpt lat="43.58993" lon="5.62086">
        <ele>673.566</ele>
        <time>2014-05-18T12:05:09Z</time>
      </trkpt>
      <trkpt lat="43.58995" lon="5.62077">
        <ele>675.377</ele>
        <time>2014-05-18T12:05:19Z</time>
      </trkpt>
      <trkpt lat="43.59005" lon="5.62042">
        <ele>684.707</ele>
        <time>2014-05-18T12:05:47Z</time>
      </trkpt>
      <trkpt lat="43.59007" lon="5.62037">
        <ele>685.776</ele>
        <time>2014-05-18T12:05:57Z</time>
      </trkpt>
      <trkpt lat="43.59016" lon="5.62011">
        <ele>688.116</ele>
        <time>2014-05-18T12:06:16Z</time>
      </trkpt>
      <trkpt lat="43.5902" lon="5.62001">
        <ele>687.757</ele>
        <time>2014-05-18T12:06:24Z</time>
      </trkpt>
      <trkpt lat="43.59029" lon="5.61995">
        <ele>687.486</ele>
        <time>2014-05-18T12:06:33Z</time>
      </trkpt>
      <trkpt lat="43.59037" lon="5.61992">
        <ele>687.216</ele>
        <time>2014-05-18T12:06:42Z</time>
      </trkpt>
      <trkpt lat="43.59039" lon="5.61991">
        <ele>687.376</ele>
        <time>2014-05-18T12:06:47Z</time>
      </trkpt>
      <trkpt lat="43.5905" lon="5.61984">
        <ele>688.155</ele>
        <time>2014-05-18T12:06:58Z</time>
      </trkpt>
      <trkpt lat="43.59055" lon="5.61976">
        <ele>688.975</ele>
        <time>2014-05-18T12:07:06Z</time>
      </trkpt>
      <trkpt lat="43.59058" lon="5.61964">
        <ele>690.807</ele>
        <time>2014-05-18T12:07:16Z</time>
      </trkpt>
      <trkpt lat="43.59058" lon="5.61954">
        <ele>692.306</ele>
        <time>2014-05-18T12:07:25Z</time>
      </trkpt>
      <trkpt lat="43.59058" lon="5.61948">
        <ele>692.825</ele>
        <time>2014-05-18T12:07:30Z</time>
      </trkpt>
      <trkpt lat="43.59058" lon="5.61946">
        <ele>693.346</ele>
        <time>2014-05-18T12:07:39Z</time>
      </trkpt>
      <trkpt lat="43.59044" lon="5.61942">
        <ele>693.545</ele>
        <time>2014-05-18T12:07:51Z</time>
      </trkpt>
      <trkpt lat="43.59038" lon="5.61941">
        <ele>694.005</ele>
        <time>2014-05-18T12:08:00Z</time>
      </trkpt>
      <trkpt lat="43.59035" lon="5.6194">
        <ele>695.285</ele>
        <time>2014-05-18T12:08:08Z</time>
      </trkpt>
      <trkpt lat="43.5903" lon="5.61938">
        <ele>695.035</ele>
        <time>2014-05-18T12:08:21Z</time>
      </trkpt>
      <trkpt lat="43.5902" lon="5.61935">
        <ele>696.795</ele>
        <time>2014-05-18T12:08:30Z</time>
      </trkpt>
      <trkpt lat="43.59011" lon="5.61934">
        <ele>698.245</ele>
        <time>2014-05-18T12:08:39Z</time>
      </trkpt>
      <trkpt lat="43.58998" lon="5.61933">
        <ele>699.795</ele>
        <time>2014-05-18T12:08:51Z</time>
      </trkpt>
      <trkpt lat="43.5899" lon="5.61929">
        <ele>701.426</ele>
        <time>2014-05-18T12:08:59Z</time>
      </trkpt>
      <trkpt lat="43.58985" lon="5.61925">
        <ele>702.065</ele>
        <time>2014-05-18T12:09:05Z</time>
      </trkpt>
      <trkpt lat="43.58975" lon="5.61918">
        <ele>703.935</ele>
        <time>2014-05-18T12:09:15Z</time>
      </trkpt>
      <trkpt lat="43.58969" lon="5.61911">
        <ele>705.356</ele>
        <time>2014-05-18T12:09:22Z</time>
      </trkpt>
      <trkpt lat="43.5897" lon="5.61899">
        <ele>706.516</ele>
        <time>2014-05-18T12:09:29Z</time>
      </trkpt>
      <trkpt lat="43.58976" lon="5.61893">
        <ele>707.256</ele>
        <time>2014-05-18T12:09:32Z</time>
      </trkpt>
      <trkpt lat="43.58985" lon="5.61884">
        <ele>707.835</ele>
        <time>2014-05-18T12:09:43Z</time>
      </trkpt>
      <trkpt lat="43.58989" lon="5.61873">
        <ele>708.065</ele>
        <time>2014-05-18T12:09:51Z</time>
      </trkpt>
      <trkpt lat="43.58995" lon="5.6186">
        <ele>708.865</ele>
        <time>2014-05-18T12:10:00Z</time>
      </trkpt>
      <trkpt lat="43.59001" lon="5.61846">
        <ele>709.645</ele>
        <time>2014-05-18T12:10:10Z</time>
      </trkpt>
      <trkpt lat="43.59008" lon="5.61832">
        <ele>710.046</ele>
        <time>2014-05-18T12:10:19Z</time>
      </trkpt>
      <trkpt lat="43.59017" lon="5.61814">
        <ele>710.074</ele>
        <time>2014-05-18T12:10:29Z</time>
      </trkpt>
      <trkpt lat="43.59026" lon="5.61796">
        <ele>709.774</ele>
        <time>2014-05-18T12:10:38Z</time>
      </trkpt>
      <trkpt lat="43.59026" lon="5.61798">
        <ele>712.954</ele>
        <time>2014-05-18T12:11:48Z</time>
      </trkpt>
      <trkpt lat="43.59028" lon="5.61807">
        <ele>712.454</ele>
        <time>2014-05-18T12:11:53Z</time>
      </trkpt>
      <trkpt lat="43.59038" lon="5.61807">
        <ele>711.814</ele>
        <time>2014-05-18T12:12:02Z</time>
      </trkpt>
      <trkpt lat="43.59045" lon="5.61805">
        <ele>711.924</ele>
        <time>2014-05-18T12:12:08Z</time>
      </trkpt>
      <trkpt lat="43.59053" lon="5.61801">
        <ele>712.575</ele>
        <time>2014-05-18T12:12:16Z</time>
      </trkpt>
      <trkpt lat="43.59066" lon="5.61795">
        <ele>713.205</ele>
        <time>2014-05-18T12:12:28Z</time>
      </trkpt>
      <trkpt lat="43.59079" lon="5.61787">
        <ele>713.995</ele>
        <time>2014-05-18T12:12:41Z</time>
      </trkpt>
      <trkpt lat="43.59087" lon="5.61783">
        <ele>714.645</ele>
        <time>2014-05-18T12:12:48Z</time>
      </trkpt>
      <trkpt lat="43.59097" lon="5.6178">
        <ele>716.166</ele>
        <time>2014-05-18T12:12:56Z</time>
      </trkpt>
      <trkpt lat="43.59107" lon="5.61776">
        <ele>718.196</ele>
        <time>2014-05-18T12:13:05Z</time>
      </trkpt>
      <trkpt lat="43.5912" lon="5.61769">
        <ele>720.666</ele>
        <time>2014-05-18T12:13:16Z</time>
      </trkpt>
      <trkpt lat="43.59134" lon="5.61765">
        <ele>722.805</ele>
        <time>2014-05-18T12:13:28Z</time>
      </trkpt>
      <trkpt lat="43.5915" lon="5.61762">
        <ele>723.565</ele>
        <time>2014-05-18T12:13:40Z</time>
      </trkpt>
      <trkpt lat="43.59163" lon="5.61761">
        <ele>722.705</ele>
        <time>2014-05-18T12:13:50Z</time>
      </trkpt>
      <trkpt lat="43.59175" lon="5.6176">
        <ele>722.795</ele>
        <time>2014-05-18T12:13:59Z</time>
      </trkpt>
      <trkpt lat="43.59189" lon="5.61757">
        <ele>723.245</ele>
        <time>2014-05-18T12:14:10Z</time>
      </trkpt>
      <trkpt lat="43.592" lon="5.61751">
        <ele>724.686</ele>
        <time>2014-05-18T12:14:20Z</time>
      </trkpt>
      <trkpt lat="43.59209" lon="5.61744">
        <ele>726.506</ele>
        <time>2014-05-18T12:14:28Z</time>
      </trkpt>
      <trkpt lat="43.59216" lon="5.61737">
        <ele>729.106</ele>
        <time>2014-05-18T12:14:37Z</time>
      </trkpt>
      <trkpt lat="43.59227" lon="5.61725">
        <ele>747.005</ele>
        <time>2014-05-18T12:16:45Z</time>
      </trkpt>
      <trkpt lat="43.59193" lon="5.61661">
        <ele>748.865</ele>
        <time>2014-05-18T12:16:54Z</time>
      </trkpt>
      <trkpt lat="43.5921" lon="5.61637">
        <ele>751.326</ele>
        <time>2014-05-18T12:17:39Z</time>
      </trkpt>
      <trkpt lat="43.59193" lon="5.61643">
        <ele>750.544</ele>
        <time>2014-05-18T12:17:53Z</time>
      </trkpt>
      <trkpt lat="43.59193" lon="5.6164">
        <ele>749.074</ele>
        <time>2014-05-18T12:18:31Z</time>
      </trkpt>
      <trkpt lat="43.5921" lon="5.61627">
        <ele>747.313</ele>
        <time>2014-05-18T12:18:57Z</time>
      </trkpt>
      <trkpt lat="43.5917" lon="5.6163">
        <ele>747.464</ele>
        <time>2014-05-18T12:21:27Z</time>
      </trkpt>
      <trkpt lat="43.59171" lon="5.61629">
        <ele>748.764</ele>
        <time>2014-05-18T12:21:48Z</time>
      </trkpt>
      <trkpt lat="43.59193" lon="5.6164">
        <ele>748.864</ele>
        <time>2014-05-18T12:21:50Z</time>
      </trkpt>
      <trkpt lat="43.5921" lon="5.61633">
        <ele>749.094</ele>
        <time>2014-05-18T12:21:57Z</time>
      </trkpt>
      <trkpt lat="43.59193" lon="5.6164">
        <ele>748.673</ele>
        <time>2014-05-18T12:22:05Z</time>
      </trkpt>
      <trkpt lat="43.59227" lon="5.61725">
        <ele>748.764</ele>
        <time>2014-05-18T12:22:13Z</time>
      </trkpt>
      <trkpt lat="43.5921" lon="5.61637">
        <ele>749.815</ele>
        <time>2014-05-18T12:22:28Z</time>
      </trkpt>
      <trkpt lat="43.59227" lon="5.61725">
        <ele>749.804</ele>
        <time>2014-05-18T12:22:32Z</time>
      </trkpt>
      <trkpt lat="43.59208" lon="5.61638">
        <ele>749.884</ele>
        <time>2014-05-18T12:22:39Z</time>
      </trkpt>
      <trkpt lat="43.59216" lon="5.61636">
        <ele>749.784</ele>
        <time>2014-05-18T12:22:50Z</time>
      </trkpt>
      <trkpt lat="43.59219" lon="5.61635">
        <ele>749.974</ele>
        <time>2014-05-18T12:22:52Z</time>
      </trkpt>
      <trkpt lat="43.5923" lon="5.61634">
        <ele>750.144</ele>
        <time>2014-05-18T12:23:00Z</time>
      </trkpt>
      <trkpt lat="43.59234" lon="5.61637">
        <ele>749.783</ele>
        <time>2014-05-18T12:23:05Z</time>
      </trkpt>
      <trkpt lat="43.59244" lon="5.61646">
        <ele>747.452</ele>
        <time>2014-05-18T12:23:12Z</time>
      </trkpt>
      <trkpt lat="43.59245" lon="5.61649">
        <ele>746.423</ele>
        <time>2014-05-18T12:23:17Z</time>
      </trkpt>
      <trkpt lat="43.59251" lon="5.61657">
        <ele>744.442</ele>
        <time>2014-05-18T12:23:41Z</time>
      </trkpt>
      <trkpt lat="43.59257" lon="5.6167">
        <ele>740.651</ele>
        <time>2014-05-18T12:23:47Z</time>
      </trkpt>
      <trkpt lat="43.59262" lon="5.61681">
        <ele>737.931</ele>
        <time>2014-05-18T12:23:51Z</time>
      </trkpt>
      <trkpt lat="43.59266" lon="5.61685">
        <ele>736.362</ele>
        <time>2014-05-18T12:23:54Z</time>
      </trkpt>
      <trkpt lat="43.59268" lon="5.61692">
        <ele>733.992</ele>
        <time>2014-05-18T12:23:59Z</time>
      </trkpt>
      <trkpt lat="43.59272" lon="5.61702">
        <ele>731.031</ele>
        <time>2014-05-18T12:24:03Z</time>
      </trkpt>
      <trkpt lat="43.59277" lon="5.61698">
        <ele>730.585</ele>
        <time>2014-05-18T12:24:17Z</time>
      </trkpt>
      <trkpt lat="43.59285" lon="5.61693">
        <ele>732.545</ele>
        <time>2014-05-18T12:24:24Z</time>
      </trkpt>
      <trkpt lat="43.593" lon="5.61688">
        <ele>733.565</ele>
        <time>2014-05-18T12:24:35Z</time>
      </trkpt>
      <trkpt lat="43.59313" lon="5.61687">
        <ele>734.485</ele>
        <time>2014-05-18T12:24:44Z</time>
      </trkpt>
      <trkpt lat="43.59325" lon="5.61687">
        <ele>736.246</ele>
        <time>2014-05-18T12:24:53Z</time>
      </trkpt>
      <trkpt lat="43.59337" lon="5.61689">
        <ele>737.625</ele>
        <time>2014-05-18T12:25:02Z</time>
      </trkpt>
      <trkpt lat="43.59353" lon="5.61691">
        <ele>738.544</ele>
        <time>2014-05-18T12:25:13Z</time>
      </trkpt>
      <trkpt lat="43.59364" lon="5.61694">
        <ele>738.955</ele>
        <time>2014-05-18T12:25:19Z</time>
      </trkpt>
      <trkpt lat="43.59381" lon="5.61697">
        <ele>739.765</ele>
        <time>2014-05-18T12:25:30Z</time>
      </trkpt>
      <trkpt lat="43.59396" lon="5.61698">
        <ele>740.605</ele>
        <time>2014-05-18T12:25:39Z</time>
      </trkpt>
      <trkpt lat="43.59413" lon="5.61693">
        <ele>740.735</ele>
        <time>2014-05-18T12:25:47Z</time>
      </trkpt>
      <trkpt lat="43.59423" lon="5.61679">
        <ele>741.305</ele>
        <time>2014-05-18T12:25:54Z</time>
      </trkpt>
      <trkpt lat="43.59429" lon="5.61659">
        <ele>742.505</ele>
        <time>2014-05-18T12:26:02Z</time>
      </trkpt>
      <trkpt lat="43.59424" lon="5.61631">
        <ele>743.185</ele>
        <time>2014-05-18T12:26:12Z</time>
      </trkpt>
      <trkpt lat="43.59424" lon="5.6161">
        <ele>742.935</ele>
        <time>2014-05-18T12:26:18Z</time>
      </trkpt>
      <trkpt lat="43.5943" lon="5.61582">
        <ele>743.365</ele>
        <time>2014-05-18T12:26:25Z</time>
      </trkpt>
      <trkpt lat="43.59443" lon="5.61555">
        <ele>743.344</ele>
        <time>2014-05-18T12:26:32Z</time>
      </trkpt>
      <trkpt lat="43.59459" lon="5.61528">
        <ele>744.256</ele>
        <time>2014-05-18T12:26:40Z</time>
      </trkpt>
      <trkpt lat="43.59476" lon="5.61506">
        <ele>746.976</ele>
        <time>2014-05-18T12:26:50Z</time>
      </trkpt>
      <trkpt lat="43.59492" lon="5.61487">
        <ele>749.756</ele>
        <time>2014-05-18T12:27:00Z</time>
      </trkpt>
      <trkpt lat="43.59505" lon="5.61475">
        <ele>751.426</ele>
        <time>2014-05-18T12:27:08Z</time>
      </trkpt>
      <trkpt lat="43.59519" lon="5.61458">
        <ele>752.856</ele>
        <time>2014-05-18T12:27:17Z</time>
      </trkpt>
      <trkpt lat="43.59531" lon="5.61441">
        <ele>754.446</ele>
        <time>2014-05-18T12:27:26Z</time>
      </trkpt>
      <trkpt lat="43.59545" lon="5.61423">
        <ele>756.215</ele>
        <time>2014-05-18T12:27:38Z</time>
      </trkpt>
      <trkpt lat="43.59558" lon="5.61413">
        <ele>756.885</ele>
        <time>2014-05-18T12:27:47Z</time>
      </trkpt>
      <trkpt lat="43.59575" lon="5.61402">
        <ele>758.365</ele>
        <time>2014-05-18T12:27:59Z</time>
      </trkpt>
      <trkpt lat="43.59588" lon="5.61393">
        <ele>760.066</ele>
        <time>2014-05-18T12:28:07Z</time>
      </trkpt>
      <trkpt lat="43.59599" lon="5.61381">
        <ele>761.836</ele>
        <time>2014-05-18T12:28:17Z</time>
      </trkpt>
      <trkpt lat="43.5961" lon="5.6137">
        <ele>763.606</ele>
        <time>2014-05-18T12:28:27Z</time>
      </trkpt>
      <trkpt lat="43.5962" lon="5.61358">
        <ele>765.075</ele>
        <time>2014-05-18T12:28:37Z</time>
      </trkpt>
      <trkpt lat="43.59632" lon="5.61347">
        <ele>766.665</ele>
        <time>2014-05-18T12:28:47Z</time>
      </trkpt>
      <trkpt lat="43.59642" lon="5.61339">
        <ele>766.425</ele>
        <time>2014-05-18T12:28:55Z</time>
      </trkpt>
      <trkpt lat="43.59652" lon="5.61332">
        <ele>766.065</ele>
        <time>2014-05-18T12:29:03Z</time>
      </trkpt>
      <trkpt lat="43.59665" lon="5.6132">
        <ele>766.825</ele>
        <time>2014-05-18T12:29:14Z</time>
      </trkpt>
      <trkpt lat="43.59682" lon="5.61312">
        <ele>767.604</ele>
        <time>2014-05-18T12:29:26Z</time>
      </trkpt>
      <trkpt lat="43.59693" lon="5.61305">
        <ele>768.075</ele>
        <time>2014-05-18T12:29:34Z</time>
      </trkpt>
      <trkpt lat="43.597" lon="5.61298">
        <ele>768.915</ele>
        <time>2014-05-18T12:29:41Z</time>
      </trkpt>
      <trkpt lat="43.59702" lon="5.61293">
        <ele>768.944</ele>
        <time>2014-05-18T12:29:47Z</time>
      </trkpt>
      <trkpt lat="43.59704" lon="5.6129">
        <ele>772.594</ele>
        <time>2014-05-18T12:30:41Z</time>
      </trkpt>
      <trkpt lat="43.59706" lon="5.61286">
        <ele>772.344</ele>
        <time>2014-05-18T12:30:47Z</time>
      </trkpt>
      <trkpt lat="43.59729" lon="5.61267">
        <ele>769.684</ele>
        <time>2014-05-18T12:30:57Z</time>
      </trkpt>
      <trkpt lat="43.59734" lon="5.61264">
        <ele>770.405</ele>
        <time>2014-05-18T12:31:10Z</time>
      </trkpt>
      <trkpt lat="43.59738" lon="5.61262">
        <ele>770.364</ele>
        <time>2014-05-18T12:31:16Z</time>
      </trkpt>
      <trkpt lat="43.59743" lon="5.61259">
        <ele>769.324</ele>
        <time>2014-05-18T12:31:27Z</time>
      </trkpt>
      <trkpt lat="43.59758" lon="5.61252">
        <ele>766.865</ele>
        <time>2014-05-18T12:32:37Z</time>
      </trkpt>
      <trkpt lat="43.59763" lon="5.61249">
        <ele>767.465</ele>
        <time>2014-05-18T12:32:45Z</time>
      </trkpt>
      <trkpt lat="43.59768" lon="5.61247">
        <ele>767.895</ele>
        <time>2014-05-18T12:32:53Z</time>
      </trkpt>
      <trkpt lat="43.59771" lon="5.61245">
        <ele>768.104</ele>
        <time>2014-05-18T12:32:59Z</time>
      </trkpt>
      <trkpt lat="43.59776" lon="5.61239">
        <ele>765.595</ele>
        <time>2014-05-18T12:33:18Z</time>
      </trkpt>
      <trkpt lat="43.59783" lon="5.61229">
        <ele>765.246</ele>
        <time>2014-05-18T12:33:36Z</time>
      </trkpt>
      <trkpt lat="43.5979" lon="5.61221">
        <ele>765.295</ele>
        <time>2014-05-18T12:33:46Z</time>
      </trkpt>
      <trkpt lat="43.59793" lon="5.61218">
        <ele>764.855</ele>
        <time>2014-05-18T12:33:51Z</time>
      </trkpt>
      <trkpt lat="43.59796" lon="5.61214">
        <ele>764.315</ele>
        <time>2014-05-18T12:33:58Z</time>
      </trkpt>
      <trkpt lat="43.59798" lon="5.61208">
        <ele>767.426</ele>
        <time>2014-05-18T12:34:27Z</time>
      </trkpt>
      <trkpt lat="43.59792" lon="5.612">
        <ele>748.054</ele>
        <time>2014-05-18T12:36:31Z</time>
      </trkpt>
      <trkpt lat="43.59769" lon="5.61156">
        <ele>737.583</ele>
        <time>2014-05-18T12:40:12Z</time>
      </trkpt>
      <trkpt lat="43.5977" lon="5.61155">
        <ele>735.763</ele>
        <time>2014-05-18T12:40:17Z</time>
      </trkpt>
      <trkpt lat="43.59758" lon="5.61101">
        <ele>719.463</ele>
        <time>2014-05-18T12:41:11Z</time>
      </trkpt>
      <trkpt lat="43.5977" lon="5.61155">
        <ele>716.381</ele>
        <time>2014-05-18T12:41:17Z</time>
      </trkpt>
      <trkpt lat="43.59754" lon="5.61089">
        <ele>713.052</ele>
        <time>2014-05-18T12:41:21Z</time>
      </trkpt>
      <trkpt lat="43.5977" lon="5.61155">
        <ele>709.543</ele>
        <time>2014-05-18T12:41:27Z</time>
      </trkpt>
      <trkpt lat="43.59806" lon="5.61116">
        <ele>708.263</ele>
        <time>2014-05-18T12:41:33Z</time>
      </trkpt>
      <trkpt lat="43.59812" lon="5.61107">
        <ele>705.583</ele>
        <time>2014-05-18T12:41:39Z</time>
      </trkpt>
      <trkpt lat="43.5982" lon="5.61095">
        <ele>704.074</ele>
        <time>2014-05-18T12:41:44Z</time>
      </trkpt>
      <trkpt lat="43.59827" lon="5.61083">
        <ele>703.904</ele>
        <time>2014-05-18T12:41:48Z</time>
      </trkpt>
      <trkpt lat="43.59838" lon="5.61065">
        <ele>703.664</ele>
        <time>2014-05-18T12:41:55Z</time>
      </trkpt>
      <trkpt lat="43.59846" lon="5.61049">
        <ele>702.454</ele>
        <time>2014-05-18T12:42:00Z</time>
      </trkpt>
      <trkpt lat="43.59851" lon="5.61041">
        <ele>701.994</ele>
        <time>2014-05-18T12:42:04Z</time>
      </trkpt>
      <trkpt lat="43.59857" lon="5.61028">
        <ele>699.092</ele>
        <time>2014-05-18T12:42:10Z</time>
      </trkpt>
      <trkpt lat="43.59862" lon="5.61018">
        <ele>696.752</ele>
        <time>2014-05-18T12:42:15Z</time>
      </trkpt>
      <trkpt lat="43.59856" lon="5.61001">
        <ele>693.762</ele>
        <time>2014-05-18T12:42:21Z</time>
      </trkpt>
      <trkpt lat="43.59858" lon="5.61004">
        <ele>691.922</ele>
        <time>2014-05-18T12:42:25Z</time>
      </trkpt>
      <trkpt lat="43.5986" lon="5.61006">
        <ele>688.374</ele>
        <time>2014-05-18T12:42:39Z</time>
      </trkpt>
      <trkpt lat="43.59868" lon="5.61005">
        <ele>683.501</ele>
        <time>2014-05-18T12:42:45Z</time>
      </trkpt>
      <trkpt lat="43.59874" lon="5.60993">
        <ele>678.94</ele>
        <time>2014-05-18T12:42:50Z</time>
      </trkpt>
      <trkpt lat="43.59876" lon="5.60989">
        <ele>677.65</ele>
        <time>2014-05-18T12:42:52Z</time>
      </trkpt>
      <trkpt lat="43.5988" lon="5.60982">
        <ele>675.13</ele>
        <time>2014-05-18T12:42:57Z</time>
      </trkpt>
      <trkpt lat="43.59885" lon="5.60971">
        <ele>670.42</ele>
        <time>2014-05-18T12:43:13Z</time>
      </trkpt>
      <trkpt lat="43.5989" lon="5.6096">
        <ele>667.321</ele>
        <time>2014-05-18T12:43:18Z</time>
      </trkpt>
      <trkpt lat="43.59896" lon="5.60949">
        <ele>665.572</ele>
        <time>2014-05-18T12:43:24Z</time>
      </trkpt>
      <trkpt lat="43.59899" lon="5.60942">
        <ele>662.81</ele>
        <time>2014-05-18T12:43:27Z</time>
      </trkpt>
      <trkpt lat="43.59907" lon="5.60927">
        <ele>659.49</ele>
        <time>2014-05-18T12:43:32Z</time>
      </trkpt>
      <trkpt lat="43.5991" lon="5.6092">
        <ele>657.731</ele>
        <time>2014-05-18T12:43:35Z</time>
      </trkpt>
      <trkpt lat="43.59915" lon="5.60911">
        <ele>655.092</ele>
        <time>2014-05-18T12:43:41Z</time>
      </trkpt>
      <trkpt lat="43.59917" lon="5.60906">
        <ele>654.242</ele>
        <time>2014-05-18T12:43:43Z</time>
      </trkpt>
      <trkpt lat="43.59924" lon="5.60892">
        <ele>651.931</ele>
        <time>2014-05-18T12:43:48Z</time>
      </trkpt>
      <trkpt lat="43.59932" lon="5.60882">
        <ele>649.552</ele>
        <time>2014-05-18T12:43:54Z</time>
      </trkpt>
      <trkpt lat="43.59938" lon="5.60867">
        <ele>646.682</ele>
        <time>2014-05-18T12:44:01Z</time>
      </trkpt>
      <trkpt lat="43.59941" lon="5.60862">
        <ele>646.293</ele>
        <time>2014-05-18T12:44:06Z</time>
      </trkpt>
      <trkpt lat="43.59942" lon="5.60857">
        <ele>646.353</ele>
        <time>2014-05-18T12:44:12Z</time>
      </trkpt>
      <trkpt lat="43.59948" lon="5.60836">
        <ele>646.493</ele>
        <time>2014-05-18T12:44:29Z</time>
      </trkpt>
      <trkpt lat="43.59948" lon="5.60834">
        <ele>645.723</ele>
        <time>2014-05-18T12:44:33Z</time>
      </trkpt>
      <trkpt lat="43.59948" lon="5.60827">
        <ele>645.724</ele>
        <time>2014-05-18T12:44:37Z</time>
      </trkpt>
      <trkpt lat="43.59948" lon="5.60817">
        <ele>645.293</ele>
        <time>2014-05-18T12:44:41Z</time>
      </trkpt>
      <trkpt lat="43.59948" lon="5.60808">
        <ele>644.463</ele>
        <time>2014-05-18T12:44:45Z</time>
      </trkpt>
      <trkpt lat="43.59953" lon="5.60788">
        <ele>643.393</ele>
        <time>2014-05-18T12:44:51Z</time>
      </trkpt>
      <trkpt lat="43.59958" lon="5.6078">
        <ele>642.894</ele>
        <time>2014-05-18T12:44:55Z</time>
      </trkpt>
      <trkpt lat="43.59963" lon="5.60762">
        <ele>641.703</ele>
        <time>2014-05-18T12:45:01Z</time>
      </trkpt>
      <trkpt lat="43.59968" lon="5.60753">
        <ele>640.413</ele>
        <time>2014-05-18T12:45:05Z</time>
      </trkpt>
      <trkpt lat="43.59975" lon="5.60743">
        <ele>639.073</ele>
        <time>2014-05-18T12:45:10Z</time>
      </trkpt>
      <trkpt lat="43.59979" lon="5.60736">
        <ele>638.863</ele>
        <time>2014-05-18T12:45:13Z</time>
      </trkpt>
      <trkpt lat="43.59986" lon="5.60723">
        <ele>639.014</ele>
        <time>2014-05-18T12:45:18Z</time>
      </trkpt>
      <trkpt lat="43.59984" lon="5.60718">
        <ele>638.833</ele>
        <time>2014-05-18T12:45:20Z</time>
      </trkpt>
      <trkpt lat="43.59982" lon="5.60704">
        <ele>637.303</ele>
        <time>2014-05-18T12:45:25Z</time>
      </trkpt>
      <trkpt lat="43.59982" lon="5.60703">
        <ele>636.842</ele>
        <time>2014-05-18T12:45:26Z</time>
      </trkpt>
      <trkpt lat="43.59979" lon="5.60692">
        <ele>635.093</ele>
        <time>2014-05-18T12:45:32Z</time>
      </trkpt>
      <trkpt lat="43.59976" lon="5.60682">
        <ele>632.521</ele>
        <time>2014-05-18T12:45:37Z</time>
      </trkpt>
      <trkpt lat="43.59972" lon="5.6067">
        <ele>630.422</ele>
        <time>2014-05-18T12:45:42Z</time>
      </trkpt>
      <trkpt lat="43.59972" lon="5.60663">
        <ele>629.993</ele>
        <time>2014-05-18T12:45:45Z</time>
      </trkpt>
      <trkpt lat="43.59971" lon="5.60651">
        <ele>627.021</ele>
        <time>2014-05-18T12:45:50Z</time>
      </trkpt>
      <trkpt lat="43.5997" lon="5.60643">
        <ele>625.901</ele>
        <time>2014-05-18T12:45:52Z</time>
      </trkpt>
      <trkpt lat="43.59967" lon="5.60628">
        <ele>622.2</ele>
        <time>2014-05-18T12:45:59Z</time>
      </trkpt>
      <trkpt lat="43.59959" lon="5.60615">
        <ele>618.141</ele>
        <time>2014-05-18T12:46:04Z</time>
      </trkpt>
      <trkpt lat="43.59956" lon="5.60605">
        <ele>615.29</ele>
        <time>2014-05-18T12:46:08Z</time>
      </trkpt>
      <trkpt lat="43.59955" lon="5.60603">
        <ele>614.164</ele>
        <time>2014-05-18T12:46:14Z</time>
      </trkpt>
      <trkpt lat="43.59947" lon="5.60584">
        <ele>610.192</ele>
        <time>2014-05-18T12:46:42Z</time>
      </trkpt>
      <trkpt lat="43.59941" lon="5.60568">
        <ele>607.721</ele>
        <time>2014-05-18T12:46:48Z</time>
      </trkpt>
      <trkpt lat="43.59939" lon="5.60559">
        <ele>605.762</ele>
        <time>2014-05-18T12:46:52Z</time>
      </trkpt>
      <trkpt lat="43.59939" lon="5.60555">
        <ele>603.853</ele>
        <time>2014-05-18T12:46:59Z</time>
      </trkpt>
      <trkpt lat="43.59938" lon="5.6055">
        <ele>602.451</ele>
        <time>2014-05-18T12:47:01Z</time>
      </trkpt>
      <trkpt lat="43.59939" lon="5.60539">
        <ele>598.99</ele>
        <time>2014-05-18T12:47:06Z</time>
      </trkpt>
      <trkpt lat="43.59933" lon="5.60526">
        <ele>596.591</ele>
        <time>2014-05-18T12:47:11Z</time>
      </trkpt>
      <trkpt lat="43.59932" lon="5.60523">
        <ele>596.261</ele>
        <time>2014-05-18T12:47:12Z</time>
      </trkpt>
      <trkpt lat="43.59927" lon="5.605">
        <ele>594.331</ele>
        <time>2014-05-18T12:47:17Z</time>
      </trkpt>
      <trkpt lat="43.59922" lon="5.60483">
        <ele>591.951</ele>
        <time>2014-05-18T12:47:22Z</time>
      </trkpt>
      <trkpt lat="43.59916" lon="5.60471">
        <ele>591.122</ele>
        <time>2014-05-18T12:47:27Z</time>
      </trkpt>
      <trkpt lat="43.59915" lon="5.60469">
        <ele>590.682</ele>
        <time>2014-05-18T12:47:28Z</time>
      </trkpt>
      <trkpt lat="43.59907" lon="5.60456">
        <ele>589.063</ele>
        <time>2014-05-18T12:47:33Z</time>
      </trkpt>
      <trkpt lat="43.59905" lon="5.60446">
        <ele>588.003</ele>
        <time>2014-05-18T12:47:37Z</time>
      </trkpt>
      <trkpt lat="43.59903" lon="5.60443">
        <ele>587.623</ele>
        <time>2014-05-18T12:47:38Z</time>
      </trkpt>
      <trkpt lat="43.59895" lon="5.60435">
        <ele>587.343</ele>
        <time>2014-05-18T12:47:43Z</time>
      </trkpt>
      <trkpt lat="43.59892" lon="5.60421">
        <ele>586.913</ele>
        <time>2014-05-18T12:47:48Z</time>
      </trkpt>
      <trkpt lat="43.5989" lon="5.60418">
        <ele>586.503</ele>
        <time>2014-05-18T12:47:53Z</time>
      </trkpt>
      <trkpt lat="43.59886" lon="5.60409">
        <ele>587.495</ele>
        <time>2014-05-18T12:48:13Z</time>
      </trkpt>
      <trkpt lat="43.59883" lon="5.60398">
        <ele>587.104</ele>
        <time>2014-05-18T12:48:19Z</time>
      </trkpt>
      <trkpt lat="43.59877" lon="5.604">
        <ele>583.792</ele>
        <time>2014-05-18T12:48:27Z</time>
      </trkpt>
      <trkpt lat="43.59872" lon="5.60411">
        <ele>580.788</ele>
        <time>2014-05-18T12:48:32Z</time>
      </trkpt>
      <trkpt lat="43.59868" lon="5.60433">
        <ele>575.838</ele>
        <time>2014-05-18T12:48:38Z</time>
      </trkpt>
      <trkpt lat="43.59866" lon="5.6045">
        <ele>571.998</ele>
        <time>2014-05-18T12:48:42Z</time>
      </trkpt>
      <trkpt lat="43.59864" lon="5.60472">
        <ele>568.469</ele>
        <time>2014-05-18T12:48:47Z</time>
      </trkpt>
      <trkpt lat="43.59863" lon="5.60499">
        <ele>565.057</ele>
        <time>2014-05-18T12:48:52Z</time>
      </trkpt>
      <trkpt lat="43.59858" lon="5.60526">
        <ele>562.7</ele>
        <time>2014-05-18T12:48:57Z</time>
      </trkpt>
      <trkpt lat="43.59855" lon="5.60527">
        <ele>561.61</ele>
        <time>2014-05-18T12:49:01Z</time>
      </trkpt>
      <trkpt lat="43.59851" lon="5.60514">
        <ele>560.26</ele>
        <time>2014-05-18T12:49:06Z</time>
      </trkpt>
      <trkpt lat="43.59837" lon="5.6051">
        <ele>559.721</ele>
        <time>2014-05-18T12:49:52Z</time>
      </trkpt>
      <trkpt lat="43.59833" lon="5.60518">
        <ele>557.369</ele>
        <time>2014-05-18T12:49:54Z</time>
      </trkpt>
      <trkpt lat="43.59824" lon="5.60531">
        <ele>553.879</ele>
        <time>2014-05-18T12:49:58Z</time>
      </trkpt>
      <trkpt lat="43.59809" lon="5.60531">
        <ele>549.928</ele>
        <time>2014-05-18T12:50:03Z</time>
      </trkpt>
      <trkpt lat="43.59801" lon="5.60523">
        <ele>547.527</ele>
        <time>2014-05-18T12:50:05Z</time>
      </trkpt>
      <trkpt lat="43.59776" lon="5.60501">
        <ele>542.059</ele>
        <time>2014-05-18T12:50:11Z</time>
      </trkpt>
      <trkpt lat="43.59774" lon="5.60499">
        <ele>541.249</ele>
        <time>2014-05-18T12:50:12Z</time>
      </trkpt>
      <trkpt lat="43.59762" lon="5.60486">
        <ele>537.658</ele>
        <time>2014-05-18T12:50:16Z</time>
      </trkpt>
      <trkpt lat="43.59744" lon="5.60471">
        <ele>534.64</ele>
        <time>2014-05-18T12:50:21Z</time>
      </trkpt>
      <trkpt lat="43.59729" lon="5.6046">
        <ele>531.198</ele>
        <time>2014-05-18T12:50:26Z</time>
      </trkpt>
      <trkpt lat="43.59717" lon="5.60459">
        <ele>528.95</ele>
        <time>2014-05-18T12:50:30Z</time>
      </trkpt>
      <trkpt lat="43.59715" lon="5.60484">
        <ele>527.02</ele>
        <time>2014-05-18T12:50:35Z</time>
      </trkpt>
      <trkpt lat="43.59714" lon="5.60503">
        <ele>525.71</ele>
        <time>2014-05-18T12:50:38Z</time>
      </trkpt>
      <trkpt lat="43.5971" lon="5.60511">
        <ele>523.72</ele>
        <time>2014-05-18T12:50:42Z</time>
      </trkpt>
      <trkpt lat="43.59706" lon="5.60502">
        <ele>520.969</ele>
        <time>2014-05-18T12:50:46Z</time>
      </trkpt>
      <trkpt lat="43.59705" lon="5.60497">
        <ele>520.489</ele>
        <time>2014-05-18T12:50:47Z</time>
      </trkpt>
      <trkpt lat="43.59695" lon="5.60486">
        <ele>517.699</ele>
        <time>2014-05-18T12:50:53Z</time>
      </trkpt>
      <trkpt lat="43.59685" lon="5.60474">
        <ele>515.279</ele>
        <time>2014-05-18T12:50:57Z</time>
      </trkpt>
      <trkpt lat="43.59672" lon="5.60456">
        <ele>512.708</ele>
        <time>2014-05-18T12:51:01Z</time>
      </trkpt>
      <trkpt lat="43.5966" lon="5.60446">
        <ele>510.069</ele>
        <time>2014-05-18T12:51:05Z</time>
      </trkpt>
      <trkpt lat="43.59653" lon="5.6044">
        <ele>509.6</ele>
        <time>2014-05-18T12:51:07Z</time>
      </trkpt>
      <trkpt lat="43.59644" lon="5.60424">
        <ele>506.77</ele>
        <time>2014-05-18T12:51:12Z</time>
      </trkpt>
      <trkpt lat="43.59631" lon="5.6042">
        <ele>503.919</ele>
        <time>2014-05-18T12:51:16Z</time>
      </trkpt>
      <trkpt lat="43.59621" lon="5.60413">
        <ele>501.938</ele>
        <time>2014-05-18T12:51:19Z</time>
      </trkpt>
      <trkpt lat="43.5961" lon="5.60413">
        <ele>499.619</ele>
        <time>2014-05-18T12:51:22Z</time>
      </trkpt>
      <trkpt lat="43.59605" lon="5.60426">
        <ele>498.29</ele>
        <time>2014-05-18T12:51:25Z</time>
      </trkpt>
      <trkpt lat="43.59599" lon="5.60432">
        <ele>497.29</ele>
        <time>2014-05-18T12:51:28Z</time>
      </trkpt>
      <trkpt lat="43.59595" lon="5.60426">
        <ele>496.891</ele>
        <time>2014-05-18T12:51:31Z</time>
      </trkpt>
      <trkpt lat="43.59595" lon="5.60407">
        <ele>496.531</ele>
        <time>2014-05-18T12:51:35Z</time>
      </trkpt>
      <trkpt lat="43.59604" lon="5.60396">
        <ele>495.891</ele>
        <time>2014-05-18T12:51:38Z</time>
      </trkpt>
      <trkpt lat="43.59619" lon="5.60379">
        <ele>494.831</ele>
        <time>2014-05-18T12:51:42Z</time>
      </trkpt>
      <trkpt lat="43.59633" lon="5.60354">
        <ele>492.631</ele>
        <time>2014-05-18T12:51:46Z</time>
      </trkpt>
      <trkpt lat="43.59639" lon="5.60345">
        <ele>491.051</ele>
        <time>2014-05-18T12:51:48Z</time>
      </trkpt>
      <trkpt lat="43.59657" lon="5.60324">
        <ele>490.252</ele>
        <time>2014-05-18T12:51:52Z</time>
      </trkpt>
      <trkpt lat="43.59678" lon="5.60304">
        <ele>488.742</ele>
        <time>2014-05-18T12:51:56Z</time>
      </trkpt>
      <trkpt lat="43.59691" lon="5.60292">
        <ele>487.012</ele>
        <time>2014-05-18T12:52:00Z</time>
      </trkpt>
      <trkpt lat="43.59697" lon="5.60283">
        <ele>486.382</ele>
        <time>2014-05-18T12:52:02Z</time>
      </trkpt>
      <trkpt lat="43.59705" lon="5.6026">
        <ele>483.11</ele>
        <time>2014-05-18T12:52:06Z</time>
      </trkpt>
      <trkpt lat="43.59701" lon="5.60229">
        <ele>479.62</ele>
        <time>2014-05-18T12:52:10Z</time>
      </trkpt>
      <trkpt lat="43.59697" lon="5.60202">
        <ele>476.97</ele>
        <time>2014-05-18T12:52:13Z</time>
      </trkpt>
      <trkpt lat="43.59697" lon="5.60192">
        <ele>475.239</ele>
        <time>2014-05-18T12:52:15Z</time>
      </trkpt>
      <trkpt lat="43.59701" lon="5.60151">
        <ele>472.53</ele>
        <time>2014-05-18T12:52:21Z</time>
      </trkpt>
      <trkpt lat="43.59703" lon="5.60134">
        <ele>471.79</ele>
        <time>2014-05-18T12:52:23Z</time>
      </trkpt>
      <trkpt lat="43.5971" lon="5.60092">
        <ele>468.508</ele>
        <time>2014-05-18T12:52:28Z</time>
      </trkpt>
      <trkpt lat="43.59717" lon="5.60052">
        <ele>465.86</ele>
        <time>2014-05-18T12:52:33Z</time>
      </trkpt>
      <trkpt lat="43.59717" lon="5.60019">
        <ele>464.58</ele>
        <time>2014-05-18T12:52:37Z</time>
      </trkpt>
      <trkpt lat="43.59715" lon="5.60015">
        <ele>464.15</ele>
        <time>2014-05-18T12:52:38Z</time>
      </trkpt>
      <trkpt lat="43.59711" lon="5.60001">
        <ele>462.781</ele>
        <time>2014-05-18T12:52:43Z</time>
      </trkpt>
      <trkpt lat="43.59711" lon="5.59992">
        <ele>462.421</ele>
        <time>2014-05-18T12:52:47Z</time>
      </trkpt>
      <trkpt lat="43.59711" lon="5.59992">
        <ele>459.341</ele>
        <time>2014-05-18T12:54:48Z</time>
      </trkpt>
      <trkpt lat="43.59714" lon="5.59976">
        <ele>460.841</ele>
        <time>2014-05-18T12:54:52Z</time>
      </trkpt>
      <trkpt lat="43.59719" lon="5.59954">
        <ele>460.921</ele>
        <time>2014-05-18T12:54:56Z</time>
      </trkpt>
      <trkpt lat="43.5973" lon="5.59927">
        <ele>459.881</ele>
        <time>2014-05-18T12:55:01Z</time>
      </trkpt>
      <trkpt lat="43.59741" lon="5.59918">
        <ele>465.035</ele>
        <time>2014-05-18T12:55:04Z</time>
      </trkpt>
      <trkpt lat="43.59754" lon="5.59914">
        <ele>467.414</ele>
        <time>2014-05-18T12:55:07Z</time>
      </trkpt>
      <trkpt lat="43.59777" lon="5.59908">
        <ele>466.623</ele>
        <time>2014-05-18T12:55:11Z</time>
      </trkpt>
      <trkpt lat="43.59807" lon="5.59892">
        <ele>466.09</ele>
        <time>2014-05-18T12:55:16Z</time>
      </trkpt>
      <trkpt lat="43.59813" lon="5.59887">
        <ele>465.54</ele>
        <time>2014-05-18T12:55:17Z</time>
      </trkpt>
      <trkpt lat="43.59832" lon="5.59867">
        <ele>461.449</ele>
        <time>2014-05-18T12:55:21Z</time>
      </trkpt>
      <trkpt lat="43.59853" lon="5.59865">
        <ele>457.328</ele>
        <time>2014-05-18T12:55:25Z</time>
      </trkpt>
      <trkpt lat="43.59889" lon="5.59879">
        <ele>447.926</ele>
        <time>2014-05-18T12:55:31Z</time>
      </trkpt>
      <trkpt lat="43.59921" lon="5.59893">
        <ele>446.948</ele>
        <time>2014-05-18T12:55:36Z</time>
      </trkpt>
      <trkpt lat="43.5994" lon="5.59895">
        <ele>455.415</ele>
        <time>2014-05-18T12:55:40Z</time>
      </trkpt>
      <trkpt lat="43.59944" lon="5.59894">
        <ele>456.545</ele>
        <time>2014-05-18T12:55:41Z</time>
      </trkpt>
      <trkpt lat="43.59953" lon="5.59867">
        <ele>460.986</ele>
        <time>2014-05-18T12:55:46Z</time>
      </trkpt>
      <trkpt lat="43.59954" lon="5.59859">
        <ele>457.754</ele>
        <time>2014-05-18T12:55:48Z</time>
      </trkpt>
      <trkpt lat="43.5997" lon="5.5984">
        <ele>457.744</ele>
        <time>2014-05-18T12:55:53Z</time>
      </trkpt>
      <trkpt lat="43.59987" lon="5.59816">
        <ele>454.541</ele>
        <time>2014-05-18T12:55:58Z</time>
      </trkpt>
      <trkpt lat="43.59994" lon="5.59811">
        <ele>453.69</ele>
        <time>2014-05-18T12:56:00Z</time>
      </trkpt>
      <trkpt lat="43.60017" lon="5.59817">
        <ele>447.138</ele>
        <time>2014-05-18T12:56:05Z</time>
      </trkpt>
      <trkpt lat="43.60031" lon="5.59823">
        <ele>440.555</ele>
        <time>2014-05-18T12:56:08Z</time>
      </trkpt>
      <trkpt lat="43.6005" lon="5.59853">
        <ele>423.441</ele>
        <time>2014-05-18T12:56:14Z</time>
      </trkpt>
      <trkpt lat="43.60054" lon="5.59857">
        <ele>423.491</ele>
        <time>2014-05-18T12:56:15Z</time>
      </trkpt>
      <trkpt lat="43.60068" lon="5.59873">
        <ele>421.23</ele>
        <time>2014-05-18T12:56:19Z</time>
      </trkpt>
      <trkpt lat="43.60085" lon="5.5988">
        <ele>424.36</ele>
        <time>2014-05-18T12:56:23Z</time>
      </trkpt>
      <trkpt lat="43.60094" lon="5.59877">
        <ele>425.021</ele>
        <time>2014-05-18T12:56:25Z</time>
      </trkpt>
      <trkpt lat="43.60116" lon="5.59849">
        <ele>427.454</ele>
        <time>2014-05-18T12:56:30Z</time>
      </trkpt>
      <trkpt lat="43.60124" lon="5.59835">
        <ele>428.464</ele>
        <time>2014-05-18T12:56:32Z</time>
      </trkpt>
      <trkpt lat="43.60132" lon="5.59807">
        <ele>429.094</ele>
        <time>2014-05-18T12:56:36Z</time>
      </trkpt>
      <trkpt lat="43.60128" lon="5.59797">
        <ele>428.283</ele>
        <time>2014-05-18T12:56:39Z</time>
      </trkpt>
      <trkpt lat="43.60126" lon="5.59791">
        <ele>428.794</ele>
        <time>2014-05-18T12:56:42Z</time>
      </trkpt>
      <trkpt lat="43.60131" lon="5.5978">
        <ele>434.107</ele>
        <time>2014-05-18T12:56:46Z</time>
      </trkpt>
      <trkpt lat="43.6014" lon="5.59775">
        <ele>436.488</ele>
        <time>2014-05-18T12:56:48Z</time>
      </trkpt>
      <trkpt lat="43.60157" lon="5.59772">
        <ele>437.167</ele>
        <time>2014-05-18T12:56:52Z</time>
      </trkpt>
      <trkpt lat="43.6017" lon="5.59774">
        <ele>432.974</ele>
        <time>2014-05-18T12:56:55Z</time>
      </trkpt>
      <trkpt lat="43.60187" lon="5.59792">
        <ele>423.148</ele>
        <time>2014-05-18T12:57:00Z</time>
      </trkpt>
      <trkpt lat="43.60198" lon="5.59799">
        <ele>418.368</ele>
        <time>2014-05-18T12:57:03Z</time>
      </trkpt>
      <trkpt lat="43.60224" lon="5.59811">
        <ele>413.877</ele>
        <time>2014-05-18T12:57:09Z</time>
      </trkpt>
      <trkpt lat="43.60231" lon="5.59819">
        <ele>412.788</ele>
        <time>2014-05-18T12:57:11Z</time>
      </trkpt>
      <trkpt lat="43.60242" lon="5.59846">
        <ele>409.858</ele>
        <time>2014-05-18T12:57:16Z</time>
      </trkpt>
      <trkpt lat="43.60242" lon="5.59858">
        <ele>407.639</ele>
        <time>2014-05-18T12:57:18Z</time>
      </trkpt>
      <trkpt lat="43.60248" lon="5.5988">
        <ele>405.079</ele>
        <time>2014-05-18T12:57:22Z</time>
      </trkpt>
      <trkpt lat="43.60265" lon="5.59889">
        <ele>404.43</ele>
        <time>2014-05-18T12:57:26Z</time>
      </trkpt>
      <trkpt lat="43.60273" lon="5.59893">
        <ele>404.58</ele>
        <time>2014-05-18T12:57:28Z</time>
      </trkpt>
      <trkpt lat="43.6029" lon="5.59888">
        <ele>403.43</ele>
        <time>2014-05-18T12:57:32Z</time>
      </trkpt>
      <trkpt lat="43.60305" lon="5.59866">
        <ele>402.741</ele>
        <time>2014-05-18T12:57:36Z</time>
      </trkpt>
      <trkpt lat="43.60333" lon="5.59855">
        <ele>398.519</ele>
        <time>2014-05-18T12:57:43Z</time>
      </trkpt>
      <trkpt lat="43.60357" lon="5.5986">
        <ele>392.278</ele>
        <time>2014-05-18T12:57:49Z</time>
      </trkpt>
      <trkpt lat="43.60375" lon="5.59869">
        <ele>390.51</ele>
        <time>2014-05-18T12:57:53Z</time>
      </trkpt>
      <trkpt lat="43.60406" lon="5.59865">
        <ele>386.529</ele>
        <time>2014-05-18T12:57:59Z</time>
      </trkpt>
      <trkpt lat="43.60418" lon="5.59865">
        <ele>385.83</ele>
        <time>2014-05-18T12:58:01Z</time>
      </trkpt>
      <trkpt lat="43.60437" lon="5.59871">
        <ele>382.04</ele>
        <time>2014-05-18T12:58:05Z</time>
      </trkpt>
      <trkpt lat="43.60446" lon="5.59889">
        <ele>378.79</ele>
        <time>2014-05-18T12:58:09Z</time>
      </trkpt>
      <trkpt lat="43.60446" lon="5.599">
        <ele>379.669</ele>
        <time>2014-05-18T12:58:11Z</time>
      </trkpt>
      <trkpt lat="43.60451" lon="5.5993">
        <ele>380.74</ele>
        <time>2014-05-18T12:58:16Z</time>
      </trkpt>
      <trkpt lat="43.60456" lon="5.59942">
        <ele>380.24</ele>
        <time>2014-05-18T12:58:18Z</time>
      </trkpt>
      <trkpt lat="43.6047" lon="5.59957">
        <ele>381.071</ele>
        <time>2014-05-18T12:58:22Z</time>
      </trkpt>
      <trkpt lat="43.60495" lon="5.59965">
        <ele>380.591</ele>
        <time>2014-05-18T12:58:26Z</time>
      </trkpt>
      <trkpt lat="43.60519" lon="5.59993">
        <ele>381.362</ele>
        <time>2014-05-18T12:58:31Z</time>
      </trkpt>
      <trkpt lat="43.60527" lon="5.60002">
        <ele>382.973</ele>
        <time>2014-05-18T12:58:33Z</time>
      </trkpt>
      <trkpt lat="43.60553" lon="5.60023">
        <ele>378.1</ele>
        <time>2014-05-18T12:58:38Z</time>
      </trkpt>
      <trkpt lat="43.60556" lon="5.60038">
        <ele>376.39</ele>
        <time>2014-05-18T12:58:40Z</time>
      </trkpt>
      <trkpt lat="43.60561" lon="5.60052">
        <ele>375.651</ele>
        <time>2014-05-18T12:58:42Z</time>
      </trkpt>
      <trkpt lat="43.60581" lon="5.6008">
        <ele>372.78</ele>
        <time>2014-05-18T12:58:47Z</time>
      </trkpt>
      <trkpt lat="43.60587" lon="5.60086">
        <ele>372.039</ele>
        <time>2014-05-18T12:58:48Z</time>
      </trkpt>
      <trkpt lat="43.60611" lon="5.60109">
        <ele>371.47</ele>
        <time>2014-05-18T12:58:53Z</time>
      </trkpt>
      <trkpt lat="43.6063" lon="5.60108">
        <ele>374.243</ele>
        <time>2014-05-18T12:58:57Z</time>
      </trkpt>
      <trkpt lat="43.60636" lon="5.60105">
        <ele>374.894</ele>
        <time>2014-05-18T12:58:58Z</time>
      </trkpt>
      <trkpt lat="43.60679" lon="5.60097">
        <ele>374.634</ele>
        <time>2014-05-18T12:59:05Z</time>
      </trkpt>
      <trkpt lat="43.60691" lon="5.60097">
        <ele>374.013</ele>
        <time>2014-05-18T12:59:07Z</time>
      </trkpt>
      <trkpt lat="43.60712" lon="5.601">
        <ele>375.544</ele>
        <time>2014-05-18T12:59:11Z</time>
      </trkpt>
      <trkpt lat="43.60738" lon="5.60109">
        <ele>372.083</ele>
        <time>2014-05-18T12:59:16Z</time>
      </trkpt>
      <trkpt lat="43.60756" lon="5.60102">
        <ele>368.723</ele>
        <time>2014-05-18T12:59:20Z</time>
      </trkpt>
      <trkpt lat="43.60759" lon="5.60098">
        <ele>367.703</ele>
        <time>2014-05-18T12:59:21Z</time>
      </trkpt>
      <trkpt lat="43.60777" lon="5.60071">
        <ele>363.362</ele>
        <time>2014-05-18T12:59:26Z</time>
      </trkpt>
      <trkpt lat="43.608" lon="5.60047">
        <ele>361.091</ele>
        <time>2014-05-18T12:59:31Z</time>
      </trkpt>
      <trkpt lat="43.6081" lon="5.60043">
        <ele>359.571</ele>
        <time>2014-05-18T12:59:33Z</time>
      </trkpt>
      <trkpt lat="43.60861" lon="5.60045">
        <ele>350.299</ele>
        <time>2014-05-18T12:59:42Z</time>
      </trkpt>
      <trkpt lat="43.60893" lon="5.6005">
        <ele>344.949</ele>
        <time>2014-05-18T12:59:47Z</time>
      </trkpt>
      <trkpt lat="43.60913" lon="5.60041">
        <ele>345.372</ele>
        <time>2014-05-18T12:59:51Z</time>
      </trkpt>
      <trkpt lat="43.60914" lon="5.60041">
        <ele>346.052</ele>
        <time>2014-05-18T12:59:52Z</time>
      </trkpt>
      <trkpt lat="43.60953" lon="5.59975">
        <ele>345.935</ele>
        <time>2014-05-18T13:00:01Z</time>
      </trkpt>
      <trkpt lat="43.60957" lon="5.59968">
        <ele>346.565</ele>
        <time>2014-05-18T13:00:02Z</time>
      </trkpt>
      <trkpt lat="43.60981" lon="5.59941">
        <ele>348.206</ele>
        <time>2014-05-18T13:00:07Z</time>
      </trkpt>
      <trkpt lat="43.60991" lon="5.59932">
        <ele>348.025</ele>
        <time>2014-05-18T13:00:09Z</time>
      </trkpt>
      <trkpt lat="43.61005" lon="5.59917">
        <ele>348.876</ele>
        <time>2014-05-18T13:00:12Z</time>
      </trkpt>
      <trkpt lat="43.61012" lon="5.5989">
        <ele>350.537</ele>
        <time>2014-05-18T13:00:16Z</time>
      </trkpt>
      <trkpt lat="43.61006" lon="5.59872">
        <ele>349.277</ele>
        <time>2014-05-18T13:00:19Z</time>
      </trkpt>
      <trkpt lat="43.61007" lon="5.59844">
        <ele>346.133</ele>
        <time>2014-05-18T13:00:23Z</time>
      </trkpt>
      <trkpt lat="43.61021" lon="5.59818">
        <ele>343.073</ele>
        <time>2014-05-18T13:00:27Z</time>
      </trkpt>
      <trkpt lat="43.61032" lon="5.59811">
        <ele>341.693</ele>
        <time>2014-05-18T13:00:29Z</time>
      </trkpt>
      <trkpt lat="43.61053" lon="5.5979">
        <ele>338.872</ele>
        <time>2014-05-18T13:00:34Z</time>
      </trkpt>
      <trkpt lat="43.61057" lon="5.59784">
        <ele>338.382</ele>
        <time>2014-05-18T13:00:35Z</time>
      </trkpt>
      <trkpt lat="43.61069" lon="5.59758">
        <ele>336.422</ele>
        <time>2014-05-18T13:00:39Z</time>
      </trkpt>
      <trkpt lat="43.61071" lon="5.59752">
        <ele>335.563</ele>
        <time>2014-05-18T13:00:43Z</time>
      </trkpt>
      <trkpt lat="43.61076" lon="5.59741">
        <ele>335.835</ele>
        <time>2014-05-18T13:01:02Z</time>
      </trkpt>
      <trkpt lat="43.61088" lon="5.59714">
        <ele>335.735</ele>
        <time>2014-05-18T13:01:09Z</time>
      </trkpt>
      <trkpt lat="43.61094" lon="5.59698">
        <ele>334.264</ele>
        <time>2014-05-18T13:01:12Z</time>
      </trkpt>
      <trkpt lat="43.6111" lon="5.59667">
        <ele>332.484</ele>
        <time>2014-05-18T13:01:17Z</time>
      </trkpt>
      <trkpt lat="43.61115" lon="5.59665">
        <ele>332.093</ele>
        <time>2014-05-18T13:01:18Z</time>
      </trkpt>
      <trkpt lat="43.61136" lon="5.59659">
        <ele>329.752</ele>
        <time>2014-05-18T13:01:22Z</time>
      </trkpt>
      <trkpt lat="43.61161" lon="5.59655">
        <ele>328.652</ele>
        <time>2014-05-18T13:01:26Z</time>
      </trkpt>
      <trkpt lat="43.61173" lon="5.59661">
        <ele>328.332</ele>
        <time>2014-05-18T13:01:28Z</time>
      </trkpt>
      <trkpt lat="43.61194" lon="5.59661">
        <ele>327.703</ele>
        <time>2014-05-18T13:01:32Z</time>
      </trkpt>
      <trkpt lat="43.61199" lon="5.59659">
        <ele>327.293</ele>
        <time>2014-05-18T13:01:33Z</time>
      </trkpt>
      <trkpt lat="43.61246" lon="5.59599">
        <ele>326.303</ele>
        <time>2014-05-18T13:01:44Z</time>
      </trkpt>
      <trkpt lat="43.61255" lon="5.59588">
        <ele>326.624</ele>
        <time>2014-05-18T13:01:46Z</time>
      </trkpt>
      <trkpt lat="43.61275" lon="5.59573">
        <ele>327.935</ele>
        <time>2014-05-18T13:01:50Z</time>
      </trkpt>
      <trkpt lat="43.6128" lon="5.59573">
        <ele>328.005</ele>
        <time>2014-05-18T13:01:51Z</time>
      </trkpt>
      <trkpt lat="43.61294" lon="5.59577">
        <ele>327.915</ele>
        <time>2014-05-18T13:01:54Z</time>
      </trkpt>
      <trkpt lat="43.61309" lon="5.59577">
        <ele>326.323</ele>
        <time>2014-05-18T13:01:57Z</time>
      </trkpt>
      <trkpt lat="43.61343" lon="5.59581">
        <ele>323.792</ele>
        <time>2014-05-18T13:02:02Z</time>
      </trkpt>
      <trkpt lat="43.61395" lon="5.5959">
        <ele>321.062</ele>
        <time>2014-05-18T13:02:09Z</time>
      </trkpt>
      <trkpt lat="43.61453" lon="5.59601">
        <ele>318.082</ele>
        <time>2014-05-18T13:02:16Z</time>
      </trkpt>
      <trkpt lat="43.61477" lon="5.5961">
        <ele>317.252</ele>
        <time>2014-05-18T13:02:19Z</time>
      </trkpt>
      <trkpt lat="43.61525" lon="5.59623">
        <ele>315.623</ele>
        <time>2014-05-18T13:02:25Z</time>
      </trkpt>
      <trkpt lat="43.61557" lon="5.59635">
        <ele>314.483</ele>
        <time>2014-05-18T13:02:29Z</time>
      </trkpt>
      <trkpt lat="43.61597" lon="5.59643">
        <ele>313.063</ele>
        <time>2014-05-18T13:02:34Z</time>
      </trkpt>
      <trkpt lat="43.61629" lon="5.59639">
        <ele>311.633</ele>
        <time>2014-05-18T13:02:38Z</time>
      </trkpt>
      <trkpt lat="43.61636" lon="5.59632">
        <ele>311.673</ele>
        <time>2014-05-18T13:02:39Z</time>
      </trkpt>
      <trkpt lat="43.61648" lon="5.59619">
        <ele>311.103</ele>
        <time>2014-05-18T13:02:41Z</time>
      </trkpt>
      <trkpt lat="43.61677" lon="5.59603">
        <ele>310.183</ele>
        <time>2014-05-18T13:02:45Z</time>
      </trkpt>
      <trkpt lat="43.61764" lon="5.59622">
        <ele>308.664</ele>
        <time>2014-05-18T13:02:56Z</time>
      </trkpt>
      <trkpt lat="43.61793" lon="5.59637">
        <ele>308.104</ele>
        <time>2014-05-18T13:03:00Z</time>
      </trkpt>
      <trkpt lat="43.61824" lon="5.59659">
        <ele>307.464</ele>
        <time>2014-05-18T13:03:05Z</time>
      </trkpt>
      <trkpt lat="43.61837" lon="5.59652">
        <ele>307.164</ele>
        <time>2014-05-18T13:03:07Z</time>
      </trkpt>
      <trkpt lat="43.61884" lon="5.59613">
        <ele>306.164</ele>
        <time>2014-05-18T13:03:15Z</time>
      </trkpt>
      <trkpt lat="43.61921" lon="5.59597">
        <ele>304.524</ele>
        <time>2014-05-18T13:03:20Z</time>
      </trkpt>
      <trkpt lat="43.61929" lon="5.59597">
        <ele>304.194</ele>
        <time>2014-05-18T13:03:21Z</time>
      </trkpt>
      <trkpt lat="43.62001" lon="5.59605">
        <ele>302.425</ele>
        <time>2014-05-18T13:03:30Z</time>
      </trkpt>
      <trkpt lat="43.62057" lon="5.59604">
        <ele>301.465</ele>
        <time>2014-05-18T13:03:37Z</time>
      </trkpt>
      <trkpt lat="43.62065" lon="5.59606">
        <ele>301.204</ele>
        <time>2014-05-18T13:03:38Z</time>
      </trkpt>
      <trkpt lat="43.62095" lon="5.59605">
        <ele>300.404</ele>
        <time>2014-05-18T13:03:42Z</time>
      </trkpt>
      <trkpt lat="43.62109" lon="5.59597">
        <ele>300.225</ele>
        <time>2014-05-18T13:03:44Z</time>
      </trkpt>
      <trkpt lat="43.6215" lon="5.59593">
        <ele>299.385</ele>
        <time>2014-05-18T13:03:49Z</time>
      </trkpt>
      <trkpt lat="43.6218" lon="5.59584">
        <ele>299.086</ele>
        <time>2014-05-18T13:03:53Z</time>
      </trkpt>
      <trkpt lat="43.62209" lon="5.59583">
        <ele>298.195</ele>
        <time>2014-05-18T13:03:57Z</time>
      </trkpt>
      <trkpt lat="43.62217" lon="5.59586">
        <ele>297.824</ele>
        <time>2014-05-18T13:03:58Z</time>
      </trkpt>
      <trkpt lat="43.62274" lon="5.59634">
        <ele>292.902</ele>
        <time>2014-05-18T13:04:06Z</time>
      </trkpt>
      <trkpt lat="43.62321" lon="5.59674">
        <ele>290.523</ele>
        <time>2014-05-18T13:04:12Z</time>
      </trkpt>
      <trkpt lat="43.62361" lon="5.59696">
        <ele>288.584</ele>
        <time>2014-05-18T13:04:17Z</time>
      </trkpt>
      <trkpt lat="43.62394" lon="5.59726">
        <ele>287.146</ele>
        <time>2014-05-18T13:04:22Z</time>
      </trkpt>
      <trkpt lat="43.62422" lon="5.59758">
        <ele>285.695</ele>
        <time>2014-05-18T13:04:27Z</time>
      </trkpt>
      <trkpt lat="43.62449" lon="5.5979">
        <ele>286.788</ele>
        <time>2014-05-18T13:04:33Z</time>
      </trkpt>
      <trkpt lat="43.62465" lon="5.59805">
        <ele>288.539</ele>
        <time>2014-05-18T13:04:37Z</time>
      </trkpt>
      <trkpt lat="43.6249" lon="5.59808">
        <ele>290.298</ele>
        <time>2014-05-18T13:04:43Z</time>
      </trkpt>
      <trkpt lat="43.62523" lon="5.59806">
        <ele>292.909</ele>
        <time>2014-05-18T13:04:51Z</time>
      </trkpt>
      <trkpt lat="43.62561" lon="5.59802">
        <ele>296.049</ele>
        <time>2014-05-18T13:05:01Z</time>
      </trkpt>
      <trkpt lat="43.62584" lon="5.59801">
        <ele>297.528</ele>
        <time>2014-05-18T13:05:07Z</time>
      </trkpt>
      <trkpt lat="43.62612" lon="5.59803">
        <ele>297.867</ele>
        <time>2014-05-18T13:05:15Z</time>
      </trkpt>
      <trkpt lat="43.62635" lon="5.59805">
        <ele>299.058</ele>
        <time>2014-05-18T13:05:22Z</time>
      </trkpt>
      <trkpt lat="43.62662" lon="5.59808">
        <ele>300.638</ele>
        <time>2014-05-18T13:05:29Z</time>
      </trkpt>
      <trkpt lat="43.62682" lon="5.59818">
        <ele>299.127</ele>
        <time>2014-05-18T13:05:34Z</time>
      </trkpt>
      <trkpt lat="43.62686" lon="5.59824">
        <ele>298.337</ele>
        <time>2014-05-18T13:05:35Z</time>
      </trkpt>
      <trkpt lat="43.62699" lon="5.59847">
        <ele>296.056</ele>
        <time>2014-05-18T13:05:39Z</time>
      </trkpt>
      <trkpt lat="43.62716" lon="5.59866">
        <ele>294.655</ele>
        <time>2014-05-18T13:05:43Z</time>
      </trkpt>
      <trkpt lat="43.62728" lon="5.59867">
        <ele>294.596</ele>
        <time>2014-05-18T13:05:45Z</time>
      </trkpt>
      <trkpt lat="43.62762" lon="5.59857">
        <ele>292.745</ele>
        <time>2014-05-18T13:05:50Z</time>
      </trkpt>
      <trkpt lat="43.62786" lon="5.59837">
        <ele>291.436</ele>
        <time>2014-05-18T13:05:54Z</time>
      </trkpt>
      <trkpt lat="43.62791" lon="5.59829">
        <ele>291.105</ele>
        <time>2014-05-18T13:05:55Z</time>
      </trkpt>
      <trkpt lat="43.62813" lon="5.59755">
        <ele>287.955</ele>
        <time>2014-05-18T13:06:02Z</time>
      </trkpt>
      <trkpt lat="43.62822" lon="5.59722">
        <ele>286.205</ele>
        <time>2014-05-18T13:06:05Z</time>
      </trkpt>
      <trkpt lat="43.62843" lon="5.59686">
        <ele>284.615</ele>
        <time>2014-05-18T13:06:09Z</time>
      </trkpt>
      <trkpt lat="43.62868" lon="5.59681">
        <ele>284.006</ele>
        <time>2014-05-18T13:06:12Z</time>
      </trkpt>
      <trkpt lat="43.62936" lon="5.59698">
        <ele>282.716</ele>
        <time>2014-05-18T13:06:20Z</time>
      </trkpt>
      <trkpt lat="43.62997" lon="5.59717">
        <ele>280.125</ele>
        <time>2014-05-18T13:06:27Z</time>
      </trkpt>
      <trkpt lat="43.63025" lon="5.59725">
        <ele>278.585</ele>
        <time>2014-05-18T13:06:30Z</time>
      </trkpt>
      <trkpt lat="43.63069" lon="5.59725">
        <ele>277.317</ele>
        <time>2014-05-18T13:06:35Z</time>
      </trkpt>
      <trkpt lat="43.6309" lon="5.59707">
        <ele>276.026</ele>
        <time>2014-05-18T13:06:38Z</time>
      </trkpt>
      <trkpt lat="43.63151" lon="5.59639">
        <ele>271.936</ele>
        <time>2014-05-18T13:06:47Z</time>
      </trkpt>
      <trkpt lat="43.63194" lon="5.59584">
        <ele>270.038</ele>
        <time>2014-05-18T13:06:54Z</time>
      </trkpt>
      <trkpt lat="43.63249" lon="5.59519">
        <ele>270.41</ele>
        <time>2014-05-18T13:07:04Z</time>
      </trkpt>
      <trkpt lat="43.63279" lon="5.59483">
        <ele>270.14</ele>
        <time>2014-05-18T13:07:10Z</time>
      </trkpt>
      <trkpt lat="43.63303" lon="5.59453">
        <ele>267.778</ele>
        <time>2014-05-18T13:07:15Z</time>
      </trkpt>
      <trkpt lat="43.63334" lon="5.59431">
        <ele>267.538</ele>
        <time>2014-05-18T13:07:20Z</time>
      </trkpt>
      <trkpt lat="43.63391" lon="5.59418">
        <ele>266.349</ele>
        <time>2014-05-18T13:07:29Z</time>
      </trkpt>
      <trkpt lat="43.63455" lon="5.59405">
        <ele>265.489</ele>
        <time>2014-05-18T13:07:39Z</time>
      </trkpt>
      <trkpt lat="43.63513" lon="5.5939">
        <ele>264.908</ele>
        <time>2014-05-18T13:07:48Z</time>
      </trkpt>
      <trkpt lat="43.63553" lon="5.59381">
        <ele>264.278</ele>
        <time>2014-05-18T13:07:54Z</time>
      </trkpt>
      <trkpt lat="43.63616" lon="5.59374">
        <ele>263.198</ele>
        <time>2014-05-18T13:08:03Z</time>
      </trkpt>
      <trkpt lat="43.6367" lon="5.59368">
        <ele>262.167</ele>
        <time>2014-05-18T13:08:11Z</time>
      </trkpt>
      <trkpt lat="43.63722" lon="5.59361">
        <ele>261.078</ele>
        <time>2014-05-18T13:08:18Z</time>
      </trkpt>
      <trkpt lat="43.63787" lon="5.59365">
        <ele>260.059</ele>
        <time>2014-05-18T13:08:27Z</time>
      </trkpt>
      <trkpt lat="43.6384" lon="5.59368">
        <ele>259.769</ele>
        <time>2014-05-18T13:08:35Z</time>
      </trkpt>
      <trkpt lat="43.63872" lon="5.59371">
        <ele>260.04</ele>
        <time>2014-05-18T13:08:40Z</time>
      </trkpt>
      <trkpt lat="43.63915" lon="5.59389">
        <ele>260.599</ele>
        <time>2014-05-18T13:08:47Z</time>
      </trkpt>
      <trkpt lat="43.63956" lon="5.59412">
        <ele>260.149</ele>
        <time>2014-05-18T13:08:54Z</time>
      </trkpt>
      <trkpt lat="43.63986" lon="5.59423">
        <ele>259.298</ele>
        <time>2014-05-18T13:08:59Z</time>
      </trkpt>
      <trkpt lat="43.64054" lon="5.59416">
        <ele>257.829</ele>
        <time>2014-05-18T13:09:09Z</time>
      </trkpt>
      <trkpt lat="43.64112" lon="5.5941">
        <ele>256.998</ele>
        <time>2014-05-18T13:09:17Z</time>
      </trkpt>
      <trkpt lat="43.64148" lon="5.59399">
        <ele>256.958</ele>
        <time>2014-05-18T13:09:22Z</time>
      </trkpt>
      <trkpt lat="43.64189" lon="5.59362">
        <ele>256.49</ele>
        <time>2014-05-18T13:09:28Z</time>
      </trkpt>
      <trkpt lat="43.64234" lon="5.59313">
        <ele>248.366</ele>
        <time>2014-05-18T13:09:34Z</time>
      </trkpt>
      <trkpt lat="43.64273" lon="5.59269">
        <ele>242.996</ele>
        <time>2014-05-18T13:09:39Z</time>
      </trkpt>
      <trkpt lat="43.64301" lon="5.59211">
        <ele>237.915</ele>
        <time>2014-05-18T13:09:44Z</time>
      </trkpt>
      <trkpt lat="43.64306" lon="5.59199">
        <ele>236.635</ele>
        <time>2014-05-18T13:09:45Z</time>
      </trkpt>
      <trkpt lat="43.64335" lon="5.59169">
        <ele>233.266</ele>
        <time>2014-05-18T13:09:49Z</time>
      </trkpt>
      <trkpt lat="43.64343" lon="5.59149">
        <ele>230.765</ele>
        <time>2014-05-18T13:09:52Z</time>
      </trkpt>
      <trkpt lat="43.64344" lon="5.59081">
        <ele>227.288</ele>
        <time>2014-05-18T13:09:58Z</time>
      </trkpt>
      <trkpt lat="43.64338" lon="5.58998">
        <ele>226.36</ele>
        <time>2014-05-18T13:10:05Z</time>
      </trkpt>
      <trkpt lat="43.64336" lon="5.58922">
        <ele>225.89</ele>
        <time>2014-05-18T13:10:12Z</time>
      </trkpt>
      <trkpt lat="43.64336" lon="5.58831">
        <ele>226.38</ele>
        <time>2014-05-18T13:10:21Z</time>
      </trkpt>
      <trkpt lat="43.64332" lon="5.58757">
        <ele>226.029</ele>
        <time>2014-05-18T13:10:29Z</time>
      </trkpt>
      <trkpt lat="43.64319" lon="5.58687">
        <ele>225.378</ele>
        <time>2014-05-18T13:10:37Z</time>
      </trkpt>
      <trkpt lat="43.64303" lon="5.58629">
        <ele>225.12</ele>
        <time>2014-05-18T13:10:44Z</time>
      </trkpt>
      <trkpt lat="43.64286" lon="5.58585">
        <ele>227.331</ele>
        <time>2014-05-18T13:10:51Z</time>
      </trkpt>
      <trkpt lat="43.64271" lon="5.58548">
        <ele>228.059</ele>
        <time>2014-05-18T13:10:59Z</time>
      </trkpt>
      <trkpt lat="43.6427" lon="5.58543">
        <ele>228.279</ele>
        <time>2014-05-18T13:11:04Z</time>
      </trkpt>
      <trkpt lat="43.64257" lon="5.58464">
        <ele>226.168</ele>
        <time>2014-05-18T13:11:15Z</time>
      </trkpt>
      <trkpt lat="43.64244" lon="5.58402">
        <ele>224.879</ele>
        <time>2014-05-18T13:11:23Z</time>
      </trkpt>
      <trkpt lat="43.6423" lon="5.58353">
        <ele>224.228</ele>
        <time>2014-05-18T13:11:30Z</time>
      </trkpt>
      <trkpt lat="43.64207" lon="5.58298">
        <ele>223.788</ele>
        <time>2014-05-18T13:11:39Z</time>
      </trkpt>
      <trkpt lat="43.64179" lon="5.58248">
        <ele>223.018</ele>
        <time>2014-05-18T13:11:48Z</time>
      </trkpt>
      <trkpt lat="43.64143" lon="5.58188">
        <ele>222.338</ele>
        <time>2014-05-18T13:11:59Z</time>
      </trkpt>
      <trkpt lat="43.64125" lon="5.58162">
        <ele>222.268</ele>
        <time>2014-05-18T13:12:04Z</time>
      </trkpt>
      <trkpt lat="43.64102" lon="5.58123">
        <ele>221.708</ele>
        <time>2014-05-18T13:12:11Z</time>
      </trkpt>
      <trkpt lat="43.64081" lon="5.58071">
        <ele>221.838</ele>
        <time>2014-05-18T13:12:19Z</time>
      </trkpt>
      <trkpt lat="43.64063" lon="5.58017">
        <ele>221.546</ele>
        <time>2014-05-18T13:12:27Z</time>
      </trkpt>
      <trkpt lat="43.64044" lon="5.57958">
        <ele>221.577</ele>
        <time>2014-05-18T13:12:36Z</time>
      </trkpt>
      <trkpt lat="43.64033" lon="5.57917">
        <ele>221.467</ele>
        <time>2014-05-18T13:12:43Z</time>
      </trkpt>
      <trkpt lat="43.64025" lon="5.57869">
        <ele>222.517</ele>
        <time>2014-05-18T13:12:52Z</time>
      </trkpt>
      <trkpt lat="43.64006" lon="5.57813">
        <ele>223.017</ele>
        <time>2014-05-18T13:13:02Z</time>
      </trkpt>
      <trkpt lat="43.63995" lon="5.57743">
        <ele>223.176</ele>
        <time>2014-05-18T13:13:12Z</time>
      </trkpt>
      <trkpt lat="43.63981" lon="5.57664">
        <ele>223.367</ele>
        <time>2014-05-18T13:13:23Z</time>
      </trkpt>
      <trkpt lat="43.63966" lon="5.57604">
        <ele>223.176</ele>
        <time>2014-05-18T13:13:32Z</time>
      </trkpt>
      <trkpt lat="43.63944" lon="5.57517">
        <ele>222.835</ele>
        <time>2014-05-18T13:13:45Z</time>
      </trkpt>
      <trkpt lat="43.63929" lon="5.57451">
        <ele>223.386</ele>
        <time>2014-05-18T13:13:55Z</time>
      </trkpt>
      <trkpt lat="43.63915" lon="5.57391">
        <ele>223.596</ele>
        <time>2014-05-18T13:14:04Z</time>
      </trkpt>
      <trkpt lat="43.63898" lon="5.57318">
        <ele>223.556</ele>
        <time>2014-05-18T13:14:15Z</time>
      </trkpt>
      <trkpt lat="43.63879" lon="5.57239">
        <ele>223.935</ele>
        <time>2014-05-18T13:14:27Z</time>
      </trkpt>
      <trkpt lat="43.63869" lon="5.57194">
        <ele>224.085</ele>
        <time>2014-05-18T13:14:34Z</time>
      </trkpt>
      <trkpt lat="43.63859" lon="5.57137">
        <ele>224.205</ele>
        <time>2014-05-18T13:14:43Z</time>
      </trkpt>
      <trkpt lat="43.63858" lon="5.57131">
        <ele>224.095</ele>
        <time>2014-05-18T13:14:44Z</time>
      </trkpt>
      <trkpt lat="43.63853" lon="5.57073">
        <ele>224.265</ele>
        <time>2014-05-18T13:14:53Z</time>
      </trkpt>
      <trkpt lat="43.6385" lon="5.57027">
        <ele>223.544</ele>
        <time>2014-05-18T13:15:00Z</time>
      </trkpt>
      <trkpt lat="43.63848" lon="5.56959">
        <ele>223.695</ele>
        <time>2014-05-18T13:15:10Z</time>
      </trkpt>
      <trkpt lat="43.63847" lon="5.56898">
        <ele>223.494</ele>
        <time>2014-05-18T13:15:19Z</time>
      </trkpt>
      <trkpt lat="43.63845" lon="5.5683">
        <ele>224.034</ele>
        <time>2014-05-18T13:15:29Z</time>
      </trkpt>
      <trkpt lat="43.63841" lon="5.56771">
        <ele>225.344</ele>
        <time>2014-05-18T13:15:38Z</time>
      </trkpt>
      <trkpt lat="43.6384" lon="5.56747">
        <ele>225.743</ele>
        <time>2014-05-18T13:15:42Z</time>
      </trkpt>
      <trkpt lat="43.6384" lon="5.5669">
        <ele>225.694</ele>
        <time>2014-05-18T13:15:50Z</time>
      </trkpt>
      <trkpt lat="43.63839" lon="5.56615">
        <ele>226.094</ele>
        <time>2014-05-18T13:16:00Z</time>
      </trkpt>
      <trkpt lat="43.63837" lon="5.56547">
        <ele>226.744</ele>
        <time>2014-05-18T13:16:10Z</time>
      </trkpt>
      <trkpt lat="43.63835" lon="5.56472">
        <ele>227.404</ele>
        <time>2014-05-18T13:16:21Z</time>
      </trkpt>
      <trkpt lat="43.63833" lon="5.56397">
        <ele>227.823</ele>
        <time>2014-05-18T13:16:32Z</time>
      </trkpt>
      <trkpt lat="43.63831" lon="5.56341">
        <ele>228.143</ele>
        <time>2014-05-18T13:16:40Z</time>
      </trkpt>
      <trkpt lat="43.63829" lon="5.56259">
        <ele>228.523</ele>
        <time>2014-05-18T13:16:52Z</time>
      </trkpt>
      <trkpt lat="43.63828" lon="5.56181">
        <ele>228.793</ele>
        <time>2014-05-18T13:17:03Z</time>
      </trkpt>
      <trkpt lat="43.63827" lon="5.56153">
        <ele>228.823</ele>
        <time>2014-05-18T13:17:07Z</time>
      </trkpt>
      <trkpt lat="43.6382" lon="5.56092">
        <ele>228.613</ele>
        <time>2014-05-18T13:17:16Z</time>
      </trkpt>
      <trkpt lat="43.6381" lon="5.56019">
        <ele>228.243</ele>
        <time>2014-05-18T13:17:26Z</time>
      </trkpt>
      <trkpt lat="43.63799" lon="5.55952">
        <ele>228.352</ele>
        <time>2014-05-18T13:17:35Z</time>
      </trkpt>
      <trkpt lat="43.63789" lon="5.55888">
        <ele>227.832</ele>
        <time>2014-05-18T13:17:44Z</time>
      </trkpt>
      <trkpt lat="43.63779" lon="5.55814">
        <ele>226.761</ele>
        <time>2014-05-18T13:17:54Z</time>
      </trkpt>
      <trkpt lat="43.63776" lon="5.55764">
        <ele>226.232</ele>
        <time>2014-05-18T13:18:01Z</time>
      </trkpt>
      <trkpt lat="43.63778" lon="5.55697">
        <ele>225.872</ele>
        <time>2014-05-18T13:18:11Z</time>
      </trkpt>
      <trkpt lat="43.63789" lon="5.55638">
        <ele>226.242</ele>
        <time>2014-05-18T13:18:20Z</time>
      </trkpt>
      <trkpt lat="43.63807" lon="5.55573">
        <ele>226.761</ele>
        <time>2014-05-18T13:18:30Z</time>
      </trkpt>
      <trkpt lat="43.63828" lon="5.555">
        <ele>227.161</ele>
        <time>2014-05-18T13:18:41Z</time>
      </trkpt>
      <trkpt lat="43.63844" lon="5.55439">
        <ele>227.341</ele>
        <time>2014-05-18T13:18:50Z</time>
      </trkpt>
      <trkpt lat="43.63855" lon="5.55396">
        <ele>227.671</ele>
        <time>2014-05-18T13:18:57Z</time>
      </trkpt>
      <trkpt lat="43.63867" lon="5.55341">
        <ele>228.471</ele>
        <time>2014-05-18T13:19:06Z</time>
      </trkpt>
      <trkpt lat="43.63885" lon="5.55315">
        <ele>229.151</ele>
        <time>2014-05-18T13:19:13Z</time>
      </trkpt>
      <trkpt lat="43.63888" lon="5.55305">
        <ele>229.251</ele>
        <time>2014-05-18T13:19:17Z</time>
      </trkpt>
      <trkpt lat="43.63892" lon="5.55293">
        <ele>228.46</ele>
        <time>2014-05-18T13:19:21Z</time>
      </trkpt>
      <trkpt lat="43.63906" lon="5.55242">
        <ele>228.841</ele>
        <time>2014-05-18T13:19:30Z</time>
      </trkpt>
      <trkpt lat="43.63924" lon="5.55182">
        <ele>228.37</ele>
        <time>2014-05-18T13:19:41Z</time>
      </trkpt>
      <trkpt lat="43.63939" lon="5.5513">
        <ele>228.34</ele>
        <time>2014-05-18T13:19:51Z</time>
      </trkpt>
      <trkpt lat="43.63956" lon="5.55068">
        <ele>228.501</ele>
        <time>2014-05-18T13:20:03Z</time>
      </trkpt>
      <trkpt lat="43.63966" lon="5.55014">
        <ele>227.71</ele>
        <time>2014-05-18T13:20:13Z</time>
      </trkpt>
      <trkpt lat="43.63972" lon="5.54969">
        <ele>227.08</ele>
        <time>2014-05-18T13:20:21Z</time>
      </trkpt>
      <trkpt lat="43.63973" lon="5.54911">
        <ele>226.3</ele>
        <time>2014-05-18T13:20:30Z</time>
      </trkpt>
      <trkpt lat="43.63967" lon="5.54855">
        <ele>226.29</ele>
        <time>2014-05-18T13:20:39Z</time>
      </trkpt>
      <trkpt lat="43.63962" lon="5.548">
        <ele>225.949</ele>
        <time>2014-05-18T13:20:48Z</time>
      </trkpt>
      <trkpt lat="43.63961" lon="5.54782">
        <ele>225.66</ele>
        <time>2014-05-18T13:20:51Z</time>
      </trkpt>
      <trkpt lat="43.63959" lon="5.54758">
        <ele>225.55</ele>
        <time>2014-05-18T13:20:55Z</time>
      </trkpt>
      <trkpt lat="43.6396" lon="5.54711">
        <ele>225.67</ele>
        <time>2014-05-18T13:21:03Z</time>
      </trkpt>
      <trkpt lat="43.63966" lon="5.54659">
        <ele>225.54</ele>
        <time>2014-05-18T13:21:12Z</time>
      </trkpt>
      <trkpt lat="43.6398" lon="5.54603">
        <ele>225.74</ele>
        <time>2014-05-18T13:21:22Z</time>
      </trkpt>
      <trkpt lat="43.64004" lon="5.54544">
        <ele>225.929</ele>
        <time>2014-05-18T13:21:33Z</time>
      </trkpt>
      <trkpt lat="43.64026" lon="5.54502">
        <ele>226.339</ele>
        <time>2014-05-18T13:21:42Z</time>
      </trkpt>
      <trkpt lat="43.64045" lon="5.54452">
        <ele>225.879</ele>
        <time>2014-05-18T13:21:52Z</time>
      </trkpt>
      <trkpt lat="43.64058" lon="5.54405">
        <ele>225.539</ele>
        <time>2014-05-18T13:22:01Z</time>
      </trkpt>
      <trkpt lat="43.64072" lon="5.54359">
        <ele>225.819</ele>
        <time>2014-05-18T13:22:10Z</time>
      </trkpt>
      <trkpt lat="43.64083" lon="5.54309">
        <ele>226.63</ele>
        <time>2014-05-18T13:22:20Z</time>
      </trkpt>
      <trkpt lat="43.64088" lon="5.54292">
        <ele>227.42</ele>
        <time>2014-05-18T13:22:25Z</time>
      </trkpt>
      <trkpt lat="43.64091" lon="5.54281">
        <ele>227.74</ele>
        <time>2014-05-18T13:22:30Z</time>
      </trkpt>
      <trkpt lat="43.64102" lon="5.54238">
        <ele>227.289</ele>
        <time>2014-05-18T13:22:40Z</time>
      </trkpt>
      <trkpt lat="43.64112" lon="5.54196">
        <ele>226.999</ele>
        <time>2014-05-18T13:22:48Z</time>
      </trkpt>
      <trkpt lat="43.64124" lon="5.54143">
        <ele>226.53</ele>
        <time>2014-05-18T13:22:57Z</time>
      </trkpt>
      <trkpt lat="43.64134" lon="5.54098">
        <ele>226.519</ele>
        <time>2014-05-18T13:23:05Z</time>
      </trkpt>
      <trkpt lat="43.64147" lon="5.54043">
        <ele>226.609</ele>
        <time>2014-05-18T13:23:14Z</time>
      </trkpt>
      <trkpt lat="43.64162" lon="5.53988">
        <ele>226.409</ele>
        <time>2014-05-18T13:23:23Z</time>
      </trkpt>
      <trkpt lat="43.64168" lon="5.53941">
        <ele>226.219</ele>
        <time>2014-05-18T13:23:30Z</time>
      </trkpt>
      <trkpt lat="43.64168" lon="5.53887">
        <ele>225.888</ele>
        <time>2014-05-18T13:23:38Z</time>
      </trkpt>
      <trkpt lat="43.64158" lon="5.5382">
        <ele>225.718</ele>
        <time>2014-05-18T13:23:49Z</time>
      </trkpt>
      <trkpt lat="43.64146" lon="5.53775">
        <ele>225.277</ele>
        <time>2014-05-18T13:23:57Z</time>
      </trkpt>
      <trkpt lat="43.64135" lon="5.5374">
        <ele>225.628</ele>
        <time>2014-05-18T13:24:03Z</time>
      </trkpt>
      <trkpt lat="43.64115" lon="5.53674">
        <ele>225.208</ele>
        <time>2014-05-18T13:24:14Z</time>
      </trkpt>
      <trkpt lat="43.641" lon="5.53624">
        <ele>225.238</ele>
        <time>2014-05-18T13:24:23Z</time>
      </trkpt>
      <trkpt lat="43.64083" lon="5.53557">
        <ele>225.057</ele>
        <time>2014-05-18T13:24:35Z</time>
      </trkpt>
      <trkpt lat="43.64074" lon="5.53523">
        <ele>225.287</ele>
        <time>2014-05-18T13:24:41Z</time>
      </trkpt>
      <trkpt lat="43.64065" lon="5.53471">
        <ele>225.367</ele>
        <time>2014-05-18T13:24:50Z</time>
      </trkpt>
      <trkpt lat="43.64057" lon="5.53411">
        <ele>225.677</ele>
        <time>2014-05-18T13:25:00Z</time>
      </trkpt>
      <trkpt lat="43.64052" lon="5.53357">
        <ele>225.957</ele>
        <time>2014-05-18T13:25:09Z</time>
      </trkpt>
      <trkpt lat="43.64048" lon="5.53289">
        <ele>225.617</ele>
        <time>2014-05-18T13:25:20Z</time>
      </trkpt>
      <trkpt lat="43.64046" lon="5.53221">
        <ele>225.187</ele>
        <time>2014-05-18T13:25:31Z</time>
      </trkpt>
      <trkpt lat="43.64046" lon="5.53172">
        <ele>225.007</ele>
        <time>2014-05-18T13:25:39Z</time>
      </trkpt>
      <trkpt lat="43.64048" lon="5.53137">
        <ele>225.486</ele>
        <time>2014-05-18T13:25:45Z</time>
      </trkpt>
      <trkpt lat="43.64045" lon="5.53085">
        <ele>225.726</ele>
        <time>2014-05-18T13:25:54Z</time>
      </trkpt>
      <trkpt lat="43.64044" lon="5.53026">
        <ele>225.676</ele>
        <time>2014-05-18T13:26:04Z</time>
      </trkpt>
      <trkpt lat="43.64044" lon="5.52971">
        <ele>225.626</ele>
        <time>2014-05-18T13:26:13Z</time>
      </trkpt>
      <trkpt lat="43.64051" lon="5.52901">
        <ele>226.607</ele>
        <time>2014-05-18T13:26:25Z</time>
      </trkpt>
      <trkpt lat="43.64053" lon="5.52866">
        <ele>228.568</ele>
        <time>2014-05-18T13:26:32Z</time>
      </trkpt>
      <trkpt lat="43.64056" lon="5.52829">
        <ele>230.417</ele>
        <time>2014-05-18T13:26:40Z</time>
      </trkpt>
      <trkpt lat="43.64057" lon="5.52796">
        <ele>232.417</ele>
        <time>2014-05-18T13:26:49Z</time>
      </trkpt>
      <trkpt lat="43.64057" lon="5.52783">
        <ele>233.226</ele>
        <time>2014-05-18T13:26:54Z</time>
      </trkpt>
      <trkpt lat="43.64054" lon="5.52769">
        <ele>231.745</ele>
        <time>2014-05-18T13:27:35Z</time>
      </trkpt>
      <trkpt lat="43.64065" lon="5.52764">
        <ele>231.272</ele>
        <time>2014-05-18T13:27:40Z</time>
      </trkpt>
      <trkpt lat="43.64094" lon="5.52785">
        <ele>230.444</ele>
        <time>2014-05-18T13:27:45Z</time>
      </trkpt>
      <trkpt lat="43.64096" lon="5.52788">
        <ele>230.104</ele>
        <time>2014-05-18T13:27:48Z</time>
      </trkpt>
      <trkpt lat="43.64106" lon="5.52851">
        <ele>228.004</ele>
        <time>2014-05-18T13:27:55Z</time>
      </trkpt>
      <trkpt lat="43.64108" lon="5.52864">
        <ele>227.454</ele>
        <time>2014-05-18T13:27:57Z</time>
      </trkpt>
      <trkpt lat="43.64112" lon="5.52886">
        <ele>226.534</ele>
        <time>2014-05-18T13:28:01Z</time>
      </trkpt>
      <trkpt lat="43.64127" lon="5.52883">
        <ele>226.665</ele>
        <time>2014-05-18T13:28:04Z</time>
      </trkpt>
      <trkpt lat="43.64122" lon="5.52864">
        <ele>226.615</ele>
        <time>2014-05-18T13:28:08Z</time>
      </trkpt>
      <trkpt lat="43.64125" lon="5.52848">
        <ele>226.925</ele>
        <time>2014-05-18T13:28:26Z</time>
      </trkpt>
      <trkpt lat="43.64126" lon="5.52845">
        <ele>226.875</ele>
        <time>2014-05-18T13:28:27Z</time>
      </trkpt>
      <trkpt lat="43.6413" lon="5.52834">
        <ele>226.725</ele>
        <time>2014-05-18T13:28:30Z</time>
      </trkpt>
      <trkpt lat="43.64142" lon="5.52811">
        <ele>226.745</ele>
        <time>2014-05-18T13:28:36Z</time>
      </trkpt>
      <trkpt lat="43.64172" lon="5.52771">
        <ele>225.985</ele>
        <time>2014-05-18T13:28:47Z</time>
      </trkpt>
      <trkpt lat="43.64195" lon="5.52741">
        <ele>225.506</ele>
        <time>2014-05-18T13:28:55Z</time>
      </trkpt>
      <trkpt lat="43.64209" lon="5.52718">
        <ele>225.426</ele>
        <time>2014-05-18T13:29:01Z</time>
      </trkpt>
      <trkpt lat="43.64225" lon="5.5269">
        <ele>225.165</ele>
        <time>2014-05-18T13:29:08Z</time>
      </trkpt>
      <trkpt lat="43.6424" lon="5.52653">
        <ele>225.096</ele>
        <time>2014-05-18T13:29:17Z</time>
      </trkpt>
      <trkpt lat="43.64252" lon="5.52616">
        <ele>225.105</ele>
        <time>2014-05-18T13:29:25Z</time>
      </trkpt>
      <trkpt lat="43.64259" lon="5.52578">
        <ele>225.206</ele>
        <time>2014-05-18T13:29:33Z</time>
      </trkpt>
      <trkpt lat="43.64263" lon="5.52535">
        <ele>225.235</ele>
        <time>2014-05-18T13:29:42Z</time>
      </trkpt>
      <trkpt lat="43.64263" lon="5.5249">
        <ele>225.225</ele>
        <time>2014-05-18T13:29:51Z</time>
      </trkpt>
      <trkpt lat="43.64261" lon="5.52442">
        <ele>225.446</ele>
        <time>2014-05-18T13:30:01Z</time>
      </trkpt>
      <trkpt lat="43.64259" lon="5.52403">
        <ele>225.626</ele>
        <time>2014-05-18T13:30:10Z</time>
      </trkpt>
      <trkpt lat="43.64259" lon="5.524">
        <ele>225.866</ele>
        <time>2014-05-18T13:30:13Z</time>
      </trkpt>
      <trkpt lat="43.64259" lon="5.52396">
        <ele>226.697</ele>
        <time>2014-05-18T13:30:22Z</time>
      </trkpt>
      <trkpt lat="43.64257" lon="5.52385">
        <ele>227.317</ele>
        <time>2014-05-18T13:30:29Z</time>
      </trkpt>
      <trkpt lat="43.64254" lon="5.52388">
        <ele>227.426</ele>
        <time>2014-05-18T13:30:34Z</time>
      </trkpt>
      <trkpt lat="43.64252" lon="5.52389">
        <ele>227.506</ele>
        <time>2014-05-18T13:30:35Z</time>
      </trkpt>
      <trkpt lat="43.64224" lon="5.52411">
        <ele>227.445</ele>
        <time>2014-05-18T13:30:44Z</time>
      </trkpt>
      <trkpt lat="43.64214" lon="5.52419">
        <ele>227.294</ele>
        <time>2014-05-18T13:30:47Z</time>
      </trkpt>
      <trkpt lat="43.64201" lon="5.5243">
        <ele>226.994</ele>
        <time>2014-05-18T13:30:50Z</time>
      </trkpt>
      <trkpt lat="43.642" lon="5.52364">
        <ele>226.354</ele>
        <time>2014-05-18T13:30:59Z</time>
      </trkpt>
      <trkpt lat="43.64192" lon="5.52311">
        <ele>226.395</ele>
        <time>2014-05-18T13:31:07Z</time>
      </trkpt>
      <trkpt lat="43.64183" lon="5.52248">
        <ele>226.195</ele>
        <time>2014-05-18T13:31:17Z</time>
      </trkpt>
      <trkpt lat="43.64175" lon="5.52187">
        <ele>225.735</ele>
        <time>2014-05-18T13:31:27Z</time>
      </trkpt>
      <trkpt lat="43.64165" lon="5.52119">
        <ele>225.324</ele>
        <time>2014-05-18T13:31:38Z</time>
      </trkpt>
      <trkpt lat="43.64158" lon="5.52057">
        <ele>225.424</ele>
        <time>2014-05-18T13:31:48Z</time>
      </trkpt>
      <trkpt lat="43.64149" lon="5.51991">
        <ele>225.194</ele>
        <time>2014-05-18T13:31:59Z</time>
      </trkpt>
      <trkpt lat="43.64141" lon="5.51936">
        <ele>225.604</ele>
        <time>2014-05-18T13:32:08Z</time>
      </trkpt>
      <trkpt lat="43.64132" lon="5.51869">
        <ele>225.815</ele>
        <time>2014-05-18T13:32:19Z</time>
      </trkpt>
      <trkpt lat="43.64124" lon="5.51815">
        <ele>225.424</ele>
        <time>2014-05-18T13:32:28Z</time>
      </trkpt>
      <trkpt lat="43.6412" lon="5.51785">
        <ele>225.394</ele>
        <time>2014-05-18T13:32:33Z</time>
      </trkpt>
      <trkpt lat="43.64113" lon="5.51739">
        <ele>226.094</ele>
        <time>2014-05-18T13:32:41Z</time>
      </trkpt>
      <trkpt lat="43.64105" lon="5.5168">
        <ele>225.983</ele>
        <time>2014-05-18T13:32:51Z</time>
      </trkpt>
      <trkpt lat="43.64097" lon="5.51618">
        <ele>225.643</ele>
        <time>2014-05-18T13:33:01Z</time>
      </trkpt>
      <trkpt lat="43.64091" lon="5.51574">
        <ele>225.784</ele>
        <time>2014-05-18T13:33:08Z</time>
      </trkpt>
      <trkpt lat="43.64083" lon="5.51514">
        <ele>226.054</ele>
        <time>2014-05-18T13:33:18Z</time>
      </trkpt>
      <trkpt lat="43.64077" lon="5.51472">
        <ele>225.803</ele>
        <time>2014-05-18T13:33:25Z</time>
      </trkpt>
      <trkpt lat="43.64074" lon="5.51455">
        <ele>225.833</ele>
        <time>2014-05-18T13:33:28Z</time>
      </trkpt>
      <trkpt lat="43.6407" lon="5.51385">
        <ele>225.392</ele>
        <time>2014-05-18T13:33:39Z</time>
      </trkpt>
      <trkpt lat="43.64067" lon="5.51349">
        <ele>225.733</ele>
        <time>2014-05-18T13:33:45Z</time>
      </trkpt>
      <trkpt lat="43.64058" lon="5.51324">
        <ele>226.744</ele>
        <time>2014-05-18T13:33:51Z</time>
      </trkpt>
      <trkpt lat="43.64043" lon="5.513">
        <ele>228.244</ele>
        <time>2014-05-18T13:33:58Z</time>
      </trkpt>
      <trkpt lat="43.64021" lon="5.51272">
        <ele>230.604</ele>
        <time>2014-05-18T13:34:08Z</time>
      </trkpt>
      <trkpt lat="43.64004" lon="5.51256">
        <ele>232.334</ele>
        <time>2014-05-18T13:34:16Z</time>
      </trkpt>
      <trkpt lat="43.63984" lon="5.51241">
        <ele>233.043</ele>
        <time>2014-05-18T13:34:24Z</time>
      </trkpt>
      <trkpt lat="43.63958" lon="5.5123">
        <ele>234.544</ele>
        <time>2014-05-18T13:34:34Z</time>
      </trkpt>
      <trkpt lat="43.63932" lon="5.51215">
        <ele>236.483</ele>
        <time>2014-05-18T13:34:44Z</time>
      </trkpt>
      <trkpt lat="43.63909" lon="5.51203">
        <ele>237.983</ele>
        <time>2014-05-18T13:34:53Z</time>
      </trkpt>
      <trkpt lat="43.63875" lon="5.51194">
        <ele>238.612</ele>
        <time>2014-05-18T13:35:04Z</time>
      </trkpt>
      <trkpt lat="43.63841" lon="5.51193">
        <ele>239.923</ele>
        <time>2014-05-18T13:35:15Z</time>
      </trkpt>
      <trkpt lat="43.63809" lon="5.51192">
        <ele>241.393</ele>
        <time>2014-05-18T13:35:25Z</time>
      </trkpt>
      <trkpt lat="43.63803" lon="5.51192">
        <ele>241.743</ele>
        <time>2014-05-18T13:35:27Z</time>
      </trkpt>
      <trkpt lat="43.63795" lon="5.51182">
        <ele>241.912</ele>
        <time>2014-05-18T13:35:31Z</time>
      </trkpt>
      <trkpt lat="43.63795" lon="5.51165">
        <ele>241.862</ele>
        <time>2014-05-18T13:35:35Z</time>
      </trkpt>
      <trkpt lat="43.63783" lon="5.51154">
        <ele>241.15</ele>
        <time>2014-05-18T13:35:39Z</time>
      </trkpt>
      <trkpt lat="43.63779" lon="5.51155">
        <ele>240.95</ele>
        <time>2014-05-18T13:35:40Z</time>
      </trkpt>
      <trkpt lat="43.63741" lon="5.51166">
        <ele>240.992</ele>
        <time>2014-05-18T13:35:47Z</time>
      </trkpt>
      <trkpt lat="43.63708" lon="5.51179">
        <ele>242.913</ele>
        <time>2014-05-18T13:35:53Z</time>
      </trkpt>
      <trkpt lat="43.63688" lon="5.51188">
        <ele>244.764</ele>
        <time>2014-05-18T13:35:58Z</time>
      </trkpt>
      <trkpt lat="43.63671" lon="5.51178">
        <ele>244.103</ele>
        <time>2014-05-18T13:36:03Z</time>
      </trkpt>
      <trkpt lat="43.63661" lon="5.51159">
        <ele>244.873</ele>
        <time>2014-05-18T13:36:09Z</time>
      </trkpt>
      <trkpt lat="43.63653" lon="5.5114">
        <ele>246.864</ele>
        <time>2014-05-18T13:36:15Z</time>
      </trkpt>
      <trkpt lat="43.63651" lon="5.5112">
        <ele>245.971</ele>
        <time>2014-05-18T13:36:20Z</time>
      </trkpt>
      <trkpt lat="43.63657" lon="5.51088">
        <ele>244.18</ele>
        <time>2014-05-18T13:36:26Z</time>
      </trkpt>
      <trkpt lat="43.63659" lon="5.51075">
        <ele>243.61</ele>
        <time>2014-05-18T13:36:28Z</time>
      </trkpt>
      <trkpt lat="43.63662" lon="5.51042">
        <ele>242.41</ele>
        <time>2014-05-18T13:36:33Z</time>
      </trkpt>
      <trkpt lat="43.63669" lon="5.51021">
        <ele>242.15</ele>
        <time>2014-05-18T13:36:36Z</time>
      </trkpt>
      <trkpt lat="43.63683" lon="5.50974">
        <ele>238.758</ele>
        <time>2014-05-18T13:36:42Z</time>
      </trkpt>
      <trkpt lat="43.63679" lon="5.50919">
        <ele>236.309</ele>
        <time>2014-05-18T13:36:47Z</time>
      </trkpt>
      <trkpt lat="43.63659" lon="5.50866">
        <ele>235.331</ele>
        <time>2014-05-18T13:36:53Z</time>
      </trkpt>
      <trkpt lat="43.63654" lon="5.50819">
        <ele>235.811</ele>
        <time>2014-05-18T13:36:59Z</time>
      </trkpt>
      <trkpt lat="43.63654" lon="5.50812">
        <ele>236.011</ele>
        <time>2014-05-18T13:37:00Z</time>
      </trkpt>
      <trkpt lat="43.63656" lon="5.50781">
        <ele>237.672</ele>
        <time>2014-05-18T13:37:06Z</time>
      </trkpt>
      <trkpt lat="43.63657" lon="5.50766">
        <ele>237.63</ele>
        <time>2014-05-18T13:37:12Z</time>
      </trkpt>
      <trkpt lat="43.63658" lon="5.5076">
        <ele>236.498</ele>
        <time>2014-05-18T13:37:50Z</time>
      </trkpt>
      <trkpt lat="43.63656" lon="5.5078">
        <ele>235.249</ele>
        <time>2014-05-18T13:37:54Z</time>
      </trkpt>
      <trkpt lat="43.6366" lon="5.50749">
        <ele>234.709</ele>
        <time>2014-05-18T13:37:58Z</time>
      </trkpt>
    </trkseg>
  </trk>
</gpx>